<?xml version="1.0" encoding="UTF-8" standalone="no" ?>
<gpx xmlns="http://www.topografix.com/GPX/1/1" xmlns:xsi="http://www.w3.org/2001/XMLSchema-instance" xsi:schemaLocation="http://www.topografix.com/GPX/1/1 http://www.topografix.com/GPX/1/1/gpx.xsd" version="1.1" creator="VisuGPX - https://www.visugpx.com">
  <metadata>
    <name>2015-11-10 Traversée Rochers de la Bade-Colombier-Roc de Poyez</name>
    <desc><![CDATA[Magnifique traversée d\'arête sauvage en Bauges]]></desc>
  </metadata>
  <trk>
    <name><![CDATA[ytff]]></name>
    <trkseg>
      <trkpt lat="45.61016" lon="6.10742">
        <ele>965</ele>
        <time>2015-11-10T08:53:47Z</time>
      </trkpt>
      <trkpt lat="45.61016" lon="6.1074">
        <ele>965</ele>
        <time>2015-11-10T08:53:52Z</time>
      </trkpt>
      <trkpt lat="45.61017" lon="6.10733">
        <ele>965</ele>
        <time>2015-11-10T08:53:57Z</time>
      </trkpt>
      <trkpt lat="45.6101" lon="6.10702">
        <ele>960.323401744</ele>
        <time>2015-11-10T08:54:07Z</time>
      </trkpt>
      <trkpt lat="45.61005" lon="6.10681">
        <ele>965.102652137</ele>
        <time>2015-11-10T08:54:12Z</time>
      </trkpt>
      <trkpt lat="45.60997" lon="6.10644">
        <ele>968.607149875</ele>
        <time>2015-11-10T08:54:22Z</time>
      </trkpt>
      <trkpt lat="45.61013" lon="6.10639">
        <ele>974.222668386</ele>
        <time>2015-11-10T08:54:37Z</time>
      </trkpt>
      <trkpt lat="45.61018" lon="6.10643">
        <ele>974.222668386</ele>
        <time>2015-11-10T08:54:43Z</time>
      </trkpt>
      <trkpt lat="45.61041" lon="6.10679">
        <ele>979.092763443</ele>
        <time>2015-11-10T08:54:57Z</time>
      </trkpt>
      <trkpt lat="45.61056" lon="6.10701">
        <ele>984.08067032</ele>
        <time>2015-11-10T08:55:10Z</time>
      </trkpt>
      <trkpt lat="45.61057" lon="6.10702">
        <ele>984.08067032</ele>
        <time>2015-11-10T08:55:10Z</time>
      </trkpt>
      <trkpt lat="45.6106" lon="6.10707">
        <ele>984.08067032</ele>
        <time>2015-11-10T08:55:14Z</time>
      </trkpt>
      <trkpt lat="45.61071" lon="6.10723">
        <ele>988.743883544</ele>
        <time>2015-11-10T08:55:24Z</time>
      </trkpt>
      <trkpt lat="45.61094" lon="6.10742">
        <ele>993.472010929</ele>
        <time>2015-11-10T08:55:42Z</time>
      </trkpt>
      <trkpt lat="45.61094" lon="6.10742">
        <ele>993.472010929</ele>
        <time>2015-11-10T08:55:42Z</time>
      </trkpt>
      <trkpt lat="45.61118" lon="6.10766">
        <ele>998.118040362</ele>
        <time>2015-11-10T08:55:59Z</time>
      </trkpt>
      <trkpt lat="45.61142" lon="6.10788">
        <ele>1001.451876859</ele>
        <time>2015-11-10T08:56:12Z</time>
      </trkpt>
      <trkpt lat="45.61143" lon="6.1079">
        <ele>1001.451876859</ele>
        <time>2015-11-10T08:56:13Z</time>
      </trkpt>
      <trkpt lat="45.61159" lon="6.10817">
        <ele>1004.900488297</ele>
        <time>2015-11-10T08:56:27Z</time>
      </trkpt>
      <trkpt lat="45.61172" lon="6.10828">
        <ele>1007.296007234</ele>
        <time>2015-11-10T08:56:37Z</time>
      </trkpt>
      <trkpt lat="45.6118" lon="6.10834">
        <ele>1009.42811717</ele>
        <time>2015-11-10T08:56:48Z</time>
      </trkpt>
      <trkpt lat="45.61179" lon="6.10835">
        <ele>1009.42811717</ele>
        <time>2015-11-10T08:56:52Z</time>
      </trkpt>
      <trkpt lat="45.61179" lon="6.10834">
        <ele>1009.42811717</ele>
        <time>2015-11-10T08:57:02Z</time>
      </trkpt>
      <trkpt lat="45.61179" lon="6.10834">
        <ele>1009.42811717</ele>
        <time>2015-11-10T08:57:07Z</time>
      </trkpt>
      <trkpt lat="45.61186" lon="6.10837">
        <ele>1009.42811717</ele>
        <time>2015-11-10T08:57:17Z</time>
      </trkpt>
      <trkpt lat="45.61194" lon="6.1084">
        <ele>1011.201243156</ele>
        <time>2015-11-10T08:57:22Z</time>
      </trkpt>
      <trkpt lat="45.61212" lon="6.10854">
        <ele>1012.699792383</ele>
        <time>2015-11-10T08:57:32Z</time>
      </trkpt>
      <trkpt lat="45.61219" lon="6.10867">
        <ele>1013.834870299</ele>
        <time>2015-11-10T08:57:38Z</time>
      </trkpt>
      <trkpt lat="45.61233" lon="6.10888">
        <ele>1014.198901366</ele>
        <time>2015-11-10T08:57:48Z</time>
      </trkpt>
      <trkpt lat="45.61239" lon="6.10895">
        <ele>1014.198901366</ele>
        <time>2015-11-10T08:57:52Z</time>
      </trkpt>
      <trkpt lat="45.61262" lon="6.10928">
        <ele>1015.531044072</ele>
        <time>2015-11-10T08:58:08Z</time>
      </trkpt>
      <trkpt lat="45.6127" lon="6.10935">
        <ele>1015.531044072</ele>
        <time>2015-11-10T08:58:12Z</time>
      </trkpt>
      <trkpt lat="45.61315" lon="6.1098">
        <ele>1016.318629129</ele>
        <time>2015-11-10T08:58:41Z</time>
      </trkpt>
      <trkpt lat="45.61317" lon="6.10981">
        <ele>1016.318629129</ele>
        <time>2015-11-10T08:58:41Z</time>
      </trkpt>
      <trkpt lat="45.61319" lon="6.10983">
        <ele>1016.318629129</ele>
        <time>2015-11-10T08:58:44Z</time>
      </trkpt>
      <trkpt lat="45.61342" lon="6.11">
        <ele>1018.529971572</ele>
        <time>2015-11-10T08:58:58Z</time>
      </trkpt>
      <trkpt lat="45.61345" lon="6.11">
        <ele>1018.529971572</ele>
        <time>2015-11-10T08:58:59Z</time>
      </trkpt>
      <trkpt lat="45.61365" lon="6.11007">
        <ele>1020.313669584</ele>
        <time>2015-11-10T08:59:12Z</time>
      </trkpt>
      <trkpt lat="45.61432" lon="6.11084">
        <ele>1023.553840842</ele>
        <time>2015-11-10T09:00:09Z</time>
      </trkpt>
      <trkpt lat="45.61432" lon="6.11084">
        <ele>1023.553840842</ele>
        <time>2015-11-10T09:00:12Z</time>
      </trkpt>
      <trkpt lat="45.61431" lon="6.11084">
        <ele>1023.553840842</ele>
        <time>2015-11-10T09:00:23Z</time>
      </trkpt>
      <trkpt lat="45.61432" lon="6.11085">
        <ele>1023.553840842</ele>
        <time>2015-11-10T09:00:27Z</time>
      </trkpt>
      <trkpt lat="45.61432" lon="6.11085">
        <ele>1023.553840842</ele>
        <time>2015-11-10T09:00:37Z</time>
      </trkpt>
      <trkpt lat="45.61432" lon="6.11085">
        <ele>1023.553840842</ele>
        <time>2015-11-10T09:00:42Z</time>
      </trkpt>
      <trkpt lat="45.61432" lon="6.11085">
        <ele>1023.553840842</ele>
        <time>2015-11-10T09:00:52Z</time>
      </trkpt>
      <trkpt lat="45.61432" lon="6.11085">
        <ele>1023.553840842</ele>
        <time>2015-11-10T09:00:57Z</time>
      </trkpt>
      <trkpt lat="45.61432" lon="6.11085">
        <ele>1023.553840842</ele>
        <time>2015-11-10T09:01:07Z</time>
      </trkpt>
      <trkpt lat="45.61432" lon="6.11085">
        <ele>1023.553840842</ele>
        <time>2015-11-10T09:01:12Z</time>
      </trkpt>
      <trkpt lat="45.61432" lon="6.11085">
        <ele>1023.553840842</ele>
        <time>2015-11-10T09:01:22Z</time>
      </trkpt>
      <trkpt lat="45.61432" lon="6.11085">
        <ele>1023.553840842</ele>
        <time>2015-11-10T09:01:28Z</time>
      </trkpt>
      <trkpt lat="45.61432" lon="6.11084">
        <ele>1023.553840842</ele>
        <time>2015-11-10T09:01:37Z</time>
      </trkpt>
      <trkpt lat="45.61433" lon="6.11085">
        <ele>1023.553840842</ele>
        <time>2015-11-10T09:01:42Z</time>
      </trkpt>
      <trkpt lat="45.6145" lon="6.11089">
        <ele>1027.038364399</ele>
        <time>2015-11-10T09:01:52Z</time>
      </trkpt>
      <trkpt lat="45.61461" lon="6.1109">
        <ele>1030.149582107</ele>
        <time>2015-11-10T09:01:57Z</time>
      </trkpt>
      <trkpt lat="45.61484" lon="6.11094">
        <ele>1033.219546186</ele>
        <time>2015-11-10T09:02:07Z</time>
      </trkpt>
      <trkpt lat="45.61493" lon="6.11095">
        <ele>1035.963782705</ele>
        <time>2015-11-10T09:02:13Z</time>
      </trkpt>
      <trkpt lat="45.61503" lon="6.11103">
        <ele>1038.271262622</ele>
        <time>2015-11-10T09:02:17Z</time>
      </trkpt>
      <trkpt lat="45.61522" lon="6.11106">
        <ele>1040.18203836</ele>
        <time>2015-11-10T09:02:27Z</time>
      </trkpt>
      <trkpt lat="45.61527" lon="6.11107">
        <ele>1040.18203836</ele>
        <time>2015-11-10T09:02:32Z</time>
      </trkpt>
      <trkpt lat="45.61533" lon="6.111">
        <ele>1041.870034321</ele>
        <time>2015-11-10T09:02:37Z</time>
      </trkpt>
      <trkpt lat="45.61533" lon="6.11089">
        <ele>1041.870034321</ele>
        <time>2015-11-10T09:02:42Z</time>
      </trkpt>
      <trkpt lat="45.61509" lon="6.11067">
        <ele>1044.048852407</ele>
        <time>2015-11-10T09:02:58Z</time>
      </trkpt>
      <trkpt lat="45.61504" lon="6.11064">
        <ele>1044.048852407</ele>
        <time>2015-11-10T09:02:59Z</time>
      </trkpt>
      <trkpt lat="45.61492" lon="6.1105">
        <ele>1045.424720823</ele>
        <time>2015-11-10T09:03:07Z</time>
      </trkpt>
      <trkpt lat="45.61467" lon="6.11015">
        <ele>1048.555201732</ele>
        <time>2015-11-10T09:03:29Z</time>
      </trkpt>
      <trkpt lat="45.61461" lon="6.11007">
        <ele>1048.555201732</ele>
        <time>2015-11-10T09:03:29Z</time>
      </trkpt>
      <trkpt lat="45.6146" lon="6.11003">
        <ele>1051.228407228</ele>
        <time>2015-11-10T09:03:30Z</time>
      </trkpt>
      <trkpt lat="45.61448" lon="6.10982">
        <ele>1052.640094574</ele>
        <time>2015-11-10T09:03:39Z</time>
      </trkpt>
      <trkpt lat="45.61444" lon="6.10975">
        <ele>1052.640094574</ele>
        <time>2015-11-10T09:03:42Z</time>
      </trkpt>
      <trkpt lat="45.61438" lon="6.10966">
        <ele>1054.407598722</ele>
        <time>2015-11-10T09:03:47Z</time>
      </trkpt>
      <trkpt lat="45.61417" lon="6.1094">
        <ele>1056.650130018</ele>
        <time>2015-11-10T09:04:00Z</time>
      </trkpt>
      <trkpt lat="45.61416" lon="6.10939">
        <ele>1056.650130018</ele>
        <time>2015-11-10T09:04:01Z</time>
      </trkpt>
      <trkpt lat="45.61415" lon="6.10936">
        <ele>1056.650130018</ele>
        <time>2015-11-10T09:04:02Z</time>
      </trkpt>
      <trkpt lat="45.61403" lon="6.10897">
        <ele>1057.93146505</ele>
        <time>2015-11-10T09:04:19Z</time>
      </trkpt>
      <trkpt lat="45.61408" lon="6.10852">
        <ele>1058.878672168</ele>
        <time>2015-11-10T09:04:36Z</time>
      </trkpt>
      <trkpt lat="45.61409" lon="6.10849">
        <ele>1058.878672168</ele>
        <time>2015-11-10T09:04:36Z</time>
      </trkpt>
      <trkpt lat="45.6141" lon="6.10846">
        <ele>1058.878672168</ele>
        <time>2015-11-10T09:04:37Z</time>
      </trkpt>
      <trkpt lat="45.61414" lon="6.10812">
        <ele>1060.801750258</ele>
        <time>2015-11-10T09:04:47Z</time>
      </trkpt>
      <trkpt lat="45.61413" lon="6.10797">
        <ele>1061.925321507</ele>
        <time>2015-11-10T09:04:52Z</time>
      </trkpt>
      <trkpt lat="45.61402" lon="6.10777">
        <ele>1063.604455076</ele>
        <time>2015-11-10T09:05:02Z</time>
      </trkpt>
      <trkpt lat="45.61397" lon="6.10768">
        <ele>1063.604455076</ele>
        <time>2015-11-10T09:05:07Z</time>
      </trkpt>
      <trkpt lat="45.6138" lon="6.10748">
        <ele>1064.793469596</ele>
        <time>2015-11-10T09:05:22Z</time>
      </trkpt>
      <trkpt lat="45.61358" lon="6.10745">
        <ele>1066.26202006</ele>
        <time>2015-11-10T09:05:38Z</time>
      </trkpt>
      <trkpt lat="45.61354" lon="6.10744">
        <ele>1066.26202006</ele>
        <time>2015-11-10T09:05:42Z</time>
      </trkpt>
      <trkpt lat="45.61337" lon="6.10739">
        <ele>1068.590443871</ele>
        <time>2015-11-10T09:05:52Z</time>
      </trkpt>
      <trkpt lat="45.61319" lon="6.10725">
        <ele>1070.54275632</ele>
        <time>2015-11-10T09:06:07Z</time>
      </trkpt>
      <trkpt lat="45.61301" lon="6.1069">
        <ele>1072.742992098</ele>
        <time>2015-11-10T09:06:27Z</time>
      </trkpt>
      <trkpt lat="45.61301" lon="6.10683">
        <ele>1072.742992098</ele>
        <time>2015-11-10T09:06:27Z</time>
      </trkpt>
      <trkpt lat="45.61302" lon="6.10679">
        <ele>1072.742992098</ele>
        <time>2015-11-10T09:06:28Z</time>
      </trkpt>
      <trkpt lat="45.61319" lon="6.1063">
        <ele>1075.626821696</ele>
        <time>2015-11-10T09:06:47Z</time>
      </trkpt>
      <trkpt lat="45.6133" lon="6.10603">
        <ele>1079.148095624</ele>
        <time>2015-11-10T09:07:02Z</time>
      </trkpt>
      <trkpt lat="45.61333" lon="6.106">
        <ele>1079.148095624</ele>
        <time>2015-11-10T09:07:07Z</time>
      </trkpt>
      <trkpt lat="45.61334" lon="6.1059">
        <ele>1082.20638092</ele>
        <time>2015-11-10T09:07:17Z</time>
      </trkpt>
      <trkpt lat="45.61337" lon="6.10578">
        <ele>1082.20638092</ele>
        <time>2015-11-10T09:07:22Z</time>
      </trkpt>
      <trkpt lat="45.61362" lon="6.10536">
        <ele>1085.285496435</ele>
        <time>2015-11-10T09:07:42Z</time>
      </trkpt>
      <trkpt lat="45.61372" lon="6.10532">
        <ele>1088.382675567</ele>
        <time>2015-11-10T09:07:47Z</time>
      </trkpt>
      <trkpt lat="45.61392" lon="6.10527">
        <ele>1091.344317318</ele>
        <time>2015-11-10T09:07:58Z</time>
      </trkpt>
      <trkpt lat="45.61403" lon="6.10528">
        <ele>1094.02908425</ele>
        <time>2015-11-10T09:08:02Z</time>
      </trkpt>
      <trkpt lat="45.61431" lon="6.10521">
        <ele>1096.458837309</ele>
        <time>2015-11-10T09:08:17Z</time>
      </trkpt>
      <trkpt lat="45.61443" lon="6.10521">
        <ele>1098.353502693</ele>
        <time>2015-11-10T09:08:22Z</time>
      </trkpt>
      <trkpt lat="45.61457" lon="6.10527">
        <ele>1099.909367234</ele>
        <time>2015-11-10T09:08:32Z</time>
      </trkpt>
      <trkpt lat="45.61466" lon="6.10536">
        <ele>1101.308107473</ele>
        <time>2015-11-10T09:08:37Z</time>
      </trkpt>
      <trkpt lat="45.61485" lon="6.10549">
        <ele>1102.566918645</ele>
        <time>2015-11-10T09:08:47Z</time>
      </trkpt>
      <trkpt lat="45.61489" lon="6.10555">
        <ele>1102.566918645</ele>
        <time>2015-11-10T09:08:52Z</time>
      </trkpt>
      <trkpt lat="45.61496" lon="6.10566">
        <ele>1103.552220695</ele>
        <time>2015-11-10T09:08:59Z</time>
      </trkpt>
      <trkpt lat="45.61499" lon="6.10575">
        <ele>1103.552220695</ele>
        <time>2015-11-10T09:09:03Z</time>
      </trkpt>
      <trkpt lat="45.61514" lon="6.10674">
        <ele>1105.933946993</ele>
        <time>2015-11-10T09:09:52Z</time>
      </trkpt>
      <trkpt lat="45.61517" lon="6.10681">
        <ele>1105.933946993</ele>
        <time>2015-11-10T09:09:57Z</time>
      </trkpt>
      <trkpt lat="45.61527" lon="6.10697">
        <ele>1107.960347715</ele>
        <time>2015-11-10T09:10:03Z</time>
      </trkpt>
      <trkpt lat="45.61544" lon="6.10721">
        <ele>1109.810931088</ele>
        <time>2015-11-10T09:10:12Z</time>
      </trkpt>
      <trkpt lat="45.6155" lon="6.10731">
        <ele>1111.205939627</ele>
        <time>2015-11-10T09:10:17Z</time>
      </trkpt>
      <trkpt lat="45.61554" lon="6.10739">
        <ele>1111.205939627</ele>
        <time>2015-11-10T09:10:23Z</time>
      </trkpt>
      <trkpt lat="45.61559" lon="6.10746">
        <ele>1112.038133573</ele>
        <time>2015-11-10T09:10:27Z</time>
      </trkpt>
      <trkpt lat="45.61565" lon="6.10764">
        <ele>1112.800482115</ele>
        <time>2015-11-10T09:10:37Z</time>
      </trkpt>
      <trkpt lat="45.61569" lon="6.10768">
        <ele>1112.800482115</ele>
        <time>2015-11-10T09:10:43Z</time>
      </trkpt>
      <trkpt lat="45.61586" lon="6.10763">
        <ele>1112.473618549</ele>
        <time>2015-11-10T09:10:53Z</time>
      </trkpt>
      <trkpt lat="45.61595" lon="6.10763">
        <ele>1112.033592304</ele>
        <time>2015-11-10T09:10:57Z</time>
      </trkpt>
      <trkpt lat="45.61618" lon="6.10744">
        <ele>1111.20411766</ele>
        <time>2015-11-10T09:11:22Z</time>
      </trkpt>
      <trkpt lat="45.61616" lon="6.10748">
        <ele>1111.20411766</ele>
        <time>2015-11-10T09:11:56Z</time>
      </trkpt>
      <trkpt lat="45.61614" lon="6.10749">
        <ele>1111.20411766</ele>
        <time>2015-11-10T09:11:57Z</time>
      </trkpt>
      <trkpt lat="45.6161" lon="6.10735">
        <ele>1113.094382409</ele>
        <time>2015-11-10T09:12:10Z</time>
      </trkpt>
      <trkpt lat="45.6161" lon="6.10736">
        <ele>1113.094382409</ele>
        <time>2015-11-10T09:12:14Z</time>
      </trkpt>
      <trkpt lat="45.61607" lon="6.10735">
        <ele>1113.094382409</ele>
        <time>2015-11-10T09:12:24Z</time>
      </trkpt>
      <trkpt lat="45.61607" lon="6.10723">
        <ele>1114.572085067</ele>
        <time>2015-11-10T09:12:32Z</time>
      </trkpt>
      <trkpt lat="45.61605" lon="6.10689">
        <ele>1116.400442838</ele>
        <time>2015-11-10T09:12:58Z</time>
      </trkpt>
      <trkpt lat="45.61604" lon="6.10676">
        <ele>1118.989706556</ele>
        <time>2015-11-10T09:13:02Z</time>
      </trkpt>
      <trkpt lat="45.61603" lon="6.10669">
        <ele>1118.989706556</ele>
        <time>2015-11-10T09:13:07Z</time>
      </trkpt>
      <trkpt lat="45.61603" lon="6.10663">
        <ele>1121.699214256</ele>
        <time>2015-11-10T09:13:12Z</time>
      </trkpt>
      <trkpt lat="45.61602" lon="6.10663">
        <ele>1121.699214256</ele>
        <time>2015-11-10T09:13:20Z</time>
      </trkpt>
      <trkpt lat="45.61601" lon="6.10659">
        <ele>1121.699214256</ele>
        <time>2015-11-10T09:13:22Z</time>
      </trkpt>
      <trkpt lat="45.61603" lon="6.10621">
        <ele>1124.808764936</ele>
        <time>2015-11-10T09:13:33Z</time>
      </trkpt>
      <trkpt lat="45.61602" lon="6.1061">
        <ele>1124.808764936</ele>
        <time>2015-11-10T09:13:37Z</time>
      </trkpt>
      <trkpt lat="45.61605" lon="6.10574">
        <ele>1126.691872348</ele>
        <time>2015-11-10T09:13:48Z</time>
      </trkpt>
      <trkpt lat="45.61604" lon="6.10557">
        <ele>1128.311586483</ele>
        <time>2015-11-10T09:13:53Z</time>
      </trkpt>
      <trkpt lat="45.61611" lon="6.10515">
        <ele>1129.978596778</ele>
        <time>2015-11-10T09:14:03Z</time>
      </trkpt>
      <trkpt lat="45.61611" lon="6.10503">
        <ele>1129.978596778</ele>
        <time>2015-11-10T09:14:07Z</time>
      </trkpt>
      <trkpt lat="45.61618" lon="6.10485">
        <ele>1131.835065406</ele>
        <time>2015-11-10T09:14:17Z</time>
      </trkpt>
      <trkpt lat="45.61654" lon="6.1042">
        <ele>1135.167229485</ele>
        <time>2015-11-10T09:14:52Z</time>
      </trkpt>
      <trkpt lat="45.61657" lon="6.10419">
        <ele>1135.167229485</ele>
        <time>2015-11-10T09:14:52Z</time>
      </trkpt>
      <trkpt lat="45.61662" lon="6.10414">
        <ele>1135.167229485</ele>
        <time>2015-11-10T09:15:01Z</time>
      </trkpt>
      <trkpt lat="45.61662" lon="6.10415">
        <ele>1138.850680388</ele>
        <time>2015-11-10T09:15:02Z</time>
      </trkpt>
      <trkpt lat="45.61664" lon="6.10393">
        <ele>1142.133390207</ele>
        <time>2015-11-10T09:15:13Z</time>
      </trkpt>
      <trkpt lat="45.61627" lon="6.10325">
        <ele>1144.753345474</ele>
        <time>2015-11-10T09:15:53Z</time>
      </trkpt>
      <trkpt lat="45.61617" lon="6.10289">
        <ele>1147.33499542</ele>
        <time>2015-11-10T09:16:09Z</time>
      </trkpt>
      <trkpt lat="45.61616" lon="6.10287">
        <ele>1147.33499542</ele>
        <time>2015-11-10T09:16:09Z</time>
      </trkpt>
      <trkpt lat="45.61617" lon="6.10282">
        <ele>1147.33499542</ele>
        <time>2015-11-10T09:16:12Z</time>
      </trkpt>
      <trkpt lat="45.61627" lon="6.10255">
        <ele>1149.446981379</ele>
        <time>2015-11-10T09:16:23Z</time>
      </trkpt>
      <trkpt lat="45.61635" lon="6.10251">
        <ele>1149.446981379</ele>
        <time>2015-11-10T09:16:28Z</time>
      </trkpt>
      <trkpt lat="45.61628" lon="6.10232">
        <ele>1150.835268043</ele>
        <time>2015-11-10T09:16:39Z</time>
      </trkpt>
      <trkpt lat="45.6163" lon="6.10228">
        <ele>1150.835268043</ele>
        <time>2015-11-10T09:16:42Z</time>
      </trkpt>
      <trkpt lat="45.61634" lon="6.10215">
        <ele>1151.987350048</ele>
        <time>2015-11-10T09:16:48Z</time>
      </trkpt>
      <trkpt lat="45.61636" lon="6.10203">
        <ele>1151.987350048</ele>
        <time>2015-11-10T09:16:58Z</time>
      </trkpt>
      <trkpt lat="45.61637" lon="6.10201">
        <ele>1152.778684206</ele>
        <time>2015-11-10T09:17:02Z</time>
      </trkpt>
      <trkpt lat="45.61639" lon="6.10193">
        <ele>1152.778684206</ele>
        <time>2015-11-10T09:17:12Z</time>
      </trkpt>
      <trkpt lat="45.61642" lon="6.10178">
        <ele>1154.104086418</ele>
        <time>2015-11-10T09:17:18Z</time>
      </trkpt>
      <trkpt lat="45.61655" lon="6.10149">
        <ele>1156.070240847</ele>
        <time>2015-11-10T09:17:33Z</time>
      </trkpt>
      <trkpt lat="45.61692" lon="6.10093">
        <ele>1160.360275688</ele>
        <time>2015-11-10T09:18:15Z</time>
      </trkpt>
      <trkpt lat="45.61697" lon="6.10078">
        <ele>1164.05736096</ele>
        <time>2015-11-10T09:18:23Z</time>
      </trkpt>
      <trkpt lat="45.61697" lon="6.10074">
        <ele>1164.05736096</ele>
        <time>2015-11-10T09:18:27Z</time>
      </trkpt>
      <trkpt lat="45.61694" lon="6.10059">
        <ele>1167.488441642</ele>
        <time>2015-11-10T09:18:37Z</time>
      </trkpt>
      <trkpt lat="45.61692" lon="6.10053">
        <ele>1167.488441642</ele>
        <time>2015-11-10T09:18:42Z</time>
      </trkpt>
      <trkpt lat="45.6169" lon="6.1004">
        <ele>1170.813020104</ele>
        <time>2015-11-10T09:18:52Z</time>
      </trkpt>
      <trkpt lat="45.61692" lon="6.10031">
        <ele>1170.813020104</ele>
        <time>2015-11-10T09:18:57Z</time>
      </trkpt>
      <trkpt lat="45.61701" lon="6.10012">
        <ele>1174.323436049</ele>
        <time>2015-11-10T09:19:08Z</time>
      </trkpt>
      <trkpt lat="45.61706" lon="6.10002">
        <ele>1174.323436049</ele>
        <time>2015-11-10T09:19:12Z</time>
      </trkpt>
      <trkpt lat="45.61718" lon="6.09996">
        <ele>1178.434321049</ele>
        <time>2015-11-10T09:19:22Z</time>
      </trkpt>
      <trkpt lat="45.61725" lon="6.09996">
        <ele>1178.434321049</ele>
        <time>2015-11-10T09:19:27Z</time>
      </trkpt>
      <trkpt lat="45.61743" lon="6.09979">
        <ele>1184.393628379</ele>
        <time>2015-11-10T09:19:45Z</time>
      </trkpt>
      <trkpt lat="45.61744" lon="6.09977">
        <ele>1184.393628379</ele>
        <time>2015-11-10T09:19:47Z</time>
      </trkpt>
      <trkpt lat="45.61745" lon="6.09976">
        <ele>1184.393628379</ele>
        <time>2015-11-10T09:19:52Z</time>
      </trkpt>
      <trkpt lat="45.61751" lon="6.09977">
        <ele>1184.393628379</ele>
        <time>2015-11-10T09:19:57Z</time>
      </trkpt>
      <trkpt lat="45.61768" lon="6.09966">
        <ele>1190.756282566</ele>
        <time>2015-11-10T09:20:09Z</time>
      </trkpt>
      <trkpt lat="45.61773" lon="6.09963">
        <ele>1190.756282566</ele>
        <time>2015-11-10T09:20:13Z</time>
      </trkpt>
      <trkpt lat="45.61775" lon="6.09934">
        <ele>1196.326455173</ele>
        <time>2015-11-10T09:20:28Z</time>
      </trkpt>
      <trkpt lat="45.6177" lon="6.09882">
        <ele>1201.440939455</ele>
        <time>2015-11-10T09:20:47Z</time>
      </trkpt>
      <trkpt lat="45.61782" lon="6.09804">
        <ele>1206.413227295</ele>
        <time>2015-11-10T09:21:23Z</time>
      </trkpt>
      <trkpt lat="45.6178" lon="6.098">
        <ele>1206.413227295</ele>
        <time>2015-11-10T09:21:27Z</time>
      </trkpt>
      <trkpt lat="45.61784" lon="6.0978">
        <ele>1211.390089197</ele>
        <time>2015-11-10T09:21:37Z</time>
      </trkpt>
      <trkpt lat="45.61786" lon="6.09765">
        <ele>1216.2191779</ele>
        <time>2015-11-10T09:21:42Z</time>
      </trkpt>
      <trkpt lat="45.61778" lon="6.09742">
        <ele>1220.759953995</ele>
        <time>2015-11-10T09:21:52Z</time>
      </trkpt>
      <trkpt lat="45.61778" lon="6.09725">
        <ele>1224.594756851</ele>
        <time>2015-11-10T09:21:57Z</time>
      </trkpt>
      <trkpt lat="45.61772" lon="6.09703">
        <ele>1228.348466899</ele>
        <time>2015-11-10T09:22:08Z</time>
      </trkpt>
      <trkpt lat="45.6177" lon="6.09696">
        <ele>1228.348466899</ele>
        <time>2015-11-10T09:22:12Z</time>
      </trkpt>
      <trkpt lat="45.61769" lon="6.09673">
        <ele>1232.02347345</ele>
        <time>2015-11-10T09:22:22Z</time>
      </trkpt>
      <trkpt lat="45.61769" lon="6.09664">
        <ele>1232.02347345</ele>
        <time>2015-11-10T09:22:28Z</time>
      </trkpt>
      <trkpt lat="45.61769" lon="6.09646">
        <ele>1235.766611763</ele>
        <time>2015-11-10T09:22:38Z</time>
      </trkpt>
      <trkpt lat="45.61768" lon="6.09644">
        <ele>1235.766611763</ele>
        <time>2015-11-10T09:22:42Z</time>
      </trkpt>
      <trkpt lat="45.61766" lon="6.0964">
        <ele>1235.766611763</ele>
        <time>2015-11-10T09:22:47Z</time>
      </trkpt>
      <trkpt lat="45.61766" lon="6.09637">
        <ele>1235.766611763</ele>
        <time>2015-11-10T09:22:55Z</time>
      </trkpt>
      <trkpt lat="45.61765" lon="6.09634">
        <ele>1239.713887146</ele>
        <time>2015-11-10T09:22:57Z</time>
      </trkpt>
      <trkpt lat="45.61759" lon="6.09616">
        <ele>1244.135089048</ele>
        <time>2015-11-10T09:23:10Z</time>
      </trkpt>
      <trkpt lat="45.61759" lon="6.09613">
        <ele>1244.135089048</ele>
        <time>2015-11-10T09:23:12Z</time>
      </trkpt>
      <trkpt lat="45.61755" lon="6.09593">
        <ele>1247.981210818</ele>
        <time>2015-11-10T09:23:25Z</time>
      </trkpt>
      <trkpt lat="45.61741" lon="6.09574">
        <ele>1251.724200149</ele>
        <time>2015-11-10T09:23:37Z</time>
      </trkpt>
      <trkpt lat="45.61736" lon="6.09564">
        <ele>1251.724200149</ele>
        <time>2015-11-10T09:23:43Z</time>
      </trkpt>
      <trkpt lat="45.61736" lon="6.09543">
        <ele>1255.224966446</ele>
        <time>2015-11-10T09:23:52Z</time>
      </trkpt>
      <trkpt lat="45.61735" lon="6.09541">
        <ele>1255.224966446</ele>
        <time>2015-11-10T09:23:58Z</time>
      </trkpt>
      <trkpt lat="45.61735" lon="6.09541">
        <ele>1255.224966446</ele>
        <time>2015-11-10T09:24:12Z</time>
      </trkpt>
      <trkpt lat="45.61739" lon="6.09535">
        <ele>1255.224966446</ele>
        <time>2015-11-10T09:24:17Z</time>
      </trkpt>
      <trkpt lat="45.61746" lon="6.09521">
        <ele>1258.211331264</ele>
        <time>2015-11-10T09:24:27Z</time>
      </trkpt>
      <trkpt lat="45.6175" lon="6.09524">
        <ele>1258.211331264</ele>
        <time>2015-11-10T09:24:32Z</time>
      </trkpt>
      <trkpt lat="45.61754" lon="6.0952">
        <ele>1262.306923684</ele>
        <time>2015-11-10T09:24:42Z</time>
      </trkpt>
      <trkpt lat="45.61756" lon="6.0952">
        <ele>1262.306923684</ele>
        <time>2015-11-10T09:24:47Z</time>
      </trkpt>
      <trkpt lat="45.61764" lon="6.09524">
        <ele>1266.129634042</ele>
        <time>2015-11-10T09:24:57Z</time>
      </trkpt>
      <trkpt lat="45.61766" lon="6.0952">
        <ele>1266.129634042</ele>
        <time>2015-11-10T09:25:02Z</time>
      </trkpt>
      <trkpt lat="45.61784" lon="6.09508">
        <ele>1271.571424164</ele>
        <time>2015-11-10T09:25:29Z</time>
      </trkpt>
      <trkpt lat="45.61814" lon="6.09515">
        <ele>1278.218356212</ele>
        <time>2015-11-10T09:26:03Z</time>
      </trkpt>
      <trkpt lat="45.61817" lon="6.09513">
        <ele>1278.218356212</ele>
        <time>2015-11-10T09:26:07Z</time>
      </trkpt>
      <trkpt lat="45.61831" lon="6.09519">
        <ele>1285.539615906</ele>
        <time>2015-11-10T09:26:19Z</time>
      </trkpt>
      <trkpt lat="45.61835" lon="6.09519">
        <ele>1285.539615906</ele>
        <time>2015-11-10T09:26:22Z</time>
      </trkpt>
      <trkpt lat="45.61845" lon="6.09557">
        <ele>1292.321057666</ele>
        <time>2015-11-10T09:27:00Z</time>
      </trkpt>
      <trkpt lat="45.61844" lon="6.09557">
        <ele>1292.321057666</ele>
        <time>2015-11-10T09:27:02Z</time>
      </trkpt>
      <trkpt lat="45.61854" lon="6.09567">
        <ele>1298.448507206</ele>
        <time>2015-11-10T09:27:12Z</time>
      </trkpt>
      <trkpt lat="45.61855" lon="6.09565">
        <ele>1298.448507206</ele>
        <time>2015-11-10T09:27:17Z</time>
      </trkpt>
      <trkpt lat="45.61861" lon="6.09574">
        <ele>1304.827117131</ele>
        <time>2015-11-10T09:27:28Z</time>
      </trkpt>
      <trkpt lat="45.61867" lon="6.09585">
        <ele>1310.709574368</ele>
        <time>2015-11-10T09:27:32Z</time>
      </trkpt>
      <trkpt lat="45.61867" lon="6.09589">
        <ele>1310.709574368</ele>
        <time>2015-11-10T09:27:42Z</time>
      </trkpt>
      <trkpt lat="45.61866" lon="6.09588">
        <ele>1310.709574368</ele>
        <time>2015-11-10T09:27:47Z</time>
      </trkpt>
      <trkpt lat="45.61871" lon="6.09595">
        <ele>1316.990485132</ele>
        <time>2015-11-10T09:28:02Z</time>
      </trkpt>
      <trkpt lat="45.61873" lon="6.096">
        <ele>1316.990485132</ele>
        <time>2015-11-10T09:28:08Z</time>
      </trkpt>
      <trkpt lat="45.61872" lon="6.09603">
        <ele>1316.990485132</ele>
        <time>2015-11-10T09:28:17Z</time>
      </trkpt>
      <trkpt lat="45.61882" lon="6.09608">
        <ele>1322.624209384</ele>
        <time>2015-11-10T09:28:41Z</time>
      </trkpt>
      <trkpt lat="45.61882" lon="6.09608">
        <ele>1322.624209384</ele>
        <time>2015-11-10T09:28:43Z</time>
      </trkpt>
      <trkpt lat="45.619" lon="6.09625">
        <ele>1328.949917025</ele>
        <time>2015-11-10T09:29:05Z</time>
      </trkpt>
      <trkpt lat="45.61908" lon="6.09626">
        <ele>1328.949917025</ele>
        <time>2015-11-10T09:29:12Z</time>
      </trkpt>
      <trkpt lat="45.61915" lon="6.09635">
        <ele>1335.621340357</ele>
        <time>2015-11-10T09:29:17Z</time>
      </trkpt>
      <trkpt lat="45.61917" lon="6.09636">
        <ele>1335.621340357</ele>
        <time>2015-11-10T09:29:22Z</time>
      </trkpt>
      <trkpt lat="45.6192" lon="6.09634">
        <ele>1335.621340357</ele>
        <time>2015-11-10T09:29:28Z</time>
      </trkpt>
      <trkpt lat="45.61922" lon="6.0964">
        <ele>1342.028699773</ele>
        <time>2015-11-10T09:29:32Z</time>
      </trkpt>
      <trkpt lat="45.61924" lon="6.09642">
        <ele>1342.028699773</ele>
        <time>2015-11-10T09:29:38Z</time>
      </trkpt>
      <trkpt lat="45.61929" lon="6.09645">
        <ele>1342.028699773</ele>
        <time>2015-11-10T09:29:48Z</time>
      </trkpt>
      <trkpt lat="45.61929" lon="6.09644">
        <ele>1342.028699773</ele>
        <time>2015-11-10T09:29:52Z</time>
      </trkpt>
      <trkpt lat="45.61934" lon="6.09645">
        <ele>1349.337379771</ele>
        <time>2015-11-10T09:30:04Z</time>
      </trkpt>
      <trkpt lat="45.61938" lon="6.09648">
        <ele>1349.337379771</ele>
        <time>2015-11-10T09:30:07Z</time>
      </trkpt>
      <trkpt lat="45.6194" lon="6.09655">
        <ele>1356.174913917</ele>
        <time>2015-11-10T09:30:17Z</time>
      </trkpt>
      <trkpt lat="45.61946" lon="6.09661">
        <ele>1356.174913917</ele>
        <time>2015-11-10T09:30:48Z</time>
      </trkpt>
      <trkpt lat="45.61946" lon="6.09663">
        <ele>1356.174913917</ele>
        <time>2015-11-10T09:30:48Z</time>
      </trkpt>
      <trkpt lat="45.61946" lon="6.09664">
        <ele>1356.174913917</ele>
        <time>2015-11-10T09:30:49Z</time>
      </trkpt>
      <trkpt lat="45.61946" lon="6.09664">
        <ele>1363.577061373</ele>
        <time>2015-11-10T09:30:50Z</time>
      </trkpt>
      <trkpt lat="45.61946" lon="6.09665">
        <ele>1363.577061373</ele>
        <time>2015-11-10T09:30:54Z</time>
      </trkpt>
      <trkpt lat="45.61951" lon="6.0967">
        <ele>1363.577061373</ele>
        <time>2015-11-10T09:31:07Z</time>
      </trkpt>
      <trkpt lat="45.6195" lon="6.09671">
        <ele>1363.577061373</ele>
        <time>2015-11-10T09:31:08Z</time>
      </trkpt>
      <trkpt lat="45.6195" lon="6.09671">
        <ele>1363.577061373</ele>
        <time>2015-11-10T09:31:10Z</time>
      </trkpt>
      <trkpt lat="45.6195" lon="6.09672">
        <ele>1363.577061373</ele>
        <time>2015-11-10T09:31:12Z</time>
      </trkpt>
      <trkpt lat="45.61954" lon="6.09681">
        <ele>1370.484575022</ele>
        <time>2015-11-10T09:31:22Z</time>
      </trkpt>
      <trkpt lat="45.61954" lon="6.09684">
        <ele>1370.484575022</ele>
        <time>2015-11-10T09:31:28Z</time>
      </trkpt>
      <trkpt lat="45.61956" lon="6.09686">
        <ele>1370.484575022</ele>
        <time>2015-11-10T09:31:38Z</time>
      </trkpt>
      <trkpt lat="45.61956" lon="6.09686">
        <ele>1370.484575022</ele>
        <time>2015-11-10T09:31:42Z</time>
      </trkpt>
      <trkpt lat="45.61956" lon="6.09686">
        <ele>1370.484575022</ele>
        <time>2015-11-10T09:31:47Z</time>
      </trkpt>
      <trkpt lat="45.61958" lon="6.09691">
        <ele>1370.484575022</ele>
        <time>2015-11-10T09:31:58Z</time>
      </trkpt>
      <trkpt lat="45.61961" lon="6.09695">
        <ele>1377.935250936</ele>
        <time>2015-11-10T09:32:02Z</time>
      </trkpt>
      <trkpt lat="45.61966" lon="6.09697">
        <ele>1377.935250936</ele>
        <time>2015-11-10T09:32:12Z</time>
      </trkpt>
      <trkpt lat="45.61969" lon="6.09701">
        <ele>1385.015923762</ele>
        <time>2015-11-10T09:32:17Z</time>
      </trkpt>
      <trkpt lat="45.61975" lon="6.09712">
        <ele>1390.881813752</ele>
        <time>2015-11-10T09:32:27Z</time>
      </trkpt>
      <trkpt lat="45.61977" lon="6.09716">
        <ele>1390.881813752</ele>
        <time>2015-11-10T09:32:32Z</time>
      </trkpt>
      <trkpt lat="45.61976" lon="6.0972">
        <ele>1390.881813752</ele>
        <time>2015-11-10T09:32:43Z</time>
      </trkpt>
      <trkpt lat="45.61978" lon="6.09727">
        <ele>1397.492011071</ele>
        <time>2015-11-10T09:33:01Z</time>
      </trkpt>
      <trkpt lat="45.61987" lon="6.09738">
        <ele>1404.06584082</ele>
        <time>2015-11-10T09:33:17Z</time>
      </trkpt>
      <trkpt lat="45.61987" lon="6.09737">
        <ele>1404.06584082</ele>
        <time>2015-11-10T09:33:18Z</time>
      </trkpt>
      <trkpt lat="45.61987" lon="6.09737">
        <ele>1404.06584082</ele>
        <time>2015-11-10T09:33:19Z</time>
      </trkpt>
      <trkpt lat="45.61987" lon="6.09742">
        <ele>1404.06584082</ele>
        <time>2015-11-10T09:33:30Z</time>
      </trkpt>
      <trkpt lat="45.61986" lon="6.09743">
        <ele>1404.06584082</ele>
        <time>2015-11-10T09:33:31Z</time>
      </trkpt>
      <trkpt lat="45.61986" lon="6.09743">
        <ele>1404.06584082</ele>
        <time>2015-11-10T09:33:32Z</time>
      </trkpt>
      <trkpt lat="45.61986" lon="6.09746">
        <ele>1404.06584082</ele>
        <time>2015-11-10T09:33:42Z</time>
      </trkpt>
      <trkpt lat="45.61986" lon="6.09747">
        <ele>1404.06584082</ele>
        <time>2015-11-10T09:33:47Z</time>
      </trkpt>
      <trkpt lat="45.61993" lon="6.09751">
        <ele>1411.609694457</ele>
        <time>2015-11-10T09:34:02Z</time>
      </trkpt>
      <trkpt lat="45.61991" lon="6.09753">
        <ele>1411.609694457</ele>
        <time>2015-11-10T09:34:07Z</time>
      </trkpt>
      <trkpt lat="45.61991" lon="6.09755">
        <ele>1411.609694457</ele>
        <time>2015-11-10T09:34:17Z</time>
      </trkpt>
      <trkpt lat="45.61991" lon="6.09756">
        <ele>1411.609694457</ele>
        <time>2015-11-10T09:34:22Z</time>
      </trkpt>
      <trkpt lat="45.61995" lon="6.0976">
        <ele>1419.035988072</ele>
        <time>2015-11-10T09:34:33Z</time>
      </trkpt>
      <trkpt lat="45.61998" lon="6.09762">
        <ele>1419.035988072</ele>
        <time>2015-11-10T09:34:37Z</time>
      </trkpt>
      <trkpt lat="45.62006" lon="6.09764">
        <ele>1426.346409098</ele>
        <time>2015-11-10T09:34:48Z</time>
      </trkpt>
      <trkpt lat="45.62013" lon="6.09769">
        <ele>1426.346409098</ele>
        <time>2015-11-10T09:35:00Z</time>
      </trkpt>
      <trkpt lat="45.62011" lon="6.09769">
        <ele>1433.687217868</ele>
        <time>2015-11-10T09:35:01Z</time>
      </trkpt>
      <trkpt lat="45.62009" lon="6.09781">
        <ele>1433.687217868</ele>
        <time>2015-11-10T09:35:38Z</time>
      </trkpt>
      <trkpt lat="45.62016" lon="6.09787">
        <ele>1440.761760899</ele>
        <time>2015-11-10T09:35:47Z</time>
      </trkpt>
      <trkpt lat="45.62024" lon="6.09795">
        <ele>1449.025553655</ele>
        <time>2015-11-10T09:36:38Z</time>
      </trkpt>
      <trkpt lat="45.62024" lon="6.09795">
        <ele>1449.025553655</ele>
        <time>2015-11-10T09:36:38Z</time>
      </trkpt>
      <trkpt lat="45.62025" lon="6.09796">
        <ele>1449.025553655</ele>
        <time>2015-11-10T09:36:48Z</time>
      </trkpt>
      <trkpt lat="45.62022" lon="6.09798">
        <ele>1449.025553655</ele>
        <time>2015-11-10T09:36:52Z</time>
      </trkpt>
      <trkpt lat="45.62021" lon="6.0981">
        <ele>1457.662398031</ele>
        <time>2015-11-10T09:37:08Z</time>
      </trkpt>
      <trkpt lat="45.62021" lon="6.09814">
        <ele>1457.662398031</ele>
        <time>2015-11-10T09:37:13Z</time>
      </trkpt>
      <trkpt lat="45.62017" lon="6.09821">
        <ele>1464.906461077</ele>
        <time>2015-11-10T09:37:23Z</time>
      </trkpt>
      <trkpt lat="45.62017" lon="6.09823">
        <ele>1464.906461077</ele>
        <time>2015-11-10T09:37:27Z</time>
      </trkpt>
      <trkpt lat="45.62018" lon="6.0983">
        <ele>1464.906461077</ele>
        <time>2015-11-10T09:37:37Z</time>
      </trkpt>
      <trkpt lat="45.62018" lon="6.09832">
        <ele>1464.906461077</ele>
        <time>2015-11-10T09:37:42Z</time>
      </trkpt>
      <trkpt lat="45.6202" lon="6.09841">
        <ele>1472.440434132</ele>
        <time>2015-11-10T09:37:52Z</time>
      </trkpt>
      <trkpt lat="45.6202" lon="6.09844">
        <ele>1472.440434132</ele>
        <time>2015-11-10T09:38:10Z</time>
      </trkpt>
      <trkpt lat="45.62019" lon="6.09844">
        <ele>1472.440434132</ele>
        <time>2015-11-10T09:38:10Z</time>
      </trkpt>
      <trkpt lat="45.6202" lon="6.09844">
        <ele>1472.440434132</ele>
        <time>2015-11-10T09:38:13Z</time>
      </trkpt>
      <trkpt lat="45.6202" lon="6.09845">
        <ele>1472.440434132</ele>
        <time>2015-11-10T09:38:17Z</time>
      </trkpt>
      <trkpt lat="45.62027" lon="6.09864">
        <ele>1480.093468821</ele>
        <time>2015-11-10T09:38:43Z</time>
      </trkpt>
      <trkpt lat="45.62028" lon="6.09866">
        <ele>1480.093468821</ele>
        <time>2015-11-10T09:38:48Z</time>
      </trkpt>
      <trkpt lat="45.62033" lon="6.09871">
        <ele>1480.093468821</ele>
        <time>2015-11-10T09:38:58Z</time>
      </trkpt>
      <trkpt lat="45.62034" lon="6.09873">
        <ele>1487.851306707</ele>
        <time>2015-11-10T09:39:02Z</time>
      </trkpt>
      <trkpt lat="45.62038" lon="6.09881">
        <ele>1487.851306707</ele>
        <time>2015-11-10T09:39:13Z</time>
      </trkpt>
      <trkpt lat="45.6204" lon="6.09883">
        <ele>1494.836007693</ele>
        <time>2015-11-10T09:39:17Z</time>
      </trkpt>
      <trkpt lat="45.62046" lon="6.09891">
        <ele>1494.836007693</ele>
        <time>2015-11-10T09:39:27Z</time>
      </trkpt>
      <trkpt lat="45.62048" lon="6.09896">
        <ele>1501.965922097</ele>
        <time>2015-11-10T09:39:32Z</time>
      </trkpt>
      <trkpt lat="45.62053" lon="6.09902">
        <ele>1501.965922097</ele>
        <time>2015-11-10T09:39:42Z</time>
      </trkpt>
      <trkpt lat="45.62056" lon="6.09901">
        <ele>1508.50650824</ele>
        <time>2015-11-10T09:39:47Z</time>
      </trkpt>
      <trkpt lat="45.62059" lon="6.09911">
        <ele>1508.50650824</ele>
        <time>2015-11-10T09:39:58Z</time>
      </trkpt>
      <trkpt lat="45.62063" lon="6.09914">
        <ele>1515.076102151</ele>
        <time>2015-11-10T09:40:05Z</time>
      </trkpt>
      <trkpt lat="45.62068" lon="6.0992">
        <ele>1515.076102151</ele>
        <time>2015-11-10T09:40:16Z</time>
      </trkpt>
      <trkpt lat="45.62079" lon="6.0994">
        <ele>1521.383066243</ele>
        <time>2015-11-10T09:40:38Z</time>
      </trkpt>
      <trkpt lat="45.62081" lon="6.09944">
        <ele>1521.383066243</ele>
        <time>2015-11-10T09:40:40Z</time>
      </trkpt>
      <trkpt lat="45.62082" lon="6.09945">
        <ele>1521.383066243</ele>
        <time>2015-11-10T09:40:40Z</time>
      </trkpt>
      <trkpt lat="45.62083" lon="6.09944">
        <ele>1521.383066243</ele>
        <time>2015-11-10T09:40:41Z</time>
      </trkpt>
      <trkpt lat="45.62084" lon="6.09944">
        <ele>1521.383066243</ele>
        <time>2015-11-10T09:40:51Z</time>
      </trkpt>
      <trkpt lat="45.62084" lon="6.09944">
        <ele>1521.383066243</ele>
        <time>2015-11-10T09:40:52Z</time>
      </trkpt>
      <trkpt lat="45.62087" lon="6.09945">
        <ele>1527.590473671</ele>
        <time>2015-11-10T09:40:58Z</time>
      </trkpt>
      <trkpt lat="45.62092" lon="6.09948">
        <ele>1527.590473671</ele>
        <time>2015-11-10T09:41:07Z</time>
      </trkpt>
      <trkpt lat="45.62096" lon="6.09956">
        <ele>1532.696974797</ele>
        <time>2015-11-10T09:41:12Z</time>
      </trkpt>
      <trkpt lat="45.62102" lon="6.0996">
        <ele>1532.696974797</ele>
        <time>2015-11-10T09:41:22Z</time>
      </trkpt>
      <trkpt lat="45.62104" lon="6.09963">
        <ele>1537.219182712</ele>
        <time>2015-11-10T09:41:28Z</time>
      </trkpt>
      <trkpt lat="45.6211" lon="6.09973">
        <ele>1541.349318781</ele>
        <time>2015-11-10T09:41:37Z</time>
      </trkpt>
      <trkpt lat="45.62112" lon="6.09975">
        <ele>1541.349318781</ele>
        <time>2015-11-10T09:41:42Z</time>
      </trkpt>
      <trkpt lat="45.62118" lon="6.0998">
        <ele>1541.349318781</ele>
        <time>2015-11-10T09:41:52Z</time>
      </trkpt>
      <trkpt lat="45.62119" lon="6.09981">
        <ele>1545.26670685</ele>
        <time>2015-11-10T09:41:57Z</time>
      </trkpt>
      <trkpt lat="45.62126" lon="6.09991">
        <ele>1549.570530542</ele>
        <time>2015-11-10T09:42:15Z</time>
      </trkpt>
      <trkpt lat="45.62154" lon="6.10007">
        <ele>1554.670829586</ele>
        <time>2015-11-10T09:42:58Z</time>
      </trkpt>
      <trkpt lat="45.62157" lon="6.1002">
        <ele>1559.071868049</ele>
        <time>2015-11-10T09:43:12Z</time>
      </trkpt>
      <trkpt lat="45.6216" lon="6.10024">
        <ele>1559.071868049</ele>
        <time>2015-11-10T09:43:17Z</time>
      </trkpt>
      <trkpt lat="45.62165" lon="6.1003">
        <ele>1563.551472905</ele>
        <time>2015-11-10T09:43:27Z</time>
      </trkpt>
      <trkpt lat="45.62169" lon="6.10035">
        <ele>1563.551472905</ele>
        <time>2015-11-10T09:43:32Z</time>
      </trkpt>
      <trkpt lat="45.62175" lon="6.10037">
        <ele>1568.109555391</ele>
        <time>2015-11-10T09:43:42Z</time>
      </trkpt>
      <trkpt lat="45.6218" lon="6.10039">
        <ele>1568.109555391</ele>
        <time>2015-11-10T09:43:47Z</time>
      </trkpt>
      <trkpt lat="45.62187" lon="6.10048">
        <ele>1572.025243323</ele>
        <time>2015-11-10T09:43:57Z</time>
      </trkpt>
      <trkpt lat="45.62192" lon="6.10053">
        <ele>1572.025243323</ele>
        <time>2015-11-10T09:44:02Z</time>
      </trkpt>
      <trkpt lat="45.62197" lon="6.10058">
        <ele>1575.208845105</ele>
        <time>2015-11-10T09:44:16Z</time>
      </trkpt>
      <trkpt lat="45.62201" lon="6.10064">
        <ele>1575.208845105</ele>
        <time>2015-11-10T09:44:20Z</time>
      </trkpt>
      <trkpt lat="45.62209" lon="6.10065">
        <ele>1577.867486818</ele>
        <time>2015-11-10T09:44:29Z</time>
      </trkpt>
      <trkpt lat="45.62231" lon="6.10088">
        <ele>1581.779712085</ele>
        <time>2015-11-10T09:45:00Z</time>
      </trkpt>
      <trkpt lat="45.62232" lon="6.10091">
        <ele>1581.779712085</ele>
        <time>2015-11-10T09:45:01Z</time>
      </trkpt>
      <trkpt lat="45.62246" lon="6.10107">
        <ele>1585.131119434</ele>
        <time>2015-11-10T09:45:22Z</time>
      </trkpt>
      <trkpt lat="45.62251" lon="6.1012">
        <ele>1589.124294771</ele>
        <time>2015-11-10T09:45:49Z</time>
      </trkpt>
      <trkpt lat="45.62255" lon="6.10122">
        <ele>1589.124294771</ele>
        <time>2015-11-10T09:45:54Z</time>
      </trkpt>
      <trkpt lat="45.62257" lon="6.10127">
        <ele>1589.124294771</ele>
        <time>2015-11-10T09:46:02Z</time>
      </trkpt>
      <trkpt lat="45.62259" lon="6.10131">
        <ele>1593.718663974</ele>
        <time>2015-11-10T09:46:10Z</time>
      </trkpt>
      <trkpt lat="45.62264" lon="6.10138">
        <ele>1593.718663974</ele>
        <time>2015-11-10T09:46:19Z</time>
      </trkpt>
      <trkpt lat="45.62263" lon="6.1014">
        <ele>1593.718663974</ele>
        <time>2015-11-10T09:46:19Z</time>
      </trkpt>
      <trkpt lat="45.62264" lon="6.10139">
        <ele>1593.718663974</ele>
        <time>2015-11-10T09:46:22Z</time>
      </trkpt>
      <trkpt lat="45.62277" lon="6.10155">
        <ele>1598.730703464</ele>
        <time>2015-11-10T09:46:40Z</time>
      </trkpt>
      <trkpt lat="45.62279" lon="6.10154">
        <ele>1598.730703464</ele>
        <time>2015-11-10T09:46:40Z</time>
      </trkpt>
      <trkpt lat="45.62281" lon="6.10152">
        <ele>1598.730703464</ele>
        <time>2015-11-10T09:46:41Z</time>
      </trkpt>
      <trkpt lat="45.62285" lon="6.10159">
        <ele>1603.700838909</ele>
        <time>2015-11-10T09:46:52Z</time>
      </trkpt>
      <trkpt lat="45.62285" lon="6.1016">
        <ele>1603.700838909</ele>
        <time>2015-11-10T09:46:52Z</time>
      </trkpt>
      <trkpt lat="45.62293" lon="6.10163">
        <ele>1608.49145621</ele>
        <time>2015-11-10T09:47:07Z</time>
      </trkpt>
      <trkpt lat="45.62294" lon="6.10166">
        <ele>1608.49145621</ele>
        <time>2015-11-10T09:47:12Z</time>
      </trkpt>
      <trkpt lat="45.62297" lon="6.10169">
        <ele>1608.49145621</ele>
        <time>2015-11-10T09:47:23Z</time>
      </trkpt>
      <trkpt lat="45.62298" lon="6.10173">
        <ele>1613.551858323</ele>
        <time>2015-11-10T09:47:27Z</time>
      </trkpt>
      <trkpt lat="45.62299" lon="6.10181">
        <ele>1613.551858323</ele>
        <time>2015-11-10T09:47:37Z</time>
      </trkpt>
      <trkpt lat="45.62301" lon="6.10186">
        <ele>1618.288665731</ele>
        <time>2015-11-10T09:47:43Z</time>
      </trkpt>
      <trkpt lat="45.62302" lon="6.1019">
        <ele>1618.288665731</ele>
        <time>2015-11-10T09:47:52Z</time>
      </trkpt>
      <trkpt lat="45.62307" lon="6.10191">
        <ele>1618.288665731</ele>
        <time>2015-11-10T09:47:57Z</time>
      </trkpt>
      <trkpt lat="45.62309" lon="6.10191">
        <ele>1623.16163505</ele>
        <time>2015-11-10T09:48:08Z</time>
      </trkpt>
      <trkpt lat="45.62308" lon="6.10191">
        <ele>1623.16163505</ele>
        <time>2015-11-10T09:48:12Z</time>
      </trkpt>
      <trkpt lat="45.62312" lon="6.10192">
        <ele>1623.16163505</ele>
        <time>2015-11-10T09:48:23Z</time>
      </trkpt>
      <trkpt lat="45.62316" lon="6.10194">
        <ele>1623.16163505</ele>
        <time>2015-11-10T09:48:27Z</time>
      </trkpt>
      <trkpt lat="45.62319" lon="6.10197">
        <ele>1628.452117282</ele>
        <time>2015-11-10T09:48:38Z</time>
      </trkpt>
      <trkpt lat="45.62321" lon="6.102">
        <ele>1628.452117282</ele>
        <time>2015-11-10T09:48:42Z</time>
      </trkpt>
      <trkpt lat="45.6233" lon="6.10204">
        <ele>1633.698931778</ele>
        <time>2015-11-10T09:48:57Z</time>
      </trkpt>
      <trkpt lat="45.62339" lon="6.10215">
        <ele>1638.762987499</ele>
        <time>2015-11-10T09:49:12Z</time>
      </trkpt>
      <trkpt lat="45.62341" lon="6.10219">
        <ele>1638.762987499</ele>
        <time>2015-11-10T09:49:17Z</time>
      </trkpt>
      <trkpt lat="45.62348" lon="6.10237">
        <ele>1643.8040162</ele>
        <time>2015-11-10T09:49:42Z</time>
      </trkpt>
      <trkpt lat="45.62348" lon="6.10237">
        <ele>1643.8040162</ele>
        <time>2015-11-10T09:49:43Z</time>
      </trkpt>
      <trkpt lat="45.62348" lon="6.10236">
        <ele>1643.8040162</ele>
        <time>2015-11-10T09:49:58Z</time>
      </trkpt>
      <trkpt lat="45.62358" lon="6.10235">
        <ele>1648.105285896</ele>
        <time>2015-11-10T09:50:12Z</time>
      </trkpt>
      <trkpt lat="45.62359" lon="6.10235">
        <ele>1648.105285896</ele>
        <time>2015-11-10T09:50:14Z</time>
      </trkpt>
      <trkpt lat="45.6236" lon="6.10235">
        <ele>1648.105285896</ele>
        <time>2015-11-10T09:50:17Z</time>
      </trkpt>
      <trkpt lat="45.62361" lon="6.10235">
        <ele>1648.105285896</ele>
        <time>2015-11-10T09:50:35Z</time>
      </trkpt>
      <trkpt lat="45.62363" lon="6.10233">
        <ele>1648.105285896</ele>
        <time>2015-11-10T09:50:36Z</time>
      </trkpt>
      <trkpt lat="45.62364" lon="6.10231">
        <ele>1648.105285896</ele>
        <time>2015-11-10T09:50:37Z</time>
      </trkpt>
      <trkpt lat="45.6238" lon="6.10241">
        <ele>1653.022222508</ele>
        <time>2015-11-10T09:50:59Z</time>
      </trkpt>
      <trkpt lat="45.6238" lon="6.1025">
        <ele>1653.022222508</ele>
        <time>2015-11-10T09:51:07Z</time>
      </trkpt>
      <trkpt lat="45.62381" lon="6.10251">
        <ele>1653.022222508</ele>
        <time>2015-11-10T09:51:12Z</time>
      </trkpt>
      <trkpt lat="45.62395" lon="6.10254">
        <ele>1658.655944325</ele>
        <time>2015-11-10T09:51:27Z</time>
      </trkpt>
      <trkpt lat="45.62396" lon="6.10255">
        <ele>1658.655944325</ele>
        <time>2015-11-10T09:51:38Z</time>
      </trkpt>
      <trkpt lat="45.62396" lon="6.10254">
        <ele>1658.655944325</ele>
        <time>2015-11-10T09:51:43Z</time>
      </trkpt>
      <trkpt lat="45.624" lon="6.10258">
        <ele>1658.655944325</ele>
        <time>2015-11-10T09:51:57Z</time>
      </trkpt>
      <trkpt lat="45.62402" lon="6.10257">
        <ele>1658.655944325</ele>
        <time>2015-11-10T09:52:02Z</time>
      </trkpt>
      <trkpt lat="45.62408" lon="6.10258">
        <ele>1664.665679393</ele>
        <time>2015-11-10T09:52:12Z</time>
      </trkpt>
      <trkpt lat="45.62411" lon="6.10262">
        <ele>1664.665679393</ele>
        <time>2015-11-10T09:52:17Z</time>
      </trkpt>
      <trkpt lat="45.62414" lon="6.10266">
        <ele>1664.665679393</ele>
        <time>2015-11-10T09:52:28Z</time>
      </trkpt>
      <trkpt lat="45.62416" lon="6.10267">
        <ele>1670.878634224</ele>
        <time>2015-11-10T09:52:32Z</time>
      </trkpt>
      <trkpt lat="45.62424" lon="6.10273">
        <ele>1676.557591913</ele>
        <time>2015-11-10T09:52:42Z</time>
      </trkpt>
      <trkpt lat="45.62426" lon="6.10275">
        <ele>1676.557591913</ele>
        <time>2015-11-10T09:52:47Z</time>
      </trkpt>
      <trkpt lat="45.62447" lon="6.10292">
        <ele>1682.317898754</ele>
        <time>2015-11-10T09:53:17Z</time>
      </trkpt>
      <trkpt lat="45.62452" lon="6.10299">
        <ele>1682.317898754</ele>
        <time>2015-11-10T09:53:43Z</time>
      </trkpt>
      <trkpt lat="45.62452" lon="6.10299">
        <ele>1682.317898754</ele>
        <time>2015-11-10T09:53:44Z</time>
      </trkpt>
      <trkpt lat="45.62459" lon="6.10306">
        <ele>1688.152943414</ele>
        <time>2015-11-10T09:53:53Z</time>
      </trkpt>
      <trkpt lat="45.62464" lon="6.10308">
        <ele>1688.152943414</ele>
        <time>2015-11-10T09:53:57Z</time>
      </trkpt>
      <trkpt lat="45.62466" lon="6.10317">
        <ele>1693.623983471</ele>
        <time>2015-11-10T09:54:02Z</time>
      </trkpt>
      <trkpt lat="45.62479" lon="6.10333">
        <ele>1698.46957108</ele>
        <time>2015-11-10T09:54:12Z</time>
      </trkpt>
      <trkpt lat="45.62484" lon="6.1034">
        <ele>1698.46957108</ele>
        <time>2015-11-10T09:54:17Z</time>
      </trkpt>
      <trkpt lat="45.6249" lon="6.10356">
        <ele>1702.881488497</ele>
        <time>2015-11-10T09:54:27Z</time>
      </trkpt>
      <trkpt lat="45.62496" lon="6.10361">
        <ele>1702.881488497</ele>
        <time>2015-11-10T09:54:33Z</time>
      </trkpt>
      <trkpt lat="45.62499" lon="6.10375">
        <ele>1707.038582778</ele>
        <time>2015-11-10T09:54:42Z</time>
      </trkpt>
      <trkpt lat="45.62502" lon="6.10382">
        <ele>1707.038582778</ele>
        <time>2015-11-10T09:54:47Z</time>
      </trkpt>
      <trkpt lat="45.62508" lon="6.10397">
        <ele>1710.674877224</ele>
        <time>2015-11-10T09:54:58Z</time>
      </trkpt>
      <trkpt lat="45.62531" lon="6.10421">
        <ele>1713.545320737</ele>
        <time>2015-11-10T09:55:16Z</time>
      </trkpt>
      <trkpt lat="45.6256" lon="6.10449">
        <ele>1716.866042012</ele>
        <time>2015-11-10T09:55:50Z</time>
      </trkpt>
      <trkpt lat="45.62562" lon="6.10451">
        <ele>1716.866042012</ele>
        <time>2015-11-10T09:55:52Z</time>
      </trkpt>
      <trkpt lat="45.62569" lon="6.10459">
        <ele>1720.177253716</ele>
        <time>2015-11-10T09:56:00Z</time>
      </trkpt>
      <trkpt lat="45.62568" lon="6.10459">
        <ele>1720.177253716</ele>
        <time>2015-11-10T09:56:02Z</time>
      </trkpt>
      <trkpt lat="45.62578" lon="6.10483">
        <ele>1723.485201468</ele>
        <time>2015-11-10T09:56:21Z</time>
      </trkpt>
      <trkpt lat="45.62578" lon="6.10483">
        <ele>1723.485201468</ele>
        <time>2015-11-10T09:56:22Z</time>
      </trkpt>
      <trkpt lat="45.62578" lon="6.10482">
        <ele>1723.485201468</ele>
        <time>2015-11-10T09:56:27Z</time>
      </trkpt>
      <trkpt lat="45.62578" lon="6.10481">
        <ele>1723.485201468</ele>
        <time>2015-11-10T09:56:32Z</time>
      </trkpt>
      <trkpt lat="45.62579" lon="6.10482">
        <ele>1723.485201468</ele>
        <time>2015-11-10T09:56:37Z</time>
      </trkpt>
      <trkpt lat="45.62578" lon="6.10482">
        <ele>1723.485201468</ele>
        <time>2015-11-10T09:56:47Z</time>
      </trkpt>
      <trkpt lat="45.62578" lon="6.10482">
        <ele>1723.485201468</ele>
        <time>2015-11-10T09:56:52Z</time>
      </trkpt>
      <trkpt lat="45.62578" lon="6.10482">
        <ele>1723.485201468</ele>
        <time>2015-11-10T09:56:57Z</time>
      </trkpt>
      <trkpt lat="45.6258" lon="6.10483">
        <ele>1723.485201468</ele>
        <time>2015-11-10T09:57:02Z</time>
      </trkpt>
      <trkpt lat="45.6258" lon="6.10483">
        <ele>1723.485201468</ele>
        <time>2015-11-10T09:57:07Z</time>
      </trkpt>
      <trkpt lat="45.6258" lon="6.10483">
        <ele>1723.485201468</ele>
        <time>2015-11-10T09:57:12Z</time>
      </trkpt>
      <trkpt lat="45.62586" lon="6.1048">
        <ele>1726.507345479</ele>
        <time>2015-11-10T09:57:17Z</time>
      </trkpt>
      <trkpt lat="45.62591" lon="6.10478">
        <ele>1726.507345479</ele>
        <time>2015-11-10T09:57:27Z</time>
      </trkpt>
      <trkpt lat="45.62595" lon="6.10484">
        <ele>1729.559026095</ele>
        <time>2015-11-10T09:57:33Z</time>
      </trkpt>
      <trkpt lat="45.62606" lon="6.10493">
        <ele>1731.635203034</ele>
        <time>2015-11-10T09:57:43Z</time>
      </trkpt>
      <trkpt lat="45.62608" lon="6.10496">
        <ele>1731.635203034</ele>
        <time>2015-11-10T09:57:48Z</time>
      </trkpt>
      <trkpt lat="45.62611" lon="6.10509">
        <ele>1734.113040715</ele>
        <time>2015-11-10T09:57:57Z</time>
      </trkpt>
      <trkpt lat="45.62612" lon="6.10511">
        <ele>1734.113040715</ele>
        <time>2015-11-10T09:58:02Z</time>
      </trkpt>
      <trkpt lat="45.62613" lon="6.10511">
        <ele>1734.113040715</ele>
        <time>2015-11-10T09:58:07Z</time>
      </trkpt>
      <trkpt lat="45.62613" lon="6.10511">
        <ele>1734.113040715</ele>
        <time>2015-11-10T09:58:12Z</time>
      </trkpt>
      <trkpt lat="45.62613" lon="6.1051">
        <ele>1734.113040715</ele>
        <time>2015-11-10T09:58:22Z</time>
      </trkpt>
      <trkpt lat="45.62613" lon="6.10509">
        <ele>1734.113040715</ele>
        <time>2015-11-10T09:58:27Z</time>
      </trkpt>
      <trkpt lat="45.62621" lon="6.10508">
        <ele>1736.249700847</ele>
        <time>2015-11-10T09:58:37Z</time>
      </trkpt>
      <trkpt lat="45.62625" lon="6.10507">
        <ele>1736.249700847</ele>
        <time>2015-11-10T09:58:43Z</time>
      </trkpt>
      <trkpt lat="45.62633" lon="6.10512">
        <ele>1738.078262499</ele>
        <time>2015-11-10T09:58:52Z</time>
      </trkpt>
      <trkpt lat="45.62633" lon="6.10517">
        <ele>1738.078262499</ele>
        <time>2015-11-10T09:58:57Z</time>
      </trkpt>
      <trkpt lat="45.62633" lon="6.10518">
        <ele>1738.078262499</ele>
        <time>2015-11-10T09:59:07Z</time>
      </trkpt>
      <trkpt lat="45.62633" lon="6.10518">
        <ele>1738.078262499</ele>
        <time>2015-11-10T09:59:12Z</time>
      </trkpt>
      <trkpt lat="45.62636" lon="6.1052">
        <ele>1738.078262499</ele>
        <time>2015-11-10T09:59:17Z</time>
      </trkpt>
      <trkpt lat="45.62639" lon="6.10514">
        <ele>1740.350619421</ele>
        <time>2015-11-10T09:59:27Z</time>
      </trkpt>
      <trkpt lat="45.62645" lon="6.10517">
        <ele>1740.350619421</ele>
        <time>2015-11-10T09:59:32Z</time>
      </trkpt>
      <trkpt lat="45.62652" lon="6.10525">
        <ele>1742.176776487</ele>
        <time>2015-11-10T09:59:42Z</time>
      </trkpt>
      <trkpt lat="45.62653" lon="6.10526">
        <ele>1742.176776487</ele>
        <time>2015-11-10T09:59:47Z</time>
      </trkpt>
      <trkpt lat="45.62659" lon="6.10536">
        <ele>1743.88606163</ele>
        <time>2015-11-10T09:59:57Z</time>
      </trkpt>
      <trkpt lat="45.62659" lon="6.10543">
        <ele>1743.88606163</ele>
        <time>2015-11-10T10:00:02Z</time>
      </trkpt>
      <trkpt lat="45.62655" lon="6.10549">
        <ele>1745.927843437</ele>
        <time>2015-11-10T10:00:15Z</time>
      </trkpt>
      <trkpt lat="45.62668" lon="6.10558">
        <ele>1748.285000286</ele>
        <time>2015-11-10T10:00:32Z</time>
      </trkpt>
      <trkpt lat="45.6267" lon="6.10569">
        <ele>1748.285000286</ele>
        <time>2015-11-10T10:00:49Z</time>
      </trkpt>
      <trkpt lat="45.6267" lon="6.10569">
        <ele>1748.285000286</ele>
        <time>2015-11-10T10:00:52Z</time>
      </trkpt>
      <trkpt lat="45.62673" lon="6.10575">
        <ele>1750.940564879</ele>
        <time>2015-11-10T10:01:07Z</time>
      </trkpt>
      <trkpt lat="45.6268" lon="6.10578">
        <ele>1750.940564879</ele>
        <time>2015-11-10T10:01:19Z</time>
      </trkpt>
      <trkpt lat="45.62695" lon="6.10587">
        <ele>1754.310092667</ele>
        <time>2015-11-10T10:01:36Z</time>
      </trkpt>
      <trkpt lat="45.62695" lon="6.10588">
        <ele>1754.310092667</ele>
        <time>2015-11-10T10:01:38Z</time>
      </trkpt>
      <trkpt lat="45.62706" lon="6.10606">
        <ele>1758.055836252</ele>
        <time>2015-11-10T10:01:57Z</time>
      </trkpt>
      <trkpt lat="45.62706" lon="6.10608">
        <ele>1758.055836252</ele>
        <time>2015-11-10T10:02:07Z</time>
      </trkpt>
      <trkpt lat="45.62714" lon="6.10613">
        <ele>1762.151815214</ele>
        <time>2015-11-10T10:02:37Z</time>
      </trkpt>
      <trkpt lat="45.62714" lon="6.10615">
        <ele>1762.151815214</ele>
        <time>2015-11-10T10:02:37Z</time>
      </trkpt>
      <trkpt lat="45.62722" lon="6.10634">
        <ele>1767.149220573</ele>
        <time>2015-11-10T10:03:00Z</time>
      </trkpt>
      <trkpt lat="45.62722" lon="6.10636">
        <ele>1767.149220573</ele>
        <time>2015-11-10T10:03:02Z</time>
      </trkpt>
      <trkpt lat="45.62726" lon="6.10642">
        <ele>1767.149220573</ele>
        <time>2015-11-10T10:03:12Z</time>
      </trkpt>
      <trkpt lat="45.62728" lon="6.10646">
        <ele>1772.403150896</ele>
        <time>2015-11-10T10:03:17Z</time>
      </trkpt>
      <trkpt lat="45.62731" lon="6.10647">
        <ele>1772.403150896</ele>
        <time>2015-11-10T10:03:27Z</time>
      </trkpt>
      <trkpt lat="45.62732" lon="6.1065">
        <ele>1772.403150896</ele>
        <time>2015-11-10T10:03:32Z</time>
      </trkpt>
      <trkpt lat="45.62731" lon="6.10651">
        <ele>1772.403150896</ele>
        <time>2015-11-10T10:03:42Z</time>
      </trkpt>
      <trkpt lat="45.62732" lon="6.10652">
        <ele>1772.403150896</ele>
        <time>2015-11-10T10:03:47Z</time>
      </trkpt>
      <trkpt lat="45.62738" lon="6.10658">
        <ele>1778.323972781</ele>
        <time>2015-11-10T10:04:02Z</time>
      </trkpt>
      <trkpt lat="45.62739" lon="6.1066">
        <ele>1778.323972781</ele>
        <time>2015-11-10T10:04:07Z</time>
      </trkpt>
      <trkpt lat="45.62744" lon="6.10667">
        <ele>1784.137004305</ele>
        <time>2015-11-10T10:04:17Z</time>
      </trkpt>
      <trkpt lat="45.62748" lon="6.10677">
        <ele>1784.137004305</ele>
        <time>2015-11-10T10:04:32Z</time>
      </trkpt>
      <trkpt lat="45.62746" lon="6.10678">
        <ele>1790.133432786</ele>
        <time>2015-11-10T10:04:37Z</time>
      </trkpt>
      <trkpt lat="45.62747" lon="6.10678">
        <ele>1790.133432786</ele>
        <time>2015-11-10T10:04:42Z</time>
      </trkpt>
      <trkpt lat="45.62748" lon="6.10677">
        <ele>1790.133432786</ele>
        <time>2015-11-10T10:04:52Z</time>
      </trkpt>
      <trkpt lat="45.62748" lon="6.10677">
        <ele>1790.133432786</ele>
        <time>2015-11-10T10:04:57Z</time>
      </trkpt>
      <trkpt lat="45.62748" lon="6.10677">
        <ele>1790.133432786</ele>
        <time>2015-11-10T10:05:12Z</time>
      </trkpt>
      <trkpt lat="45.62748" lon="6.10677">
        <ele>1790.133432786</ele>
        <time>2015-11-10T10:05:17Z</time>
      </trkpt>
      <trkpt lat="45.62748" lon="6.10677">
        <ele>1790.133432786</ele>
        <time>2015-11-10T10:05:27Z</time>
      </trkpt>
      <trkpt lat="45.62748" lon="6.10677">
        <ele>1790.133432786</ele>
        <time>2015-11-10T10:05:32Z</time>
      </trkpt>
      <trkpt lat="45.62748" lon="6.10677">
        <ele>1790.133432786</ele>
        <time>2015-11-10T10:05:37Z</time>
      </trkpt>
      <trkpt lat="45.62752" lon="6.10677">
        <ele>1790.133432786</ele>
        <time>2015-11-10T10:05:42Z</time>
      </trkpt>
      <trkpt lat="45.62754" lon="6.10675">
        <ele>1790.133432786</ele>
        <time>2015-11-10T10:05:52Z</time>
      </trkpt>
      <trkpt lat="45.62757" lon="6.10678">
        <ele>1795.861889245</ele>
        <time>2015-11-10T10:05:58Z</time>
      </trkpt>
      <trkpt lat="45.62759" lon="6.10678">
        <ele>1795.861889245</ele>
        <time>2015-11-10T10:06:08Z</time>
      </trkpt>
      <trkpt lat="45.62759" lon="6.10678">
        <ele>1795.861889245</ele>
        <time>2015-11-10T10:06:12Z</time>
      </trkpt>
      <trkpt lat="45.62756" lon="6.10677">
        <ele>1795.861889245</ele>
        <time>2015-11-10T10:06:23Z</time>
      </trkpt>
      <trkpt lat="45.62754" lon="6.10677">
        <ele>1795.861889245</ele>
        <time>2015-11-10T10:06:27Z</time>
      </trkpt>
      <trkpt lat="45.6275" lon="6.1067">
        <ele>1800.760728491</ele>
        <time>2015-11-10T10:06:38Z</time>
      </trkpt>
      <trkpt lat="45.62758" lon="6.10672">
        <ele>1800.760728491</ele>
        <time>2015-11-10T10:06:43Z</time>
      </trkpt>
      <trkpt lat="45.62768" lon="6.10676">
        <ele>1804.888278569</ele>
        <time>2015-11-10T10:06:52Z</time>
      </trkpt>
      <trkpt lat="45.62786" lon="6.10685">
        <ele>1808.733035592</ele>
        <time>2015-11-10T10:07:08Z</time>
      </trkpt>
      <trkpt lat="45.62787" lon="6.10686">
        <ele>1808.733035592</ele>
        <time>2015-11-10T10:07:10Z</time>
      </trkpt>
      <trkpt lat="45.62787" lon="6.10685">
        <ele>1808.733035592</ele>
        <time>2015-11-10T10:07:10Z</time>
      </trkpt>
      <trkpt lat="45.6279" lon="6.10685">
        <ele>1808.733035592</ele>
        <time>2015-11-10T10:07:13Z</time>
      </trkpt>
      <trkpt lat="45.62793" lon="6.10691">
        <ele>1812.748367981</ele>
        <time>2015-11-10T10:07:23Z</time>
      </trkpt>
      <trkpt lat="45.62794" lon="6.107">
        <ele>1812.748367981</ele>
        <time>2015-11-10T10:07:44Z</time>
      </trkpt>
      <trkpt lat="45.62795" lon="6.10701">
        <ele>1812.748367981</ele>
        <time>2015-11-10T10:07:47Z</time>
      </trkpt>
      <trkpt lat="45.62797" lon="6.10709">
        <ele>1817.497942046</ele>
        <time>2015-11-10T10:07:57Z</time>
      </trkpt>
      <trkpt lat="45.62799" lon="6.10712">
        <ele>1817.497942046</ele>
        <time>2015-11-10T10:08:02Z</time>
      </trkpt>
      <trkpt lat="45.62802" lon="6.1072">
        <ele>1821.772597467</ele>
        <time>2015-11-10T10:08:13Z</time>
      </trkpt>
      <trkpt lat="45.62806" lon="6.10726">
        <ele>1821.772597467</ele>
        <time>2015-11-10T10:08:17Z</time>
      </trkpt>
      <trkpt lat="45.62818" lon="6.10735">
        <ele>1825.750309084</ele>
        <time>2015-11-10T10:08:27Z</time>
      </trkpt>
      <trkpt lat="45.62823" lon="6.10738">
        <ele>1825.750309084</ele>
        <time>2015-11-10T10:08:32Z</time>
      </trkpt>
      <trkpt lat="45.62831" lon="6.10735">
        <ele>1829.885016019</ele>
        <time>2015-11-10T10:08:42Z</time>
      </trkpt>
      <trkpt lat="45.62832" lon="6.10739">
        <ele>1829.885016019</ele>
        <time>2015-11-10T10:08:47Z</time>
      </trkpt>
      <trkpt lat="45.62849" lon="6.10754">
        <ele>1834.885081636</ele>
        <time>2015-11-10T10:09:20Z</time>
      </trkpt>
      <trkpt lat="45.62862" lon="6.10772">
        <ele>1838.666285298</ele>
        <time>2015-11-10T10:09:39Z</time>
      </trkpt>
      <trkpt lat="45.62868" lon="6.10775">
        <ele>1838.666285298</ele>
        <time>2015-11-10T10:09:47Z</time>
      </trkpt>
      <trkpt lat="45.62872" lon="6.10775">
        <ele>1842.471371846</ele>
        <time>2015-11-10T10:09:55Z</time>
      </trkpt>
      <trkpt lat="45.62873" lon="6.10776">
        <ele>1842.471371846</ele>
        <time>2015-11-10T10:09:57Z</time>
      </trkpt>
      <trkpt lat="45.62874" lon="6.10776">
        <ele>1842.471371846</ele>
        <time>2015-11-10T10:10:03Z</time>
      </trkpt>
      <trkpt lat="45.62873" lon="6.10775">
        <ele>1842.471371846</ele>
        <time>2015-11-10T10:10:08Z</time>
      </trkpt>
      <trkpt lat="45.62873" lon="6.10783">
        <ele>1842.471371846</ele>
        <time>2015-11-10T10:10:22Z</time>
      </trkpt>
      <trkpt lat="45.62877" lon="6.10787">
        <ele>1846.010612989</ele>
        <time>2015-11-10T10:10:27Z</time>
      </trkpt>
      <trkpt lat="45.62885" lon="6.10796">
        <ele>1849.880974151</ele>
        <time>2015-11-10T10:10:38Z</time>
      </trkpt>
      <trkpt lat="45.62891" lon="6.10799">
        <ele>1849.880974151</ele>
        <time>2015-11-10T10:10:43Z</time>
      </trkpt>
      <trkpt lat="45.62901" lon="6.10804">
        <ele>1852.905300374</ele>
        <time>2015-11-10T10:10:53Z</time>
      </trkpt>
      <trkpt lat="45.62906" lon="6.10807">
        <ele>1852.905300374</ele>
        <time>2015-11-10T10:10:57Z</time>
      </trkpt>
      <trkpt lat="45.62915" lon="6.10815">
        <ele>1855.436386094</ele>
        <time>2015-11-10T10:11:08Z</time>
      </trkpt>
      <trkpt lat="45.6294" lon="6.10819">
        <ele>1857.8024785</ele>
        <time>2015-11-10T10:11:40Z</time>
      </trkpt>
      <trkpt lat="45.6294" lon="6.10818">
        <ele>1857.8024785</ele>
        <time>2015-11-10T10:11:56Z</time>
      </trkpt>
      <trkpt lat="45.62943" lon="6.10817">
        <ele>1857.8024785</ele>
        <time>2015-11-10T10:11:57Z</time>
      </trkpt>
      <trkpt lat="45.62947" lon="6.10818">
        <ele>1857.8024785</ele>
        <time>2015-11-10T10:12:02Z</time>
      </trkpt>
      <trkpt lat="45.62954" lon="6.10813">
        <ele>1860.30815213</ele>
        <time>2015-11-10T10:12:13Z</time>
      </trkpt>
      <trkpt lat="45.62955" lon="6.10813">
        <ele>1860.30815213</ele>
        <time>2015-11-10T10:12:17Z</time>
      </trkpt>
      <trkpt lat="45.62961" lon="6.10812">
        <ele>1860.30815213</ele>
        <time>2015-11-10T10:12:27Z</time>
      </trkpt>
      <trkpt lat="45.62963" lon="6.10814">
        <ele>1861.794070541</ele>
        <time>2015-11-10T10:12:33Z</time>
      </trkpt>
      <trkpt lat="45.62964" lon="6.10813">
        <ele>1861.794070541</ele>
        <time>2015-11-10T10:12:37Z</time>
      </trkpt>
      <trkpt lat="45.62962" lon="6.10808">
        <ele>1861.794070541</ele>
        <time>2015-11-10T10:12:42Z</time>
      </trkpt>
      <trkpt lat="45.62962" lon="6.10808">
        <ele>1861.794070541</ele>
        <time>2015-11-10T10:12:47Z</time>
      </trkpt>
      <trkpt lat="45.62962" lon="6.10809">
        <ele>1861.794070541</ele>
        <time>2015-11-10T10:12:52Z</time>
      </trkpt>
      <trkpt lat="45.62963" lon="6.10807">
        <ele>1861.794070541</ele>
        <time>2015-11-10T10:13:02Z</time>
      </trkpt>
      <trkpt lat="45.62963" lon="6.10808">
        <ele>1861.794070541</ele>
        <time>2015-11-10T10:13:07Z</time>
      </trkpt>
      <trkpt lat="45.62963" lon="6.10808">
        <ele>1861.794070541</ele>
        <time>2015-11-10T10:13:17Z</time>
      </trkpt>
      <trkpt lat="45.62963" lon="6.10808">
        <ele>1861.794070541</ele>
        <time>2015-11-10T10:13:22Z</time>
      </trkpt>
      <trkpt lat="45.62963" lon="6.10808">
        <ele>1861.794070541</ele>
        <time>2015-11-10T10:13:27Z</time>
      </trkpt>
      <trkpt lat="45.62963" lon="6.10808">
        <ele>1861.794070541</ele>
        <time>2015-11-10T10:13:32Z</time>
      </trkpt>
      <trkpt lat="45.62964" lon="6.10808">
        <ele>1863.062320808</ele>
        <time>2015-11-10T10:13:42Z</time>
      </trkpt>
      <trkpt lat="45.62969" lon="6.10806">
        <ele>1863.062320808</ele>
        <time>2015-11-10T10:13:47Z</time>
      </trkpt>
      <trkpt lat="45.62979" lon="6.10803">
        <ele>1863.703728857</ele>
        <time>2015-11-10T10:13:57Z</time>
      </trkpt>
      <trkpt lat="45.62981" lon="6.10805">
        <ele>1863.703728857</ele>
        <time>2015-11-10T10:14:02Z</time>
      </trkpt>
      <trkpt lat="45.62984" lon="6.10805">
        <ele>1863.703728857</ele>
        <time>2015-11-10T10:14:13Z</time>
      </trkpt>
      <trkpt lat="45.62984" lon="6.10804">
        <ele>1863.703728857</ele>
        <time>2015-11-10T10:14:17Z</time>
      </trkpt>
      <trkpt lat="45.62989" lon="6.10811">
        <ele>1864.205525152</ele>
        <time>2015-11-10T10:14:28Z</time>
      </trkpt>
      <trkpt lat="45.62991" lon="6.10813">
        <ele>1864.205525152</ele>
        <time>2015-11-10T10:14:33Z</time>
      </trkpt>
      <trkpt lat="45.62992" lon="6.10813">
        <ele>1864.205525152</ele>
        <time>2015-11-10T10:14:37Z</time>
      </trkpt>
      <trkpt lat="45.62998" lon="6.10809">
        <ele>1862.71366052</ele>
        <time>2015-11-10T10:14:47Z</time>
      </trkpt>
      <trkpt lat="45.63002" lon="6.10808">
        <ele>1862.71366052</ele>
        <time>2015-11-10T10:14:53Z</time>
      </trkpt>
      <trkpt lat="45.63001" lon="6.10812">
        <ele>1862.71366052</ele>
        <time>2015-11-10T10:15:02Z</time>
      </trkpt>
      <trkpt lat="45.63002" lon="6.10811">
        <ele>1862.71366052</ele>
        <time>2015-11-10T10:15:08Z</time>
      </trkpt>
      <trkpt lat="45.63008" lon="6.10816">
        <ele>1860.109749363</ele>
        <time>2015-11-10T10:15:18Z</time>
      </trkpt>
      <trkpt lat="45.63015" lon="6.10822">
        <ele>1860.109749363</ele>
        <time>2015-11-10T10:15:32Z</time>
      </trkpt>
      <trkpt lat="45.63015" lon="6.10821">
        <ele>1857.213603655</ele>
        <time>2015-11-10T10:15:37Z</time>
      </trkpt>
      <trkpt lat="45.63015" lon="6.10823">
        <ele>1857.213603655</ele>
        <time>2015-11-10T10:15:42Z</time>
      </trkpt>
      <trkpt lat="45.63044" lon="6.1087">
        <ele>1853.488435653</ele>
        <time>2015-11-10T10:16:08Z</time>
      </trkpt>
      <trkpt lat="45.63046" lon="6.10885">
        <ele>1849.7359796</ele>
        <time>2015-11-10T10:16:12Z</time>
      </trkpt>
      <trkpt lat="45.63056" lon="6.10899">
        <ele>1846.122430374</ele>
        <time>2015-11-10T10:16:23Z</time>
      </trkpt>
      <trkpt lat="45.63055" lon="6.10899">
        <ele>1846.122430374</ele>
        <time>2015-11-10T10:16:27Z</time>
      </trkpt>
      <trkpt lat="45.63055" lon="6.10898">
        <ele>1846.122430374</ele>
        <time>2015-11-10T10:16:32Z</time>
      </trkpt>
      <trkpt lat="45.63062" lon="6.109">
        <ele>1846.122430374</ele>
        <time>2015-11-10T10:16:43Z</time>
      </trkpt>
      <trkpt lat="45.63068" lon="6.10906">
        <ele>1842.512847907</ele>
        <time>2015-11-10T10:16:47Z</time>
      </trkpt>
      <trkpt lat="45.6307" lon="6.1091">
        <ele>1842.512847907</ele>
        <time>2015-11-10T10:16:57Z</time>
      </trkpt>
      <trkpt lat="45.6307" lon="6.1091">
        <ele>1842.512847907</ele>
        <time>2015-11-10T10:17:02Z</time>
      </trkpt>
      <trkpt lat="45.63079" lon="6.10913">
        <ele>1840.222958168</ele>
        <time>2015-11-10T10:17:13Z</time>
      </trkpt>
      <trkpt lat="45.63081" lon="6.10916">
        <ele>1840.222958168</ele>
        <time>2015-11-10T10:17:17Z</time>
      </trkpt>
      <trkpt lat="45.63087" lon="6.1092">
        <ele>1838.450202725</ele>
        <time>2015-11-10T10:17:27Z</time>
      </trkpt>
      <trkpt lat="45.63091" lon="6.10919">
        <ele>1838.450202725</ele>
        <time>2015-11-10T10:17:32Z</time>
      </trkpt>
      <trkpt lat="45.63117" lon="6.10935">
        <ele>1837.746137249</ele>
        <time>2015-11-10T10:18:03Z</time>
      </trkpt>
      <trkpt lat="45.63118" lon="6.10936">
        <ele>1837.746137249</ele>
        <time>2015-11-10T10:18:03Z</time>
      </trkpt>
      <trkpt lat="45.63146" lon="6.1095">
        <ele>1837.1772898</ele>
        <time>2015-11-10T10:18:38Z</time>
      </trkpt>
      <trkpt lat="45.63149" lon="6.10952">
        <ele>1837.1772898</ele>
        <time>2015-11-10T10:18:42Z</time>
      </trkpt>
      <trkpt lat="45.63155" lon="6.10955">
        <ele>1836.886756447</ele>
        <time>2015-11-10T10:18:52Z</time>
      </trkpt>
      <trkpt lat="45.6316" lon="6.10958">
        <ele>1836.886756447</ele>
        <time>2015-11-10T10:18:57Z</time>
      </trkpt>
      <trkpt lat="45.63169" lon="6.1096">
        <ele>1836.717718189</ele>
        <time>2015-11-10T10:19:07Z</time>
      </trkpt>
      <trkpt lat="45.63173" lon="6.10962">
        <ele>1836.717718189</ele>
        <time>2015-11-10T10:19:12Z</time>
      </trkpt>
      <trkpt lat="45.63179" lon="6.10963">
        <ele>1836.091806867</ele>
        <time>2015-11-10T10:19:22Z</time>
      </trkpt>
      <trkpt lat="45.63181" lon="6.10962">
        <ele>1836.091806867</ele>
        <time>2015-11-10T10:19:27Z</time>
      </trkpt>
      <trkpt lat="45.63189" lon="6.10964">
        <ele>1833.897587229</ele>
        <time>2015-11-10T10:19:37Z</time>
      </trkpt>
      <trkpt lat="45.63192" lon="6.10963">
        <ele>1833.897587229</ele>
        <time>2015-11-10T10:19:42Z</time>
      </trkpt>
      <trkpt lat="45.63196" lon="6.10961">
        <ele>1833.897587229</ele>
        <time>2015-11-10T10:19:51Z</time>
      </trkpt>
      <trkpt lat="45.63196" lon="6.10961">
        <ele>1833.897587229</ele>
        <time>2015-11-10T10:19:53Z</time>
      </trkpt>
      <trkpt lat="45.63207" lon="6.10959">
        <ele>1830.982724672</ele>
        <time>2015-11-10T10:20:13Z</time>
      </trkpt>
      <trkpt lat="45.63218" lon="6.10963">
        <ele>1828.566579428</ele>
        <time>2015-11-10T10:20:25Z</time>
      </trkpt>
      <trkpt lat="45.63219" lon="6.10966">
        <ele>1828.566579428</ele>
        <time>2015-11-10T10:20:27Z</time>
      </trkpt>
      <trkpt lat="45.63229" lon="6.10981">
        <ele>1825.3272516</ele>
        <time>2015-11-10T10:20:39Z</time>
      </trkpt>
      <trkpt lat="45.63228" lon="6.10984">
        <ele>1825.3272516</ele>
        <time>2015-11-10T10:20:42Z</time>
      </trkpt>
      <trkpt lat="45.63235" lon="6.10992">
        <ele>1823.212298032</ele>
        <time>2015-11-10T10:20:52Z</time>
      </trkpt>
      <trkpt lat="45.63238" lon="6.10999">
        <ele>1823.212298032</ele>
        <time>2015-11-10T10:20:58Z</time>
      </trkpt>
      <trkpt lat="45.63244" lon="6.1101">
        <ele>1820.70808834</ele>
        <time>2015-11-10T10:21:07Z</time>
      </trkpt>
      <trkpt lat="45.63243" lon="6.11018">
        <ele>1820.70808834</ele>
        <time>2015-11-10T10:21:12Z</time>
      </trkpt>
      <trkpt lat="45.63244" lon="6.11028">
        <ele>1818.142195531</ele>
        <time>2015-11-10T10:21:23Z</time>
      </trkpt>
      <trkpt lat="45.63244" lon="6.11029">
        <ele>1818.142195531</ele>
        <time>2015-11-10T10:21:27Z</time>
      </trkpt>
      <trkpt lat="45.63242" lon="6.11041">
        <ele>1815.09733119</ele>
        <time>2015-11-10T10:21:38Z</time>
      </trkpt>
      <trkpt lat="45.6324" lon="6.11042">
        <ele>1815.09733119</ele>
        <time>2015-11-10T10:21:42Z</time>
      </trkpt>
      <trkpt lat="45.63242" lon="6.11045">
        <ele>1815.09733119</ele>
        <time>2015-11-10T10:21:47Z</time>
      </trkpt>
      <trkpt lat="45.63241" lon="6.1105">
        <ele>1815.09733119</ele>
        <time>2015-11-10T10:21:57Z</time>
      </trkpt>
      <trkpt lat="45.63242" lon="6.11051">
        <ele>1812.773012225</ele>
        <time>2015-11-10T10:22:02Z</time>
      </trkpt>
      <trkpt lat="45.6324" lon="6.11055">
        <ele>1812.773012225</ele>
        <time>2015-11-10T10:22:12Z</time>
      </trkpt>
      <trkpt lat="45.63245" lon="6.11057">
        <ele>1812.773012225</ele>
        <time>2015-11-10T10:22:18Z</time>
      </trkpt>
      <trkpt lat="45.63246" lon="6.11058">
        <ele>1812.773012225</ele>
        <time>2015-11-10T10:22:28Z</time>
      </trkpt>
      <trkpt lat="45.63247" lon="6.11058">
        <ele>1810.548870546</ele>
        <time>2015-11-10T10:22:32Z</time>
      </trkpt>
      <trkpt lat="45.63247" lon="6.11059">
        <ele>1810.548870546</ele>
        <time>2015-11-10T10:22:48Z</time>
      </trkpt>
      <trkpt lat="45.63247" lon="6.11059">
        <ele>1810.548870546</ele>
        <time>2015-11-10T10:22:49Z</time>
      </trkpt>
      <trkpt lat="45.63251" lon="6.11057">
        <ele>1810.548870546</ele>
        <time>2015-11-10T10:23:04Z</time>
      </trkpt>
      <trkpt lat="45.63251" lon="6.11057">
        <ele>1810.548870546</ele>
        <time>2015-11-10T10:23:05Z</time>
      </trkpt>
      <trkpt lat="45.63252" lon="6.11057">
        <ele>1810.548870546</ele>
        <time>2015-11-10T10:23:05Z</time>
      </trkpt>
      <trkpt lat="45.63264" lon="6.11061">
        <ele>1809.002308431</ele>
        <time>2015-11-10T10:23:33Z</time>
      </trkpt>
      <trkpt lat="45.63265" lon="6.11062">
        <ele>1809.002308431</ele>
        <time>2015-11-10T10:23:38Z</time>
      </trkpt>
      <trkpt lat="45.63269" lon="6.11064">
        <ele>1809.002308431</ele>
        <time>2015-11-10T10:23:52Z</time>
      </trkpt>
      <trkpt lat="45.63272" lon="6.11063">
        <ele>1809.002308431</ele>
        <time>2015-11-10T10:23:57Z</time>
      </trkpt>
      <trkpt lat="45.63275" lon="6.11066">
        <ele>1807.080785262</ele>
        <time>2015-11-10T10:24:08Z</time>
      </trkpt>
      <trkpt lat="45.63276" lon="6.11066">
        <ele>1807.080785262</ele>
        <time>2015-11-10T10:24:12Z</time>
      </trkpt>
      <trkpt lat="45.63286" lon="6.11067">
        <ele>1805.250848546</ele>
        <time>2015-11-10T10:24:23Z</time>
      </trkpt>
      <trkpt lat="45.63288" lon="6.11069">
        <ele>1805.250848546</ele>
        <time>2015-11-10T10:24:27Z</time>
      </trkpt>
      <trkpt lat="45.6329" lon="6.11069">
        <ele>1805.250848546</ele>
        <time>2015-11-10T10:24:37Z</time>
      </trkpt>
      <trkpt lat="45.63297" lon="6.11073">
        <ele>1801.926573702</ele>
        <time>2015-11-10T10:25:01Z</time>
      </trkpt>
      <trkpt lat="45.63302" lon="6.11076">
        <ele>1801.926573702</ele>
        <time>2015-11-10T10:25:33Z</time>
      </trkpt>
      <trkpt lat="45.63304" lon="6.11075">
        <ele>1801.926573702</ele>
        <time>2015-11-10T10:25:42Z</time>
      </trkpt>
      <trkpt lat="45.63305" lon="6.11074">
        <ele>1798.52457281</ele>
        <time>2015-11-10T10:25:47Z</time>
      </trkpt>
      <trkpt lat="45.63305" lon="6.11074">
        <ele>1798.52457281</ele>
        <time>2015-11-10T10:25:57Z</time>
      </trkpt>
      <trkpt lat="45.63305" lon="6.11074">
        <ele>1798.52457281</ele>
        <time>2015-11-10T10:26:02Z</time>
      </trkpt>
      <trkpt lat="45.63314" lon="6.11078">
        <ele>1795.49257016</ele>
        <time>2015-11-10T10:26:12Z</time>
      </trkpt>
      <trkpt lat="45.63318" lon="6.11079">
        <ele>1795.49257016</ele>
        <time>2015-11-10T10:26:17Z</time>
      </trkpt>
      <trkpt lat="45.6332" lon="6.1108">
        <ele>1795.49257016</ele>
        <time>2015-11-10T10:26:27Z</time>
      </trkpt>
      <trkpt lat="45.63321" lon="6.11081">
        <ele>1795.49257016</ele>
        <time>2015-11-10T10:26:32Z</time>
      </trkpt>
      <trkpt lat="45.63321" lon="6.11086">
        <ele>1791.658765711</ele>
        <time>2015-11-10T10:26:42Z</time>
      </trkpt>
      <trkpt lat="45.63326" lon="6.11089">
        <ele>1791.658765711</ele>
        <time>2015-11-10T10:26:48Z</time>
      </trkpt>
      <trkpt lat="45.6333" lon="6.11091">
        <ele>1787.668648092</ele>
        <time>2015-11-10T10:27:01Z</time>
      </trkpt>
      <trkpt lat="45.6333" lon="6.11091">
        <ele>1787.668648092</ele>
        <time>2015-11-10T10:27:01Z</time>
      </trkpt>
      <trkpt lat="45.6333" lon="6.11091">
        <ele>1787.668648092</ele>
        <time>2015-11-10T10:27:02Z</time>
      </trkpt>
      <trkpt lat="45.63333" lon="6.11095">
        <ele>1787.668648092</ele>
        <time>2015-11-10T10:27:19Z</time>
      </trkpt>
      <trkpt lat="45.63332" lon="6.11097">
        <ele>1787.668648092</ele>
        <time>2015-11-10T10:27:20Z</time>
      </trkpt>
      <trkpt lat="45.63332" lon="6.11097">
        <ele>1787.668648092</ele>
        <time>2015-11-10T10:27:21Z</time>
      </trkpt>
      <trkpt lat="45.63334" lon="6.11103">
        <ele>1783.399796088</ele>
        <time>2015-11-10T10:27:47Z</time>
      </trkpt>
      <trkpt lat="45.63335" lon="6.11103">
        <ele>1783.399796088</ele>
        <time>2015-11-10T10:27:52Z</time>
      </trkpt>
      <trkpt lat="45.63336" lon="6.11106">
        <ele>1783.399796088</ele>
        <time>2015-11-10T10:28:02Z</time>
      </trkpt>
      <trkpt lat="45.63336" lon="6.11106">
        <ele>1783.399796088</ele>
        <time>2015-11-10T10:28:07Z</time>
      </trkpt>
      <trkpt lat="45.63337" lon="6.11106">
        <ele>1783.399796088</ele>
        <time>2015-11-10T10:28:17Z</time>
      </trkpt>
      <trkpt lat="45.63338" lon="6.11105">
        <ele>1783.399796088</ele>
        <time>2015-11-10T10:28:22Z</time>
      </trkpt>
      <trkpt lat="45.63339" lon="6.11104">
        <ele>1783.399796088</ele>
        <time>2015-11-10T10:28:33Z</time>
      </trkpt>
      <trkpt lat="45.6334" lon="6.11101">
        <ele>1779.315631585</ele>
        <time>2015-11-10T10:28:38Z</time>
      </trkpt>
      <trkpt lat="45.63342" lon="6.11099">
        <ele>1779.315631585</ele>
        <time>2015-11-10T10:28:48Z</time>
      </trkpt>
      <trkpt lat="45.63341" lon="6.11097">
        <ele>1779.315631585</ele>
        <time>2015-11-10T10:28:52Z</time>
      </trkpt>
      <trkpt lat="45.6334" lon="6.11094">
        <ele>1779.315631585</ele>
        <time>2015-11-10T10:29:07Z</time>
      </trkpt>
      <trkpt lat="45.63341" lon="6.11093">
        <ele>1779.315631585</ele>
        <time>2015-11-10T10:29:12Z</time>
      </trkpt>
      <trkpt lat="45.63341" lon="6.11093">
        <ele>1779.315631585</ele>
        <time>2015-11-10T10:29:23Z</time>
      </trkpt>
      <trkpt lat="45.63341" lon="6.11093">
        <ele>1779.315631585</ele>
        <time>2015-11-10T10:29:27Z</time>
      </trkpt>
      <trkpt lat="45.63341" lon="6.11093">
        <ele>1779.315631585</ele>
        <time>2015-11-10T10:29:37Z</time>
      </trkpt>
      <trkpt lat="45.63342" lon="6.11093">
        <ele>1779.315631585</ele>
        <time>2015-11-10T10:29:42Z</time>
      </trkpt>
      <trkpt lat="45.63342" lon="6.11093">
        <ele>1775.268192877</ele>
        <time>2015-11-10T10:29:52Z</time>
      </trkpt>
      <trkpt lat="45.63346" lon="6.11093">
        <ele>1775.268192877</ele>
        <time>2015-11-10T10:29:58Z</time>
      </trkpt>
      <trkpt lat="45.63343" lon="6.11096">
        <ele>1775.268192877</ele>
        <time>2015-11-10T10:30:07Z</time>
      </trkpt>
      <trkpt lat="45.63345" lon="6.11095">
        <ele>1775.268192877</ele>
        <time>2015-11-10T10:30:12Z</time>
      </trkpt>
      <trkpt lat="45.63345" lon="6.11095">
        <ele>1775.268192877</ele>
        <time>2015-11-10T10:30:22Z</time>
      </trkpt>
      <trkpt lat="45.63346" lon="6.11098">
        <ele>1771.984573922</ele>
        <time>2015-11-10T10:30:28Z</time>
      </trkpt>
      <trkpt lat="45.63348" lon="6.11098">
        <ele>1771.984573922</ele>
        <time>2015-11-10T10:30:37Z</time>
      </trkpt>
      <trkpt lat="45.6335" lon="6.11102">
        <ele>1771.984573922</ele>
        <time>2015-11-10T10:30:42Z</time>
      </trkpt>
      <trkpt lat="45.63359" lon="6.11106">
        <ele>1767.109602104</ele>
        <time>2015-11-10T10:30:57Z</time>
      </trkpt>
      <trkpt lat="45.63364" lon="6.11108">
        <ele>1767.109602104</ele>
        <time>2015-11-10T10:31:02Z</time>
      </trkpt>
      <trkpt lat="45.63366" lon="6.11106">
        <ele>1767.109602104</ele>
        <time>2015-11-10T10:31:14Z</time>
      </trkpt>
      <trkpt lat="45.63363" lon="6.1111">
        <ele>1762.644426661</ele>
        <time>2015-11-10T10:31:17Z</time>
      </trkpt>
      <trkpt lat="45.63364" lon="6.11115">
        <ele>1762.644426661</ele>
        <time>2015-11-10T10:31:27Z</time>
      </trkpt>
      <trkpt lat="45.63366" lon="6.11116">
        <ele>1762.644426661</ele>
        <time>2015-11-10T10:31:33Z</time>
      </trkpt>
      <trkpt lat="45.63368" lon="6.11118">
        <ele>1762.644426661</ele>
        <time>2015-11-10T10:31:43Z</time>
      </trkpt>
      <trkpt lat="45.6337" lon="6.11122">
        <ele>1757.415333893</ele>
        <time>2015-11-10T10:31:47Z</time>
      </trkpt>
      <trkpt lat="45.63374" lon="6.11132">
        <ele>1757.415333893</ele>
        <time>2015-11-10T10:31:57Z</time>
      </trkpt>
      <trkpt lat="45.63373" lon="6.11137">
        <ele>1752.065930624</ele>
        <time>2015-11-10T10:32:02Z</time>
      </trkpt>
      <trkpt lat="45.63381" lon="6.11142">
        <ele>1752.065930624</ele>
        <time>2015-11-10T10:32:17Z</time>
      </trkpt>
      <trkpt lat="45.63381" lon="6.11142">
        <ele>1748.057171667</ele>
        <time>2015-11-10T10:32:22Z</time>
      </trkpt>
      <trkpt lat="45.63382" lon="6.11141">
        <ele>1748.057171667</ele>
        <time>2015-11-10T10:32:33Z</time>
      </trkpt>
      <trkpt lat="45.63385" lon="6.11145">
        <ele>1748.057171667</ele>
        <time>2015-11-10T10:32:37Z</time>
      </trkpt>
      <trkpt lat="45.63391" lon="6.11148">
        <ele>1744.144552739</ele>
        <time>2015-11-10T10:32:47Z</time>
      </trkpt>
      <trkpt lat="45.63392" lon="6.11149">
        <ele>1744.144552739</ele>
        <time>2015-11-10T10:32:52Z</time>
      </trkpt>
      <trkpt lat="45.63395" lon="6.11153">
        <ele>1744.144552739</ele>
        <time>2015-11-10T10:33:02Z</time>
      </trkpt>
      <trkpt lat="45.63397" lon="6.11155">
        <ele>1744.144552739</ele>
        <time>2015-11-10T10:33:07Z</time>
      </trkpt>
      <trkpt lat="45.63405" lon="6.11167">
        <ele>1739.894903222</ele>
        <time>2015-11-10T10:33:17Z</time>
      </trkpt>
      <trkpt lat="45.63409" lon="6.11171">
        <ele>1739.894903222</ele>
        <time>2015-11-10T10:33:22Z</time>
      </trkpt>
      <trkpt lat="45.6341" lon="6.11172">
        <ele>1739.894903222</ele>
        <time>2015-11-10T10:33:34Z</time>
      </trkpt>
      <trkpt lat="45.63411" lon="6.11174">
        <ele>1739.894903222</ele>
        <time>2015-11-10T10:33:37Z</time>
      </trkpt>
      <trkpt lat="45.63414" lon="6.11184">
        <ele>1736.348564715</ele>
        <time>2015-11-10T10:33:50Z</time>
      </trkpt>
      <trkpt lat="45.63414" lon="6.11184">
        <ele>1736.348564715</ele>
        <time>2015-11-10T10:33:52Z</time>
      </trkpt>
      <trkpt lat="45.63432" lon="6.11193">
        <ele>1733.026016722</ele>
        <time>2015-11-10T10:34:22Z</time>
      </trkpt>
      <trkpt lat="45.63439" lon="6.11201">
        <ele>1729.626104994</ele>
        <time>2015-11-10T10:34:27Z</time>
      </trkpt>
      <trkpt lat="45.63473" lon="6.11235">
        <ele>1727.310799618</ele>
        <time>2015-11-10T10:35:27Z</time>
      </trkpt>
      <trkpt lat="45.63475" lon="6.11235">
        <ele>1727.310799618</ele>
        <time>2015-11-10T10:35:32Z</time>
      </trkpt>
      <trkpt lat="45.63481" lon="6.11244">
        <ele>1724.991693863</ele>
        <time>2015-11-10T10:35:42Z</time>
      </trkpt>
      <trkpt lat="45.63488" lon="6.11247">
        <ele>1724.991693863</ele>
        <time>2015-11-10T10:35:47Z</time>
      </trkpt>
      <trkpt lat="45.63495" lon="6.11251">
        <ele>1722.524722972</ele>
        <time>2015-11-10T10:35:57Z</time>
      </trkpt>
      <trkpt lat="45.63495" lon="6.11251">
        <ele>1722.524722972</ele>
        <time>2015-11-10T10:36:03Z</time>
      </trkpt>
      <trkpt lat="45.63504" lon="6.11253">
        <ele>1721.073553621</ele>
        <time>2015-11-10T10:36:12Z</time>
      </trkpt>
      <trkpt lat="45.63506" lon="6.11255">
        <ele>1721.073553621</ele>
        <time>2015-11-10T10:36:17Z</time>
      </trkpt>
      <trkpt lat="45.63511" lon="6.11258">
        <ele>1721.073553621</ele>
        <time>2015-11-10T10:36:27Z</time>
      </trkpt>
      <trkpt lat="45.63518" lon="6.11262">
        <ele>1719.983944664</ele>
        <time>2015-11-10T10:36:33Z</time>
      </trkpt>
      <trkpt lat="45.63541" lon="6.11273">
        <ele>1717.639704539</ele>
        <time>2015-11-10T10:37:18Z</time>
      </trkpt>
      <trkpt lat="45.63561" lon="6.11283">
        <ele>1715.573026137</ele>
        <time>2015-11-10T10:37:36Z</time>
      </trkpt>
      <trkpt lat="45.63562" lon="6.11281">
        <ele>1715.573026137</ele>
        <time>2015-11-10T10:37:37Z</time>
      </trkpt>
      <trkpt lat="45.63569" lon="6.11279">
        <ele>1715.573026137</ele>
        <time>2015-11-10T10:37:52Z</time>
      </trkpt>
      <trkpt lat="45.63568" lon="6.11279">
        <ele>1715.573026137</ele>
        <time>2015-11-10T10:37:53Z</time>
      </trkpt>
      <trkpt lat="45.63572" lon="6.11277">
        <ele>1715.490824018</ele>
        <time>2015-11-10T10:38:08Z</time>
      </trkpt>
      <trkpt lat="45.63572" lon="6.11277">
        <ele>1715.490824018</ele>
        <time>2015-11-10T10:38:08Z</time>
      </trkpt>
      <trkpt lat="45.63571" lon="6.11276">
        <ele>1715.490824018</ele>
        <time>2015-11-10T10:38:09Z</time>
      </trkpt>
      <trkpt lat="45.63577" lon="6.11275">
        <ele>1715.490824018</ele>
        <time>2015-11-10T10:38:25Z</time>
      </trkpt>
      <trkpt lat="45.63578" lon="6.1128">
        <ele>1715.07791249</ele>
        <time>2015-11-10T10:38:27Z</time>
      </trkpt>
      <trkpt lat="45.63588" lon="6.11281">
        <ele>1714.495767647</ele>
        <time>2015-11-10T10:38:37Z</time>
      </trkpt>
      <trkpt lat="45.63595" lon="6.11279">
        <ele>1714.495767647</ele>
        <time>2015-11-10T10:38:43Z</time>
      </trkpt>
      <trkpt lat="45.63597" lon="6.1128">
        <ele>1714.470834992</ele>
        <time>2015-11-10T10:38:58Z</time>
      </trkpt>
      <trkpt lat="45.63599" lon="6.11282">
        <ele>1714.470834992</ele>
        <time>2015-11-10T10:39:02Z</time>
      </trkpt>
      <trkpt lat="45.63602" lon="6.11288">
        <ele>1714.470834992</ele>
        <time>2015-11-10T10:39:12Z</time>
      </trkpt>
      <trkpt lat="45.63605" lon="6.11287">
        <ele>1713.945238934</ele>
        <time>2015-11-10T10:39:17Z</time>
      </trkpt>
      <trkpt lat="45.63608" lon="6.11286">
        <ele>1713.945238934</ele>
        <time>2015-11-10T10:39:27Z</time>
      </trkpt>
      <trkpt lat="45.63609" lon="6.11285">
        <ele>1713.945238934</ele>
        <time>2015-11-10T10:39:32Z</time>
      </trkpt>
      <trkpt lat="45.63618" lon="6.11285">
        <ele>1712.948963048</ele>
        <time>2015-11-10T10:39:42Z</time>
      </trkpt>
      <trkpt lat="45.63622" lon="6.1129">
        <ele>1712.948963048</ele>
        <time>2015-11-10T10:39:47Z</time>
      </trkpt>
      <trkpt lat="45.63637" lon="6.11297">
        <ele>1710.790539105</ele>
        <time>2015-11-10T10:40:07Z</time>
      </trkpt>
      <trkpt lat="45.63638" lon="6.11297">
        <ele>1710.790539105</ele>
        <time>2015-11-10T10:40:22Z</time>
      </trkpt>
      <trkpt lat="45.63639" lon="6.11296">
        <ele>1710.790539105</ele>
        <time>2015-11-10T10:40:22Z</time>
      </trkpt>
      <trkpt lat="45.6366" lon="6.11314">
        <ele>1709.570670238</ele>
        <time>2015-11-10T10:40:49Z</time>
      </trkpt>
      <trkpt lat="45.6366" lon="6.11314">
        <ele>1709.570670238</ele>
        <time>2015-11-10T10:40:52Z</time>
      </trkpt>
      <trkpt lat="45.63662" lon="6.11317">
        <ele>1709.570670238</ele>
        <time>2015-11-10T10:41:02Z</time>
      </trkpt>
      <trkpt lat="45.63663" lon="6.11317">
        <ele>1709.570670238</ele>
        <time>2015-11-10T10:41:07Z</time>
      </trkpt>
      <trkpt lat="45.63663" lon="6.11317">
        <ele>1709.570670238</ele>
        <time>2015-11-10T10:41:12Z</time>
      </trkpt>
      <trkpt lat="45.63665" lon="6.11318">
        <ele>1709.570670238</ele>
        <time>2015-11-10T10:41:23Z</time>
      </trkpt>
      <trkpt lat="45.63667" lon="6.1132">
        <ele>1709.570670238</ele>
        <time>2015-11-10T10:41:37Z</time>
      </trkpt>
      <trkpt lat="45.63668" lon="6.11321">
        <ele>1707.63034784</ele>
        <time>2015-11-10T10:41:42Z</time>
      </trkpt>
      <trkpt lat="45.63671" lon="6.11321">
        <ele>1707.63034784</ele>
        <time>2015-11-10T10:41:52Z</time>
      </trkpt>
      <trkpt lat="45.63675" lon="6.11325">
        <ele>1707.63034784</ele>
        <time>2015-11-10T10:41:57Z</time>
      </trkpt>
      <trkpt lat="45.63684" lon="6.11334">
        <ele>1705.30792503</ele>
        <time>2015-11-10T10:42:07Z</time>
      </trkpt>
      <trkpt lat="45.63688" lon="6.11335">
        <ele>1705.30792503</ele>
        <time>2015-11-10T10:42:13Z</time>
      </trkpt>
      <trkpt lat="45.63694" lon="6.11338">
        <ele>1703.926783554</ele>
        <time>2015-11-10T10:42:23Z</time>
      </trkpt>
      <trkpt lat="45.63697" lon="6.11339">
        <ele>1703.926783554</ele>
        <time>2015-11-10T10:42:27Z</time>
      </trkpt>
      <trkpt lat="45.63704" lon="6.11339">
        <ele>1702.692935133</ele>
        <time>2015-11-10T10:42:37Z</time>
      </trkpt>
      <trkpt lat="45.63709" lon="6.1134">
        <ele>1702.692935133</ele>
        <time>2015-11-10T10:42:42Z</time>
      </trkpt>
      <trkpt lat="45.63713" lon="6.11343">
        <ele>1701.590909588</ele>
        <time>2015-11-10T10:42:56Z</time>
      </trkpt>
      <trkpt lat="45.63713" lon="6.11343">
        <ele>1701.590909588</ele>
        <time>2015-11-10T10:42:57Z</time>
      </trkpt>
      <trkpt lat="45.63717" lon="6.11346">
        <ele>1701.590909588</ele>
        <time>2015-11-10T10:43:14Z</time>
      </trkpt>
      <trkpt lat="45.63717" lon="6.11346">
        <ele>1701.590909588</ele>
        <time>2015-11-10T10:43:14Z</time>
      </trkpt>
      <trkpt lat="45.63728" lon="6.11344">
        <ele>1700.894284897</ele>
        <time>2015-11-10T10:43:25Z</time>
      </trkpt>
      <trkpt lat="45.63744" lon="6.1135">
        <ele>1701.143699164</ele>
        <time>2015-11-10T10:43:40Z</time>
      </trkpt>
      <trkpt lat="45.63745" lon="6.1135">
        <ele>1701.143699164</ele>
        <time>2015-11-10T10:43:42Z</time>
      </trkpt>
      <trkpt lat="45.63754" lon="6.11361">
        <ele>1702.11695311</ele>
        <time>2015-11-10T10:43:58Z</time>
      </trkpt>
      <trkpt lat="45.63755" lon="6.11363">
        <ele>1702.11695311</ele>
        <time>2015-11-10T10:44:05Z</time>
      </trkpt>
      <trkpt lat="45.63757" lon="6.11368">
        <ele>1702.11695311</ele>
        <time>2015-11-10T10:44:17Z</time>
      </trkpt>
      <trkpt lat="45.63756" lon="6.11366">
        <ele>1702.11695311</ele>
        <time>2015-11-10T10:44:22Z</time>
      </trkpt>
      <trkpt lat="45.63757" lon="6.11366">
        <ele>1702.11695311</ele>
        <time>2015-11-10T10:44:32Z</time>
      </trkpt>
      <trkpt lat="45.63757" lon="6.11366">
        <ele>1702.11695311</ele>
        <time>2015-11-10T10:44:37Z</time>
      </trkpt>
      <trkpt lat="45.63757" lon="6.11366">
        <ele>1702.741577075</ele>
        <time>2015-11-10T10:44:42Z</time>
      </trkpt>
      <trkpt lat="45.63761" lon="6.11368">
        <ele>1702.741577075</ele>
        <time>2015-11-10T10:44:47Z</time>
      </trkpt>
      <trkpt lat="45.63769" lon="6.1137">
        <ele>1703.466097882</ele>
        <time>2015-11-10T10:44:57Z</time>
      </trkpt>
      <trkpt lat="45.6377" lon="6.11369">
        <ele>1703.466097882</ele>
        <time>2015-11-10T10:45:02Z</time>
      </trkpt>
      <trkpt lat="45.63784" lon="6.11374">
        <ele>1704.129512194</ele>
        <time>2015-11-10T10:45:12Z</time>
      </trkpt>
      <trkpt lat="45.63789" lon="6.11377">
        <ele>1704.129512194</ele>
        <time>2015-11-10T10:45:17Z</time>
      </trkpt>
      <trkpt lat="45.63802" lon="6.11381">
        <ele>1704.582976136</ele>
        <time>2015-11-10T10:45:27Z</time>
      </trkpt>
      <trkpt lat="45.63806" lon="6.11384">
        <ele>1704.582976136</ele>
        <time>2015-11-10T10:45:34Z</time>
      </trkpt>
      <trkpt lat="45.63812" lon="6.11392">
        <ele>1705.121678336</ele>
        <time>2015-11-10T10:45:37Z</time>
      </trkpt>
      <trkpt lat="45.63824" lon="6.11404">
        <ele>1704.866182471</ele>
        <time>2015-11-10T10:45:47Z</time>
      </trkpt>
      <trkpt lat="45.63825" lon="6.11405">
        <ele>1704.866182471</ele>
        <time>2015-11-10T10:46:03Z</time>
      </trkpt>
      <trkpt lat="45.63825" lon="6.11404">
        <ele>1704.866182471</ele>
        <time>2015-11-10T10:46:07Z</time>
      </trkpt>
      <trkpt lat="45.63826" lon="6.11406">
        <ele>1704.866182471</ele>
        <time>2015-11-10T10:46:07Z</time>
      </trkpt>
      <trkpt lat="45.63828" lon="6.11406">
        <ele>1704.866182471</ele>
        <time>2015-11-10T10:46:09Z</time>
      </trkpt>
      <trkpt lat="45.63847" lon="6.11419">
        <ele>1704.012857032</ele>
        <time>2015-11-10T10:46:25Z</time>
      </trkpt>
      <trkpt lat="45.63847" lon="6.1142">
        <ele>1704.012857032</ele>
        <time>2015-11-10T10:46:25Z</time>
      </trkpt>
      <trkpt lat="45.63865" lon="6.11435">
        <ele>1703.32196743</ele>
        <time>2015-11-10T10:46:47Z</time>
      </trkpt>
      <trkpt lat="45.63865" lon="6.11435">
        <ele>1703.32196743</ele>
        <time>2015-11-10T10:46:52Z</time>
      </trkpt>
      <trkpt lat="45.63864" lon="6.11436">
        <ele>1703.32196743</ele>
        <time>2015-11-10T10:47:03Z</time>
      </trkpt>
      <trkpt lat="45.63864" lon="6.11436">
        <ele>1703.32196743</ele>
        <time>2015-11-10T10:47:07Z</time>
      </trkpt>
      <trkpt lat="45.63864" lon="6.11436">
        <ele>1703.32196743</ele>
        <time>2015-11-10T10:47:18Z</time>
      </trkpt>
      <trkpt lat="45.63864" lon="6.11436">
        <ele>1703.32196743</ele>
        <time>2015-11-10T10:47:22Z</time>
      </trkpt>
      <trkpt lat="45.63864" lon="6.11436">
        <ele>1703.32196743</ele>
        <time>2015-11-10T10:47:27Z</time>
      </trkpt>
      <trkpt lat="45.63864" lon="6.11436">
        <ele>1703.32196743</ele>
        <time>2015-11-10T10:47:37Z</time>
      </trkpt>
      <trkpt lat="45.63864" lon="6.11436">
        <ele>1703.32196743</ele>
        <time>2015-11-10T10:47:42Z</time>
      </trkpt>
      <trkpt lat="45.63863" lon="6.11436">
        <ele>1703.32196743</ele>
        <time>2015-11-10T10:47:52Z</time>
      </trkpt>
      <trkpt lat="45.63865" lon="6.11435">
        <ele>1703.32196743</ele>
        <time>2015-11-10T10:47:57Z</time>
      </trkpt>
      <trkpt lat="45.63867" lon="6.11433">
        <ele>1703.32196743</ele>
        <time>2015-11-10T10:48:02Z</time>
      </trkpt>
      <trkpt lat="45.63867" lon="6.11433">
        <ele>1703.32196743</ele>
        <time>2015-11-10T10:48:07Z</time>
      </trkpt>
      <trkpt lat="45.63868" lon="6.11432">
        <ele>1703.32196743</ele>
        <time>2015-11-10T10:48:12Z</time>
      </trkpt>
      <trkpt lat="45.63871" lon="6.11439">
        <ele>1703.209454743</ele>
        <time>2015-11-10T10:48:22Z</time>
      </trkpt>
      <trkpt lat="45.63874" lon="6.11439">
        <ele>1703.209454743</ele>
        <time>2015-11-10T10:48:27Z</time>
      </trkpt>
      <trkpt lat="45.63873" lon="6.11439">
        <ele>1703.209454743</ele>
        <time>2015-11-10T10:48:37Z</time>
      </trkpt>
      <trkpt lat="45.63874" lon="6.11439">
        <ele>1703.209454743</ele>
        <time>2015-11-10T10:48:42Z</time>
      </trkpt>
      <trkpt lat="45.63877" lon="6.11441">
        <ele>1703.209454743</ele>
        <time>2015-11-10T10:48:48Z</time>
      </trkpt>
      <trkpt lat="45.63885" lon="6.11447">
        <ele>1703.771064026</ele>
        <time>2015-11-10T10:48:57Z</time>
      </trkpt>
      <trkpt lat="45.63889" lon="6.1145">
        <ele>1703.771064026</ele>
        <time>2015-11-10T10:49:02Z</time>
      </trkpt>
      <trkpt lat="45.639" lon="6.11456">
        <ele>1705.670268639</ele>
        <time>2015-11-10T10:49:18Z</time>
      </trkpt>
      <trkpt lat="45.63905" lon="6.11457">
        <ele>1705.670268639</ele>
        <time>2015-11-10T10:49:22Z</time>
      </trkpt>
      <trkpt lat="45.63912" lon="6.11464">
        <ele>1708.221268078</ele>
        <time>2015-11-10T10:49:32Z</time>
      </trkpt>
      <trkpt lat="45.63916" lon="6.11468">
        <ele>1708.221268078</ele>
        <time>2015-11-10T10:49:38Z</time>
      </trkpt>
      <trkpt lat="45.63923" lon="6.11467">
        <ele>1711.939934187</ele>
        <time>2015-11-10T10:49:50Z</time>
      </trkpt>
      <trkpt lat="45.63926" lon="6.1147">
        <ele>1711.939934187</ele>
        <time>2015-11-10T10:49:53Z</time>
      </trkpt>
      <trkpt lat="45.6395" lon="6.11481">
        <ele>1717.445335022</ele>
        <time>2015-11-10T10:50:33Z</time>
      </trkpt>
      <trkpt lat="45.63957" lon="6.1148">
        <ele>1717.445335022</ele>
        <time>2015-11-10T10:50:40Z</time>
      </trkpt>
      <trkpt lat="45.63958" lon="6.11479">
        <ele>1717.445335022</ele>
        <time>2015-11-10T10:50:42Z</time>
      </trkpt>
      <trkpt lat="45.63965" lon="6.11481">
        <ele>1723.432890662</ele>
        <time>2015-11-10T10:50:54Z</time>
      </trkpt>
      <trkpt lat="45.63969" lon="6.11484">
        <ele>1723.432890662</ele>
        <time>2015-11-10T10:51:09Z</time>
      </trkpt>
      <trkpt lat="45.63969" lon="6.11484">
        <ele>1723.432890662</ele>
        <time>2015-11-10T10:51:09Z</time>
      </trkpt>
      <trkpt lat="45.6397" lon="6.11494">
        <ele>1729.413377934</ele>
        <time>2015-11-10T10:51:25Z</time>
      </trkpt>
      <trkpt lat="45.6397" lon="6.11495">
        <ele>1729.413377934</ele>
        <time>2015-11-10T10:51:25Z</time>
      </trkpt>
      <trkpt lat="45.63971" lon="6.11495">
        <ele>1729.413377934</ele>
        <time>2015-11-10T10:51:27Z</time>
      </trkpt>
      <trkpt lat="45.63976" lon="6.115">
        <ele>1729.413377934</ele>
        <time>2015-11-10T10:51:42Z</time>
      </trkpt>
      <trkpt lat="45.63979" lon="6.115">
        <ele>1735.654444175</ele>
        <time>2015-11-10T10:51:47Z</time>
      </trkpt>
      <trkpt lat="45.63984" lon="6.11504">
        <ele>1735.654444175</ele>
        <time>2015-11-10T10:51:58Z</time>
      </trkpt>
      <trkpt lat="45.63986" lon="6.11505">
        <ele>1735.654444175</ele>
        <time>2015-11-10T10:52:02Z</time>
      </trkpt>
      <trkpt lat="45.63991" lon="6.11508">
        <ele>1742.547850408</ele>
        <time>2015-11-10T10:52:12Z</time>
      </trkpt>
      <trkpt lat="45.63993" lon="6.11511">
        <ele>1742.547850408</ele>
        <time>2015-11-10T10:52:18Z</time>
      </trkpt>
      <trkpt lat="45.63997" lon="6.11512">
        <ele>1742.547850408</ele>
        <time>2015-11-10T10:52:28Z</time>
      </trkpt>
      <trkpt lat="45.63998" lon="6.11511">
        <ele>1742.547850408</ele>
        <time>2015-11-10T10:52:32Z</time>
      </trkpt>
      <trkpt lat="45.64009" lon="6.11505">
        <ele>1750.02284726</ele>
        <time>2015-11-10T10:52:42Z</time>
      </trkpt>
      <trkpt lat="45.64011" lon="6.11508">
        <ele>1750.02284726</ele>
        <time>2015-11-10T10:52:47Z</time>
      </trkpt>
      <trkpt lat="45.64015" lon="6.11506">
        <ele>1750.02284726</ele>
        <time>2015-11-10T10:53:07Z</time>
      </trkpt>
      <trkpt lat="45.64015" lon="6.11507">
        <ele>1750.02284726</ele>
        <time>2015-11-10T10:53:08Z</time>
      </trkpt>
      <trkpt lat="45.64015" lon="6.11508">
        <ele>1750.02284726</ele>
        <time>2015-11-10T10:53:09Z</time>
      </trkpt>
      <trkpt lat="45.64018" lon="6.11517">
        <ele>1758.589164664</ele>
        <time>2015-11-10T10:53:34Z</time>
      </trkpt>
      <trkpt lat="45.64017" lon="6.11521">
        <ele>1758.589164664</ele>
        <time>2015-11-10T10:53:37Z</time>
      </trkpt>
      <trkpt lat="45.64025" lon="6.11525">
        <ele>1767.995978575</ele>
        <time>2015-11-10T10:54:09Z</time>
      </trkpt>
      <trkpt lat="45.64025" lon="6.11525">
        <ele>1767.995978575</ele>
        <time>2015-11-10T10:54:09Z</time>
      </trkpt>
      <trkpt lat="45.64025" lon="6.11525">
        <ele>1767.995978575</ele>
        <time>2015-11-10T10:54:09Z</time>
      </trkpt>
      <trkpt lat="45.64031" lon="6.11527">
        <ele>1767.995978575</ele>
        <time>2015-11-10T10:54:20Z</time>
      </trkpt>
      <trkpt lat="45.64032" lon="6.11527">
        <ele>1767.995978575</ele>
        <time>2015-11-10T10:54:20Z</time>
      </trkpt>
      <trkpt lat="45.64035" lon="6.1153">
        <ele>1776.856189756</ele>
        <time>2015-11-10T10:54:23Z</time>
      </trkpt>
      <trkpt lat="45.64039" lon="6.11534">
        <ele>1776.856189756</ele>
        <time>2015-11-10T10:54:36Z</time>
      </trkpt>
      <trkpt lat="45.64038" lon="6.11536">
        <ele>1776.856189756</ele>
        <time>2015-11-10T10:54:38Z</time>
      </trkpt>
      <trkpt lat="45.64038" lon="6.11535">
        <ele>1776.856189756</ele>
        <time>2015-11-10T10:54:38Z</time>
      </trkpt>
      <trkpt lat="45.64038" lon="6.11538">
        <ele>1776.856189756</ele>
        <time>2015-11-10T10:54:42Z</time>
      </trkpt>
      <trkpt lat="45.64037" lon="6.11538">
        <ele>1786.192492081</ele>
        <time>2015-11-10T10:54:52Z</time>
      </trkpt>
      <trkpt lat="45.64034" lon="6.11542">
        <ele>1786.192492081</ele>
        <time>2015-11-10T10:54:58Z</time>
      </trkpt>
      <trkpt lat="45.64033" lon="6.11549">
        <ele>1786.192492081</ele>
        <time>2015-11-10T10:55:07Z</time>
      </trkpt>
      <trkpt lat="45.64031" lon="6.11552">
        <ele>1795.222405297</ele>
        <time>2015-11-10T10:55:12Z</time>
      </trkpt>
      <trkpt lat="45.64038" lon="6.11556">
        <ele>1795.222405297</ele>
        <time>2015-11-10T10:55:22Z</time>
      </trkpt>
      <trkpt lat="45.6404" lon="6.11556">
        <ele>1795.222405297</ele>
        <time>2015-11-10T10:55:28Z</time>
      </trkpt>
      <trkpt lat="45.64049" lon="6.11559">
        <ele>1804.951778699</ele>
        <time>2015-11-10T10:55:38Z</time>
      </trkpt>
      <trkpt lat="45.64051" lon="6.1156">
        <ele>1804.951778699</ele>
        <time>2015-11-10T10:55:42Z</time>
      </trkpt>
      <trkpt lat="45.64052" lon="6.11568">
        <ele>1804.951778699</ele>
        <time>2015-11-10T10:55:52Z</time>
      </trkpt>
      <trkpt lat="45.64061" lon="6.11575">
        <ele>1814.293738303</ele>
        <time>2015-11-10T10:56:10Z</time>
      </trkpt>
      <trkpt lat="45.64061" lon="6.11575">
        <ele>1814.293738303</ele>
        <time>2015-11-10T10:56:12Z</time>
      </trkpt>
      <trkpt lat="45.64069" lon="6.11581">
        <ele>1814.293738303</ele>
        <time>2015-11-10T10:56:45Z</time>
      </trkpt>
      <trkpt lat="45.64069" lon="6.11581">
        <ele>1814.293738303</ele>
        <time>2015-11-10T10:56:47Z</time>
      </trkpt>
      <trkpt lat="45.64067" lon="6.11586">
        <ele>1824.548828192</ele>
        <time>2015-11-10T10:56:57Z</time>
      </trkpt>
      <trkpt lat="45.64068" lon="6.1159">
        <ele>1824.548828192</ele>
        <time>2015-11-10T10:57:02Z</time>
      </trkpt>
      <trkpt lat="45.64077" lon="6.11593">
        <ele>1835.04678468</ele>
        <time>2015-11-10T10:57:12Z</time>
      </trkpt>
      <trkpt lat="45.64076" lon="6.11592">
        <ele>1835.04678468</ele>
        <time>2015-11-10T10:57:18Z</time>
      </trkpt>
      <trkpt lat="45.64077" lon="6.11592">
        <ele>1835.04678468</ele>
        <time>2015-11-10T10:57:27Z</time>
      </trkpt>
      <trkpt lat="45.64077" lon="6.11599">
        <ele>1835.04678468</ele>
        <time>2015-11-10T10:57:33Z</time>
      </trkpt>
      <trkpt lat="45.64087" lon="6.11603">
        <ele>1845.022547071</ele>
        <time>2015-11-10T10:57:42Z</time>
      </trkpt>
      <trkpt lat="45.6409" lon="6.11602">
        <ele>1845.022547071</ele>
        <time>2015-11-10T10:57:47Z</time>
      </trkpt>
      <trkpt lat="45.64091" lon="6.11603">
        <ele>1845.022547071</ele>
        <time>2015-11-10T10:57:57Z</time>
      </trkpt>
      <trkpt lat="45.64091" lon="6.11603">
        <ele>1845.022547071</ele>
        <time>2015-11-10T10:58:02Z</time>
      </trkpt>
      <trkpt lat="45.64093" lon="6.11602">
        <ele>1845.022547071</ele>
        <time>2015-11-10T10:58:07Z</time>
      </trkpt>
      <trkpt lat="45.64097" lon="6.11604">
        <ele>1854.778275761</ele>
        <time>2015-11-10T10:58:13Z</time>
      </trkpt>
      <trkpt lat="45.64099" lon="6.11605">
        <ele>1854.778275761</ele>
        <time>2015-11-10T10:58:17Z</time>
      </trkpt>
      <trkpt lat="45.64105" lon="6.11611">
        <ele>1864.595344494</ele>
        <time>2015-11-10T10:58:33Z</time>
      </trkpt>
      <trkpt lat="45.64104" lon="6.11612">
        <ele>1864.595344494</ele>
        <time>2015-11-10T10:58:37Z</time>
      </trkpt>
      <trkpt lat="45.64104" lon="6.11612">
        <ele>1864.595344494</ele>
        <time>2015-11-10T10:58:47Z</time>
      </trkpt>
      <trkpt lat="45.64104" lon="6.11612">
        <ele>1864.595344494</ele>
        <time>2015-11-10T10:58:52Z</time>
      </trkpt>
      <trkpt lat="45.64113" lon="6.11618">
        <ele>1873.870420887</ele>
        <time>2015-11-10T10:59:02Z</time>
      </trkpt>
      <trkpt lat="45.64118" lon="6.11619">
        <ele>1873.870420887</ele>
        <time>2015-11-10T10:59:07Z</time>
      </trkpt>
      <trkpt lat="45.64119" lon="6.11623">
        <ele>1873.870420887</ele>
        <time>2015-11-10T10:59:17Z</time>
      </trkpt>
      <trkpt lat="45.6412" lon="6.11626">
        <ele>1882.76737609</ele>
        <time>2015-11-10T10:59:23Z</time>
      </trkpt>
      <trkpt lat="45.64126" lon="6.11631">
        <ele>1882.76737609</ele>
        <time>2015-11-10T10:59:32Z</time>
      </trkpt>
      <trkpt lat="45.64128" lon="6.11635">
        <ele>1891.007576015</ele>
        <time>2015-11-10T10:59:38Z</time>
      </trkpt>
      <trkpt lat="45.64132" lon="6.1164">
        <ele>1891.007576015</ele>
        <time>2015-11-10T10:59:48Z</time>
      </trkpt>
      <trkpt lat="45.64135" lon="6.11643">
        <ele>1891.007576015</ele>
        <time>2015-11-10T10:59:53Z</time>
      </trkpt>
      <trkpt lat="45.64146" lon="6.11653">
        <ele>1899.632497435</ele>
        <time>2015-11-10T11:00:08Z</time>
      </trkpt>
      <trkpt lat="45.64146" lon="6.11654">
        <ele>1899.632497435</ele>
        <time>2015-11-10T11:00:08Z</time>
      </trkpt>
      <trkpt lat="45.64153" lon="6.11661">
        <ele>1907.156929498</ele>
        <time>2015-11-10T11:00:22Z</time>
      </trkpt>
      <trkpt lat="45.64155" lon="6.11661">
        <ele>1907.156929498</ele>
        <time>2015-11-10T11:00:22Z</time>
      </trkpt>
      <trkpt lat="45.64167" lon="6.1167">
        <ele>1914.37029002</ele>
        <time>2015-11-10T11:00:38Z</time>
      </trkpt>
      <trkpt lat="45.64168" lon="6.1167">
        <ele>1914.37029002</ele>
        <time>2015-11-10T11:00:44Z</time>
      </trkpt>
      <trkpt lat="45.64172" lon="6.11676">
        <ele>1914.37029002</ele>
        <time>2015-11-10T11:00:57Z</time>
      </trkpt>
      <trkpt lat="45.64172" lon="6.11677">
        <ele>1914.37029002</ele>
        <time>2015-11-10T11:01:02Z</time>
      </trkpt>
      <trkpt lat="45.64174" lon="6.1168">
        <ele>1921.861519528</ele>
        <time>2015-11-10T11:01:12Z</time>
      </trkpt>
      <trkpt lat="45.64173" lon="6.11682">
        <ele>1921.861519528</ele>
        <time>2015-11-10T11:01:17Z</time>
      </trkpt>
      <trkpt lat="45.64172" lon="6.11685">
        <ele>1921.861519528</ele>
        <time>2015-11-10T11:01:27Z</time>
      </trkpt>
      <trkpt lat="45.64172" lon="6.11686">
        <ele>1921.861519528</ele>
        <time>2015-11-10T11:01:33Z</time>
      </trkpt>
      <trkpt lat="45.64171" lon="6.11693">
        <ele>1929.888023241</ele>
        <time>2015-11-10T11:01:42Z</time>
      </trkpt>
      <trkpt lat="45.64173" lon="6.11698">
        <ele>1929.888023241</ele>
        <time>2015-11-10T11:01:47Z</time>
      </trkpt>
      <trkpt lat="45.64177" lon="6.11707">
        <ele>1937.246389854</ele>
        <time>2015-11-10T11:01:58Z</time>
      </trkpt>
      <trkpt lat="45.64175" lon="6.11709">
        <ele>1937.246389854</ele>
        <time>2015-11-10T11:02:02Z</time>
      </trkpt>
      <trkpt lat="45.64176" lon="6.11713">
        <ele>1937.246389854</ele>
        <time>2015-11-10T11:02:12Z</time>
      </trkpt>
      <trkpt lat="45.64176" lon="6.11714">
        <ele>1937.246389854</ele>
        <time>2015-11-10T11:02:17Z</time>
      </trkpt>
      <trkpt lat="45.6418" lon="6.1172">
        <ele>1944.409388202</ele>
        <time>2015-11-10T11:02:32Z</time>
      </trkpt>
      <trkpt lat="45.64183" lon="6.1172">
        <ele>1944.409388202</ele>
        <time>2015-11-10T11:02:37Z</time>
      </trkpt>
      <trkpt lat="45.64184" lon="6.11725">
        <ele>1944.409388202</ele>
        <time>2015-11-10T11:02:48Z</time>
      </trkpt>
      <trkpt lat="45.64186" lon="6.11727">
        <ele>1944.409388202</ele>
        <time>2015-11-10T11:02:52Z</time>
      </trkpt>
      <trkpt lat="45.64187" lon="6.11728">
        <ele>1950.951594028</ele>
        <time>2015-11-10T11:03:03Z</time>
      </trkpt>
      <trkpt lat="45.64188" lon="6.1173">
        <ele>1950.951594028</ele>
        <time>2015-11-10T11:03:07Z</time>
      </trkpt>
      <trkpt lat="45.64192" lon="6.11737">
        <ele>1950.951594028</ele>
        <time>2015-11-10T11:03:18Z</time>
      </trkpt>
      <trkpt lat="45.64192" lon="6.11736">
        <ele>1950.951594028</ele>
        <time>2015-11-10T11:03:22Z</time>
      </trkpt>
      <trkpt lat="45.64202" lon="6.11744">
        <ele>1957.922315777</ele>
        <time>2015-11-10T11:03:32Z</time>
      </trkpt>
      <trkpt lat="45.64205" lon="6.11745">
        <ele>1957.922315777</ele>
        <time>2015-11-10T11:03:37Z</time>
      </trkpt>
      <trkpt lat="45.64204" lon="6.11749">
        <ele>1957.922315777</ele>
        <time>2015-11-10T11:03:47Z</time>
      </trkpt>
      <trkpt lat="45.6421" lon="6.11751">
        <ele>1964.275620036</ele>
        <time>2015-11-10T11:03:52Z</time>
      </trkpt>
      <trkpt lat="45.64232" lon="6.11765">
        <ele>1971.206374822</ele>
        <time>2015-11-10T11:04:20Z</time>
      </trkpt>
      <trkpt lat="45.64231" lon="6.11766">
        <ele>1971.206374822</ele>
        <time>2015-11-10T11:04:22Z</time>
      </trkpt>
      <trkpt lat="45.64238" lon="6.11774">
        <ele>1977.803035414</ele>
        <time>2015-11-10T11:04:43Z</time>
      </trkpt>
      <trkpt lat="45.64239" lon="6.11776">
        <ele>1977.803035414</ele>
        <time>2015-11-10T11:04:43Z</time>
      </trkpt>
      <trkpt lat="45.64245" lon="6.1178">
        <ele>1977.803035414</ele>
        <time>2015-11-10T11:04:56Z</time>
      </trkpt>
      <trkpt lat="45.64245" lon="6.11779">
        <ele>1977.803035414</ele>
        <time>2015-11-10T11:04:57Z</time>
      </trkpt>
      <trkpt lat="45.64247" lon="6.11779">
        <ele>1984.231241905</ele>
        <time>2015-11-10T11:05:02Z</time>
      </trkpt>
      <trkpt lat="45.64275" lon="6.11791">
        <ele>1990.645417189</ele>
        <time>2015-11-10T11:05:42Z</time>
      </trkpt>
      <trkpt lat="45.64275" lon="6.11791">
        <ele>1990.645417189</ele>
        <time>2015-11-10T11:05:42Z</time>
      </trkpt>
      <trkpt lat="45.64276" lon="6.11798">
        <ele>1990.645417189</ele>
        <time>2015-11-10T11:05:56Z</time>
      </trkpt>
      <trkpt lat="45.64283" lon="6.11798">
        <ele>1997.333240175</ele>
        <time>2015-11-10T11:06:07Z</time>
      </trkpt>
      <trkpt lat="45.64286" lon="6.11799">
        <ele>1997.333240175</ele>
        <time>2015-11-10T11:06:12Z</time>
      </trkpt>
      <trkpt lat="45.64288" lon="6.11805">
        <ele>1997.333240175</ele>
        <time>2015-11-10T11:06:23Z</time>
      </trkpt>
      <trkpt lat="45.6429" lon="6.11807">
        <ele>2003.984465576</ele>
        <time>2015-11-10T11:06:27Z</time>
      </trkpt>
      <trkpt lat="45.643" lon="6.11814">
        <ele>2009.879799964</ele>
        <time>2015-11-10T11:06:38Z</time>
      </trkpt>
      <trkpt lat="45.64301" lon="6.11816">
        <ele>2009.879799964</ele>
        <time>2015-11-10T11:06:42Z</time>
      </trkpt>
      <trkpt lat="45.64312" lon="6.11819">
        <ele>2016.0846079</ele>
        <time>2015-11-10T11:06:58Z</time>
      </trkpt>
      <trkpt lat="45.64315" lon="6.1182">
        <ele>2016.0846079</ele>
        <time>2015-11-10T11:07:02Z</time>
      </trkpt>
      <trkpt lat="45.6432" lon="6.11821">
        <ele>2016.0846079</ele>
        <time>2015-11-10T11:07:30Z</time>
      </trkpt>
      <trkpt lat="45.6432" lon="6.11821">
        <ele>2016.0846079</ele>
        <time>2015-11-10T11:07:32Z</time>
      </trkpt>
      <trkpt lat="45.6432" lon="6.11821">
        <ele>2016.0846079</ele>
        <time>2015-11-10T11:07:44Z</time>
      </trkpt>
      <trkpt lat="45.6432" lon="6.11821">
        <ele>2016.0846079</ele>
        <time>2015-11-10T11:07:47Z</time>
      </trkpt>
      <trkpt lat="45.64337" lon="6.11824">
        <ele>2022.288461373</ele>
        <time>2015-11-10T11:08:22Z</time>
      </trkpt>
      <trkpt lat="45.6434" lon="6.11825">
        <ele>2022.288461373</ele>
        <time>2015-11-10T11:08:22Z</time>
      </trkpt>
      <trkpt lat="45.6436" lon="6.11829">
        <ele>2028.204048232</ele>
        <time>2015-11-10T11:08:37Z</time>
      </trkpt>
      <trkpt lat="45.64363" lon="6.1183">
        <ele>2028.204048232</ele>
        <time>2015-11-10T11:08:38Z</time>
      </trkpt>
      <trkpt lat="45.64371" lon="6.11839">
        <ele>2033.278028876</ele>
        <time>2015-11-10T11:08:51Z</time>
      </trkpt>
      <trkpt lat="45.64371" lon="6.11839">
        <ele>2033.278028876</ele>
        <time>2015-11-10T11:08:51Z</time>
      </trkpt>
      <trkpt lat="45.64379" lon="6.11851">
        <ele>2037.432656142</ele>
        <time>2015-11-10T11:09:10Z</time>
      </trkpt>
      <trkpt lat="45.64379" lon="6.11853">
        <ele>2037.432656142</ele>
        <time>2015-11-10T11:09:12Z</time>
      </trkpt>
      <trkpt lat="45.64392" lon="6.11866">
        <ele>2041.607468944</ele>
        <time>2015-11-10T11:09:31Z</time>
      </trkpt>
      <trkpt lat="45.644" lon="6.11874">
        <ele>2045.952559149</ele>
        <time>2015-11-10T11:09:44Z</time>
      </trkpt>
      <trkpt lat="45.64402" lon="6.11876">
        <ele>2045.952559149</ele>
        <time>2015-11-10T11:09:47Z</time>
      </trkpt>
      <trkpt lat="45.64411" lon="6.11881">
        <ele>2049.741995839</ele>
        <time>2015-11-10T11:09:59Z</time>
      </trkpt>
      <trkpt lat="45.64412" lon="6.11885">
        <ele>2049.741995839</ele>
        <time>2015-11-10T11:10:02Z</time>
      </trkpt>
      <trkpt lat="45.64419" lon="6.11888">
        <ele>2053.169512101</ele>
        <time>2015-11-10T11:10:13Z</time>
      </trkpt>
      <trkpt lat="45.64423" lon="6.11893">
        <ele>2053.169512101</ele>
        <time>2015-11-10T11:10:18Z</time>
      </trkpt>
      <trkpt lat="45.6443" lon="6.11899">
        <ele>2056.703924445</ele>
        <time>2015-11-10T11:10:28Z</time>
      </trkpt>
      <trkpt lat="45.64433" lon="6.11903">
        <ele>2056.703924445</ele>
        <time>2015-11-10T11:10:32Z</time>
      </trkpt>
      <trkpt lat="45.64439" lon="6.11909">
        <ele>2060.202909559</ele>
        <time>2015-11-10T11:10:47Z</time>
      </trkpt>
      <trkpt lat="45.64446" lon="6.11918">
        <ele>2063.390598016</ele>
        <time>2015-11-10T11:10:58Z</time>
      </trkpt>
      <trkpt lat="45.64448" lon="6.11921">
        <ele>2063.390598016</ele>
        <time>2015-11-10T11:11:02Z</time>
      </trkpt>
      <trkpt lat="45.64449" lon="6.11935">
        <ele>2065.72401443</ele>
        <time>2015-11-10T11:11:17Z</time>
      </trkpt>
      <trkpt lat="45.64446" lon="6.11941">
        <ele>2065.72401443</ele>
        <time>2015-11-10T11:11:22Z</time>
      </trkpt>
      <trkpt lat="45.64453" lon="6.11945">
        <ele>2067.855301487</ele>
        <time>2015-11-10T11:11:32Z</time>
      </trkpt>
      <trkpt lat="45.64459" lon="6.11949">
        <ele>2067.855301487</ele>
        <time>2015-11-10T11:11:37Z</time>
      </trkpt>
      <trkpt lat="45.64466" lon="6.11961">
        <ele>2068.659839827</ele>
        <time>2015-11-10T11:11:47Z</time>
      </trkpt>
      <trkpt lat="45.64472" lon="6.11965">
        <ele>2068.659839827</ele>
        <time>2015-11-10T11:11:52Z</time>
      </trkpt>
      <trkpt lat="45.64474" lon="6.11976">
        <ele>2068.972665058</ele>
        <time>2015-11-10T11:12:03Z</time>
      </trkpt>
      <trkpt lat="45.64477" lon="6.1198">
        <ele>2068.972665058</ele>
        <time>2015-11-10T11:12:08Z</time>
      </trkpt>
      <trkpt lat="45.64481" lon="6.11982">
        <ele>2068.972665058</ele>
        <time>2015-11-10T11:12:17Z</time>
      </trkpt>
      <trkpt lat="45.64483" lon="6.11988">
        <ele>2069.136352531</ele>
        <time>2015-11-10T11:12:22Z</time>
      </trkpt>
      <trkpt lat="45.64494" lon="6.11994">
        <ele>2068.027412168</ele>
        <time>2015-11-10T11:12:32Z</time>
      </trkpt>
      <trkpt lat="45.64496" lon="6.11993">
        <ele>2068.027412168</ele>
        <time>2015-11-10T11:12:38Z</time>
      </trkpt>
      <trkpt lat="45.64495" lon="6.11989">
        <ele>2068.027412168</ele>
        <time>2015-11-10T11:12:47Z</time>
      </trkpt>
      <trkpt lat="45.64496" lon="6.11986">
        <ele>2068.027412168</ele>
        <time>2015-11-10T11:12:52Z</time>
      </trkpt>
      <trkpt lat="45.64505" lon="6.11979">
        <ele>2065.328758423</ele>
        <time>2015-11-10T11:13:11Z</time>
      </trkpt>
      <trkpt lat="45.64507" lon="6.11977">
        <ele>2065.328758423</ele>
        <time>2015-11-10T11:13:28Z</time>
      </trkpt>
      <trkpt lat="45.64513" lon="6.11984">
        <ele>2061.183089904</ele>
        <time>2015-11-10T11:13:45Z</time>
      </trkpt>
      <trkpt lat="45.64513" lon="6.11984">
        <ele>2061.183089904</ele>
        <time>2015-11-10T11:13:45Z</time>
      </trkpt>
      <trkpt lat="45.64516" lon="6.11986">
        <ele>2061.183089904</ele>
        <time>2015-11-10T11:13:58Z</time>
      </trkpt>
      <trkpt lat="45.64516" lon="6.11986">
        <ele>2061.183089904</ele>
        <time>2015-11-10T11:13:58Z</time>
      </trkpt>
      <trkpt lat="45.64521" lon="6.11989">
        <ele>2056.87921633</ele>
        <time>2015-11-10T11:14:08Z</time>
      </trkpt>
      <trkpt lat="45.64524" lon="6.11994">
        <ele>2056.87921633</ele>
        <time>2015-11-10T11:14:12Z</time>
      </trkpt>
      <trkpt lat="45.6454" lon="6.12002">
        <ele>2051.161412714</ele>
        <time>2015-11-10T11:14:27Z</time>
      </trkpt>
      <trkpt lat="45.64543" lon="6.12001">
        <ele>2051.161412714</ele>
        <time>2015-11-10T11:14:32Z</time>
      </trkpt>
      <trkpt lat="45.64547" lon="6.12">
        <ele>2051.161412714</ele>
        <time>2015-11-10T11:14:42Z</time>
      </trkpt>
      <trkpt lat="45.64546" lon="6.11999">
        <ele>2051.161412714</ele>
        <time>2015-11-10T11:14:47Z</time>
      </trkpt>
      <trkpt lat="45.64545" lon="6.11998">
        <ele>2051.161412714</ele>
        <time>2015-11-10T11:14:57Z</time>
      </trkpt>
      <trkpt lat="45.64545" lon="6.11998">
        <ele>2051.161412714</ele>
        <time>2015-11-10T11:15:02Z</time>
      </trkpt>
      <trkpt lat="45.64545" lon="6.11998">
        <ele>2051.161412714</ele>
        <time>2015-11-10T11:15:12Z</time>
      </trkpt>
      <trkpt lat="45.64545" lon="6.11998">
        <ele>2051.161412714</ele>
        <time>2015-11-10T11:15:17Z</time>
      </trkpt>
      <trkpt lat="45.64547" lon="6.11996">
        <ele>2044.166690103</ele>
        <time>2015-11-10T11:15:32Z</time>
      </trkpt>
      <trkpt lat="45.64548" lon="6.11996">
        <ele>2044.166690103</ele>
        <time>2015-11-10T11:15:37Z</time>
      </trkpt>
      <trkpt lat="45.64548" lon="6.11996">
        <ele>2044.166690103</ele>
        <time>2015-11-10T11:15:42Z</time>
      </trkpt>
      <trkpt lat="45.64548" lon="6.11996">
        <ele>2044.166690103</ele>
        <time>2015-11-10T11:15:47Z</time>
      </trkpt>
      <trkpt lat="45.64552" lon="6.12">
        <ele>2044.166690103</ele>
        <time>2015-11-10T11:15:57Z</time>
      </trkpt>
      <trkpt lat="45.64553" lon="6.11995">
        <ele>2037.61026175</ele>
        <time>2015-11-10T11:16:03Z</time>
      </trkpt>
      <trkpt lat="45.64561" lon="6.11995">
        <ele>2037.61026175</ele>
        <time>2015-11-10T11:16:12Z</time>
      </trkpt>
      <trkpt lat="45.64563" lon="6.11995">
        <ele>2031.061957538</ele>
        <time>2015-11-10T11:16:17Z</time>
      </trkpt>
      <trkpt lat="45.64565" lon="6.11999">
        <ele>2031.061957538</ele>
        <time>2015-11-10T11:16:27Z</time>
      </trkpt>
      <trkpt lat="45.64565" lon="6.11997">
        <ele>2031.061957538</ele>
        <time>2015-11-10T11:16:32Z</time>
      </trkpt>
      <trkpt lat="45.64568" lon="6.11993">
        <ele>2023.834304138</ele>
        <time>2015-11-10T11:16:43Z</time>
      </trkpt>
      <trkpt lat="45.64571" lon="6.11994">
        <ele>2023.834304138</ele>
        <time>2015-11-10T11:16:47Z</time>
      </trkpt>
      <trkpt lat="45.64572" lon="6.11993">
        <ele>2023.834304138</ele>
        <time>2015-11-10T11:17:02Z</time>
      </trkpt>
      <trkpt lat="45.64572" lon="6.11994">
        <ele>2023.834304138</ele>
        <time>2015-11-10T11:17:07Z</time>
      </trkpt>
      <trkpt lat="45.64572" lon="6.11994">
        <ele>2023.834304138</ele>
        <time>2015-11-10T11:17:18Z</time>
      </trkpt>
      <trkpt lat="45.64572" lon="6.11994">
        <ele>2023.834304138</ele>
        <time>2015-11-10T11:17:22Z</time>
      </trkpt>
      <trkpt lat="45.64571" lon="6.12001">
        <ele>2015.435631926</ele>
        <time>2015-11-10T11:17:32Z</time>
      </trkpt>
      <trkpt lat="45.64572" lon="6.12006">
        <ele>2015.435631926</ele>
        <time>2015-11-10T11:17:37Z</time>
      </trkpt>
      <trkpt lat="45.64578" lon="6.12007">
        <ele>2008.1510212</ele>
        <time>2015-11-10T11:17:47Z</time>
      </trkpt>
      <trkpt lat="45.64578" lon="6.12008">
        <ele>2008.1510212</ele>
        <time>2015-11-10T11:17:52Z</time>
      </trkpt>
      <trkpt lat="45.64584" lon="6.1201">
        <ele>2008.1510212</ele>
        <time>2015-11-10T11:18:02Z</time>
      </trkpt>
      <trkpt lat="45.64587" lon="6.12009">
        <ele>1999.914529258</ele>
        <time>2015-11-10T11:18:07Z</time>
      </trkpt>
      <trkpt lat="45.64588" lon="6.12011">
        <ele>1999.914529258</ele>
        <time>2015-11-10T11:18:12Z</time>
      </trkpt>
      <trkpt lat="45.64587" lon="6.12012">
        <ele>1999.914529258</ele>
        <time>2015-11-10T11:18:22Z</time>
      </trkpt>
      <trkpt lat="45.64587" lon="6.12012">
        <ele>1999.914529258</ele>
        <time>2015-11-10T11:18:27Z</time>
      </trkpt>
      <trkpt lat="45.64587" lon="6.12012">
        <ele>1999.914529258</ele>
        <time>2015-11-10T11:18:37Z</time>
      </trkpt>
      <trkpt lat="45.64587" lon="6.12012">
        <ele>1999.914529258</ele>
        <time>2015-11-10T11:18:42Z</time>
      </trkpt>
      <trkpt lat="45.64598" lon="6.12015">
        <ele>1990.975455381</ele>
        <time>2015-11-10T11:18:53Z</time>
      </trkpt>
      <trkpt lat="45.64601" lon="6.1202">
        <ele>1990.975455381</ele>
        <time>2015-11-10T11:18:57Z</time>
      </trkpt>
      <trkpt lat="45.6461" lon="6.12026">
        <ele>1981.854077957</ele>
        <time>2015-11-10T11:19:07Z</time>
      </trkpt>
      <trkpt lat="45.64612" lon="6.12027">
        <ele>1981.854077957</ele>
        <time>2015-11-10T11:19:12Z</time>
      </trkpt>
      <trkpt lat="45.64614" lon="6.1203">
        <ele>1981.854077957</ele>
        <time>2015-11-10T11:19:22Z</time>
      </trkpt>
      <trkpt lat="45.64616" lon="6.1203">
        <ele>1981.854077957</ele>
        <time>2015-11-10T11:19:28Z</time>
      </trkpt>
      <trkpt lat="45.64626" lon="6.12034">
        <ele>1973.032028996</ele>
        <time>2015-11-10T11:19:37Z</time>
      </trkpt>
      <trkpt lat="45.64629" lon="6.12036">
        <ele>1973.032028996</ele>
        <time>2015-11-10T11:19:43Z</time>
      </trkpt>
      <trkpt lat="45.64634" lon="6.12038">
        <ele>1973.032028996</ele>
        <time>2015-11-10T11:19:52Z</time>
      </trkpt>
      <trkpt lat="45.64641" lon="6.1204">
        <ele>1964.377302959</ele>
        <time>2015-11-10T11:19:57Z</time>
      </trkpt>
      <trkpt lat="45.64644" lon="6.12038">
        <ele>1964.377302959</ele>
        <time>2015-11-10T11:20:07Z</time>
      </trkpt>
      <trkpt lat="45.64648" lon="6.12042">
        <ele>1964.377302959</ele>
        <time>2015-11-10T11:20:12Z</time>
      </trkpt>
      <trkpt lat="45.64648" lon="6.12045">
        <ele>1956.198454285</ele>
        <time>2015-11-10T11:20:22Z</time>
      </trkpt>
      <trkpt lat="45.64647" lon="6.12044">
        <ele>1956.198454285</ele>
        <time>2015-11-10T11:20:27Z</time>
      </trkpt>
      <trkpt lat="45.64646" lon="6.12044">
        <ele>1956.198454285</ele>
        <time>2015-11-10T11:20:32Z</time>
      </trkpt>
      <trkpt lat="45.64646" lon="6.12043">
        <ele>1956.198454285</ele>
        <time>2015-11-10T11:20:42Z</time>
      </trkpt>
      <trkpt lat="45.64646" lon="6.12043">
        <ele>1956.198454285</ele>
        <time>2015-11-10T11:20:47Z</time>
      </trkpt>
      <trkpt lat="45.6465" lon="6.12044">
        <ele>1956.198454285</ele>
        <time>2015-11-10T11:20:57Z</time>
      </trkpt>
      <trkpt lat="45.64657" lon="6.12048">
        <ele>1948.490791628</ele>
        <time>2015-11-10T11:21:02Z</time>
      </trkpt>
      <trkpt lat="45.64668" lon="6.12054">
        <ele>1941.535833833</ele>
        <time>2015-11-10T11:21:12Z</time>
      </trkpt>
      <trkpt lat="45.64673" lon="6.12056">
        <ele>1941.535833833</ele>
        <time>2015-11-10T11:21:17Z</time>
      </trkpt>
      <trkpt lat="45.64673" lon="6.12054">
        <ele>1941.535833833</ele>
        <time>2015-11-10T11:21:27Z</time>
      </trkpt>
      <trkpt lat="45.64678" lon="6.12061">
        <ele>1934.870712251</ele>
        <time>2015-11-10T11:21:32Z</time>
      </trkpt>
      <trkpt lat="45.64678" lon="6.12062">
        <ele>1934.870712251</ele>
        <time>2015-11-10T11:21:42Z</time>
      </trkpt>
      <trkpt lat="45.64679" lon="6.12062">
        <ele>1934.870712251</ele>
        <time>2015-11-10T11:21:48Z</time>
      </trkpt>
      <trkpt lat="45.64682" lon="6.12063">
        <ele>1934.870712251</ele>
        <time>2015-11-10T11:21:59Z</time>
      </trkpt>
      <trkpt lat="45.64688" lon="6.12065">
        <ele>1928.641154848</ele>
        <time>2015-11-10T11:22:02Z</time>
      </trkpt>
      <trkpt lat="45.64695" lon="6.12067">
        <ele>1928.641154848</ele>
        <time>2015-11-10T11:22:12Z</time>
      </trkpt>
      <trkpt lat="45.64702" lon="6.1207">
        <ele>1921.538821501</ele>
        <time>2015-11-10T11:22:17Z</time>
      </trkpt>
      <trkpt lat="45.64712" lon="6.12073">
        <ele>1915.379248506</ele>
        <time>2015-11-10T11:22:27Z</time>
      </trkpt>
      <trkpt lat="45.64721" lon="6.12077">
        <ele>1915.379248506</ele>
        <time>2015-11-10T11:22:32Z</time>
      </trkpt>
      <trkpt lat="45.64731" lon="6.12088">
        <ele>1908.814623542</ele>
        <time>2015-11-10T11:22:43Z</time>
      </trkpt>
      <trkpt lat="45.64735" lon="6.12092">
        <ele>1908.814623542</ele>
        <time>2015-11-10T11:22:48Z</time>
      </trkpt>
      <trkpt lat="45.64746" lon="6.12104">
        <ele>1902.469741761</ele>
        <time>2015-11-10T11:22:57Z</time>
      </trkpt>
      <trkpt lat="45.6475" lon="6.12105">
        <ele>1902.469741761</ele>
        <time>2015-11-10T11:23:02Z</time>
      </trkpt>
      <trkpt lat="45.6475" lon="6.12106">
        <ele>1902.469741761</ele>
        <time>2015-11-10T11:23:17Z</time>
      </trkpt>
      <trkpt lat="45.64753" lon="6.12105">
        <ele>1902.469741761</ele>
        <time>2015-11-10T11:23:22Z</time>
      </trkpt>
      <trkpt lat="45.64759" lon="6.12107">
        <ele>1897.498367834</ele>
        <time>2015-11-10T11:23:32Z</time>
      </trkpt>
      <trkpt lat="45.64758" lon="6.12108">
        <ele>1897.498367834</ele>
        <time>2015-11-10T11:23:37Z</time>
      </trkpt>
      <trkpt lat="45.64759" lon="6.12107">
        <ele>1897.498367834</ele>
        <time>2015-11-10T11:23:57Z</time>
      </trkpt>
      <trkpt lat="45.64761" lon="6.12106">
        <ele>1897.498367834</ele>
        <time>2015-11-10T11:23:57Z</time>
      </trkpt>
      <trkpt lat="45.64766" lon="6.12107">
        <ele>1897.498367834</ele>
        <time>2015-11-10T11:24:08Z</time>
      </trkpt>
      <trkpt lat="45.64776" lon="6.12112">
        <ele>1891.361941525</ele>
        <time>2015-11-10T11:24:23Z</time>
      </trkpt>
      <trkpt lat="45.64777" lon="6.12112">
        <ele>1891.361941525</ele>
        <time>2015-11-10T11:24:27Z</time>
      </trkpt>
      <trkpt lat="45.64777" lon="6.12112">
        <ele>1891.361941525</ele>
        <time>2015-11-10T11:24:38Z</time>
      </trkpt>
      <trkpt lat="45.64778" lon="6.12108">
        <ele>1891.361941525</ele>
        <time>2015-11-10T11:24:42Z</time>
      </trkpt>
      <trkpt lat="45.64778" lon="6.12106">
        <ele>1891.361941525</ele>
        <time>2015-11-10T11:24:52Z</time>
      </trkpt>
      <trkpt lat="45.64778" lon="6.12105">
        <ele>1891.361941525</ele>
        <time>2015-11-10T11:24:57Z</time>
      </trkpt>
      <trkpt lat="45.64785" lon="6.12106">
        <ele>1885.889965291</ele>
        <time>2015-11-10T11:25:13Z</time>
      </trkpt>
      <trkpt lat="45.64789" lon="6.12107">
        <ele>1885.889965291</ele>
        <time>2015-11-10T11:25:17Z</time>
      </trkpt>
      <trkpt lat="45.64789" lon="6.1211">
        <ele>1885.889965291</ele>
        <time>2015-11-10T11:25:27Z</time>
      </trkpt>
      <trkpt lat="45.64789" lon="6.1211">
        <ele>1885.889965291</ele>
        <time>2015-11-10T11:25:32Z</time>
      </trkpt>
      <trkpt lat="45.64793" lon="6.12111">
        <ele>1882.774806318</ele>
        <time>2015-11-10T11:25:42Z</time>
      </trkpt>
      <trkpt lat="45.64798" lon="6.12113">
        <ele>1882.774806318</ele>
        <time>2015-11-10T11:25:47Z</time>
      </trkpt>
      <trkpt lat="45.648" lon="6.12115">
        <ele>1882.774806318</ele>
        <time>2015-11-10T11:25:58Z</time>
      </trkpt>
      <trkpt lat="45.64803" lon="6.12118">
        <ele>1880.550727525</ele>
        <time>2015-11-10T11:26:02Z</time>
      </trkpt>
      <trkpt lat="45.64804" lon="6.1212">
        <ele>1880.550727525</ele>
        <time>2015-11-10T11:26:13Z</time>
      </trkpt>
      <trkpt lat="45.64804" lon="6.1212">
        <ele>1880.550727525</ele>
        <time>2015-11-10T11:26:17Z</time>
      </trkpt>
      <trkpt lat="45.64804" lon="6.1212">
        <ele>1880.550727525</ele>
        <time>2015-11-10T11:26:33Z</time>
      </trkpt>
      <trkpt lat="45.64804" lon="6.1212">
        <ele>1880.550727525</ele>
        <time>2015-11-10T11:26:37Z</time>
      </trkpt>
      <trkpt lat="45.64805" lon="6.12132">
        <ele>1879.297484257</ele>
        <time>2015-11-10T11:26:47Z</time>
      </trkpt>
      <trkpt lat="45.64806" lon="6.12132">
        <ele>1879.297484257</ele>
        <time>2015-11-10T11:26:52Z</time>
      </trkpt>
      <trkpt lat="45.64806" lon="6.12134">
        <ele>1879.297484257</ele>
        <time>2015-11-10T11:27:02Z</time>
      </trkpt>
      <trkpt lat="45.64806" lon="6.12135">
        <ele>1879.297484257</ele>
        <time>2015-11-10T11:27:07Z</time>
      </trkpt>
      <trkpt lat="45.64806" lon="6.12136">
        <ele>1879.297484257</ele>
        <time>2015-11-10T11:27:17Z</time>
      </trkpt>
      <trkpt lat="45.64806" lon="6.12136">
        <ele>1879.297484257</ele>
        <time>2015-11-10T11:27:22Z</time>
      </trkpt>
      <trkpt lat="45.64807" lon="6.12134">
        <ele>1879.297484257</ele>
        <time>2015-11-10T11:27:32Z</time>
      </trkpt>
      <trkpt lat="45.64807" lon="6.12135">
        <ele>1879.297484257</ele>
        <time>2015-11-10T11:27:37Z</time>
      </trkpt>
      <trkpt lat="45.64812" lon="6.1214">
        <ele>1879.085513568</ele>
        <time>2015-11-10T11:27:47Z</time>
      </trkpt>
      <trkpt lat="45.64816" lon="6.12141">
        <ele>1879.085513568</ele>
        <time>2015-11-10T11:27:52Z</time>
      </trkpt>
      <trkpt lat="45.64817" lon="6.12141">
        <ele>1879.085513568</ele>
        <time>2015-11-10T11:28:03Z</time>
      </trkpt>
      <trkpt lat="45.64816" lon="6.1214">
        <ele>1879.085513568</ele>
        <time>2015-11-10T11:28:07Z</time>
      </trkpt>
      <trkpt lat="45.64819" lon="6.12132">
        <ele>1880.120596471</ele>
        <time>2015-11-10T11:28:12Z</time>
      </trkpt>
      <trkpt lat="45.64818" lon="6.1214">
        <ele>1880.120596471</ele>
        <time>2015-11-10T11:28:23Z</time>
      </trkpt>
      <trkpt lat="45.64818" lon="6.12143">
        <ele>1880.120596471</ele>
        <time>2015-11-10T11:28:27Z</time>
      </trkpt>
      <trkpt lat="45.64817" lon="6.12141">
        <ele>1880.71584955</ele>
        <time>2015-11-10T11:28:37Z</time>
      </trkpt>
      <trkpt lat="45.64818" lon="6.1214">
        <ele>1880.71584955</ele>
        <time>2015-11-10T11:28:42Z</time>
      </trkpt>
      <trkpt lat="45.64822" lon="6.1214">
        <ele>1880.71584955</ele>
        <time>2015-11-10T11:28:52Z</time>
      </trkpt>
      <trkpt lat="45.64827" lon="6.12143">
        <ele>1881.903007933</ele>
        <time>2015-11-10T11:28:58Z</time>
      </trkpt>
      <trkpt lat="45.64832" lon="6.12144">
        <ele>1881.903007933</ele>
        <time>2015-11-10T11:29:07Z</time>
      </trkpt>
      <trkpt lat="45.64833" lon="6.12146">
        <ele>1881.903007933</ele>
        <time>2015-11-10T11:29:12Z</time>
      </trkpt>
      <trkpt lat="45.64845" lon="6.12161">
        <ele>1883.483003808</ele>
        <time>2015-11-10T11:29:22Z</time>
      </trkpt>
      <trkpt lat="45.64849" lon="6.12166">
        <ele>1883.483003808</ele>
        <time>2015-11-10T11:29:27Z</time>
      </trkpt>
      <trkpt lat="45.64855" lon="6.12167">
        <ele>1885.414009857</ele>
        <time>2015-11-10T11:29:37Z</time>
      </trkpt>
      <trkpt lat="45.64856" lon="6.1217">
        <ele>1885.414009857</ele>
        <time>2015-11-10T11:29:43Z</time>
      </trkpt>
      <trkpt lat="45.64864" lon="6.12169">
        <ele>1887.367740442</ele>
        <time>2015-11-10T11:29:57Z</time>
      </trkpt>
      <trkpt lat="45.64865" lon="6.12175">
        <ele>1887.367740442</ele>
        <time>2015-11-10T11:30:02Z</time>
      </trkpt>
      <trkpt lat="45.64865" lon="6.12177">
        <ele>1887.367740442</ele>
        <time>2015-11-10T11:30:07Z</time>
      </trkpt>
      <trkpt lat="45.64866" lon="6.12175">
        <ele>1887.367740442</ele>
        <time>2015-11-10T11:30:12Z</time>
      </trkpt>
      <trkpt lat="45.64871" lon="6.12175">
        <ele>1889.616149384</ele>
        <time>2015-11-10T11:30:17Z</time>
      </trkpt>
      <trkpt lat="45.64883" lon="6.12174">
        <ele>1892.410194236</ele>
        <time>2015-11-10T11:30:27Z</time>
      </trkpt>
      <trkpt lat="45.64887" lon="6.12172">
        <ele>1892.410194236</ele>
        <time>2015-11-10T11:30:32Z</time>
      </trkpt>
      <trkpt lat="45.64891" lon="6.12172">
        <ele>1892.410194236</ele>
        <time>2015-11-10T11:30:43Z</time>
      </trkpt>
      <trkpt lat="45.64896" lon="6.12173">
        <ele>1894.683735815</ele>
        <time>2015-11-10T11:30:47Z</time>
      </trkpt>
      <trkpt lat="45.64905" lon="6.12177">
        <ele>1894.683735815</ele>
        <time>2015-11-10T11:30:58Z</time>
      </trkpt>
      <trkpt lat="45.6491" lon="6.12178">
        <ele>1897.4678983</ele>
        <time>2015-11-10T11:31:02Z</time>
      </trkpt>
      <trkpt lat="45.64917" lon="6.12184">
        <ele>1897.4678983</ele>
        <time>2015-11-10T11:31:12Z</time>
      </trkpt>
      <trkpt lat="45.6492" lon="6.12184">
        <ele>1899.410832523</ele>
        <time>2015-11-10T11:31:17Z</time>
      </trkpt>
      <trkpt lat="45.6492" lon="6.12185">
        <ele>1899.410832523</ele>
        <time>2015-11-10T11:31:22Z</time>
      </trkpt>
      <trkpt lat="45.64919" lon="6.12186">
        <ele>1899.410832523</ele>
        <time>2015-11-10T11:31:27Z</time>
      </trkpt>
      <trkpt lat="45.64923" lon="6.12189">
        <ele>1899.410832523</ele>
        <time>2015-11-10T11:31:32Z</time>
      </trkpt>
      <trkpt lat="45.64935" lon="6.122">
        <ele>1900.559388029</ele>
        <time>2015-11-10T11:31:43Z</time>
      </trkpt>
      <trkpt lat="45.64937" lon="6.12201">
        <ele>1900.559388029</ele>
        <time>2015-11-10T11:31:47Z</time>
      </trkpt>
      <trkpt lat="45.64936" lon="6.12204">
        <ele>1900.559388029</ele>
        <time>2015-11-10T11:32:02Z</time>
      </trkpt>
      <trkpt lat="45.64935" lon="6.12211">
        <ele>1900.559388029</ele>
        <time>2015-11-10T11:32:17Z</time>
      </trkpt>
      <trkpt lat="45.64936" lon="6.12215">
        <ele>1903.697391644</ele>
        <time>2015-11-10T11:32:22Z</time>
      </trkpt>
      <trkpt lat="45.64936" lon="6.12219">
        <ele>1903.697391644</ele>
        <time>2015-11-10T11:32:33Z</time>
      </trkpt>
      <trkpt lat="45.64937" lon="6.12222">
        <ele>1903.697391644</ele>
        <time>2015-11-10T11:32:37Z</time>
      </trkpt>
      <trkpt lat="45.64937" lon="6.12225">
        <ele>1903.697391644</ele>
        <time>2015-11-10T11:32:47Z</time>
      </trkpt>
      <trkpt lat="45.6494" lon="6.12228">
        <ele>1907.651822422</ele>
        <time>2015-11-10T11:32:53Z</time>
      </trkpt>
      <trkpt lat="45.64943" lon="6.12231">
        <ele>1907.651822422</ele>
        <time>2015-11-10T11:33:02Z</time>
      </trkpt>
      <trkpt lat="45.64944" lon="6.1223">
        <ele>1907.651822422</ele>
        <time>2015-11-10T11:33:07Z</time>
      </trkpt>
      <trkpt lat="45.64948" lon="6.1224">
        <ele>1912.34248221</ele>
        <time>2015-11-10T11:33:18Z</time>
      </trkpt>
      <trkpt lat="45.64948" lon="6.12242">
        <ele>1912.34248221</ele>
        <time>2015-11-10T11:33:22Z</time>
      </trkpt>
      <trkpt lat="45.6495" lon="6.12247">
        <ele>1912.34248221</ele>
        <time>2015-11-10T11:33:32Z</time>
      </trkpt>
      <trkpt lat="45.64951" lon="6.12246">
        <ele>1912.34248221</ele>
        <time>2015-11-10T11:33:37Z</time>
      </trkpt>
      <trkpt lat="45.64956" lon="6.12249">
        <ele>1917.54909948</ele>
        <time>2015-11-10T11:33:48Z</time>
      </trkpt>
      <trkpt lat="45.64957" lon="6.1225">
        <ele>1917.54909948</ele>
        <time>2015-11-10T11:33:52Z</time>
      </trkpt>
      <trkpt lat="45.64956" lon="6.12253">
        <ele>1917.54909948</ele>
        <time>2015-11-10T11:34:02Z</time>
      </trkpt>
      <trkpt lat="45.64957" lon="6.12252">
        <ele>1917.54909948</ele>
        <time>2015-11-10T11:34:07Z</time>
      </trkpt>
      <trkpt lat="45.64959" lon="6.12251">
        <ele>1917.54909948</ele>
        <time>2015-11-10T11:34:18Z</time>
      </trkpt>
      <trkpt lat="45.64959" lon="6.12251">
        <ele>1917.54909948</ele>
        <time>2015-11-10T11:34:22Z</time>
      </trkpt>
      <trkpt lat="45.64961" lon="6.12251">
        <ele>1922.922285925</ele>
        <time>2015-11-10T11:34:27Z</time>
      </trkpt>
      <trkpt lat="45.64969" lon="6.12254">
        <ele>1922.922285925</ele>
        <time>2015-11-10T11:34:37Z</time>
      </trkpt>
      <trkpt lat="45.6497" lon="6.12254">
        <ele>1922.922285925</ele>
        <time>2015-11-10T11:34:42Z</time>
      </trkpt>
      <trkpt lat="45.64971" lon="6.12256">
        <ele>1927.994049213</ele>
        <time>2015-11-10T11:34:52Z</time>
      </trkpt>
      <trkpt lat="45.64973" lon="6.12259">
        <ele>1927.994049213</ele>
        <time>2015-11-10T11:34:57Z</time>
      </trkpt>
      <trkpt lat="45.64974" lon="6.12258">
        <ele>1927.994049213</ele>
        <time>2015-11-10T11:35:07Z</time>
      </trkpt>
      <trkpt lat="45.64981" lon="6.12259">
        <ele>1932.620196315</ele>
        <time>2015-11-10T11:35:12Z</time>
      </trkpt>
      <trkpt lat="45.64989" lon="6.12257">
        <ele>1932.620196315</ele>
        <time>2015-11-10T11:35:22Z</time>
      </trkpt>
      <trkpt lat="45.64989" lon="6.12257">
        <ele>1932.620196315</ele>
        <time>2015-11-10T11:35:27Z</time>
      </trkpt>
      <trkpt lat="45.6499" lon="6.12258">
        <ele>1937.101102572</ele>
        <time>2015-11-10T11:35:37Z</time>
      </trkpt>
      <trkpt lat="45.6499" lon="6.12259">
        <ele>1937.101102572</ele>
        <time>2015-11-10T11:35:42Z</time>
      </trkpt>
      <trkpt lat="45.64992" lon="6.12261">
        <ele>1937.101102572</ele>
        <time>2015-11-10T11:35:53Z</time>
      </trkpt>
      <trkpt lat="45.64995" lon="6.12262">
        <ele>1937.101102572</ele>
        <time>2015-11-10T11:35:57Z</time>
      </trkpt>
      <trkpt lat="45.65003" lon="6.12268">
        <ele>1940.707131947</ele>
        <time>2015-11-10T11:36:07Z</time>
      </trkpt>
      <trkpt lat="45.65005" lon="6.12268">
        <ele>1940.707131947</ele>
        <time>2015-11-10T11:36:12Z</time>
      </trkpt>
      <trkpt lat="45.65009" lon="6.12268">
        <ele>1940.707131947</ele>
        <time>2015-11-10T11:36:23Z</time>
      </trkpt>
      <trkpt lat="45.65009" lon="6.1227">
        <ele>1940.707131947</ele>
        <time>2015-11-10T11:36:27Z</time>
      </trkpt>
      <trkpt lat="45.65013" lon="6.12277">
        <ele>1944.782708988</ele>
        <time>2015-11-10T11:36:42Z</time>
      </trkpt>
      <trkpt lat="45.65016" lon="6.12281">
        <ele>1944.782708988</ele>
        <time>2015-11-10T11:36:47Z</time>
      </trkpt>
      <trkpt lat="45.65017" lon="6.12282">
        <ele>1944.782708988</ele>
        <time>2015-11-10T11:36:58Z</time>
      </trkpt>
      <trkpt lat="45.65017" lon="6.12282">
        <ele>1944.782708988</ele>
        <time>2015-11-10T11:37:02Z</time>
      </trkpt>
      <trkpt lat="45.65027" lon="6.12284">
        <ele>1948.555095994</ele>
        <time>2015-11-10T11:37:12Z</time>
      </trkpt>
      <trkpt lat="45.65031" lon="6.12283">
        <ele>1948.555095994</ele>
        <time>2015-11-10T11:37:17Z</time>
      </trkpt>
      <trkpt lat="45.65037" lon="6.12284">
        <ele>1951.886102721</ele>
        <time>2015-11-10T11:37:27Z</time>
      </trkpt>
      <trkpt lat="45.65037" lon="6.12283">
        <ele>1951.886102721</ele>
        <time>2015-11-10T11:37:32Z</time>
      </trkpt>
      <trkpt lat="45.65041" lon="6.12286">
        <ele>1951.886102721</ele>
        <time>2015-11-10T11:37:42Z</time>
      </trkpt>
      <trkpt lat="45.65043" lon="6.12285">
        <ele>1951.886102721</ele>
        <time>2015-11-10T11:37:47Z</time>
      </trkpt>
      <trkpt lat="45.65044" lon="6.12281">
        <ele>1954.072980576</ele>
        <time>2015-11-10T11:37:57Z</time>
      </trkpt>
      <trkpt lat="45.65044" lon="6.12281">
        <ele>1954.072980576</ele>
        <time>2015-11-10T11:38:02Z</time>
      </trkpt>
      <trkpt lat="45.65049" lon="6.12279">
        <ele>1954.072980576</ele>
        <time>2015-11-10T11:38:20Z</time>
      </trkpt>
      <trkpt lat="45.65051" lon="6.12281">
        <ele>1954.072980576</ele>
        <time>2015-11-10T11:38:22Z</time>
      </trkpt>
      <trkpt lat="45.65056" lon="6.12282">
        <ele>1955.044758095</ele>
        <time>2015-11-10T11:38:32Z</time>
      </trkpt>
      <trkpt lat="45.65061" lon="6.12281">
        <ele>1955.044758095</ele>
        <time>2015-11-10T11:38:48Z</time>
      </trkpt>
      <trkpt lat="45.6506" lon="6.12281">
        <ele>1955.044758095</ele>
        <time>2015-11-10T11:38:52Z</time>
      </trkpt>
      <trkpt lat="45.65066" lon="6.12279">
        <ele>1956.613027228</ele>
        <time>2015-11-10T11:39:03Z</time>
      </trkpt>
      <trkpt lat="45.65068" lon="6.12279">
        <ele>1956.613027228</ele>
        <time>2015-11-10T11:39:07Z</time>
      </trkpt>
      <trkpt lat="45.65069" lon="6.12279">
        <ele>1956.613027228</ele>
        <time>2015-11-10T11:39:17Z</time>
      </trkpt>
      <trkpt lat="45.6507" lon="6.12278">
        <ele>1956.613027228</ele>
        <time>2015-11-10T11:39:22Z</time>
      </trkpt>
      <trkpt lat="45.65075" lon="6.12276">
        <ele>1957.428779142</ele>
        <time>2015-11-10T11:39:32Z</time>
      </trkpt>
      <trkpt lat="45.65075" lon="6.12276">
        <ele>1957.428779142</ele>
        <time>2015-11-10T11:39:39Z</time>
      </trkpt>
      <trkpt lat="45.65075" lon="6.12277">
        <ele>1957.428779142</ele>
        <time>2015-11-10T11:39:48Z</time>
      </trkpt>
      <trkpt lat="45.65075" lon="6.12277">
        <ele>1957.428779142</ele>
        <time>2015-11-10T11:39:52Z</time>
      </trkpt>
      <trkpt lat="45.65081" lon="6.12277">
        <ele>1957.428779142</ele>
        <time>2015-11-10T11:40:03Z</time>
      </trkpt>
      <trkpt lat="45.65081" lon="6.12278">
        <ele>1957.428779142</ele>
        <time>2015-11-10T11:40:07Z</time>
      </trkpt>
      <trkpt lat="45.65082" lon="6.12279">
        <ele>1957.428779142</ele>
        <time>2015-11-10T11:40:12Z</time>
      </trkpt>
      <trkpt lat="45.65085" lon="6.12282">
        <ele>1957.253460505</ele>
        <time>2015-11-10T11:40:23Z</time>
      </trkpt>
      <trkpt lat="45.65086" lon="6.12281">
        <ele>1957.253460505</ele>
        <time>2015-11-10T11:40:27Z</time>
      </trkpt>
      <trkpt lat="45.65086" lon="6.12281">
        <ele>1957.253460505</ele>
        <time>2015-11-10T11:40:37Z</time>
      </trkpt>
      <trkpt lat="45.65086" lon="6.12281">
        <ele>1957.253460505</ele>
        <time>2015-11-10T11:40:42Z</time>
      </trkpt>
      <trkpt lat="45.65086" lon="6.12281">
        <ele>1957.253460505</ele>
        <time>2015-11-10T11:40:52Z</time>
      </trkpt>
      <trkpt lat="45.65086" lon="6.12281">
        <ele>1957.253460505</ele>
        <time>2015-11-10T11:40:57Z</time>
      </trkpt>
      <trkpt lat="45.65086" lon="6.12281">
        <ele>1957.253460505</ele>
        <time>2015-11-10T11:41:07Z</time>
      </trkpt>
      <trkpt lat="45.65086" lon="6.12281">
        <ele>1957.253460505</ele>
        <time>2015-11-10T11:41:13Z</time>
      </trkpt>
      <trkpt lat="45.65086" lon="6.12281">
        <ele>1957.253460505</ele>
        <time>2015-11-10T11:41:23Z</time>
      </trkpt>
      <trkpt lat="45.65086" lon="6.12282">
        <ele>1957.253460505</ele>
        <time>2015-11-10T11:41:27Z</time>
      </trkpt>
      <trkpt lat="45.65087" lon="6.12286">
        <ele>1957.253460505</ele>
        <time>2015-11-10T11:41:38Z</time>
      </trkpt>
      <trkpt lat="45.65089" lon="6.12288">
        <ele>1957.253460505</ele>
        <time>2015-11-10T11:41:42Z</time>
      </trkpt>
      <trkpt lat="45.65091" lon="6.12288">
        <ele>1958.030940157</ele>
        <time>2015-11-10T11:41:57Z</time>
      </trkpt>
      <trkpt lat="45.65091" lon="6.12289">
        <ele>1958.030940157</ele>
        <time>2015-11-10T11:42:02Z</time>
      </trkpt>
      <trkpt lat="45.6509" lon="6.12287">
        <ele>1958.030940157</ele>
        <time>2015-11-10T11:42:12Z</time>
      </trkpt>
      <trkpt lat="45.6509" lon="6.12287">
        <ele>1958.030940157</ele>
        <time>2015-11-10T11:42:18Z</time>
      </trkpt>
      <trkpt lat="45.65089" lon="6.12288">
        <ele>1958.030940157</ele>
        <time>2015-11-10T11:42:28Z</time>
      </trkpt>
      <trkpt lat="45.65088" lon="6.12286">
        <ele>1958.030940157</ele>
        <time>2015-11-10T11:42:32Z</time>
      </trkpt>
      <trkpt lat="45.65088" lon="6.12283">
        <ele>1958.030940157</ele>
        <time>2015-11-10T11:42:43Z</time>
      </trkpt>
      <trkpt lat="45.65088" lon="6.12283">
        <ele>1958.030940157</ele>
        <time>2015-11-10T11:42:47Z</time>
      </trkpt>
      <trkpt lat="45.6509" lon="6.12281">
        <ele>1958.101379947</ele>
        <time>2015-11-10T11:42:57Z</time>
      </trkpt>
      <trkpt lat="45.65091" lon="6.1228">
        <ele>1958.101379947</ele>
        <time>2015-11-10T11:43:03Z</time>
      </trkpt>
      <trkpt lat="45.65093" lon="6.12279">
        <ele>1958.101379947</ele>
        <time>2015-11-10T11:43:12Z</time>
      </trkpt>
      <trkpt lat="45.65093" lon="6.12278">
        <ele>1958.101379947</ele>
        <time>2015-11-10T11:43:17Z</time>
      </trkpt>
      <trkpt lat="45.65093" lon="6.12279">
        <ele>1958.101379947</ele>
        <time>2015-11-10T11:43:28Z</time>
      </trkpt>
      <trkpt lat="45.65093" lon="6.12279">
        <ele>1958.101379947</ele>
        <time>2015-11-10T11:43:32Z</time>
      </trkpt>
      <trkpt lat="45.65093" lon="6.12279">
        <ele>1958.101379947</ele>
        <time>2015-11-10T11:43:43Z</time>
      </trkpt>
      <trkpt lat="45.65093" lon="6.12279">
        <ele>1958.101379947</ele>
        <time>2015-11-10T11:43:47Z</time>
      </trkpt>
      <trkpt lat="45.65093" lon="6.12279">
        <ele>1958.101379947</ele>
        <time>2015-11-10T11:43:52Z</time>
      </trkpt>
      <trkpt lat="45.65094" lon="6.12279">
        <ele>1958.101379947</ele>
        <time>2015-11-10T11:43:57Z</time>
      </trkpt>
      <trkpt lat="45.65095" lon="6.1228">
        <ele>1958.101379947</ele>
        <time>2015-11-10T11:44:07Z</time>
      </trkpt>
      <trkpt lat="45.65095" lon="6.1228">
        <ele>1958.101379947</ele>
        <time>2015-11-10T11:44:12Z</time>
      </trkpt>
      <trkpt lat="45.65099" lon="6.12281">
        <ele>1957.946818427</ele>
        <time>2015-11-10T11:44:22Z</time>
      </trkpt>
      <trkpt lat="45.65104" lon="6.12284">
        <ele>1957.946818427</ele>
        <time>2015-11-10T11:44:28Z</time>
      </trkpt>
      <trkpt lat="45.65105" lon="6.12282">
        <ele>1957.946818427</ele>
        <time>2015-11-10T11:44:37Z</time>
      </trkpt>
      <trkpt lat="45.65107" lon="6.12285">
        <ele>1957.438452144</ele>
        <time>2015-11-10T11:44:42Z</time>
      </trkpt>
      <trkpt lat="45.65111" lon="6.12292">
        <ele>1957.438452144</ele>
        <time>2015-11-10T11:44:53Z</time>
      </trkpt>
      <trkpt lat="45.65113" lon="6.1229">
        <ele>1956.746510957</ele>
        <time>2015-11-10T11:44:58Z</time>
      </trkpt>
      <trkpt lat="45.65115" lon="6.1229">
        <ele>1956.746510957</ele>
        <time>2015-11-10T11:45:07Z</time>
      </trkpt>
      <trkpt lat="45.65118" lon="6.12293">
        <ele>1956.746510957</ele>
        <time>2015-11-10T11:45:12Z</time>
      </trkpt>
      <trkpt lat="45.65118" lon="6.12295">
        <ele>1956.746510957</ele>
        <time>2015-11-10T11:45:22Z</time>
      </trkpt>
      <trkpt lat="45.65117" lon="6.12293">
        <ele>1956.746510957</ele>
        <time>2015-11-10T11:45:27Z</time>
      </trkpt>
      <trkpt lat="45.65119" lon="6.12291">
        <ele>1956.173676068</ele>
        <time>2015-11-10T11:45:32Z</time>
      </trkpt>
      <trkpt lat="45.65122" lon="6.12292">
        <ele>1956.173676068</ele>
        <time>2015-11-10T11:45:43Z</time>
      </trkpt>
      <trkpt lat="45.65127" lon="6.12291">
        <ele>1956.173676068</ele>
        <time>2015-11-10T11:45:47Z</time>
      </trkpt>
      <trkpt lat="45.65133" lon="6.12286">
        <ele>1954.991584056</ele>
        <time>2015-11-10T11:45:57Z</time>
      </trkpt>
      <trkpt lat="45.65141" lon="6.12283">
        <ele>1954.991584056</ele>
        <time>2015-11-10T11:46:12Z</time>
      </trkpt>
      <trkpt lat="45.65141" lon="6.12282">
        <ele>1953.680249421</ele>
        <time>2015-11-10T11:46:18Z</time>
      </trkpt>
      <trkpt lat="45.65141" lon="6.12282">
        <ele>1953.680249421</ele>
        <time>2015-11-10T11:46:28Z</time>
      </trkpt>
      <trkpt lat="45.65141" lon="6.12281">
        <ele>1953.680249421</ele>
        <time>2015-11-10T11:46:32Z</time>
      </trkpt>
      <trkpt lat="45.65145" lon="6.12277">
        <ele>1953.680249421</ele>
        <time>2015-11-10T11:46:42Z</time>
      </trkpt>
      <trkpt lat="45.6515" lon="6.12281">
        <ele>1952.10858853</ele>
        <time>2015-11-10T11:46:48Z</time>
      </trkpt>
      <trkpt lat="45.65156" lon="6.12283">
        <ele>1952.10858853</ele>
        <time>2015-11-10T11:46:57Z</time>
      </trkpt>
      <trkpt lat="45.65159" lon="6.12282">
        <ele>1950.156093303</ele>
        <time>2015-11-10T11:47:03Z</time>
      </trkpt>
      <trkpt lat="45.65162" lon="6.12281">
        <ele>1950.156093303</ele>
        <time>2015-11-10T11:47:13Z</time>
      </trkpt>
      <trkpt lat="45.65164" lon="6.12282">
        <ele>1950.156093303</ele>
        <time>2015-11-10T11:47:17Z</time>
      </trkpt>
      <trkpt lat="45.65165" lon="6.12283">
        <ele>1950.156093303</ele>
        <time>2015-11-10T11:47:27Z</time>
      </trkpt>
      <trkpt lat="45.65166" lon="6.12286">
        <ele>1950.156093303</ele>
        <time>2015-11-10T11:47:32Z</time>
      </trkpt>
      <trkpt lat="45.65168" lon="6.12293">
        <ele>1948.577029898</ele>
        <time>2015-11-10T11:47:43Z</time>
      </trkpt>
      <trkpt lat="45.65169" lon="6.12296">
        <ele>1948.577029898</ele>
        <time>2015-11-10T11:47:48Z</time>
      </trkpt>
      <trkpt lat="45.65173" lon="6.12301">
        <ele>1948.577029898</ele>
        <time>2015-11-10T11:47:58Z</time>
      </trkpt>
      <trkpt lat="45.65174" lon="6.12301">
        <ele>1947.204699946</ele>
        <time>2015-11-10T11:48:02Z</time>
      </trkpt>
      <trkpt lat="45.65187" lon="6.12317">
        <ele>1947.037093316</ele>
        <time>2015-11-10T11:48:17Z</time>
      </trkpt>
      <trkpt lat="45.65197" lon="6.1232">
        <ele>1946.545730461</ele>
        <time>2015-11-10T11:48:33Z</time>
      </trkpt>
      <trkpt lat="45.65203" lon="6.12325">
        <ele>1946.545730461</ele>
        <time>2015-11-10T11:48:37Z</time>
      </trkpt>
      <trkpt lat="45.65215" lon="6.12322">
        <ele>1945.612415512</ele>
        <time>2015-11-10T11:48:47Z</time>
      </trkpt>
      <trkpt lat="45.65222" lon="6.12324">
        <ele>1945.612415512</ele>
        <time>2015-11-10T11:48:52Z</time>
      </trkpt>
      <trkpt lat="45.65246" lon="6.12323">
        <ele>1944.128952271</ele>
        <time>2015-11-10T11:49:03Z</time>
      </trkpt>
      <trkpt lat="45.6525" lon="6.12325">
        <ele>1944.128952271</ele>
        <time>2015-11-10T11:49:07Z</time>
      </trkpt>
      <trkpt lat="45.65258" lon="6.12322">
        <ele>1942.717253021</ele>
        <time>2015-11-10T11:49:17Z</time>
      </trkpt>
      <trkpt lat="45.65262" lon="6.12322">
        <ele>1942.717253021</ele>
        <time>2015-11-10T11:49:24Z</time>
      </trkpt>
      <trkpt lat="45.65267" lon="6.12322">
        <ele>1940.512274358</ele>
        <time>2015-11-10T11:49:32Z</time>
      </trkpt>
      <trkpt lat="45.65269" lon="6.12324">
        <ele>1940.512274358</ele>
        <time>2015-11-10T11:49:38Z</time>
      </trkpt>
      <trkpt lat="45.65269" lon="6.12328">
        <ele>1940.512274358</ele>
        <time>2015-11-10T11:49:47Z</time>
      </trkpt>
      <trkpt lat="45.65269" lon="6.12328">
        <ele>1940.512274358</ele>
        <time>2015-11-10T11:49:52Z</time>
      </trkpt>
      <trkpt lat="45.65277" lon="6.12333">
        <ele>1938.155877848</ele>
        <time>2015-11-10T11:50:02Z</time>
      </trkpt>
      <trkpt lat="45.65279" lon="6.12334">
        <ele>1938.155877848</ele>
        <time>2015-11-10T11:50:07Z</time>
      </trkpt>
      <trkpt lat="45.65295" lon="6.12352">
        <ele>1936.243200947</ele>
        <time>2015-11-10T11:50:25Z</time>
      </trkpt>
      <trkpt lat="45.65296" lon="6.12356">
        <ele>1936.243200947</ele>
        <time>2015-11-10T11:50:27Z</time>
      </trkpt>
      <trkpt lat="45.65302" lon="6.12366">
        <ele>1934.315621497</ele>
        <time>2015-11-10T11:50:37Z</time>
      </trkpt>
      <trkpt lat="45.65307" lon="6.12374">
        <ele>1934.315621497</ele>
        <time>2015-11-10T11:50:42Z</time>
      </trkpt>
      <trkpt lat="45.65307" lon="6.12377">
        <ele>1931.515876988</ele>
        <time>2015-11-10T11:50:52Z</time>
      </trkpt>
      <trkpt lat="45.6531" lon="6.12382">
        <ele>1931.515876988</ele>
        <time>2015-11-10T11:50:57Z</time>
      </trkpt>
      <trkpt lat="45.65316" lon="6.12394">
        <ele>1929.35784722</ele>
        <time>2015-11-10T11:51:08Z</time>
      </trkpt>
      <trkpt lat="45.6532" lon="6.12396">
        <ele>1929.35784722</ele>
        <time>2015-11-10T11:51:12Z</time>
      </trkpt>
      <trkpt lat="45.65325" lon="6.12399">
        <ele>1927.224772693</ele>
        <time>2015-11-10T11:51:22Z</time>
      </trkpt>
      <trkpt lat="45.65328" lon="6.124">
        <ele>1927.224772693</ele>
        <time>2015-11-10T11:51:27Z</time>
      </trkpt>
      <trkpt lat="45.65334" lon="6.12407">
        <ele>1924.689151211</ele>
        <time>2015-11-10T11:51:37Z</time>
      </trkpt>
      <trkpt lat="45.65336" lon="6.1241">
        <ele>1924.689151211</ele>
        <time>2015-11-10T11:51:43Z</time>
      </trkpt>
      <trkpt lat="45.65338" lon="6.12406">
        <ele>1924.689151211</ele>
        <time>2015-11-10T11:51:52Z</time>
      </trkpt>
      <trkpt lat="45.65339" lon="6.12405">
        <ele>1924.689151211</ele>
        <time>2015-11-10T11:51:57Z</time>
      </trkpt>
      <trkpt lat="45.65341" lon="6.12401">
        <ele>1922.220574921</ele>
        <time>2015-11-10T11:52:12Z</time>
      </trkpt>
      <trkpt lat="45.65341" lon="6.124">
        <ele>1922.220574921</ele>
        <time>2015-11-10T11:52:17Z</time>
      </trkpt>
      <trkpt lat="45.65341" lon="6.124">
        <ele>1922.220574921</ele>
        <time>2015-11-10T11:52:22Z</time>
      </trkpt>
      <trkpt lat="45.65341" lon="6.124">
        <ele>1922.220574921</ele>
        <time>2015-11-10T11:52:27Z</time>
      </trkpt>
      <trkpt lat="45.65342" lon="6.12402">
        <ele>1922.220574921</ele>
        <time>2015-11-10T11:52:32Z</time>
      </trkpt>
      <trkpt lat="45.65343" lon="6.12405">
        <ele>1922.220574921</ele>
        <time>2015-11-10T11:52:42Z</time>
      </trkpt>
      <trkpt lat="45.65343" lon="6.12405">
        <ele>1922.220574921</ele>
        <time>2015-11-10T11:52:47Z</time>
      </trkpt>
      <trkpt lat="45.65343" lon="6.12405">
        <ele>1922.220574921</ele>
        <time>2015-11-10T11:52:57Z</time>
      </trkpt>
      <trkpt lat="45.65344" lon="6.12405">
        <ele>1922.220574921</ele>
        <time>2015-11-10T11:53:03Z</time>
      </trkpt>
      <trkpt lat="45.65345" lon="6.12407">
        <ele>1922.220574921</ele>
        <time>2015-11-10T11:53:13Z</time>
      </trkpt>
      <trkpt lat="45.65347" lon="6.12408">
        <ele>1919.389164654</ele>
        <time>2015-11-10T11:53:17Z</time>
      </trkpt>
      <trkpt lat="45.65352" lon="6.12411">
        <ele>1919.389164654</ele>
        <time>2015-11-10T11:53:28Z</time>
      </trkpt>
      <trkpt lat="45.65351" lon="6.12411">
        <ele>1919.389164654</ele>
        <time>2015-11-10T11:53:32Z</time>
      </trkpt>
      <trkpt lat="45.65355" lon="6.12413">
        <ele>1916.229836469</ele>
        <time>2015-11-10T11:53:42Z</time>
      </trkpt>
      <trkpt lat="45.65356" lon="6.12413">
        <ele>1916.229836469</ele>
        <time>2015-11-10T11:53:48Z</time>
      </trkpt>
      <trkpt lat="45.65361" lon="6.12414">
        <ele>1916.229836469</ele>
        <time>2015-11-10T11:53:58Z</time>
      </trkpt>
      <trkpt lat="45.65363" lon="6.12413">
        <ele>1916.229836469</ele>
        <time>2015-11-10T11:54:02Z</time>
      </trkpt>
      <trkpt lat="45.65367" lon="6.12417">
        <ele>1912.19926583</ele>
        <time>2015-11-10T11:54:12Z</time>
      </trkpt>
      <trkpt lat="45.65369" lon="6.12419">
        <ele>1912.19926583</ele>
        <time>2015-11-10T11:54:17Z</time>
      </trkpt>
      <trkpt lat="45.65373" lon="6.12421">
        <ele>1912.19926583</ele>
        <time>2015-11-10T11:54:27Z</time>
      </trkpt>
      <trkpt lat="45.65374" lon="6.12421">
        <ele>1912.19926583</ele>
        <time>2015-11-10T11:54:32Z</time>
      </trkpt>
      <trkpt lat="45.6538" lon="6.12421">
        <ele>1906.940425786</ele>
        <time>2015-11-10T11:54:42Z</time>
      </trkpt>
      <trkpt lat="45.6538" lon="6.1242">
        <ele>1906.940425786</ele>
        <time>2015-11-10T11:54:48Z</time>
      </trkpt>
      <trkpt lat="45.65387" lon="6.12419">
        <ele>1906.940425786</ele>
        <time>2015-11-10T11:54:57Z</time>
      </trkpt>
      <trkpt lat="45.65388" lon="6.1242">
        <ele>1901.422770444</ele>
        <time>2015-11-10T11:55:03Z</time>
      </trkpt>
      <trkpt lat="45.65389" lon="6.12422">
        <ele>1901.422770444</ele>
        <time>2015-11-10T11:55:13Z</time>
      </trkpt>
      <trkpt lat="45.65389" lon="6.12422">
        <ele>1901.422770444</ele>
        <time>2015-11-10T11:55:17Z</time>
      </trkpt>
      <trkpt lat="45.65389" lon="6.12422">
        <ele>1901.422770444</ele>
        <time>2015-11-10T11:55:32Z</time>
      </trkpt>
      <trkpt lat="45.6539" lon="6.12422">
        <ele>1901.422770444</ele>
        <time>2015-11-10T11:55:37Z</time>
      </trkpt>
      <trkpt lat="45.6539" lon="6.12422">
        <ele>1901.422770444</ele>
        <time>2015-11-10T11:55:43Z</time>
      </trkpt>
      <trkpt lat="45.6539" lon="6.12422">
        <ele>1901.422770444</ele>
        <time>2015-11-10T11:55:47Z</time>
      </trkpt>
      <trkpt lat="45.65394" lon="6.12421">
        <ele>1901.422770444</ele>
        <time>2015-11-10T11:55:57Z</time>
      </trkpt>
      <trkpt lat="45.65395" lon="6.12422">
        <ele>1901.422770444</ele>
        <time>2015-11-10T11:56:03Z</time>
      </trkpt>
      <trkpt lat="45.65402" lon="6.12422">
        <ele>1896.256825708</ele>
        <time>2015-11-10T11:56:17Z</time>
      </trkpt>
      <trkpt lat="45.65411" lon="6.12414">
        <ele>1890.133593263</ele>
        <time>2015-11-10T11:56:33Z</time>
      </trkpt>
      <trkpt lat="45.65416" lon="6.12416">
        <ele>1890.133593263</ele>
        <time>2015-11-10T11:56:37Z</time>
      </trkpt>
      <trkpt lat="45.6542" lon="6.12413">
        <ele>1883.283758294</ele>
        <time>2015-11-10T11:56:47Z</time>
      </trkpt>
      <trkpt lat="45.65424" lon="6.12415">
        <ele>1883.283758294</ele>
        <time>2015-11-10T11:56:52Z</time>
      </trkpt>
      <trkpt lat="45.65431" lon="6.12425">
        <ele>1876.355131848</ele>
        <time>2015-11-10T11:57:03Z</time>
      </trkpt>
      <trkpt lat="45.65437" lon="6.12429">
        <ele>1876.355131848</ele>
        <time>2015-11-10T11:57:07Z</time>
      </trkpt>
      <trkpt lat="45.65447" lon="6.12434">
        <ele>1869.51549679</ele>
        <time>2015-11-10T11:57:18Z</time>
      </trkpt>
      <trkpt lat="45.65452" lon="6.12443">
        <ele>1869.51549679</ele>
        <time>2015-11-10T11:57:23Z</time>
      </trkpt>
      <trkpt lat="45.65458" lon="6.1245">
        <ele>1863.06381746</ele>
        <time>2015-11-10T11:57:32Z</time>
      </trkpt>
      <trkpt lat="45.65458" lon="6.12451">
        <ele>1863.06381746</ele>
        <time>2015-11-10T11:57:37Z</time>
      </trkpt>
      <trkpt lat="45.65459" lon="6.12451">
        <ele>1863.06381746</ele>
        <time>2015-11-10T11:57:42Z</time>
      </trkpt>
      <trkpt lat="45.65458" lon="6.1245">
        <ele>1863.06381746</ele>
        <time>2015-11-10T11:57:47Z</time>
      </trkpt>
      <trkpt lat="45.65457" lon="6.1245">
        <ele>1863.06381746</ele>
        <time>2015-11-10T11:57:52Z</time>
      </trkpt>
      <trkpt lat="45.65458" lon="6.12449">
        <ele>1863.06381746</ele>
        <time>2015-11-10T11:57:57Z</time>
      </trkpt>
      <trkpt lat="45.65459" lon="6.12448">
        <ele>1863.06381746</ele>
        <time>2015-11-10T11:58:02Z</time>
      </trkpt>
      <trkpt lat="45.65462" lon="6.12449">
        <ele>1863.06381746</ele>
        <time>2015-11-10T11:58:13Z</time>
      </trkpt>
      <trkpt lat="45.65464" lon="6.12446">
        <ele>1856.555073147</ele>
        <time>2015-11-10T11:58:17Z</time>
      </trkpt>
      <trkpt lat="45.65474" lon="6.12449">
        <ele>1850.009027942</ele>
        <time>2015-11-10T11:58:29Z</time>
      </trkpt>
      <trkpt lat="45.65476" lon="6.12449">
        <ele>1850.009027942</ele>
        <time>2015-11-10T11:58:32Z</time>
      </trkpt>
      <trkpt lat="45.65482" lon="6.12456">
        <ele>1843.299570429</ele>
        <time>2015-11-10T11:58:37Z</time>
      </trkpt>
      <trkpt lat="45.65496" lon="6.1246">
        <ele>1837.174547905</ele>
        <time>2015-11-10T11:58:47Z</time>
      </trkpt>
      <trkpt lat="45.65495" lon="6.12454">
        <ele>1837.174547905</ele>
        <time>2015-11-10T11:58:53Z</time>
      </trkpt>
      <trkpt lat="45.65499" lon="6.12453">
        <ele>1837.174547905</ele>
        <time>2015-11-10T11:59:02Z</time>
      </trkpt>
      <trkpt lat="45.65502" lon="6.1245">
        <ele>1831.171900821</ele>
        <time>2015-11-10T11:59:07Z</time>
      </trkpt>
      <trkpt lat="45.65512" lon="6.12459">
        <ele>1825.295053438</ele>
        <time>2015-11-10T11:59:18Z</time>
      </trkpt>
      <trkpt lat="45.65514" lon="6.12459">
        <ele>1825.295053438</ele>
        <time>2015-11-10T11:59:22Z</time>
      </trkpt>
      <trkpt lat="45.65522" lon="6.12465">
        <ele>1818.969926966</ele>
        <time>2015-11-10T11:59:32Z</time>
      </trkpt>
      <trkpt lat="45.65524" lon="6.12474">
        <ele>1818.969926966</ele>
        <time>2015-11-10T11:59:38Z</time>
      </trkpt>
      <trkpt lat="45.65522" lon="6.12481">
        <ele>1814.115307631</ele>
        <time>2015-11-10T11:59:47Z</time>
      </trkpt>
      <trkpt lat="45.6552" lon="6.12481">
        <ele>1814.115307631</ele>
        <time>2015-11-10T11:59:53Z</time>
      </trkpt>
      <trkpt lat="45.65524" lon="6.12478">
        <ele>1814.115307631</ele>
        <time>2015-11-10T12:00:02Z</time>
      </trkpt>
      <trkpt lat="45.65526" lon="6.12474">
        <ele>1809.766341313</ele>
        <time>2015-11-10T12:00:07Z</time>
      </trkpt>
      <trkpt lat="45.65531" lon="6.12472">
        <ele>1809.766341313</ele>
        <time>2015-11-10T12:00:17Z</time>
      </trkpt>
      <trkpt lat="45.65533" lon="6.12471">
        <ele>1809.766341313</ele>
        <time>2015-11-10T12:00:22Z</time>
      </trkpt>
      <trkpt lat="45.65534" lon="6.1247">
        <ele>1809.766341313</ele>
        <time>2015-11-10T12:00:32Z</time>
      </trkpt>
      <trkpt lat="45.65539" lon="6.12468">
        <ele>1805.315412939</ele>
        <time>2015-11-10T12:00:37Z</time>
      </trkpt>
      <trkpt lat="45.65545" lon="6.12464">
        <ele>1805.315412939</ele>
        <time>2015-11-10T12:00:48Z</time>
      </trkpt>
      <trkpt lat="45.65545" lon="6.12463">
        <ele>1805.315412939</ele>
        <time>2015-11-10T12:00:52Z</time>
      </trkpt>
      <trkpt lat="45.65555" lon="6.12461">
        <ele>1800.055285187</ele>
        <time>2015-11-10T12:01:07Z</time>
      </trkpt>
      <trkpt lat="45.65561" lon="6.12462">
        <ele>1800.055285187</ele>
        <time>2015-11-10T12:01:12Z</time>
      </trkpt>
      <trkpt lat="45.65563" lon="6.12458">
        <ele>1795.494193051</ele>
        <time>2015-11-10T12:01:22Z</time>
      </trkpt>
      <trkpt lat="45.65568" lon="6.12457">
        <ele>1795.494193051</ele>
        <time>2015-11-10T12:01:27Z</time>
      </trkpt>
      <trkpt lat="45.6557" lon="6.12457">
        <ele>1795.494193051</ele>
        <time>2015-11-10T12:01:37Z</time>
      </trkpt>
      <trkpt lat="45.65571" lon="6.12458">
        <ele>1795.494193051</ele>
        <time>2015-11-10T12:01:42Z</time>
      </trkpt>
      <trkpt lat="45.65573" lon="6.12459">
        <ele>1790.289098392</ele>
        <time>2015-11-10T12:01:52Z</time>
      </trkpt>
      <trkpt lat="45.65575" lon="6.12458">
        <ele>1790.289098392</ele>
        <time>2015-11-10T12:01:57Z</time>
      </trkpt>
      <trkpt lat="45.65581" lon="6.12463">
        <ele>1785.358702188</ele>
        <time>2015-11-10T12:02:08Z</time>
      </trkpt>
      <trkpt lat="45.65584" lon="6.12462">
        <ele>1785.358702188</ele>
        <time>2015-11-10T12:02:12Z</time>
      </trkpt>
      <trkpt lat="45.65598" lon="6.12453">
        <ele>1779.967841883</ele>
        <time>2015-11-10T12:02:22Z</time>
      </trkpt>
      <trkpt lat="45.65602" lon="6.12453">
        <ele>1779.967841883</ele>
        <time>2015-11-10T12:02:28Z</time>
      </trkpt>
      <trkpt lat="45.65609" lon="6.12452">
        <ele>1774.589168628</ele>
        <time>2015-11-10T12:02:37Z</time>
      </trkpt>
      <trkpt lat="45.65614" lon="6.12449">
        <ele>1774.589168628</ele>
        <time>2015-11-10T12:02:42Z</time>
      </trkpt>
      <trkpt lat="45.65619" lon="6.12451">
        <ele>1769.948440279</ele>
        <time>2015-11-10T12:02:57Z</time>
      </trkpt>
      <trkpt lat="45.65622" lon="6.1245">
        <ele>1769.948440279</ele>
        <time>2015-11-10T12:03:02Z</time>
      </trkpt>
      <trkpt lat="45.65626" lon="6.1245">
        <ele>1769.948440279</ele>
        <time>2015-11-10T12:03:13Z</time>
      </trkpt>
      <trkpt lat="45.65628" lon="6.12451">
        <ele>1769.948440279</ele>
        <time>2015-11-10T12:03:17Z</time>
      </trkpt>
      <trkpt lat="45.65629" lon="6.12449">
        <ele>1765.706904474</ele>
        <time>2015-11-10T12:03:27Z</time>
      </trkpt>
      <trkpt lat="45.65634" lon="6.12454">
        <ele>1765.706904474</ele>
        <time>2015-11-10T12:03:32Z</time>
      </trkpt>
      <trkpt lat="45.65643" lon="6.1245">
        <ele>1761.693351112</ele>
        <time>2015-11-10T12:03:42Z</time>
      </trkpt>
      <trkpt lat="45.6565" lon="6.12453">
        <ele>1761.693351112</ele>
        <time>2015-11-10T12:03:47Z</time>
      </trkpt>
      <trkpt lat="45.65653" lon="6.12451">
        <ele>1757.315856858</ele>
        <time>2015-11-10T12:03:57Z</time>
      </trkpt>
      <trkpt lat="45.65658" lon="6.12452">
        <ele>1757.315856858</ele>
        <time>2015-11-10T12:04:02Z</time>
      </trkpt>
      <trkpt lat="45.65657" lon="6.12451">
        <ele>1757.315856858</ele>
        <time>2015-11-10T12:04:12Z</time>
      </trkpt>
      <trkpt lat="45.65657" lon="6.12452">
        <ele>1757.315856858</ele>
        <time>2015-11-10T12:04:17Z</time>
      </trkpt>
      <trkpt lat="45.65657" lon="6.12451">
        <ele>1757.315856858</ele>
        <time>2015-11-10T12:04:22Z</time>
      </trkpt>
      <trkpt lat="45.65658" lon="6.12451">
        <ele>1757.315856858</ele>
        <time>2015-11-10T12:04:32Z</time>
      </trkpt>
      <trkpt lat="45.65657" lon="6.12452">
        <ele>1757.315856858</ele>
        <time>2015-11-10T12:04:37Z</time>
      </trkpt>
      <trkpt lat="45.65657" lon="6.12453">
        <ele>1753.611926429</ele>
        <time>2015-11-10T12:04:42Z</time>
      </trkpt>
      <trkpt lat="45.65657" lon="6.12452">
        <ele>1753.611926429</ele>
        <time>2015-11-10T12:04:47Z</time>
      </trkpt>
      <trkpt lat="45.65657" lon="6.12452">
        <ele>1753.611926429</ele>
        <time>2015-11-10T12:04:52Z</time>
      </trkpt>
      <trkpt lat="45.65657" lon="6.12452">
        <ele>1753.611926429</ele>
        <time>2015-11-10T12:04:57Z</time>
      </trkpt>
      <trkpt lat="45.65658" lon="6.12452">
        <ele>1753.611926429</ele>
        <time>2015-11-10T12:05:07Z</time>
      </trkpt>
      <trkpt lat="45.65658" lon="6.12452">
        <ele>1753.611926429</ele>
        <time>2015-11-10T12:05:12Z</time>
      </trkpt>
      <trkpt lat="45.65661" lon="6.1245">
        <ele>1753.611926429</ele>
        <time>2015-11-10T12:05:27Z</time>
      </trkpt>
      <trkpt lat="45.65662" lon="6.12446">
        <ele>1753.611926429</ele>
        <time>2015-11-10T12:05:32Z</time>
      </trkpt>
      <trkpt lat="45.65668" lon="6.12441">
        <ele>1750.243682203</ele>
        <time>2015-11-10T12:05:42Z</time>
      </trkpt>
      <trkpt lat="45.6567" lon="6.12441">
        <ele>1750.243682203</ele>
        <time>2015-11-10T12:05:47Z</time>
      </trkpt>
      <trkpt lat="45.65676" lon="6.12438">
        <ele>1750.243682203</ele>
        <time>2015-11-10T12:05:57Z</time>
      </trkpt>
      <trkpt lat="45.65679" lon="6.12436">
        <ele>1746.608645529</ele>
        <time>2015-11-10T12:06:02Z</time>
      </trkpt>
      <trkpt lat="45.65685" lon="6.12441">
        <ele>1746.608645529</ele>
        <time>2015-11-10T12:06:12Z</time>
      </trkpt>
      <trkpt lat="45.65687" lon="6.12433">
        <ele>1742.149106113</ele>
        <time>2015-11-10T12:06:17Z</time>
      </trkpt>
      <trkpt lat="45.6569" lon="6.1242">
        <ele>1737.791528391</ele>
        <time>2015-11-10T12:06:28Z</time>
      </trkpt>
      <trkpt lat="45.6569" lon="6.12427">
        <ele>1737.791528391</ele>
        <time>2015-11-10T12:06:32Z</time>
      </trkpt>
      <trkpt lat="45.65693" lon="6.12426">
        <ele>1737.791528391</ele>
        <time>2015-11-10T12:06:42Z</time>
      </trkpt>
      <trkpt lat="45.65693" lon="6.12428">
        <ele>1733.81738667</ele>
        <time>2015-11-10T12:06:47Z</time>
      </trkpt>
      <trkpt lat="45.65694" lon="6.12426">
        <ele>1733.81738667</ele>
        <time>2015-11-10T12:06:57Z</time>
      </trkpt>
      <trkpt lat="45.65695" lon="6.12426">
        <ele>1733.81738667</ele>
        <time>2015-11-10T12:07:02Z</time>
      </trkpt>
      <trkpt lat="45.65695" lon="6.12425">
        <ele>1733.81738667</ele>
        <time>2015-11-10T12:07:17Z</time>
      </trkpt>
      <trkpt lat="45.65702" lon="6.12422">
        <ele>1729.333325663</ele>
        <time>2015-11-10T12:07:22Z</time>
      </trkpt>
      <trkpt lat="45.65714" lon="6.12414">
        <ele>1724.953982978</ele>
        <time>2015-11-10T12:07:32Z</time>
      </trkpt>
      <trkpt lat="45.65714" lon="6.12415">
        <ele>1724.953982978</ele>
        <time>2015-11-10T12:07:37Z</time>
      </trkpt>
      <trkpt lat="45.65716" lon="6.124">
        <ele>1720.96016788</ele>
        <time>2015-11-10T12:07:47Z</time>
      </trkpt>
      <trkpt lat="45.65719" lon="6.124">
        <ele>1720.96016788</ele>
        <time>2015-11-10T12:07:52Z</time>
      </trkpt>
      <trkpt lat="45.65727" lon="6.12396">
        <ele>1717.034387145</ele>
        <time>2015-11-10T12:08:03Z</time>
      </trkpt>
      <trkpt lat="45.65732" lon="6.12395">
        <ele>1717.034387145</ele>
        <time>2015-11-10T12:08:07Z</time>
      </trkpt>
      <trkpt lat="45.65731" lon="6.12394">
        <ele>1717.034387145</ele>
        <time>2015-11-10T12:08:17Z</time>
      </trkpt>
      <trkpt lat="45.65731" lon="6.12394">
        <ele>1717.034387145</ele>
        <time>2015-11-10T12:08:22Z</time>
      </trkpt>
      <trkpt lat="45.65731" lon="6.12394">
        <ele>1717.034387145</ele>
        <time>2015-11-10T12:08:32Z</time>
      </trkpt>
      <trkpt lat="45.65731" lon="6.12394">
        <ele>1717.034387145</ele>
        <time>2015-11-10T12:08:37Z</time>
      </trkpt>
      <trkpt lat="45.65731" lon="6.12394">
        <ele>1717.034387145</ele>
        <time>2015-11-10T12:08:48Z</time>
      </trkpt>
      <trkpt lat="45.65731" lon="6.12394">
        <ele>1717.034387145</ele>
        <time>2015-11-10T12:08:52Z</time>
      </trkpt>
      <trkpt lat="45.65731" lon="6.12393">
        <ele>1717.034387145</ele>
        <time>2015-11-10T12:09:02Z</time>
      </trkpt>
      <trkpt lat="45.65731" lon="6.12393">
        <ele>1717.034387145</ele>
        <time>2015-11-10T12:09:07Z</time>
      </trkpt>
      <trkpt lat="45.65738" lon="6.12393">
        <ele>1714.03503523</ele>
        <time>2015-11-10T12:09:17Z</time>
      </trkpt>
      <trkpt lat="45.65739" lon="6.12392">
        <ele>1714.03503523</ele>
        <time>2015-11-10T12:09:22Z</time>
      </trkpt>
      <trkpt lat="45.65741" lon="6.1239">
        <ele>1714.03503523</ele>
        <time>2015-11-10T12:09:37Z</time>
      </trkpt>
      <trkpt lat="45.65741" lon="6.1239">
        <ele>1714.03503523</ele>
        <time>2015-11-10T12:09:42Z</time>
      </trkpt>
      <trkpt lat="45.65741" lon="6.1239">
        <ele>1714.03503523</ele>
        <time>2015-11-10T12:09:52Z</time>
      </trkpt>
      <trkpt lat="45.65741" lon="6.1239">
        <ele>1714.03503523</ele>
        <time>2015-11-10T12:09:57Z</time>
      </trkpt>
      <trkpt lat="45.65741" lon="6.1239">
        <ele>1714.03503523</ele>
        <time>2015-11-10T12:10:07Z</time>
      </trkpt>
      <trkpt lat="45.65741" lon="6.1239">
        <ele>1714.03503523</ele>
        <time>2015-11-10T12:10:12Z</time>
      </trkpt>
      <trkpt lat="45.65738" lon="6.12378">
        <ele>1710.737176178</ele>
        <time>2015-11-10T12:10:22Z</time>
      </trkpt>
      <trkpt lat="45.65735" lon="6.12376">
        <ele>1710.737176178</ele>
        <time>2015-11-10T12:10:28Z</time>
      </trkpt>
      <trkpt lat="45.65733" lon="6.12375">
        <ele>1710.737176178</ele>
        <time>2015-11-10T12:10:38Z</time>
      </trkpt>
      <trkpt lat="45.65733" lon="6.12374">
        <ele>1710.737176178</ele>
        <time>2015-11-10T12:10:42Z</time>
      </trkpt>
      <trkpt lat="45.65733" lon="6.12373">
        <ele>1710.737176178</ele>
        <time>2015-11-10T12:10:52Z</time>
      </trkpt>
      <trkpt lat="45.65733" lon="6.12373">
        <ele>1710.737176178</ele>
        <time>2015-11-10T12:10:57Z</time>
      </trkpt>
      <trkpt lat="45.65733" lon="6.1237">
        <ele>1710.737176178</ele>
        <time>2015-11-10T12:11:02Z</time>
      </trkpt>
      <trkpt lat="45.6573" lon="6.12366">
        <ele>1707.880039375</ele>
        <time>2015-11-10T12:11:12Z</time>
      </trkpt>
      <trkpt lat="45.65731" lon="6.12366">
        <ele>1707.880039375</ele>
        <time>2015-11-10T12:11:17Z</time>
      </trkpt>
      <trkpt lat="45.6573" lon="6.12365">
        <ele>1707.880039375</ele>
        <time>2015-11-10T12:11:27Z</time>
      </trkpt>
      <trkpt lat="45.65728" lon="6.12364">
        <ele>1707.880039375</ele>
        <time>2015-11-10T12:11:33Z</time>
      </trkpt>
      <trkpt lat="45.65726" lon="6.12361">
        <ele>1707.880039375</ele>
        <time>2015-11-10T12:11:42Z</time>
      </trkpt>
      <trkpt lat="45.65723" lon="6.12359">
        <ele>1705.138454829</ele>
        <time>2015-11-10T12:11:47Z</time>
      </trkpt>
      <trkpt lat="45.65725" lon="6.12357">
        <ele>1705.138454829</ele>
        <time>2015-11-10T12:12:03Z</time>
      </trkpt>
      <trkpt lat="45.65723" lon="6.12354">
        <ele>1705.138454829</ele>
        <time>2015-11-10T12:12:07Z</time>
      </trkpt>
      <trkpt lat="45.65727" lon="6.12351">
        <ele>1702.2107527</ele>
        <time>2015-11-10T12:12:17Z</time>
      </trkpt>
      <trkpt lat="45.65728" lon="6.1235">
        <ele>1702.2107527</ele>
        <time>2015-11-10T12:12:22Z</time>
      </trkpt>
      <trkpt lat="45.65728" lon="6.1235">
        <ele>1702.2107527</ele>
        <time>2015-11-10T12:12:32Z</time>
      </trkpt>
      <trkpt lat="45.65728" lon="6.1235">
        <ele>1702.2107527</ele>
        <time>2015-11-10T12:12:37Z</time>
      </trkpt>
      <trkpt lat="45.65728" lon="6.1235">
        <ele>1702.2107527</ele>
        <time>2015-11-10T12:12:47Z</time>
      </trkpt>
      <trkpt lat="45.65728" lon="6.1235">
        <ele>1702.2107527</ele>
        <time>2015-11-10T12:12:52Z</time>
      </trkpt>
      <trkpt lat="45.65728" lon="6.12356">
        <ele>1702.2107527</ele>
        <time>2015-11-10T12:13:03Z</time>
      </trkpt>
      <trkpt lat="45.65725" lon="6.12357">
        <ele>1699.970792005</ele>
        <time>2015-11-10T12:13:07Z</time>
      </trkpt>
      <trkpt lat="45.65715" lon="6.12353">
        <ele>1697.929285468</ele>
        <time>2015-11-10T12:13:17Z</time>
      </trkpt>
      <trkpt lat="45.65713" lon="6.12354">
        <ele>1697.929285468</ele>
        <time>2015-11-10T12:13:22Z</time>
      </trkpt>
      <trkpt lat="45.6571" lon="6.12357">
        <ele>1697.929285468</ele>
        <time>2015-11-10T12:13:32Z</time>
      </trkpt>
      <trkpt lat="45.6571" lon="6.12358">
        <ele>1697.929285468</ele>
        <time>2015-11-10T12:13:37Z</time>
      </trkpt>
      <trkpt lat="45.6571" lon="6.12358">
        <ele>1697.929285468</ele>
        <time>2015-11-10T12:13:47Z</time>
      </trkpt>
      <trkpt lat="45.65709" lon="6.12357">
        <ele>1697.929285468</ele>
        <time>2015-11-10T12:13:53Z</time>
      </trkpt>
      <trkpt lat="45.65709" lon="6.12356">
        <ele>1697.929285468</ele>
        <time>2015-11-10T12:14:03Z</time>
      </trkpt>
      <trkpt lat="45.65709" lon="6.12356">
        <ele>1697.929285468</ele>
        <time>2015-11-10T12:14:07Z</time>
      </trkpt>
      <trkpt lat="45.65704" lon="6.12349">
        <ele>1696.929330655</ele>
        <time>2015-11-10T12:14:22Z</time>
      </trkpt>
      <trkpt lat="45.65703" lon="6.12343">
        <ele>1696.929330655</ele>
        <time>2015-11-10T12:14:37Z</time>
      </trkpt>
      <trkpt lat="45.65704" lon="6.12344">
        <ele>1696.929330655</ele>
        <time>2015-11-10T12:14:42Z</time>
      </trkpt>
      <trkpt lat="45.65709" lon="6.12344">
        <ele>1693.56996309</ele>
        <time>2015-11-10T12:14:53Z</time>
      </trkpt>
      <trkpt lat="45.65712" lon="6.12339">
        <ele>1693.56996309</ele>
        <time>2015-11-10T12:14:57Z</time>
      </trkpt>
      <trkpt lat="45.65714" lon="6.12343">
        <ele>1693.56996309</ele>
        <time>2015-11-10T12:15:07Z</time>
      </trkpt>
      <trkpt lat="45.65716" lon="6.12343">
        <ele>1690.615263241</ele>
        <time>2015-11-10T12:15:13Z</time>
      </trkpt>
      <trkpt lat="45.65721" lon="6.12346">
        <ele>1690.615263241</ele>
        <time>2015-11-10T12:15:22Z</time>
      </trkpt>
      <trkpt lat="45.65724" lon="6.12348">
        <ele>1690.615263241</ele>
        <time>2015-11-10T12:15:27Z</time>
      </trkpt>
      <trkpt lat="45.65726" lon="6.12339">
        <ele>1687.742955719</ele>
        <time>2015-11-10T12:15:37Z</time>
      </trkpt>
      <trkpt lat="45.65726" lon="6.12338">
        <ele>1687.742955719</ele>
        <time>2015-11-10T12:15:42Z</time>
      </trkpt>
      <trkpt lat="45.65735" lon="6.12341">
        <ele>1685.951272297</ele>
        <time>2015-11-10T12:15:52Z</time>
      </trkpt>
      <trkpt lat="45.65736" lon="6.12336">
        <ele>1685.951272297</ele>
        <time>2015-11-10T12:15:57Z</time>
      </trkpt>
      <trkpt lat="45.65736" lon="6.12333">
        <ele>1685.951272297</ele>
        <time>2015-11-10T12:16:02Z</time>
      </trkpt>
      <trkpt lat="45.65736" lon="6.1233">
        <ele>1685.951272297</ele>
        <time>2015-11-10T12:16:07Z</time>
      </trkpt>
      <trkpt lat="45.6574" lon="6.1234">
        <ele>1684.721047962</ele>
        <time>2015-11-10T12:16:18Z</time>
      </trkpt>
      <trkpt lat="45.65741" lon="6.12342">
        <ele>1684.721047962</ele>
        <time>2015-11-10T12:16:22Z</time>
      </trkpt>
      <trkpt lat="45.65747" lon="6.12344">
        <ele>1684.721047962</ele>
        <time>2015-11-10T12:16:32Z</time>
      </trkpt>
      <trkpt lat="45.65748" lon="6.12342">
        <ele>1683.425659538</ele>
        <time>2015-11-10T12:16:37Z</time>
      </trkpt>
      <trkpt lat="45.65755" lon="6.12338">
        <ele>1683.425659538</ele>
        <time>2015-11-10T12:16:47Z</time>
      </trkpt>
      <trkpt lat="45.65759" lon="6.12344">
        <ele>1682.493583909</ele>
        <time>2015-11-10T12:16:52Z</time>
      </trkpt>
      <trkpt lat="45.65763" lon="6.12362">
        <ele>1681.744484996</ele>
        <time>2015-11-10T12:17:02Z</time>
      </trkpt>
      <trkpt lat="45.65763" lon="6.12363">
        <ele>1681.744484996</ele>
        <time>2015-11-10T12:17:07Z</time>
      </trkpt>
      <trkpt lat="45.65765" lon="6.12367">
        <ele>1681.744484996</ele>
        <time>2015-11-10T12:17:17Z</time>
      </trkpt>
      <trkpt lat="45.65768" lon="6.1237">
        <ele>1681.744484996</ele>
        <time>2015-11-10T12:17:22Z</time>
      </trkpt>
      <trkpt lat="45.65767" lon="6.12372">
        <ele>1681.01090602</ele>
        <time>2015-11-10T12:17:27Z</time>
      </trkpt>
      <trkpt lat="45.65767" lon="6.12371">
        <ele>1681.01090602</ele>
        <time>2015-11-10T12:17:32Z</time>
      </trkpt>
      <trkpt lat="45.65768" lon="6.12374">
        <ele>1681.01090602</ele>
        <time>2015-11-10T12:17:42Z</time>
      </trkpt>
      <trkpt lat="45.65767" lon="6.12375">
        <ele>1681.01090602</ele>
        <time>2015-11-10T12:17:47Z</time>
      </trkpt>
      <trkpt lat="45.65769" lon="6.12375">
        <ele>1681.01090602</ele>
        <time>2015-11-10T12:17:57Z</time>
      </trkpt>
      <trkpt lat="45.65771" lon="6.12376">
        <ele>1681.01090602</ele>
        <time>2015-11-10T12:18:03Z</time>
      </trkpt>
      <trkpt lat="45.65774" lon="6.12376">
        <ele>1680.714256437</ele>
        <time>2015-11-10T12:18:07Z</time>
      </trkpt>
      <trkpt lat="45.65775" lon="6.12377">
        <ele>1680.714256437</ele>
        <time>2015-11-10T12:18:12Z</time>
      </trkpt>
      <trkpt lat="45.65775" lon="6.12376">
        <ele>1680.714256437</ele>
        <time>2015-11-10T12:18:17Z</time>
      </trkpt>
      <trkpt lat="45.65774" lon="6.12376">
        <ele>1680.714256437</ele>
        <time>2015-11-10T12:18:22Z</time>
      </trkpt>
      <trkpt lat="45.65777" lon="6.12373">
        <ele>1680.714256437</ele>
        <time>2015-11-10T12:18:27Z</time>
      </trkpt>
      <trkpt lat="45.65785" lon="6.12372">
        <ele>1680.379278413</ele>
        <time>2015-11-10T12:18:37Z</time>
      </trkpt>
      <trkpt lat="45.65789" lon="6.1237">
        <ele>1680.379278413</ele>
        <time>2015-11-10T12:18:42Z</time>
      </trkpt>
      <trkpt lat="45.65788" lon="6.12371">
        <ele>1680.379278413</ele>
        <time>2015-11-10T12:18:53Z</time>
      </trkpt>
      <trkpt lat="45.65788" lon="6.12371">
        <ele>1680.379278413</ele>
        <time>2015-11-10T12:18:57Z</time>
      </trkpt>
      <trkpt lat="45.65792" lon="6.12362">
        <ele>1678.989486511</ele>
        <time>2015-11-10T12:19:08Z</time>
      </trkpt>
      <trkpt lat="45.65792" lon="6.12361">
        <ele>1678.989486511</ele>
        <time>2015-11-10T12:19:12Z</time>
      </trkpt>
      <trkpt lat="45.65792" lon="6.1236">
        <ele>1678.989486511</ele>
        <time>2015-11-10T12:19:17Z</time>
      </trkpt>
      <trkpt lat="45.65793" lon="6.12361">
        <ele>1678.989486511</ele>
        <time>2015-11-10T12:19:22Z</time>
      </trkpt>
      <trkpt lat="45.65793" lon="6.12361">
        <ele>1678.989486511</ele>
        <time>2015-11-10T12:19:27Z</time>
      </trkpt>
      <trkpt lat="45.65793" lon="6.12361">
        <ele>1678.989486511</ele>
        <time>2015-11-10T12:19:32Z</time>
      </trkpt>
      <trkpt lat="45.65793" lon="6.12361">
        <ele>1678.989486511</ele>
        <time>2015-11-10T12:19:37Z</time>
      </trkpt>
      <trkpt lat="45.65793" lon="6.12361">
        <ele>1678.989486511</ele>
        <time>2015-11-10T12:19:42Z</time>
      </trkpt>
      <trkpt lat="45.65793" lon="6.12361">
        <ele>1678.989486511</ele>
        <time>2015-11-10T12:19:47Z</time>
      </trkpt>
      <trkpt lat="45.65792" lon="6.12354">
        <ele>1678.989486511</ele>
        <time>2015-11-10T12:19:58Z</time>
      </trkpt>
      <trkpt lat="45.65793" lon="6.12352">
        <ele>1678.989486511</ele>
        <time>2015-11-10T12:20:02Z</time>
      </trkpt>
      <trkpt lat="45.6579" lon="6.12346">
        <ele>1678.488460112</ele>
        <time>2015-11-10T12:20:13Z</time>
      </trkpt>
      <trkpt lat="45.65789" lon="6.12347">
        <ele>1678.488460112</ele>
        <time>2015-11-10T12:20:17Z</time>
      </trkpt>
      <trkpt lat="45.6579" lon="6.12353">
        <ele>1678.488460112</ele>
        <time>2015-11-10T12:20:27Z</time>
      </trkpt>
      <trkpt lat="45.6579" lon="6.12361">
        <ele>1677.936623305</ele>
        <time>2015-11-10T12:20:32Z</time>
      </trkpt>
      <trkpt lat="45.65786" lon="6.12368">
        <ele>1677.936623305</ele>
        <time>2015-11-10T12:20:47Z</time>
      </trkpt>
      <trkpt lat="45.65782" lon="6.12372">
        <ele>1677.904910609</ele>
        <time>2015-11-10T12:20:52Z</time>
      </trkpt>
      <trkpt lat="45.65783" lon="6.12375">
        <ele>1677.904910609</ele>
        <time>2015-11-10T12:21:04Z</time>
      </trkpt>
      <trkpt lat="45.65781" lon="6.12374">
        <ele>1677.904910609</ele>
        <time>2015-11-10T12:21:07Z</time>
      </trkpt>
      <trkpt lat="45.65782" lon="6.12377">
        <ele>1677.904910609</ele>
        <time>2015-11-10T12:21:18Z</time>
      </trkpt>
      <trkpt lat="45.65782" lon="6.12377">
        <ele>1677.904910609</ele>
        <time>2015-11-10T12:21:22Z</time>
      </trkpt>
      <trkpt lat="45.65783" lon="6.12377">
        <ele>1677.904910609</ele>
        <time>2015-11-10T12:21:34Z</time>
      </trkpt>
      <trkpt lat="45.65783" lon="6.12379">
        <ele>1677.904910609</ele>
        <time>2015-11-10T12:21:37Z</time>
      </trkpt>
      <trkpt lat="45.65784" lon="6.1238">
        <ele>1678.344659185</ele>
        <time>2015-11-10T12:21:48Z</time>
      </trkpt>
      <trkpt lat="45.65784" lon="6.1238">
        <ele>1678.344659185</ele>
        <time>2015-11-10T12:21:52Z</time>
      </trkpt>
      <trkpt lat="45.65786" lon="6.12385">
        <ele>1678.344659185</ele>
        <time>2015-11-10T12:22:08Z</time>
      </trkpt>
      <trkpt lat="45.65787" lon="6.12386">
        <ele>1678.344659185</ele>
        <time>2015-11-10T12:22:12Z</time>
      </trkpt>
      <trkpt lat="45.65789" lon="6.12389">
        <ele>1678.344659185</ele>
        <time>2015-11-10T12:22:22Z</time>
      </trkpt>
      <trkpt lat="45.6579" lon="6.12391">
        <ele>1678.056827265</ele>
        <time>2015-11-10T12:22:27Z</time>
      </trkpt>
      <trkpt lat="45.65789" lon="6.12391">
        <ele>1678.056827265</ele>
        <time>2015-11-10T12:22:33Z</time>
      </trkpt>
      <trkpt lat="45.65789" lon="6.12394">
        <ele>1678.056827265</ele>
        <time>2015-11-10T12:22:37Z</time>
      </trkpt>
      <trkpt lat="45.6579" lon="6.12395">
        <ele>1678.056827265</ele>
        <time>2015-11-10T12:22:52Z</time>
      </trkpt>
      <trkpt lat="45.6579" lon="6.12396">
        <ele>1678.056827265</ele>
        <time>2015-11-10T12:22:57Z</time>
      </trkpt>
      <trkpt lat="45.6579" lon="6.12396">
        <ele>1678.056827265</ele>
        <time>2015-11-10T12:23:07Z</time>
      </trkpt>
      <trkpt lat="45.6579" lon="6.12396">
        <ele>1678.056827265</ele>
        <time>2015-11-10T12:23:12Z</time>
      </trkpt>
      <trkpt lat="45.65789" lon="6.12397">
        <ele>1678.056827265</ele>
        <time>2015-11-10T12:23:22Z</time>
      </trkpt>
      <trkpt lat="45.6579" lon="6.12399">
        <ele>1678.056827265</ele>
        <time>2015-11-10T12:23:27Z</time>
      </trkpt>
      <trkpt lat="45.6579" lon="6.12402">
        <ele>1678.056827265</ele>
        <time>2015-11-10T12:23:37Z</time>
      </trkpt>
      <trkpt lat="45.6579" lon="6.12403">
        <ele>1676.79742926</ele>
        <time>2015-11-10T12:23:42Z</time>
      </trkpt>
      <trkpt lat="45.65795" lon="6.124">
        <ele>1676.79742926</ele>
        <time>2015-11-10T12:23:52Z</time>
      </trkpt>
      <trkpt lat="45.65795" lon="6.124">
        <ele>1676.79742926</ele>
        <time>2015-11-10T12:23:57Z</time>
      </trkpt>
      <trkpt lat="45.65806" lon="6.12394">
        <ele>1676.072736579</ele>
        <time>2015-11-10T12:24:07Z</time>
      </trkpt>
      <trkpt lat="45.6581" lon="6.12394">
        <ele>1676.072736579</ele>
        <time>2015-11-10T12:24:12Z</time>
      </trkpt>
      <trkpt lat="45.65811" lon="6.12394">
        <ele>1676.072736579</ele>
        <time>2015-11-10T12:24:22Z</time>
      </trkpt>
      <trkpt lat="45.65812" lon="6.12394">
        <ele>1676.072736579</ele>
        <time>2015-11-10T12:24:27Z</time>
      </trkpt>
      <trkpt lat="45.65814" lon="6.12394">
        <ele>1676.072736579</ele>
        <time>2015-11-10T12:24:33Z</time>
      </trkpt>
      <trkpt lat="45.65822" lon="6.12391">
        <ele>1674.971369684</ele>
        <time>2015-11-10T12:24:42Z</time>
      </trkpt>
      <trkpt lat="45.65824" lon="6.12394">
        <ele>1674.971369684</ele>
        <time>2015-11-10T12:24:47Z</time>
      </trkpt>
      <trkpt lat="45.65827" lon="6.12403">
        <ele>1673.370787326</ele>
        <time>2015-11-10T12:24:57Z</time>
      </trkpt>
      <trkpt lat="45.65829" lon="6.12408">
        <ele>1673.370787326</ele>
        <time>2015-11-10T12:25:02Z</time>
      </trkpt>
      <trkpt lat="45.65831" lon="6.12407">
        <ele>1673.370787326</ele>
        <time>2015-11-10T12:25:07Z</time>
      </trkpt>
      <trkpt lat="45.65831" lon="6.12408">
        <ele>1673.370787326</ele>
        <time>2015-11-10T12:25:12Z</time>
      </trkpt>
      <trkpt lat="45.65832" lon="6.1241">
        <ele>1673.370787326</ele>
        <time>2015-11-10T12:25:17Z</time>
      </trkpt>
      <trkpt lat="45.65832" lon="6.12412">
        <ele>1671.735567873</ele>
        <time>2015-11-10T12:25:22Z</time>
      </trkpt>
      <trkpt lat="45.65832" lon="6.12412">
        <ele>1671.735567873</ele>
        <time>2015-11-10T12:25:27Z</time>
      </trkpt>
      <trkpt lat="45.65832" lon="6.12412">
        <ele>1671.735567873</ele>
        <time>2015-11-10T12:25:32Z</time>
      </trkpt>
      <trkpt lat="45.65821" lon="6.1241">
        <ele>1669.343635929</ele>
        <time>2015-11-10T12:25:42Z</time>
      </trkpt>
      <trkpt lat="45.65819" lon="6.12409">
        <ele>1669.343635929</ele>
        <time>2015-11-10T12:25:47Z</time>
      </trkpt>
      <trkpt lat="45.65818" lon="6.12412">
        <ele>1669.343635929</ele>
        <time>2015-11-10T12:26:02Z</time>
      </trkpt>
      <trkpt lat="45.65817" lon="6.12412">
        <ele>1669.343635929</ele>
        <time>2015-11-10T12:26:07Z</time>
      </trkpt>
      <trkpt lat="45.65817" lon="6.12413">
        <ele>1669.343635929</ele>
        <time>2015-11-10T12:26:17Z</time>
      </trkpt>
      <trkpt lat="45.65815" lon="6.1242">
        <ele>1667.257673201</ele>
        <time>2015-11-10T12:26:22Z</time>
      </trkpt>
      <trkpt lat="45.65808" lon="6.12428">
        <ele>1667.257673201</ele>
        <time>2015-11-10T12:26:34Z</time>
      </trkpt>
      <trkpt lat="45.65808" lon="6.12431">
        <ele>1665.741130331</ele>
        <time>2015-11-10T12:26:37Z</time>
      </trkpt>
      <trkpt lat="45.65806" lon="6.12433">
        <ele>1665.741130331</ele>
        <time>2015-11-10T12:26:47Z</time>
      </trkpt>
      <trkpt lat="45.65803" lon="6.12433">
        <ele>1665.741130331</ele>
        <time>2015-11-10T12:26:53Z</time>
      </trkpt>
      <trkpt lat="45.65802" lon="6.12433">
        <ele>1665.741130331</ele>
        <time>2015-11-10T12:26:57Z</time>
      </trkpt>
      <trkpt lat="45.65802" lon="6.12434">
        <ele>1665.741130331</ele>
        <time>2015-11-10T12:27:02Z</time>
      </trkpt>
      <trkpt lat="45.65798" lon="6.12435">
        <ele>1663.163297567</ele>
        <time>2015-11-10T12:27:07Z</time>
      </trkpt>
      <trkpt lat="45.65796" lon="6.12435">
        <ele>1663.163297567</ele>
        <time>2015-11-10T12:27:18Z</time>
      </trkpt>
      <trkpt lat="45.65786" lon="6.12446">
        <ele>1660.322234218</ele>
        <time>2015-11-10T12:27:32Z</time>
      </trkpt>
      <trkpt lat="45.65785" lon="6.12448">
        <ele>1660.322234218</ele>
        <time>2015-11-10T12:27:37Z</time>
      </trkpt>
      <trkpt lat="45.65783" lon="6.12451">
        <ele>1660.322234218</ele>
        <time>2015-11-10T12:27:47Z</time>
      </trkpt>
      <trkpt lat="45.65782" lon="6.12451">
        <ele>1660.322234218</ele>
        <time>2015-11-10T12:27:52Z</time>
      </trkpt>
      <trkpt lat="45.65775" lon="6.12452">
        <ele>1658.390656745</ele>
        <time>2015-11-10T12:28:02Z</time>
      </trkpt>
      <trkpt lat="45.65776" lon="6.12451">
        <ele>1658.390656745</ele>
        <time>2015-11-10T12:28:07Z</time>
      </trkpt>
      <trkpt lat="45.65775" lon="6.12456">
        <ele>1658.390656745</ele>
        <time>2015-11-10T12:28:18Z</time>
      </trkpt>
      <trkpt lat="45.65774" lon="6.12458">
        <ele>1658.390656745</ele>
        <time>2015-11-10T12:28:22Z</time>
      </trkpt>
      <trkpt lat="45.65771" lon="6.12468">
        <ele>1656.867558847</ele>
        <time>2015-11-10T12:28:37Z</time>
      </trkpt>
      <trkpt lat="45.65771" lon="6.12467">
        <ele>1656.867558847</ele>
        <time>2015-11-10T12:28:42Z</time>
      </trkpt>
      <trkpt lat="45.65771" lon="6.12467">
        <ele>1656.867558847</ele>
        <time>2015-11-10T12:28:47Z</time>
      </trkpt>
      <trkpt lat="45.6577" lon="6.12467">
        <ele>1656.867558847</ele>
        <time>2015-11-10T12:28:57Z</time>
      </trkpt>
      <trkpt lat="45.6577" lon="6.12467">
        <ele>1656.867558847</ele>
        <time>2015-11-10T12:29:02Z</time>
      </trkpt>
      <trkpt lat="45.6577" lon="6.12467">
        <ele>1656.867558847</ele>
        <time>2015-11-10T12:29:07Z</time>
      </trkpt>
      <trkpt lat="45.6577" lon="6.12467">
        <ele>1656.867558847</ele>
        <time>2015-11-10T12:29:12Z</time>
      </trkpt>
      <trkpt lat="45.6577" lon="6.12467">
        <ele>1656.867558847</ele>
        <time>2015-11-10T12:29:17Z</time>
      </trkpt>
      <trkpt lat="45.6577" lon="6.12467">
        <ele>1656.867558847</ele>
        <time>2015-11-10T12:29:27Z</time>
      </trkpt>
      <trkpt lat="45.6577" lon="6.12467">
        <ele>1656.867558847</ele>
        <time>2015-11-10T12:29:33Z</time>
      </trkpt>
      <trkpt lat="45.6577" lon="6.12467">
        <ele>1656.867558847</ele>
        <time>2015-11-10T12:29:47Z</time>
      </trkpt>
      <trkpt lat="45.6577" lon="6.12467">
        <ele>1656.867558847</ele>
        <time>2015-11-10T12:29:52Z</time>
      </trkpt>
      <trkpt lat="45.6577" lon="6.12467">
        <ele>1656.867558847</ele>
        <time>2015-11-10T12:30:02Z</time>
      </trkpt>
      <trkpt lat="45.6577" lon="6.12467">
        <ele>1656.867558847</ele>
        <time>2015-11-10T12:30:07Z</time>
      </trkpt>
      <trkpt lat="45.6577" lon="6.12467">
        <ele>1656.867558847</ele>
        <time>2015-11-10T12:30:17Z</time>
      </trkpt>
      <trkpt lat="45.6577" lon="6.12467">
        <ele>1656.867558847</ele>
        <time>2015-11-10T12:30:22Z</time>
      </trkpt>
      <trkpt lat="45.65769" lon="6.12469">
        <ele>1656.867558847</ele>
        <time>2015-11-10T12:30:32Z</time>
      </trkpt>
      <trkpt lat="45.65766" lon="6.12474">
        <ele>1656.867558847</ele>
        <time>2015-11-10T12:30:37Z</time>
      </trkpt>
      <trkpt lat="45.65761" lon="6.1248">
        <ele>1654.423110916</ele>
        <time>2015-11-10T12:30:47Z</time>
      </trkpt>
      <trkpt lat="45.65757" lon="6.12484">
        <ele>1654.423110916</ele>
        <time>2015-11-10T12:30:52Z</time>
      </trkpt>
      <trkpt lat="45.6575" lon="6.12495">
        <ele>1651.989598912</ele>
        <time>2015-11-10T12:31:07Z</time>
      </trkpt>
      <trkpt lat="45.65742" lon="6.12512">
        <ele>1649.278067451</ele>
        <time>2015-11-10T12:31:23Z</time>
      </trkpt>
      <trkpt lat="45.65736" lon="6.1252">
        <ele>1649.278067451</ele>
        <time>2015-11-10T12:31:27Z</time>
      </trkpt>
      <trkpt lat="45.65731" lon="6.12528">
        <ele>1646.598163784</ele>
        <time>2015-11-10T12:31:38Z</time>
      </trkpt>
      <trkpt lat="45.65731" lon="6.12528">
        <ele>1646.598163784</ele>
        <time>2015-11-10T12:31:42Z</time>
      </trkpt>
      <trkpt lat="45.65731" lon="6.12529">
        <ele>1646.598163784</ele>
        <time>2015-11-10T12:31:52Z</time>
      </trkpt>
      <trkpt lat="45.65728" lon="6.12533">
        <ele>1646.598163784</ele>
        <time>2015-11-10T12:31:57Z</time>
      </trkpt>
      <trkpt lat="45.65724" lon="6.12543">
        <ele>1643.660392796</ele>
        <time>2015-11-10T12:32:08Z</time>
      </trkpt>
      <trkpt lat="45.65721" lon="6.12547">
        <ele>1643.660392796</ele>
        <time>2015-11-10T12:32:12Z</time>
      </trkpt>
      <trkpt lat="45.65714" lon="6.12562">
        <ele>1640.629705587</ele>
        <time>2015-11-10T12:32:22Z</time>
      </trkpt>
      <trkpt lat="45.65709" lon="6.12568">
        <ele>1640.629705587</ele>
        <time>2015-11-10T12:32:27Z</time>
      </trkpt>
      <trkpt lat="45.657" lon="6.12582">
        <ele>1636.794636884</ele>
        <time>2015-11-10T12:32:37Z</time>
      </trkpt>
      <trkpt lat="45.65695" lon="6.12588">
        <ele>1636.794636884</ele>
        <time>2015-11-10T12:32:42Z</time>
      </trkpt>
      <trkpt lat="45.65689" lon="6.12598">
        <ele>1632.651220898</ele>
        <time>2015-11-10T12:32:52Z</time>
      </trkpt>
      <trkpt lat="45.65686" lon="6.12603">
        <ele>1632.651220898</ele>
        <time>2015-11-10T12:32:57Z</time>
      </trkpt>
      <trkpt lat="45.65675" lon="6.12617">
        <ele>1627.939432516</ele>
        <time>2015-11-10T12:33:12Z</time>
      </trkpt>
      <trkpt lat="45.65662" lon="6.12621">
        <ele>1622.852323362</ele>
        <time>2015-11-10T12:33:27Z</time>
      </trkpt>
      <trkpt lat="45.65659" lon="6.1262">
        <ele>1622.852323362</ele>
        <time>2015-11-10T12:33:33Z</time>
      </trkpt>
      <trkpt lat="45.6565" lon="6.12623">
        <ele>1618.146285101</ele>
        <time>2015-11-10T12:33:42Z</time>
      </trkpt>
      <trkpt lat="45.65643" lon="6.12626">
        <ele>1618.146285101</ele>
        <time>2015-11-10T12:33:47Z</time>
      </trkpt>
      <trkpt lat="45.65635" lon="6.12626">
        <ele>1613.079964324</ele>
        <time>2015-11-10T12:33:57Z</time>
      </trkpt>
      <trkpt lat="45.65627" lon="6.12629">
        <ele>1613.079964324</ele>
        <time>2015-11-10T12:34:03Z</time>
      </trkpt>
      <trkpt lat="45.65615" lon="6.12631">
        <ele>1608.552677534</ele>
        <time>2015-11-10T12:34:12Z</time>
      </trkpt>
      <trkpt lat="45.6561" lon="6.1263">
        <ele>1608.552677534</ele>
        <time>2015-11-10T12:34:18Z</time>
      </trkpt>
      <trkpt lat="45.65606" lon="6.12636">
        <ele>1605.107901709</ele>
        <time>2015-11-10T12:34:27Z</time>
      </trkpt>
      <trkpt lat="45.65601" lon="6.12639">
        <ele>1605.107901709</ele>
        <time>2015-11-10T12:34:32Z</time>
      </trkpt>
      <trkpt lat="45.65592" lon="6.12642">
        <ele>1601.228539843</ele>
        <time>2015-11-10T12:34:43Z</time>
      </trkpt>
      <trkpt lat="45.6559" lon="6.12646">
        <ele>1601.228539843</ele>
        <time>2015-11-10T12:34:47Z</time>
      </trkpt>
      <trkpt lat="45.65581" lon="6.12651">
        <ele>1597.815869183</ele>
        <time>2015-11-10T12:34:58Z</time>
      </trkpt>
      <trkpt lat="45.65577" lon="6.12648">
        <ele>1597.815869183</ele>
        <time>2015-11-10T12:35:02Z</time>
      </trkpt>
      <trkpt lat="45.65571" lon="6.12656">
        <ele>1594.406573855</ele>
        <time>2015-11-10T12:35:17Z</time>
      </trkpt>
      <trkpt lat="45.65571" lon="6.12666">
        <ele>1594.406573855</ele>
        <time>2015-11-10T12:35:22Z</time>
      </trkpt>
      <trkpt lat="45.65564" lon="6.1267">
        <ele>1591.291838501</ele>
        <time>2015-11-10T12:35:32Z</time>
      </trkpt>
      <trkpt lat="45.6556" lon="6.12673">
        <ele>1591.291838501</ele>
        <time>2015-11-10T12:35:38Z</time>
      </trkpt>
      <trkpt lat="45.65547" lon="6.12685">
        <ele>1588.596436692</ele>
        <time>2015-11-10T12:35:47Z</time>
      </trkpt>
      <trkpt lat="45.65544" lon="6.12693">
        <ele>1588.596436692</ele>
        <time>2015-11-10T12:35:52Z</time>
      </trkpt>
      <trkpt lat="45.65532" lon="6.12709">
        <ele>1586.290605732</ele>
        <time>2015-11-10T12:36:02Z</time>
      </trkpt>
      <trkpt lat="45.6553" lon="6.12712">
        <ele>1586.290605732</ele>
        <time>2015-11-10T12:36:07Z</time>
      </trkpt>
      <trkpt lat="45.65523" lon="6.12729">
        <ele>1584.057373821</ele>
        <time>2015-11-10T12:36:18Z</time>
      </trkpt>
      <trkpt lat="45.65522" lon="6.12729">
        <ele>1584.057373821</ele>
        <time>2015-11-10T12:36:22Z</time>
      </trkpt>
      <trkpt lat="45.65523" lon="6.1273">
        <ele>1584.057373821</ele>
        <time>2015-11-10T12:36:32Z</time>
      </trkpt>
      <trkpt lat="45.65523" lon="6.1273">
        <ele>1584.057373821</ele>
        <time>2015-11-10T12:36:37Z</time>
      </trkpt>
      <trkpt lat="45.65514" lon="6.12744">
        <ele>1582.323331369</ele>
        <time>2015-11-10T12:36:47Z</time>
      </trkpt>
      <trkpt lat="45.65511" lon="6.12753">
        <ele>1582.323331369</ele>
        <time>2015-11-10T12:36:52Z</time>
      </trkpt>
      <trkpt lat="45.65504" lon="6.12767">
        <ele>1580.185263292</ele>
        <time>2015-11-10T12:37:02Z</time>
      </trkpt>
      <trkpt lat="45.65503" lon="6.12773">
        <ele>1580.185263292</ele>
        <time>2015-11-10T12:37:07Z</time>
      </trkpt>
      <trkpt lat="45.65487" lon="6.12785">
        <ele>1578.680824113</ele>
        <time>2015-11-10T12:37:19Z</time>
      </trkpt>
      <trkpt lat="45.65484" lon="6.12787">
        <ele>1578.680824113</ele>
        <time>2015-11-10T12:37:22Z</time>
      </trkpt>
      <trkpt lat="45.65474" lon="6.128">
        <ele>1576.607947771</ele>
        <time>2015-11-10T12:37:32Z</time>
      </trkpt>
      <trkpt lat="45.6547" lon="6.12802">
        <ele>1576.607947771</ele>
        <time>2015-11-10T12:37:37Z</time>
      </trkpt>
      <trkpt lat="45.65471" lon="6.12807">
        <ele>1576.607947771</ele>
        <time>2015-11-10T12:37:52Z</time>
      </trkpt>
      <trkpt lat="45.65471" lon="6.12807">
        <ele>1572.710309937</ele>
        <time>2015-11-10T12:37:57Z</time>
      </trkpt>
      <trkpt lat="45.65471" lon="6.1281">
        <ele>1572.710309937</ele>
        <time>2015-11-10T12:38:07Z</time>
      </trkpt>
      <trkpt lat="45.65468" lon="6.12811">
        <ele>1572.710309937</ele>
        <time>2015-11-10T12:38:12Z</time>
      </trkpt>
      <trkpt lat="45.65469" lon="6.12812">
        <ele>1572.710309937</ele>
        <time>2015-11-10T12:38:22Z</time>
      </trkpt>
      <trkpt lat="45.65469" lon="6.12812">
        <ele>1572.710309937</ele>
        <time>2015-11-10T12:38:27Z</time>
      </trkpt>
      <trkpt lat="45.65467" lon="6.12813">
        <ele>1572.710309937</ele>
        <time>2015-11-10T12:38:37Z</time>
      </trkpt>
      <trkpt lat="45.65467" lon="6.12814">
        <ele>1572.710309937</ele>
        <time>2015-11-10T12:38:42Z</time>
      </trkpt>
      <trkpt lat="45.65471" lon="6.12819">
        <ele>1568.278840342</ele>
        <time>2015-11-10T12:38:52Z</time>
      </trkpt>
      <trkpt lat="45.65472" lon="6.12826">
        <ele>1568.278840342</ele>
        <time>2015-11-10T12:38:58Z</time>
      </trkpt>
      <trkpt lat="45.65474" lon="6.12828">
        <ele>1568.278840342</ele>
        <time>2015-11-10T12:39:07Z</time>
      </trkpt>
      <trkpt lat="45.65474" lon="6.12828">
        <ele>1568.278840342</ele>
        <time>2015-11-10T12:39:12Z</time>
      </trkpt>
      <trkpt lat="45.65474" lon="6.12828">
        <ele>1568.278840342</ele>
        <time>2015-11-10T12:39:22Z</time>
      </trkpt>
      <trkpt lat="45.65474" lon="6.12828">
        <ele>1568.278840342</ele>
        <time>2015-11-10T12:39:28Z</time>
      </trkpt>
      <trkpt lat="45.65475" lon="6.12831">
        <ele>1563.646420846</ele>
        <time>2015-11-10T12:39:32Z</time>
      </trkpt>
      <trkpt lat="45.65476" lon="6.12837">
        <ele>1563.646420846</ele>
        <time>2015-11-10T12:39:43Z</time>
      </trkpt>
      <trkpt lat="45.65476" lon="6.12837">
        <ele>1563.646420846</ele>
        <time>2015-11-10T12:39:47Z</time>
      </trkpt>
      <trkpt lat="45.65475" lon="6.12838">
        <ele>1563.646420846</ele>
        <time>2015-11-10T12:39:57Z</time>
      </trkpt>
      <trkpt lat="45.65475" lon="6.12838">
        <ele>1563.646420846</ele>
        <time>2015-11-10T12:40:03Z</time>
      </trkpt>
      <trkpt lat="45.65474" lon="6.12839">
        <ele>1563.646420846</ele>
        <time>2015-11-10T12:40:12Z</time>
      </trkpt>
      <trkpt lat="45.65473" lon="6.12841">
        <ele>1563.646420846</ele>
        <time>2015-11-10T12:40:17Z</time>
      </trkpt>
      <trkpt lat="45.65472" lon="6.12852">
        <ele>1557.824984475</ele>
        <time>2015-11-10T12:40:27Z</time>
      </trkpt>
      <trkpt lat="45.65474" lon="6.12856">
        <ele>1557.824984475</ele>
        <time>2015-11-10T12:40:32Z</time>
      </trkpt>
      <trkpt lat="45.65476" lon="6.12864">
        <ele>1551.775752837</ele>
        <time>2015-11-10T12:40:43Z</time>
      </trkpt>
      <trkpt lat="45.65477" lon="6.12871">
        <ele>1551.775752837</ele>
        <time>2015-11-10T12:40:47Z</time>
      </trkpt>
      <trkpt lat="45.65481" lon="6.12878">
        <ele>1545.236992077</ele>
        <time>2015-11-10T12:40:57Z</time>
      </trkpt>
      <trkpt lat="45.65481" lon="6.1288">
        <ele>1545.236992077</ele>
        <time>2015-11-10T12:41:02Z</time>
      </trkpt>
      <trkpt lat="45.6548" lon="6.1289">
        <ele>1545.236992077</ele>
        <time>2015-11-10T12:41:12Z</time>
      </trkpt>
      <trkpt lat="45.6548" lon="6.12896">
        <ele>1538.111562731</ele>
        <time>2015-11-10T12:41:17Z</time>
      </trkpt>
      <trkpt lat="45.65486" lon="6.12906">
        <ele>1538.111562731</ele>
        <time>2015-11-10T12:41:32Z</time>
      </trkpt>
      <trkpt lat="45.65486" lon="6.12906">
        <ele>1530.743298865</ele>
        <time>2015-11-10T12:41:37Z</time>
      </trkpt>
      <trkpt lat="45.65486" lon="6.12916">
        <ele>1530.743298865</ele>
        <time>2015-11-10T12:41:47Z</time>
      </trkpt>
      <trkpt lat="45.65485" lon="6.1292">
        <ele>1524.748294057</ele>
        <time>2015-11-10T12:41:52Z</time>
      </trkpt>
      <trkpt lat="45.65488" lon="6.1293">
        <ele>1524.748294057</ele>
        <time>2015-11-10T12:42:02Z</time>
      </trkpt>
      <trkpt lat="45.65484" lon="6.12934">
        <ele>1519.314109088</ele>
        <time>2015-11-10T12:42:07Z</time>
      </trkpt>
      <trkpt lat="45.65487" lon="6.12934">
        <ele>1519.314109088</ele>
        <time>2015-11-10T12:42:18Z</time>
      </trkpt>
      <trkpt lat="45.65487" lon="6.12934">
        <ele>1519.314109088</ele>
        <time>2015-11-10T12:42:22Z</time>
      </trkpt>
      <trkpt lat="45.65487" lon="6.12934">
        <ele>1519.314109088</ele>
        <time>2015-11-10T12:42:32Z</time>
      </trkpt>
      <trkpt lat="45.65486" lon="6.12933">
        <ele>1519.314109088</ele>
        <time>2015-11-10T12:42:37Z</time>
      </trkpt>
      <trkpt lat="45.65486" lon="6.12933">
        <ele>1519.314109088</ele>
        <time>2015-11-10T12:42:48Z</time>
      </trkpt>
      <trkpt lat="45.65489" lon="6.12938">
        <ele>1519.314109088</ele>
        <time>2015-11-10T12:42:52Z</time>
      </trkpt>
      <trkpt lat="45.65492" lon="6.12942">
        <ele>1512.677432373</ele>
        <time>2015-11-10T12:43:02Z</time>
      </trkpt>
      <trkpt lat="45.65492" lon="6.12942">
        <ele>1512.677432373</ele>
        <time>2015-11-10T12:43:07Z</time>
      </trkpt>
      <trkpt lat="45.65487" lon="6.12945">
        <ele>1512.677432373</ele>
        <time>2015-11-10T12:43:22Z</time>
      </trkpt>
      <trkpt lat="45.65487" lon="6.12943">
        <ele>1512.677432373</ele>
        <time>2015-11-10T12:43:27Z</time>
      </trkpt>
      <trkpt lat="45.65487" lon="6.12943">
        <ele>1512.677432373</ele>
        <time>2015-11-10T12:43:37Z</time>
      </trkpt>
      <trkpt lat="45.65486" lon="6.12952">
        <ele>1506.089864797</ele>
        <time>2015-11-10T12:43:42Z</time>
      </trkpt>
      <trkpt lat="45.65483" lon="6.1296">
        <ele>1506.089864797</ele>
        <time>2015-11-10T12:43:52Z</time>
      </trkpt>
      <trkpt lat="45.65486" lon="6.12965">
        <ele>1499.557810833</ele>
        <time>2015-11-10T12:43:57Z</time>
      </trkpt>
      <trkpt lat="45.65488" lon="6.12968">
        <ele>1499.557810833</ele>
        <time>2015-11-10T12:44:07Z</time>
      </trkpt>
      <trkpt lat="45.65489" lon="6.12968">
        <ele>1499.557810833</ele>
        <time>2015-11-10T12:44:13Z</time>
      </trkpt>
      <trkpt lat="45.65488" lon="6.12968">
        <ele>1499.557810833</ele>
        <time>2015-11-10T12:44:22Z</time>
      </trkpt>
      <trkpt lat="45.65488" lon="6.12969">
        <ele>1499.557810833</ele>
        <time>2015-11-10T12:44:27Z</time>
      </trkpt>
      <trkpt lat="45.65484" lon="6.12973">
        <ele>1493.51914435</ele>
        <time>2015-11-10T12:44:38Z</time>
      </trkpt>
      <trkpt lat="45.65482" lon="6.12978">
        <ele>1493.51914435</ele>
        <time>2015-11-10T12:44:42Z</time>
      </trkpt>
      <trkpt lat="45.65483" lon="6.12982">
        <ele>1493.51914435</ele>
        <time>2015-11-10T12:44:59Z</time>
      </trkpt>
      <trkpt lat="45.65483" lon="6.12982">
        <ele>1493.51914435</ele>
        <time>2015-11-10T12:45:02Z</time>
      </trkpt>
      <trkpt lat="45.65482" lon="6.12986">
        <ele>1487.369163198</ele>
        <time>2015-11-10T12:45:12Z</time>
      </trkpt>
      <trkpt lat="45.65479" lon="6.1299">
        <ele>1487.369163198</ele>
        <time>2015-11-10T12:45:18Z</time>
      </trkpt>
      <trkpt lat="45.65478" lon="6.12995">
        <ele>1487.369163198</ele>
        <time>2015-11-10T12:45:27Z</time>
      </trkpt>
      <trkpt lat="45.6548" lon="6.12999">
        <ele>1480.691753669</ele>
        <time>2015-11-10T12:45:32Z</time>
      </trkpt>
      <trkpt lat="45.65478" lon="6.12999">
        <ele>1480.691753669</ele>
        <time>2015-11-10T12:45:42Z</time>
      </trkpt>
      <trkpt lat="45.65477" lon="6.12999">
        <ele>1480.691753669</ele>
        <time>2015-11-10T12:45:47Z</time>
      </trkpt>
      <trkpt lat="45.65476" lon="6.13">
        <ele>1480.691753669</ele>
        <time>2015-11-10T12:45:52Z</time>
      </trkpt>
      <trkpt lat="45.65476" lon="6.12999">
        <ele>1480.691753669</ele>
        <time>2015-11-10T12:45:57Z</time>
      </trkpt>
      <trkpt lat="45.65476" lon="6.13001">
        <ele>1480.691753669</ele>
        <time>2015-11-10T12:46:02Z</time>
      </trkpt>
      <trkpt lat="45.65476" lon="6.13001">
        <ele>1480.691753669</ele>
        <time>2015-11-10T12:46:12Z</time>
      </trkpt>
      <trkpt lat="45.65472" lon="6.13003">
        <ele>1475.84070166</ele>
        <time>2015-11-10T12:46:17Z</time>
      </trkpt>
      <trkpt lat="45.6546" lon="6.13011">
        <ele>1470.379943173</ele>
        <time>2015-11-10T12:46:27Z</time>
      </trkpt>
      <trkpt lat="45.65452" lon="6.13019">
        <ele>1465.656596433</ele>
        <time>2015-11-10T12:46:33Z</time>
      </trkpt>
      <trkpt lat="45.65442" lon="6.13027">
        <ele>1461.043053819</ele>
        <time>2015-11-10T12:46:43Z</time>
      </trkpt>
      <trkpt lat="45.65438" lon="6.13033">
        <ele>1461.043053819</ele>
        <time>2015-11-10T12:46:47Z</time>
      </trkpt>
      <trkpt lat="45.65426" lon="6.13048">
        <ele>1457.110149293</ele>
        <time>2015-11-10T12:47:02Z</time>
      </trkpt>
      <trkpt lat="45.65422" lon="6.13052">
        <ele>1457.110149293</ele>
        <time>2015-11-10T12:47:08Z</time>
      </trkpt>
      <trkpt lat="45.65413" lon="6.13065">
        <ele>1453.519976351</ele>
        <time>2015-11-10T12:47:18Z</time>
      </trkpt>
      <trkpt lat="45.6541" lon="6.13068">
        <ele>1453.519976351</ele>
        <time>2015-11-10T12:47:22Z</time>
      </trkpt>
      <trkpt lat="45.65401" lon="6.1308">
        <ele>1449.814162404</ele>
        <time>2015-11-10T12:47:32Z</time>
      </trkpt>
      <trkpt lat="45.654" lon="6.13084">
        <ele>1449.814162404</ele>
        <time>2015-11-10T12:47:38Z</time>
      </trkpt>
      <trkpt lat="45.65396" lon="6.13091">
        <ele>1446.000465134</ele>
        <time>2015-11-10T12:47:47Z</time>
      </trkpt>
      <trkpt lat="45.65394" lon="6.13091">
        <ele>1446.000465134</ele>
        <time>2015-11-10T12:47:52Z</time>
      </trkpt>
      <trkpt lat="45.65387" lon="6.13103">
        <ele>1441.942081013</ele>
        <time>2015-11-10T12:48:02Z</time>
      </trkpt>
      <trkpt lat="45.65384" lon="6.13109">
        <ele>1441.942081013</ele>
        <time>2015-11-10T12:48:07Z</time>
      </trkpt>
      <trkpt lat="45.65383" lon="6.13119">
        <ele>1438.809777306</ele>
        <time>2015-11-10T12:48:17Z</time>
      </trkpt>
      <trkpt lat="45.65375" lon="6.13129">
        <ele>1435.812125657</ele>
        <time>2015-11-10T12:48:23Z</time>
      </trkpt>
      <trkpt lat="45.65367" lon="6.13148">
        <ele>1433.079994219</ele>
        <time>2015-11-10T12:48:32Z</time>
      </trkpt>
      <trkpt lat="45.65366" lon="6.13152">
        <ele>1433.079994219</ele>
        <time>2015-11-10T12:48:37Z</time>
      </trkpt>
      <trkpt lat="45.65358" lon="6.13168">
        <ele>1430.301447807</ele>
        <time>2015-11-10T12:48:47Z</time>
      </trkpt>
      <trkpt lat="45.65352" lon="6.13181">
        <ele>1428.628618145</ele>
        <time>2015-11-10T12:48:52Z</time>
      </trkpt>
      <trkpt lat="45.65341" lon="6.13191">
        <ele>1426.964165791</ele>
        <time>2015-11-10T12:49:02Z</time>
      </trkpt>
      <trkpt lat="45.65338" lon="6.13196">
        <ele>1426.964165791</ele>
        <time>2015-11-10T12:49:07Z</time>
      </trkpt>
      <trkpt lat="45.65332" lon="6.13208">
        <ele>1424.723627011</ele>
        <time>2015-11-10T12:49:18Z</time>
      </trkpt>
      <trkpt lat="45.6533" lon="6.13212">
        <ele>1424.723627011</ele>
        <time>2015-11-10T12:49:22Z</time>
      </trkpt>
      <trkpt lat="45.6532" lon="6.13237">
        <ele>1423.240513273</ele>
        <time>2015-11-10T12:49:37Z</time>
      </trkpt>
      <trkpt lat="45.65314" lon="6.13248">
        <ele>1422.018921701</ele>
        <time>2015-11-10T12:49:43Z</time>
      </trkpt>
      <trkpt lat="45.65306" lon="6.13257">
        <ele>1421.175116039</ele>
        <time>2015-11-10T12:49:52Z</time>
      </trkpt>
      <trkpt lat="45.65305" lon="6.13259">
        <ele>1421.175116039</ele>
        <time>2015-11-10T12:49:58Z</time>
      </trkpt>
      <trkpt lat="45.65305" lon="6.13259">
        <ele>1421.175116039</ele>
        <time>2015-11-10T12:50:08Z</time>
      </trkpt>
      <trkpt lat="45.65306" lon="6.13258">
        <ele>1421.175116039</ele>
        <time>2015-11-10T12:50:12Z</time>
      </trkpt>
      <trkpt lat="45.65306" lon="6.13254">
        <ele>1421.175116039</ele>
        <time>2015-11-10T12:50:23Z</time>
      </trkpt>
      <trkpt lat="45.65306" lon="6.13254">
        <ele>1421.175116039</ele>
        <time>2015-11-10T12:50:27Z</time>
      </trkpt>
      <trkpt lat="45.65301" lon="6.1326">
        <ele>1420.383476363</ele>
        <time>2015-11-10T12:50:37Z</time>
      </trkpt>
      <trkpt lat="45.65294" lon="6.1327">
        <ele>1420.062787101</ele>
        <time>2015-11-10T12:50:42Z</time>
      </trkpt>
      <trkpt lat="45.65288" lon="6.13282">
        <ele>1420.311625987</ele>
        <time>2015-11-10T12:50:52Z</time>
      </trkpt>
      <trkpt lat="45.65284" lon="6.1329">
        <ele>1420.311625987</ele>
        <time>2015-11-10T12:50:58Z</time>
      </trkpt>
      <trkpt lat="45.65274" lon="6.13305">
        <ele>1420.211078819</ele>
        <time>2015-11-10T12:51:08Z</time>
      </trkpt>
      <trkpt lat="45.65269" lon="6.13313">
        <ele>1420.211078819</ele>
        <time>2015-11-10T12:51:12Z</time>
      </trkpt>
      <trkpt lat="45.65269" lon="6.13313">
        <ele>1420.211078819</ele>
        <time>2015-11-10T12:51:17Z</time>
      </trkpt>
      <trkpt lat="45.6527" lon="6.13312">
        <ele>1420.211078819</ele>
        <time>2015-11-10T12:51:22Z</time>
      </trkpt>
      <trkpt lat="45.65268" lon="6.13314">
        <ele>1420.640199099</ele>
        <time>2015-11-10T12:51:27Z</time>
      </trkpt>
      <trkpt lat="45.65269" lon="6.13314">
        <ele>1420.640199099</ele>
        <time>2015-11-10T12:51:32Z</time>
      </trkpt>
      <trkpt lat="45.65269" lon="6.13313">
        <ele>1420.640199099</ele>
        <time>2015-11-10T12:51:42Z</time>
      </trkpt>
      <trkpt lat="45.65269" lon="6.13313">
        <ele>1420.640199099</ele>
        <time>2015-11-10T12:51:47Z</time>
      </trkpt>
      <trkpt lat="45.65268" lon="6.13315">
        <ele>1420.640199099</ele>
        <time>2015-11-10T12:51:57Z</time>
      </trkpt>
      <trkpt lat="45.65265" lon="6.13323">
        <ele>1420.640199099</ele>
        <time>2015-11-10T12:52:02Z</time>
      </trkpt>
      <trkpt lat="45.65268" lon="6.13332">
        <ele>1420.538708963</ele>
        <time>2015-11-10T12:52:12Z</time>
      </trkpt>
      <trkpt lat="45.65266" lon="6.13342">
        <ele>1420.538708963</ele>
        <time>2015-11-10T12:52:17Z</time>
      </trkpt>
      <trkpt lat="45.6527" lon="6.13364">
        <ele>1419.070011539</ele>
        <time>2015-11-10T12:52:32Z</time>
      </trkpt>
      <trkpt lat="45.6527" lon="6.13363">
        <ele>1419.070011539</ele>
        <time>2015-11-10T12:52:37Z</time>
      </trkpt>
      <trkpt lat="45.65269" lon="6.13363">
        <ele>1419.070011539</ele>
        <time>2015-11-10T12:52:42Z</time>
      </trkpt>
      <trkpt lat="45.65269" lon="6.13362">
        <ele>1419.070011539</ele>
        <time>2015-11-10T12:52:47Z</time>
      </trkpt>
      <trkpt lat="45.65265" lon="6.13365">
        <ele>1419.070011539</ele>
        <time>2015-11-10T12:52:52Z</time>
      </trkpt>
      <trkpt lat="45.65253" lon="6.13357">
        <ele>1418.057012064</ele>
        <time>2015-11-10T12:53:02Z</time>
      </trkpt>
      <trkpt lat="45.65248" lon="6.13352">
        <ele>1418.057012064</ele>
        <time>2015-11-10T12:53:07Z</time>
      </trkpt>
      <trkpt lat="45.65237" lon="6.1334">
        <ele>1418.178872927</ele>
        <time>2015-11-10T12:53:22Z</time>
      </trkpt>
      <trkpt lat="45.65222" lon="6.13318">
        <ele>1418.476693498</ele>
        <time>2015-11-10T12:53:37Z</time>
      </trkpt>
      <trkpt lat="45.65218" lon="6.1331">
        <ele>1418.476693498</ele>
        <time>2015-11-10T12:53:42Z</time>
      </trkpt>
      <trkpt lat="45.65213" lon="6.13307">
        <ele>1419.214655347</ele>
        <time>2015-11-10T12:53:47Z</time>
      </trkpt>
      <trkpt lat="45.65209" lon="6.13307">
        <ele>1419.214655347</ele>
        <time>2015-11-10T12:53:52Z</time>
      </trkpt>
      <trkpt lat="45.65205" lon="6.13302">
        <ele>1419.214655347</ele>
        <time>2015-11-10T12:53:57Z</time>
      </trkpt>
      <trkpt lat="45.65203" lon="6.13296">
        <ele>1420.492448759</ele>
        <time>2015-11-10T12:54:02Z</time>
      </trkpt>
      <trkpt lat="45.652" lon="6.13289">
        <ele>1420.492448759</ele>
        <time>2015-11-10T12:54:07Z</time>
      </trkpt>
      <trkpt lat="45.6519" lon="6.13278">
        <ele>1421.680648296</ele>
        <time>2015-11-10T12:54:17Z</time>
      </trkpt>
      <trkpt lat="45.65185" lon="6.13274">
        <ele>1421.680648296</ele>
        <time>2015-11-10T12:54:23Z</time>
      </trkpt>
      <trkpt lat="45.65177" lon="6.13266">
        <ele>1423.493612819</ele>
        <time>2015-11-10T12:54:32Z</time>
      </trkpt>
      <trkpt lat="45.6517" lon="6.13262">
        <ele>1423.493612819</ele>
        <time>2015-11-10T12:54:37Z</time>
      </trkpt>
      <trkpt lat="45.6516" lon="6.13254">
        <ele>1424.286004603</ele>
        <time>2015-11-10T12:54:48Z</time>
      </trkpt>
      <trkpt lat="45.65156" lon="6.13259">
        <ele>1424.286004603</ele>
        <time>2015-11-10T12:54:52Z</time>
      </trkpt>
      <trkpt lat="45.65146" lon="6.13265">
        <ele>1426.283432205</ele>
        <time>2015-11-10T12:55:03Z</time>
      </trkpt>
      <trkpt lat="45.65145" lon="6.13264">
        <ele>1426.283432205</ele>
        <time>2015-11-10T12:55:07Z</time>
      </trkpt>
      <trkpt lat="45.65145" lon="6.13266">
        <ele>1426.283432205</ele>
        <time>2015-11-10T12:55:17Z</time>
      </trkpt>
      <trkpt lat="45.65137" lon="6.1327">
        <ele>1428.806862651</ele>
        <time>2015-11-10T12:55:23Z</time>
      </trkpt>
      <trkpt lat="45.65127" lon="6.13273">
        <ele>1431.946584037</ele>
        <time>2015-11-10T12:55:32Z</time>
      </trkpt>
      <trkpt lat="45.65123" lon="6.13272">
        <ele>1431.946584037</ele>
        <time>2015-11-10T12:55:37Z</time>
      </trkpt>
      <trkpt lat="45.65116" lon="6.13267">
        <ele>1435.929012198</ele>
        <time>2015-11-10T12:55:47Z</time>
      </trkpt>
      <trkpt lat="45.65112" lon="6.13269">
        <ele>1435.929012198</ele>
        <time>2015-11-10T12:55:52Z</time>
      </trkpt>
      <trkpt lat="45.65103" lon="6.13274">
        <ele>1440.241410291</ele>
        <time>2015-11-10T12:56:07Z</time>
      </trkpt>
      <trkpt lat="45.65101" lon="6.13278">
        <ele>1440.241410291</ele>
        <time>2015-11-10T12:56:12Z</time>
      </trkpt>
      <trkpt lat="45.65096" lon="6.1328">
        <ele>1440.241410291</ele>
        <time>2015-11-10T12:56:22Z</time>
      </trkpt>
      <trkpt lat="45.65093" lon="6.13281">
        <ele>1444.840537589</ele>
        <time>2015-11-10T12:56:27Z</time>
      </trkpt>
      <trkpt lat="45.65091" lon="6.13281">
        <ele>1444.840537589</ele>
        <time>2015-11-10T12:56:38Z</time>
      </trkpt>
      <trkpt lat="45.65084" lon="6.1328">
        <ele>1449.397749857</ele>
        <time>2015-11-10T12:56:43Z</time>
      </trkpt>
      <trkpt lat="45.6508" lon="6.1327">
        <ele>1449.397749857</ele>
        <time>2015-11-10T12:56:52Z</time>
      </trkpt>
      <trkpt lat="45.65071" lon="6.13274">
        <ele>1453.753242991</ele>
        <time>2015-11-10T12:56:57Z</time>
      </trkpt>
      <trkpt lat="45.65068" lon="6.13272">
        <ele>1453.753242991</ele>
        <time>2015-11-10T12:57:07Z</time>
      </trkpt>
      <trkpt lat="45.65067" lon="6.13272">
        <ele>1453.753242991</ele>
        <time>2015-11-10T12:57:12Z</time>
      </trkpt>
      <trkpt lat="45.65061" lon="6.13267">
        <ele>1458.624675303</ele>
        <time>2015-11-10T12:57:22Z</time>
      </trkpt>
      <trkpt lat="45.65059" lon="6.13263">
        <ele>1458.624675303</ele>
        <time>2015-11-10T12:57:27Z</time>
      </trkpt>
      <trkpt lat="45.65056" lon="6.13261">
        <ele>1458.624675303</ele>
        <time>2015-11-10T12:57:32Z</time>
      </trkpt>
      <trkpt lat="45.65053" lon="6.13266">
        <ele>1463.811381484</ele>
        <time>2015-11-10T12:57:37Z</time>
      </trkpt>
      <trkpt lat="45.65052" lon="6.13264">
        <ele>1463.811381484</ele>
        <time>2015-11-10T12:57:42Z</time>
      </trkpt>
      <trkpt lat="45.65052" lon="6.13262">
        <ele>1463.811381484</ele>
        <time>2015-11-10T12:57:47Z</time>
      </trkpt>
      <trkpt lat="45.65049" lon="6.13261">
        <ele>1463.811381484</ele>
        <time>2015-11-10T12:57:52Z</time>
      </trkpt>
      <trkpt lat="45.65047" lon="6.13257">
        <ele>1468.550633718</ele>
        <time>2015-11-10T12:57:57Z</time>
      </trkpt>
      <trkpt lat="45.65037" lon="6.13255">
        <ele>1473.866864103</ele>
        <time>2015-11-10T12:58:07Z</time>
      </trkpt>
      <trkpt lat="45.65035" lon="6.13255">
        <ele>1473.866864103</ele>
        <time>2015-11-10T12:58:12Z</time>
      </trkpt>
      <trkpt lat="45.65027" lon="6.13242">
        <ele>1478.114183934</ele>
        <time>2015-11-10T12:58:22Z</time>
      </trkpt>
      <trkpt lat="45.65023" lon="6.13242">
        <ele>1478.114183934</ele>
        <time>2015-11-10T12:58:27Z</time>
      </trkpt>
      <trkpt lat="45.65015" lon="6.13236">
        <ele>1483.085728724</ele>
        <time>2015-11-10T12:58:42Z</time>
      </trkpt>
      <trkpt lat="45.65012" lon="6.13234">
        <ele>1483.085728724</ele>
        <time>2015-11-10T12:58:47Z</time>
      </trkpt>
      <trkpt lat="45.65006" lon="6.1323">
        <ele>1488.135670538</ele>
        <time>2015-11-10T12:58:57Z</time>
      </trkpt>
      <trkpt lat="45.65004" lon="6.1323">
        <ele>1488.135670538</ele>
        <time>2015-11-10T12:59:02Z</time>
      </trkpt>
      <trkpt lat="45.64998" lon="6.13224">
        <ele>1493.098311371</ele>
        <time>2015-11-10T12:59:12Z</time>
      </trkpt>
      <trkpt lat="45.64996" lon="6.13221">
        <ele>1493.098311371</ele>
        <time>2015-11-10T12:59:17Z</time>
      </trkpt>
      <trkpt lat="45.64992" lon="6.13214">
        <ele>1497.820946596</ele>
        <time>2015-11-10T12:59:27Z</time>
      </trkpt>
      <trkpt lat="45.64989" lon="6.13213">
        <ele>1497.820946596</ele>
        <time>2015-11-10T12:59:33Z</time>
      </trkpt>
      <trkpt lat="45.64982" lon="6.13208">
        <ele>1502.307450519</ele>
        <time>2015-11-10T12:59:42Z</time>
      </trkpt>
      <trkpt lat="45.64981" lon="6.132">
        <ele>1502.307450519</ele>
        <time>2015-11-10T12:59:47Z</time>
      </trkpt>
      <trkpt lat="45.64971" lon="6.13202">
        <ele>1506.850872422</ele>
        <time>2015-11-10T12:59:57Z</time>
      </trkpt>
      <trkpt lat="45.64967" lon="6.13199">
        <ele>1506.850872422</ele>
        <time>2015-11-10T13:00:02Z</time>
      </trkpt>
      <trkpt lat="45.64955" lon="6.13202">
        <ele>1511.290811175</ele>
        <time>2015-11-10T13:00:12Z</time>
      </trkpt>
      <trkpt lat="45.64951" lon="6.13199">
        <ele>1511.290811175</ele>
        <time>2015-11-10T13:00:17Z</time>
      </trkpt>
      <trkpt lat="45.64943" lon="6.13188">
        <ele>1515.623612885</ele>
        <time>2015-11-10T13:00:33Z</time>
      </trkpt>
      <trkpt lat="45.64942" lon="6.13186">
        <ele>1515.623612885</ele>
        <time>2015-11-10T13:00:37Z</time>
      </trkpt>
      <trkpt lat="45.64937" lon="6.13183">
        <ele>1515.623612885</ele>
        <time>2015-11-10T13:00:44Z</time>
      </trkpt>
      <trkpt lat="45.64937" lon="6.13179">
        <ele>1520.279080563</ele>
        <time>2015-11-10T13:00:47Z</time>
      </trkpt>
      <trkpt lat="45.64934" lon="6.13171">
        <ele>1520.279080563</ele>
        <time>2015-11-10T13:00:53Z</time>
      </trkpt>
      <trkpt lat="45.64933" lon="6.13166">
        <ele>1524.934528272</ele>
        <time>2015-11-10T13:01:03Z</time>
      </trkpt>
      <trkpt lat="45.64929" lon="6.13166">
        <ele>1524.934528272</ele>
        <time>2015-11-10T13:01:07Z</time>
      </trkpt>
      <trkpt lat="45.64927" lon="6.13154">
        <ele>1530.156177623</ele>
        <time>2015-11-10T13:01:17Z</time>
      </trkpt>
      <trkpt lat="45.64926" lon="6.13151">
        <ele>1530.156177623</ele>
        <time>2015-11-10T13:01:23Z</time>
      </trkpt>
      <trkpt lat="45.64927" lon="6.13145">
        <ele>1530.156177623</ele>
        <time>2015-11-10T13:01:32Z</time>
      </trkpt>
      <trkpt lat="45.64927" lon="6.13144">
        <ele>1530.156177623</ele>
        <time>2015-11-10T13:01:37Z</time>
      </trkpt>
      <trkpt lat="45.64925" lon="6.13133">
        <ele>1535.891151323</ele>
        <time>2015-11-10T13:01:47Z</time>
      </trkpt>
      <trkpt lat="45.64924" lon="6.13124">
        <ele>1535.891151323</ele>
        <time>2015-11-10T13:01:52Z</time>
      </trkpt>
      <trkpt lat="45.64917" lon="6.13119">
        <ele>1540.792536409</ele>
        <time>2015-11-10T13:02:02Z</time>
      </trkpt>
      <trkpt lat="45.64911" lon="6.13117">
        <ele>1540.792536409</ele>
        <time>2015-11-10T13:02:07Z</time>
      </trkpt>
      <trkpt lat="45.64903" lon="6.13106">
        <ele>1544.4798794</ele>
        <time>2015-11-10T13:02:17Z</time>
      </trkpt>
      <trkpt lat="45.64897" lon="6.13101">
        <ele>1544.4798794</ele>
        <time>2015-11-10T13:02:22Z</time>
      </trkpt>
      <trkpt lat="45.64888" lon="6.1309">
        <ele>1547.325133146</ele>
        <time>2015-11-10T13:02:32Z</time>
      </trkpt>
      <trkpt lat="45.64885" lon="6.13086">
        <ele>1547.325133146</ele>
        <time>2015-11-10T13:02:38Z</time>
      </trkpt>
      <trkpt lat="45.64886" lon="6.13085">
        <ele>1547.325133146</ele>
        <time>2015-11-10T13:02:47Z</time>
      </trkpt>
      <trkpt lat="45.64886" lon="6.13086">
        <ele>1547.325133146</ele>
        <time>2015-11-10T13:02:52Z</time>
      </trkpt>
      <trkpt lat="45.64889" lon="6.13085">
        <ele>1547.325133146</ele>
        <time>2015-11-10T13:03:07Z</time>
      </trkpt>
      <trkpt lat="45.64887" lon="6.13086">
        <ele>1549.531655166</ele>
        <time>2015-11-10T13:03:12Z</time>
      </trkpt>
      <trkpt lat="45.64887" lon="6.13087">
        <ele>1549.531655166</ele>
        <time>2015-11-10T13:03:18Z</time>
      </trkpt>
      <trkpt lat="45.64887" lon="6.13086">
        <ele>1549.531655166</ele>
        <time>2015-11-10T13:03:22Z</time>
      </trkpt>
      <trkpt lat="45.64887" lon="6.13086">
        <ele>1549.531655166</ele>
        <time>2015-11-10T13:03:37Z</time>
      </trkpt>
      <trkpt lat="45.64887" lon="6.13086">
        <ele>1549.531655166</ele>
        <time>2015-11-10T13:03:42Z</time>
      </trkpt>
      <trkpt lat="45.64887" lon="6.13086">
        <ele>1549.531655166</ele>
        <time>2015-11-10T13:03:52Z</time>
      </trkpt>
      <trkpt lat="45.64887" lon="6.13086">
        <ele>1549.531655166</ele>
        <time>2015-11-10T13:03:57Z</time>
      </trkpt>
      <trkpt lat="45.64896" lon="6.13095">
        <ele>1551.578329352</ele>
        <time>2015-11-10T13:04:07Z</time>
      </trkpt>
      <trkpt lat="45.64902" lon="6.13099">
        <ele>1551.578329352</ele>
        <time>2015-11-10T13:04:12Z</time>
      </trkpt>
      <trkpt lat="45.64902" lon="6.13108">
        <ele>1552.900950336</ele>
        <time>2015-11-10T13:04:17Z</time>
      </trkpt>
      <trkpt lat="45.64905" lon="6.13113">
        <ele>1552.900950336</ele>
        <time>2015-11-10T13:04:22Z</time>
      </trkpt>
      <trkpt lat="45.64908" lon="6.13122">
        <ele>1553.699729786</ele>
        <time>2015-11-10T13:04:27Z</time>
      </trkpt>
      <trkpt lat="45.64917" lon="6.13139">
        <ele>1554.306099068</ele>
        <time>2015-11-10T13:04:37Z</time>
      </trkpt>
      <trkpt lat="45.64922" lon="6.13144">
        <ele>1554.306099068</ele>
        <time>2015-11-10T13:04:42Z</time>
      </trkpt>
      <trkpt lat="45.64931" lon="6.13152">
        <ele>1554.163322127</ele>
        <time>2015-11-10T13:04:52Z</time>
      </trkpt>
      <trkpt lat="45.64934" lon="6.13158">
        <ele>1554.163322127</ele>
        <time>2015-11-10T13:04:57Z</time>
      </trkpt>
      <trkpt lat="45.64937" lon="6.1317">
        <ele>1552.613813733</ele>
        <time>2015-11-10T13:05:07Z</time>
      </trkpt>
      <trkpt lat="45.6494" lon="6.13172">
        <ele>1552.613813733</ele>
        <time>2015-11-10T13:05:12Z</time>
      </trkpt>
      <trkpt lat="45.64938" lon="6.13179">
        <ele>1552.613813733</ele>
        <time>2015-11-10T13:05:22Z</time>
      </trkpt>
      <trkpt lat="45.64939" lon="6.1318">
        <ele>1550.781791568</ele>
        <time>2015-11-10T13:05:27Z</time>
      </trkpt>
      <trkpt lat="45.64939" lon="6.1318">
        <ele>1550.781791568</ele>
        <time>2015-11-10T13:05:37Z</time>
      </trkpt>
      <trkpt lat="45.64939" lon="6.1318">
        <ele>1550.781791568</ele>
        <time>2015-11-10T13:05:43Z</time>
      </trkpt>
      <trkpt lat="45.64939" lon="6.1318">
        <ele>1550.781791568</ele>
        <time>2015-11-10T13:05:52Z</time>
      </trkpt>
      <trkpt lat="45.64939" lon="6.1318">
        <ele>1550.781791568</ele>
        <time>2015-11-10T13:05:57Z</time>
      </trkpt>
      <trkpt lat="45.64948" lon="6.1318">
        <ele>1547.836402877</ele>
        <time>2015-11-10T13:06:07Z</time>
      </trkpt>
      <trkpt lat="45.6495" lon="6.13187">
        <ele>1547.836402877</ele>
        <time>2015-11-10T13:06:12Z</time>
      </trkpt>
      <trkpt lat="45.64951" lon="6.13192">
        <ele>1547.836402877</ele>
        <time>2015-11-10T13:06:22Z</time>
      </trkpt>
      <trkpt lat="45.64951" lon="6.13192">
        <ele>1544.884511103</ele>
        <time>2015-11-10T13:06:27Z</time>
      </trkpt>
      <trkpt lat="45.64952" lon="6.13191">
        <ele>1544.884511103</ele>
        <time>2015-11-10T13:06:37Z</time>
      </trkpt>
      <trkpt lat="45.64954" lon="6.13192">
        <ele>1544.884511103</ele>
        <time>2015-11-10T13:06:42Z</time>
      </trkpt>
      <trkpt lat="45.64963" lon="6.132">
        <ele>1541.510635851</ele>
        <time>2015-11-10T13:06:53Z</time>
      </trkpt>
      <trkpt lat="45.64964" lon="6.13202">
        <ele>1541.510635851</ele>
        <time>2015-11-10T13:06:57Z</time>
      </trkpt>
      <trkpt lat="45.6498" lon="6.13209">
        <ele>1537.763339604</ele>
        <time>2015-11-10T13:07:07Z</time>
      </trkpt>
      <trkpt lat="45.64983" lon="6.13215">
        <ele>1537.763339604</ele>
        <time>2015-11-10T13:07:12Z</time>
      </trkpt>
      <trkpt lat="45.64998" lon="6.13233">
        <ele>1533.832727287</ele>
        <time>2015-11-10T13:07:27Z</time>
      </trkpt>
      <trkpt lat="45.65004" lon="6.13235">
        <ele>1533.832727287</ele>
        <time>2015-11-10T13:07:32Z</time>
      </trkpt>
      <trkpt lat="45.65015" lon="6.1324">
        <ele>1528.886573063</ele>
        <time>2015-11-10T13:07:43Z</time>
      </trkpt>
      <trkpt lat="45.65015" lon="6.13248">
        <ele>1528.886573063</ele>
        <time>2015-11-10T13:07:47Z</time>
      </trkpt>
      <trkpt lat="45.65031" lon="6.13255">
        <ele>1524.029926614</ele>
        <time>2015-11-10T13:07:57Z</time>
      </trkpt>
      <trkpt lat="45.65036" lon="6.13257">
        <ele>1524.029926614</ele>
        <time>2015-11-10T13:08:02Z</time>
      </trkpt>
      <trkpt lat="45.65048" lon="6.1326">
        <ele>1518.268649003</ele>
        <time>2015-11-10T13:08:12Z</time>
      </trkpt>
      <trkpt lat="45.65052" lon="6.13262">
        <ele>1518.268649003</ele>
        <time>2015-11-10T13:08:17Z</time>
      </trkpt>
      <trkpt lat="45.6506" lon="6.13268">
        <ele>1512.845580825</ele>
        <time>2015-11-10T13:08:28Z</time>
      </trkpt>
      <trkpt lat="45.65062" lon="6.13267">
        <ele>1512.845580825</ele>
        <time>2015-11-10T13:08:32Z</time>
      </trkpt>
      <trkpt lat="45.65074" lon="6.13269">
        <ele>1506.317010312</ele>
        <time>2015-11-10T13:08:42Z</time>
      </trkpt>
      <trkpt lat="45.65083" lon="6.1327">
        <ele>1499.942030763</ele>
        <time>2015-11-10T13:08:48Z</time>
      </trkpt>
      <trkpt lat="45.65092" lon="6.13273">
        <ele>1493.301192529</ele>
        <time>2015-11-10T13:09:03Z</time>
      </trkpt>
      <trkpt lat="45.651" lon="6.13269">
        <ele>1493.301192529</ele>
        <time>2015-11-10T13:09:07Z</time>
      </trkpt>
      <trkpt lat="45.65118" lon="6.13261">
        <ele>1486.582609145</ele>
        <time>2015-11-10T13:09:17Z</time>
      </trkpt>
      <trkpt lat="45.6512" lon="6.13264">
        <ele>1486.582609145</ele>
        <time>2015-11-10T13:09:22Z</time>
      </trkpt>
      <trkpt lat="45.65129" lon="6.13274">
        <ele>1479.960313802</ele>
        <time>2015-11-10T13:09:32Z</time>
      </trkpt>
      <trkpt lat="45.65133" lon="6.13274">
        <ele>1479.960313802</ele>
        <time>2015-11-10T13:09:37Z</time>
      </trkpt>
      <trkpt lat="45.65146" lon="6.13261">
        <ele>1472.009544559</ele>
        <time>2015-11-10T13:09:47Z</time>
      </trkpt>
      <trkpt lat="45.65153" lon="6.13256">
        <ele>1472.009544559</ele>
        <time>2015-11-10T13:09:53Z</time>
      </trkpt>
      <trkpt lat="45.65167" lon="6.13266">
        <ele>1464.583821475</ele>
        <time>2015-11-10T13:10:02Z</time>
      </trkpt>
      <trkpt lat="45.65169" lon="6.1327">
        <ele>1464.583821475</ele>
        <time>2015-11-10T13:10:07Z</time>
      </trkpt>
      <trkpt lat="45.65178" lon="6.13278">
        <ele>1457.092669412</ele>
        <time>2015-11-10T13:10:17Z</time>
      </trkpt>
      <trkpt lat="45.65188" lon="6.13283">
        <ele>1450.141448084</ele>
        <time>2015-11-10T13:10:22Z</time>
      </trkpt>
      <trkpt lat="45.652" lon="6.13296">
        <ele>1443.280116208</ele>
        <time>2015-11-10T13:10:32Z</time>
      </trkpt>
      <trkpt lat="45.65206" lon="6.13303">
        <ele>1443.280116208</ele>
        <time>2015-11-10T13:10:37Z</time>
      </trkpt>
      <trkpt lat="45.65222" lon="6.13314">
        <ele>1436.667227224</ele>
        <time>2015-11-10T13:10:48Z</time>
      </trkpt>
      <trkpt lat="45.65228" lon="6.13317">
        <ele>1436.667227224</ele>
        <time>2015-11-10T13:10:52Z</time>
      </trkpt>
      <trkpt lat="45.65243" lon="6.13341">
        <ele>1429.72776262</ele>
        <time>2015-11-10T13:11:07Z</time>
      </trkpt>
      <trkpt lat="45.6526" lon="6.13359">
        <ele>1423.082068192</ele>
        <time>2015-11-10T13:11:22Z</time>
      </trkpt>
      <trkpt lat="45.65264" lon="6.13364">
        <ele>1423.082068192</ele>
        <time>2015-11-10T13:11:27Z</time>
      </trkpt>
      <trkpt lat="45.65275" lon="6.13382">
        <ele>1416.582851514</ele>
        <time>2015-11-10T13:11:37Z</time>
      </trkpt>
      <trkpt lat="45.65283" lon="6.13389">
        <ele>1416.582851514</ele>
        <time>2015-11-10T13:11:42Z</time>
      </trkpt>
      <trkpt lat="45.65292" lon="6.13404">
        <ele>1410.813095019</ele>
        <time>2015-11-10T13:11:52Z</time>
      </trkpt>
      <trkpt lat="45.65297" lon="6.13414">
        <ele>1410.813095019</ele>
        <time>2015-11-10T13:11:57Z</time>
      </trkpt>
      <trkpt lat="45.65302" lon="6.13434">
        <ele>1405.445554497</ele>
        <time>2015-11-10T13:12:07Z</time>
      </trkpt>
      <trkpt lat="45.65305" lon="6.13443">
        <ele>1405.445554497</ele>
        <time>2015-11-10T13:12:12Z</time>
      </trkpt>
      <trkpt lat="45.65314" lon="6.13457">
        <ele>1399.742881709</ele>
        <time>2015-11-10T13:12:22Z</time>
      </trkpt>
      <trkpt lat="45.65316" lon="6.13463">
        <ele>1399.742881709</ele>
        <time>2015-11-10T13:12:27Z</time>
      </trkpt>
      <trkpt lat="45.65321" lon="6.13471">
        <ele>1394.31916334</ele>
        <time>2015-11-10T13:12:38Z</time>
      </trkpt>
      <trkpt lat="45.65321" lon="6.13471">
        <ele>1394.31916334</ele>
        <time>2015-11-10T13:12:42Z</time>
      </trkpt>
      <trkpt lat="45.65319" lon="6.13479">
        <ele>1394.31916334</ele>
        <time>2015-11-10T13:12:52Z</time>
      </trkpt>
      <trkpt lat="45.65319" lon="6.1348">
        <ele>1394.31916334</ele>
        <time>2015-11-10T13:12:57Z</time>
      </trkpt>
      <trkpt lat="45.65317" lon="6.1348">
        <ele>1394.31916334</ele>
        <time>2015-11-10T13:13:07Z</time>
      </trkpt>
      <trkpt lat="45.65319" lon="6.13482">
        <ele>1389.021379758</ele>
        <time>2015-11-10T13:13:12Z</time>
      </trkpt>
      <trkpt lat="45.65326" lon="6.13489">
        <ele>1389.021379758</ele>
        <time>2015-11-10T13:13:23Z</time>
      </trkpt>
      <trkpt lat="45.6533" lon="6.13497">
        <ele>1383.130310585</ele>
        <time>2015-11-10T13:13:27Z</time>
      </trkpt>
      <trkpt lat="45.65337" lon="6.13507">
        <ele>1377.854050401</ele>
        <time>2015-11-10T13:13:37Z</time>
      </trkpt>
      <trkpt lat="45.65338" lon="6.13511">
        <ele>1377.854050401</ele>
        <time>2015-11-10T13:13:42Z</time>
      </trkpt>
      <trkpt lat="45.65336" lon="6.13516">
        <ele>1377.854050401</ele>
        <time>2015-11-10T13:13:47Z</time>
      </trkpt>
      <trkpt lat="45.65324" lon="6.13527">
        <ele>1372.724388949</ele>
        <time>2015-11-10T13:13:57Z</time>
      </trkpt>
      <trkpt lat="45.65326" lon="6.13532">
        <ele>1372.724388949</ele>
        <time>2015-11-10T13:14:02Z</time>
      </trkpt>
      <trkpt lat="45.65322" lon="6.13539">
        <ele>1367.738839262</ele>
        <time>2015-11-10T13:14:12Z</time>
      </trkpt>
      <trkpt lat="45.65316" lon="6.13546">
        <ele>1367.738839262</ele>
        <time>2015-11-10T13:14:17Z</time>
      </trkpt>
      <trkpt lat="45.65314" lon="6.13547">
        <ele>1362.605896098</ele>
        <time>2015-11-10T13:14:27Z</time>
      </trkpt>
      <trkpt lat="45.65312" lon="6.13548">
        <ele>1362.605896098</ele>
        <time>2015-11-10T13:14:32Z</time>
      </trkpt>
      <trkpt lat="45.65311" lon="6.13554">
        <ele>1362.605896098</ele>
        <time>2015-11-10T13:14:43Z</time>
      </trkpt>
      <trkpt lat="45.65312" lon="6.13558">
        <ele>1357.487661227</ele>
        <time>2015-11-10T13:14:48Z</time>
      </trkpt>
      <trkpt lat="45.65312" lon="6.13566">
        <ele>1357.487661227</ele>
        <time>2015-11-10T13:14:57Z</time>
      </trkpt>
      <trkpt lat="45.65309" lon="6.13568">
        <ele>1352.245531829</ele>
        <time>2015-11-10T13:15:02Z</time>
      </trkpt>
      <trkpt lat="45.65297" lon="6.1358">
        <ele>1347.183255525</ele>
        <time>2015-11-10T13:15:12Z</time>
      </trkpt>
      <trkpt lat="45.653" lon="6.1358">
        <ele>1347.183255525</ele>
        <time>2015-11-10T13:15:18Z</time>
      </trkpt>
      <trkpt lat="45.65302" lon="6.13583">
        <ele>1347.183255525</ele>
        <time>2015-11-10T13:15:27Z</time>
      </trkpt>
      <trkpt lat="45.65299" lon="6.13586">
        <ele>1341.428380006</ele>
        <time>2015-11-10T13:15:32Z</time>
      </trkpt>
      <trkpt lat="45.65298" lon="6.13603">
        <ele>1336.479791479</ele>
        <time>2015-11-10T13:15:42Z</time>
      </trkpt>
      <trkpt lat="45.65297" lon="6.13602">
        <ele>1336.479791479</ele>
        <time>2015-11-10T13:15:48Z</time>
      </trkpt>
      <trkpt lat="45.65295" lon="6.13608">
        <ele>1336.479791479</ele>
        <time>2015-11-10T13:15:52Z</time>
      </trkpt>
      <trkpt lat="45.65295" lon="6.13616">
        <ele>1332.282443437</ele>
        <time>2015-11-10T13:15:58Z</time>
      </trkpt>
      <trkpt lat="45.65293" lon="6.13623">
        <ele>1332.282443437</ele>
        <time>2015-11-10T13:16:02Z</time>
      </trkpt>
      <trkpt lat="45.65292" lon="6.1363">
        <ele>1328.350463048</ele>
        <time>2015-11-10T13:16:07Z</time>
      </trkpt>
      <trkpt lat="45.65289" lon="6.13637">
        <ele>1328.350463048</ele>
        <time>2015-11-10T13:16:17Z</time>
      </trkpt>
      <trkpt lat="45.65289" lon="6.13637">
        <ele>1328.350463048</ele>
        <time>2015-11-10T13:16:22Z</time>
      </trkpt>
      <trkpt lat="45.65275" lon="6.13644">
        <ele>1323.511963447</ele>
        <time>2015-11-10T13:16:32Z</time>
      </trkpt>
      <trkpt lat="45.65272" lon="6.13649">
        <ele>1323.511963447</ele>
        <time>2015-11-10T13:16:38Z</time>
      </trkpt>
      <trkpt lat="45.65277" lon="6.13652">
        <ele>1318.412639523</ele>
        <time>2015-11-10T13:16:48Z</time>
      </trkpt>
      <trkpt lat="45.65282" lon="6.13658">
        <ele>1318.412639523</ele>
        <time>2015-11-10T13:16:52Z</time>
      </trkpt>
      <trkpt lat="45.65294" lon="6.13661">
        <ele>1313.651127574</ele>
        <time>2015-11-10T13:17:02Z</time>
      </trkpt>
      <trkpt lat="45.65301" lon="6.13665">
        <ele>1313.651127574</ele>
        <time>2015-11-10T13:17:08Z</time>
      </trkpt>
      <trkpt lat="45.65306" lon="6.13666">
        <ele>1309.636694246</ele>
        <time>2015-11-10T13:17:17Z</time>
      </trkpt>
      <trkpt lat="45.65315" lon="6.13672">
        <ele>1305.01679732</ele>
        <time>2015-11-10T13:17:22Z</time>
      </trkpt>
      <trkpt lat="45.65309" lon="6.13677">
        <ele>1305.01679732</ele>
        <time>2015-11-10T13:17:32Z</time>
      </trkpt>
      <trkpt lat="45.65305" lon="6.13681">
        <ele>1301.133658882</ele>
        <time>2015-11-10T13:17:37Z</time>
      </trkpt>
      <trkpt lat="45.65291" lon="6.13693">
        <ele>1297.64334435</ele>
        <time>2015-11-10T13:17:48Z</time>
      </trkpt>
      <trkpt lat="45.65287" lon="6.13697">
        <ele>1297.64334435</ele>
        <time>2015-11-10T13:17:52Z</time>
      </trkpt>
      <trkpt lat="45.65274" lon="6.13698">
        <ele>1293.361170672</ele>
        <time>2015-11-10T13:18:02Z</time>
      </trkpt>
      <trkpt lat="45.65267" lon="6.13699">
        <ele>1293.361170672</ele>
        <time>2015-11-10T13:18:07Z</time>
      </trkpt>
      <trkpt lat="45.65253" lon="6.13704">
        <ele>1288.920814113</ele>
        <time>2015-11-10T13:18:18Z</time>
      </trkpt>
      <trkpt lat="45.65246" lon="6.13715">
        <ele>1285.197867998</ele>
        <time>2015-11-10T13:18:22Z</time>
      </trkpt>
      <trkpt lat="45.65262" lon="6.13736">
        <ele>1281.992636862</ele>
        <time>2015-11-10T13:18:38Z</time>
      </trkpt>
      <trkpt lat="45.65264" lon="6.13741">
        <ele>1281.992636862</ele>
        <time>2015-11-10T13:18:42Z</time>
      </trkpt>
      <trkpt lat="45.65268" lon="6.13757">
        <ele>1279.406709977</ele>
        <time>2015-11-10T13:18:52Z</time>
      </trkpt>
      <trkpt lat="45.65271" lon="6.13763">
        <ele>1279.406709977</ele>
        <time>2015-11-10T13:18:57Z</time>
      </trkpt>
      <trkpt lat="45.65281" lon="6.13767">
        <ele>1276.379456323</ele>
        <time>2015-11-10T13:19:08Z</time>
      </trkpt>
      <trkpt lat="45.65287" lon="6.13768">
        <ele>1276.379456323</ele>
        <time>2015-11-10T13:19:12Z</time>
      </trkpt>
      <trkpt lat="45.65293" lon="6.13779">
        <ele>1272.93806786</ele>
        <time>2015-11-10T13:19:23Z</time>
      </trkpt>
      <trkpt lat="45.65297" lon="6.13784">
        <ele>1272.93806786</ele>
        <time>2015-11-10T13:19:27Z</time>
      </trkpt>
      <trkpt lat="45.65307" lon="6.1379">
        <ele>1269.685262543</ele>
        <time>2015-11-10T13:19:37Z</time>
      </trkpt>
      <trkpt lat="45.6531" lon="6.1379">
        <ele>1269.685262543</ele>
        <time>2015-11-10T13:19:42Z</time>
      </trkpt>
      <trkpt lat="45.65305" lon="6.13802">
        <ele>1265.881891047</ele>
        <time>2015-11-10T13:19:52Z</time>
      </trkpt>
      <trkpt lat="45.65302" lon="6.13807">
        <ele>1265.881891047</ele>
        <time>2015-11-10T13:19:58Z</time>
      </trkpt>
      <trkpt lat="45.65295" lon="6.13818">
        <ele>1261.56515586</ele>
        <time>2015-11-10T13:20:08Z</time>
      </trkpt>
      <trkpt lat="45.65292" lon="6.13823">
        <ele>1261.56515586</ele>
        <time>2015-11-10T13:20:12Z</time>
      </trkpt>
      <trkpt lat="45.65276" lon="6.13838">
        <ele>1257.491490318</ele>
        <time>2015-11-10T13:20:27Z</time>
      </trkpt>
      <trkpt lat="45.6527" lon="6.13842">
        <ele>1257.491490318</ele>
        <time>2015-11-10T13:20:32Z</time>
      </trkpt>
      <trkpt lat="45.6526" lon="6.13849">
        <ele>1253.208168012</ele>
        <time>2015-11-10T13:20:43Z</time>
      </trkpt>
      <trkpt lat="45.65255" lon="6.13854">
        <ele>1253.208168012</ele>
        <time>2015-11-10T13:20:47Z</time>
      </trkpt>
      <trkpt lat="45.65242" lon="6.13864">
        <ele>1249.160962262</ele>
        <time>2015-11-10T13:20:57Z</time>
      </trkpt>
      <trkpt lat="45.65238" lon="6.13867">
        <ele>1249.160962262</ele>
        <time>2015-11-10T13:21:02Z</time>
      </trkpt>
      <trkpt lat="45.65228" lon="6.13871">
        <ele>1244.897565949</ele>
        <time>2015-11-10T13:21:12Z</time>
      </trkpt>
      <trkpt lat="45.65229" lon="6.13872">
        <ele>1244.897565949</ele>
        <time>2015-11-10T13:21:17Z</time>
      </trkpt>
      <trkpt lat="45.65229" lon="6.13872">
        <ele>1244.897565949</ele>
        <time>2015-11-10T13:21:22Z</time>
      </trkpt>
      <trkpt lat="45.65229" lon="6.13872">
        <ele>1244.897565949</ele>
        <time>2015-11-10T13:21:27Z</time>
      </trkpt>
      <trkpt lat="45.65228" lon="6.13871">
        <ele>1244.897565949</ele>
        <time>2015-11-10T13:21:32Z</time>
      </trkpt>
      <trkpt lat="45.65227" lon="6.13871">
        <ele>1244.897565949</ele>
        <time>2015-11-10T13:21:37Z</time>
      </trkpt>
      <trkpt lat="45.65227" lon="6.13871">
        <ele>1244.897565949</ele>
        <time>2015-11-10T13:21:42Z</time>
      </trkpt>
      <trkpt lat="45.65227" lon="6.13871">
        <ele>1244.897565949</ele>
        <time>2015-11-10T13:21:47Z</time>
      </trkpt>
      <trkpt lat="45.65227" lon="6.13872">
        <ele>1244.897565949</ele>
        <time>2015-11-10T13:21:52Z</time>
      </trkpt>
      <trkpt lat="45.65227" lon="6.13872">
        <ele>1244.897565949</ele>
        <time>2015-11-10T13:21:57Z</time>
      </trkpt>
      <trkpt lat="45.65227" lon="6.13873">
        <ele>1244.897565949</ele>
        <time>2015-11-10T13:22:02Z</time>
      </trkpt>
      <trkpt lat="45.65227" lon="6.13873">
        <ele>1244.897565949</ele>
        <time>2015-11-10T13:22:07Z</time>
      </trkpt>
      <trkpt lat="45.65228" lon="6.13873">
        <ele>1244.897565949</ele>
        <time>2015-11-10T13:22:12Z</time>
      </trkpt>
      <trkpt lat="45.65228" lon="6.13873">
        <ele>1244.897565949</ele>
        <time>2015-11-10T13:22:17Z</time>
      </trkpt>
      <trkpt lat="45.65228" lon="6.13873">
        <ele>1244.897565949</ele>
        <time>2015-11-10T13:22:22Z</time>
      </trkpt>
      <trkpt lat="45.65228" lon="6.13873">
        <ele>1244.897565949</ele>
        <time>2015-11-10T13:22:27Z</time>
      </trkpt>
      <trkpt lat="45.65228" lon="6.13873">
        <ele>1244.897565949</ele>
        <time>2015-11-10T13:22:32Z</time>
      </trkpt>
      <trkpt lat="45.65228" lon="6.13873">
        <ele>1244.897565949</ele>
        <time>2015-11-10T13:22:37Z</time>
      </trkpt>
      <trkpt lat="45.65228" lon="6.13873">
        <ele>1244.897565949</ele>
        <time>2015-11-10T13:22:42Z</time>
      </trkpt>
      <trkpt lat="45.65228" lon="6.13873">
        <ele>1244.897565949</ele>
        <time>2015-11-10T13:22:47Z</time>
      </trkpt>
      <trkpt lat="45.65228" lon="6.13873">
        <ele>1244.897565949</ele>
        <time>2015-11-10T13:22:52Z</time>
      </trkpt>
      <trkpt lat="45.65228" lon="6.13873">
        <ele>1244.897565949</ele>
        <time>2015-11-10T13:22:57Z</time>
      </trkpt>
      <trkpt lat="45.65228" lon="6.13873">
        <ele>1244.897565949</ele>
        <time>2015-11-10T13:23:02Z</time>
      </trkpt>
      <trkpt lat="45.65228" lon="6.13873">
        <ele>1244.897565949</ele>
        <time>2015-11-10T13:23:07Z</time>
      </trkpt>
      <trkpt lat="45.65228" lon="6.13873">
        <ele>1244.897565949</ele>
        <time>2015-11-10T13:23:12Z</time>
      </trkpt>
      <trkpt lat="45.65228" lon="6.13873">
        <ele>1244.897565949</ele>
        <time>2015-11-10T13:23:17Z</time>
      </trkpt>
      <trkpt lat="45.65228" lon="6.13873">
        <ele>1244.897565949</ele>
        <time>2015-11-10T13:23:22Z</time>
      </trkpt>
      <trkpt lat="45.65228" lon="6.13873">
        <ele>1244.897565949</ele>
        <time>2015-11-10T13:23:27Z</time>
      </trkpt>
      <trkpt lat="45.65228" lon="6.13873">
        <ele>1244.897565949</ele>
        <time>2015-11-10T13:23:32Z</time>
      </trkpt>
      <trkpt lat="45.65228" lon="6.13873">
        <ele>1244.897565949</ele>
        <time>2015-11-10T13:23:37Z</time>
      </trkpt>
      <trkpt lat="45.65228" lon="6.13873">
        <ele>1244.897565949</ele>
        <time>2015-11-10T13:23:43Z</time>
      </trkpt>
      <trkpt lat="45.65223" lon="6.13868">
        <ele>1242.161177124</ele>
        <time>2015-11-10T13:23:53Z</time>
      </trkpt>
      <trkpt lat="45.65216" lon="6.13851">
        <ele>1240.112783011</ele>
        <time>2015-11-10T13:23:57Z</time>
      </trkpt>
      <trkpt lat="45.652" lon="6.13794">
        <ele>1237.684883218</ele>
        <time>2015-11-10T13:24:13Z</time>
      </trkpt>
      <trkpt lat="45.65195" lon="6.13786">
        <ele>1237.684883218</ele>
        <time>2015-11-10T13:24:17Z</time>
      </trkpt>
      <trkpt lat="45.65183" lon="6.13769">
        <ele>1235.618842748</ele>
        <time>2015-11-10T13:24:27Z</time>
      </trkpt>
      <trkpt lat="45.65181" lon="6.1375">
        <ele>1233.735952496</ele>
        <time>2015-11-10T13:24:32Z</time>
      </trkpt>
      <trkpt lat="45.65176" lon="6.1372">
        <ele>1232.590761727</ele>
        <time>2015-11-10T13:24:42Z</time>
      </trkpt>
      <trkpt lat="45.65172" lon="6.1371">
        <ele>1232.590761727</ele>
        <time>2015-11-10T13:24:48Z</time>
      </trkpt>
      <trkpt lat="45.65162" lon="6.13697">
        <ele>1232.551012554</ele>
        <time>2015-11-10T13:24:57Z</time>
      </trkpt>
      <trkpt lat="45.65159" lon="6.1369">
        <ele>1232.551012554</ele>
        <time>2015-11-10T13:25:02Z</time>
      </trkpt>
      <trkpt lat="45.65161" lon="6.13685">
        <ele>1232.225131477</ele>
        <time>2015-11-10T13:25:13Z</time>
      </trkpt>
      <trkpt lat="45.65162" lon="6.13684">
        <ele>1232.225131477</ele>
        <time>2015-11-10T13:25:17Z</time>
      </trkpt>
      <trkpt lat="45.65162" lon="6.13684">
        <ele>1232.225131477</ele>
        <time>2015-11-10T13:25:27Z</time>
      </trkpt>
      <trkpt lat="45.65161" lon="6.13684">
        <ele>1232.225131477</ele>
        <time>2015-11-10T13:25:32Z</time>
      </trkpt>
      <trkpt lat="45.65139" lon="6.13694">
        <ele>1233.495178561</ele>
        <time>2015-11-10T13:25:43Z</time>
      </trkpt>
      <trkpt lat="45.6513" lon="6.13694">
        <ele>1235.794895595</ele>
        <time>2015-11-10T13:25:47Z</time>
      </trkpt>
      <trkpt lat="45.65109" lon="6.13709">
        <ele>1239.029294465</ele>
        <time>2015-11-10T13:25:57Z</time>
      </trkpt>
      <trkpt lat="45.65097" lon="6.13713">
        <ele>1242.531565116</ele>
        <time>2015-11-10T13:26:02Z</time>
      </trkpt>
      <trkpt lat="45.65081" lon="6.13715">
        <ele>1245.827548944</ele>
        <time>2015-11-10T13:26:13Z</time>
      </trkpt>
      <trkpt lat="45.65074" lon="6.13718">
        <ele>1245.827548944</ele>
        <time>2015-11-10T13:26:17Z</time>
      </trkpt>
      <trkpt lat="45.65051" lon="6.13749">
        <ele>1248.334733896</ele>
        <time>2015-11-10T13:26:32Z</time>
      </trkpt>
      <trkpt lat="45.65042" lon="6.13754">
        <ele>1250.236549725</ele>
        <time>2015-11-10T13:26:37Z</time>
      </trkpt>
      <trkpt lat="45.65023" lon="6.13761">
        <ele>1252.425616563</ele>
        <time>2015-11-10T13:26:48Z</time>
      </trkpt>
      <trkpt lat="45.65007" lon="6.13765">
        <ele>1254.71983297</ele>
        <time>2015-11-10T13:26:52Z</time>
      </trkpt>
      <trkpt lat="45.64991" lon="6.13771">
        <ele>1257.527077132</ele>
        <time>2015-11-10T13:27:03Z</time>
      </trkpt>
      <trkpt lat="45.6499" lon="6.13767">
        <ele>1257.527077132</ele>
        <time>2015-11-10T13:27:07Z</time>
      </trkpt>
      <trkpt lat="45.64991" lon="6.13769">
        <ele>1257.527077132</ele>
        <time>2015-11-10T13:27:12Z</time>
      </trkpt>
      <trkpt lat="45.6499" lon="6.13771">
        <ele>1257.527077132</ele>
        <time>2015-11-10T13:27:17Z</time>
      </trkpt>
      <trkpt lat="45.64987" lon="6.13771">
        <ele>1257.527077132</ele>
        <time>2015-11-10T13:27:22Z</time>
      </trkpt>
      <trkpt lat="45.64982" lon="6.13777">
        <ele>1259.062625653</ele>
        <time>2015-11-10T13:27:37Z</time>
      </trkpt>
      <trkpt lat="45.64981" lon="6.13782">
        <ele>1259.062625653</ele>
        <time>2015-11-10T13:27:42Z</time>
      </trkpt>
      <trkpt lat="45.64978" lon="6.13802">
        <ele>1260.415018928</ele>
        <time>2015-11-10T13:27:53Z</time>
      </trkpt>
      <trkpt lat="45.64978" lon="6.13802">
        <ele>1260.415018928</ele>
        <time>2015-11-10T13:27:57Z</time>
      </trkpt>
      <trkpt lat="45.64976" lon="6.13803">
        <ele>1260.415018928</ele>
        <time>2015-11-10T13:28:07Z</time>
      </trkpt>
      <trkpt lat="45.64974" lon="6.13809">
        <ele>1260.415018928</ele>
        <time>2015-11-10T13:28:12Z</time>
      </trkpt>
      <trkpt lat="45.64971" lon="6.13814">
        <ele>1261.15272207</ele>
        <time>2015-11-10T13:28:22Z</time>
      </trkpt>
      <trkpt lat="45.64969" lon="6.13818">
        <ele>1261.15272207</ele>
        <time>2015-11-10T13:28:28Z</time>
      </trkpt>
      <trkpt lat="45.64966" lon="6.13821">
        <ele>1261.15272207</ele>
        <time>2015-11-10T13:28:37Z</time>
      </trkpt>
      <trkpt lat="45.64965" lon="6.13822">
        <ele>1261.02222233</ele>
        <time>2015-11-10T13:28:42Z</time>
      </trkpt>
      <trkpt lat="45.64955" lon="6.13825">
        <ele>1260.512101043</ele>
        <time>2015-11-10T13:28:58Z</time>
      </trkpt>
      <trkpt lat="45.64949" lon="6.13831">
        <ele>1260.512101043</ele>
        <time>2015-11-10T13:29:02Z</time>
      </trkpt>
      <trkpt lat="45.64943" lon="6.13831">
        <ele>1260.076582291</ele>
        <time>2015-11-10T13:29:07Z</time>
      </trkpt>
      <trkpt lat="45.64939" lon="6.13832">
        <ele>1260.076582291</ele>
        <time>2015-11-10T13:29:12Z</time>
      </trkpt>
      <trkpt lat="45.64936" lon="6.13833">
        <ele>1260.076582291</ele>
        <time>2015-11-10T13:29:17Z</time>
      </trkpt>
      <trkpt lat="45.64928" lon="6.1384">
        <ele>1258.983877148</ele>
        <time>2015-11-10T13:29:27Z</time>
      </trkpt>
      <trkpt lat="45.64927" lon="6.13841">
        <ele>1258.983877148</ele>
        <time>2015-11-10T13:29:32Z</time>
      </trkpt>
      <trkpt lat="45.64918" lon="6.13855">
        <ele>1257.855231283</ele>
        <time>2015-11-10T13:29:42Z</time>
      </trkpt>
      <trkpt lat="45.64913" lon="6.13861">
        <ele>1257.855231283</ele>
        <time>2015-11-10T13:29:47Z</time>
      </trkpt>
      <trkpt lat="45.64902" lon="6.13868">
        <ele>1256.546211851</ele>
        <time>2015-11-10T13:29:57Z</time>
      </trkpt>
      <trkpt lat="45.649" lon="6.13872">
        <ele>1256.546211851</ele>
        <time>2015-11-10T13:30:02Z</time>
      </trkpt>
      <trkpt lat="45.64899" lon="6.13874">
        <ele>1256.546211851</ele>
        <time>2015-11-10T13:30:07Z</time>
      </trkpt>
      <trkpt lat="45.649" lon="6.13875">
        <ele>1256.546211851</ele>
        <time>2015-11-10T13:30:12Z</time>
      </trkpt>
      <trkpt lat="45.64901" lon="6.13875">
        <ele>1256.546211851</ele>
        <time>2015-11-10T13:30:17Z</time>
      </trkpt>
      <trkpt lat="45.64898" lon="6.13881">
        <ele>1254.923892189</ele>
        <time>2015-11-10T13:30:22Z</time>
      </trkpt>
      <trkpt lat="45.6489" lon="6.13887">
        <ele>1254.923892189</ele>
        <time>2015-11-10T13:30:32Z</time>
      </trkpt>
      <trkpt lat="45.64886" lon="6.13883">
        <ele>1252.722243489</ele>
        <time>2015-11-10T13:30:37Z</time>
      </trkpt>
      <trkpt lat="45.64879" lon="6.13879">
        <ele>1252.722243489</ele>
        <time>2015-11-10T13:30:47Z</time>
      </trkpt>
      <trkpt lat="45.64876" lon="6.13882">
        <ele>1250.417299642</ele>
        <time>2015-11-10T13:30:52Z</time>
      </trkpt>
      <trkpt lat="45.6487" lon="6.13883">
        <ele>1250.417299642</ele>
        <time>2015-11-10T13:31:02Z</time>
      </trkpt>
      <trkpt lat="45.64868" lon="6.13883">
        <ele>1250.417299642</ele>
        <time>2015-11-10T13:31:07Z</time>
      </trkpt>
      <trkpt lat="45.64863" lon="6.13891">
        <ele>1246.721390798</ele>
        <time>2015-11-10T13:31:17Z</time>
      </trkpt>
      <trkpt lat="45.64856" lon="6.13894">
        <ele>1246.721390798</ele>
        <time>2015-11-10T13:31:22Z</time>
      </trkpt>
      <trkpt lat="45.64845" lon="6.13903">
        <ele>1243.47195353</ele>
        <time>2015-11-10T13:31:32Z</time>
      </trkpt>
      <trkpt lat="45.64842" lon="6.13903">
        <ele>1243.47195353</ele>
        <time>2015-11-10T13:31:37Z</time>
      </trkpt>
      <trkpt lat="45.6484" lon="6.13902">
        <ele>1243.47195353</ele>
        <time>2015-11-10T13:31:42Z</time>
      </trkpt>
      <trkpt lat="45.64841" lon="6.13902">
        <ele>1243.47195353</ele>
        <time>2015-11-10T13:31:47Z</time>
      </trkpt>
      <trkpt lat="45.6484" lon="6.13903">
        <ele>1243.47195353</ele>
        <time>2015-11-10T13:31:52Z</time>
      </trkpt>
      <trkpt lat="45.6484" lon="6.13912">
        <ele>1240.208772816</ele>
        <time>2015-11-10T13:32:02Z</time>
      </trkpt>
      <trkpt lat="45.64838" lon="6.13916">
        <ele>1240.208772816</ele>
        <time>2015-11-10T13:32:07Z</time>
      </trkpt>
      <trkpt lat="45.64838" lon="6.13915">
        <ele>1240.208772816</ele>
        <time>2015-11-10T13:32:18Z</time>
      </trkpt>
      <trkpt lat="45.6484" lon="6.13915">
        <ele>1240.208772816</ele>
        <time>2015-11-10T13:32:22Z</time>
      </trkpt>
      <trkpt lat="45.64843" lon="6.13924">
        <ele>1236.93802495</ele>
        <time>2015-11-10T13:32:32Z</time>
      </trkpt>
      <trkpt lat="45.64843" lon="6.13924">
        <ele>1236.93802495</ele>
        <time>2015-11-10T13:32:37Z</time>
      </trkpt>
      <trkpt lat="45.64842" lon="6.13926">
        <ele>1236.93802495</ele>
        <time>2015-11-10T13:32:47Z</time>
      </trkpt>
      <trkpt lat="45.64842" lon="6.13926">
        <ele>1236.93802495</ele>
        <time>2015-11-10T13:32:52Z</time>
      </trkpt>
      <trkpt lat="45.64826" lon="6.13947">
        <ele>1233.521522074</ele>
        <time>2015-11-10T13:33:02Z</time>
      </trkpt>
      <trkpt lat="45.64821" lon="6.13955">
        <ele>1233.521522074</ele>
        <time>2015-11-10T13:33:07Z</time>
      </trkpt>
      <trkpt lat="45.64814" lon="6.13966">
        <ele>1230.696453602</ele>
        <time>2015-11-10T13:33:17Z</time>
      </trkpt>
      <trkpt lat="45.64805" lon="6.1396">
        <ele>1227.414984625</ele>
        <time>2015-11-10T13:33:22Z</time>
      </trkpt>
      <trkpt lat="45.64793" lon="6.13966">
        <ele>1224.725187791</ele>
        <time>2015-11-10T13:33:33Z</time>
      </trkpt>
      <trkpt lat="45.64784" lon="6.13967">
        <ele>1221.867226054</ele>
        <time>2015-11-10T13:33:37Z</time>
      </trkpt>
      <trkpt lat="45.64775" lon="6.13966">
        <ele>1221.867226054</ele>
        <time>2015-11-10T13:33:47Z</time>
      </trkpt>
      <trkpt lat="45.64768" lon="6.13964">
        <ele>1219.146384371</ele>
        <time>2015-11-10T13:33:52Z</time>
      </trkpt>
      <trkpt lat="45.64768" lon="6.13963">
        <ele>1219.146384371</ele>
        <time>2015-11-10T13:33:57Z</time>
      </trkpt>
      <trkpt lat="45.64761" lon="6.13957">
        <ele>1216.268728693</ele>
        <time>2015-11-10T13:34:02Z</time>
      </trkpt>
      <trkpt lat="45.64752" lon="6.13956">
        <ele>1213.106487464</ele>
        <time>2015-11-10T13:34:12Z</time>
      </trkpt>
      <trkpt lat="45.64748" lon="6.13953">
        <ele>1213.106487464</ele>
        <time>2015-11-10T13:34:17Z</time>
      </trkpt>
      <trkpt lat="45.64737" lon="6.13951">
        <ele>1209.397963991</ele>
        <time>2015-11-10T13:34:33Z</time>
      </trkpt>
      <trkpt lat="45.6472" lon="6.13946">
        <ele>1205.622757873</ele>
        <time>2015-11-10T13:34:47Z</time>
      </trkpt>
      <trkpt lat="45.64719" lon="6.13947">
        <ele>1205.622757873</ele>
        <time>2015-11-10T13:34:52Z</time>
      </trkpt>
      <trkpt lat="45.64718" lon="6.13948">
        <ele>1205.622757873</ele>
        <time>2015-11-10T13:34:57Z</time>
      </trkpt>
      <trkpt lat="45.64719" lon="6.13948">
        <ele>1205.622757873</ele>
        <time>2015-11-10T13:35:03Z</time>
      </trkpt>
      <trkpt lat="45.64718" lon="6.13949">
        <ele>1205.622757873</ele>
        <time>2015-11-10T13:35:07Z</time>
      </trkpt>
      <trkpt lat="45.64717" lon="6.13953">
        <ele>1205.622757873</ele>
        <time>2015-11-10T13:35:17Z</time>
      </trkpt>
      <trkpt lat="45.64717" lon="6.13956">
        <ele>1202.22539086</ele>
        <time>2015-11-10T13:35:22Z</time>
      </trkpt>
      <trkpt lat="45.64712" lon="6.13959">
        <ele>1202.22539086</ele>
        <time>2015-11-10T13:35:33Z</time>
      </trkpt>
      <trkpt lat="45.64705" lon="6.13966">
        <ele>1198.319617907</ele>
        <time>2015-11-10T13:35:37Z</time>
      </trkpt>
      <trkpt lat="45.64697" lon="6.13963">
        <ele>1198.319617907</ele>
        <time>2015-11-10T13:35:47Z</time>
      </trkpt>
      <trkpt lat="45.64693" lon="6.13966">
        <ele>1193.950319915</ele>
        <time>2015-11-10T13:35:52Z</time>
      </trkpt>
      <trkpt lat="45.64691" lon="6.13973">
        <ele>1193.950319915</ele>
        <time>2015-11-10T13:36:02Z</time>
      </trkpt>
      <trkpt lat="45.64691" lon="6.13971">
        <ele>1193.950319915</ele>
        <time>2015-11-10T13:36:07Z</time>
      </trkpt>
      <trkpt lat="45.6469" lon="6.13971">
        <ele>1193.950319915</ele>
        <time>2015-11-10T13:36:18Z</time>
      </trkpt>
      <trkpt lat="45.6469" lon="6.13971">
        <ele>1193.950319915</ele>
        <time>2015-11-10T13:36:22Z</time>
      </trkpt>
      <trkpt lat="45.6468" lon="6.13971">
        <ele>1189.592626716</ele>
        <time>2015-11-10T13:36:32Z</time>
      </trkpt>
      <trkpt lat="45.64676" lon="6.13975">
        <ele>1189.592626716</ele>
        <time>2015-11-10T13:36:37Z</time>
      </trkpt>
      <trkpt lat="45.64671" lon="6.13972">
        <ele>1185.254293909</ele>
        <time>2015-11-10T13:36:42Z</time>
      </trkpt>
      <trkpt lat="45.64661" lon="6.13969">
        <ele>1180.654107499</ele>
        <time>2015-11-10T13:36:53Z</time>
      </trkpt>
      <trkpt lat="45.64658" lon="6.1396">
        <ele>1180.654107499</ele>
        <time>2015-11-10T13:36:57Z</time>
      </trkpt>
      <trkpt lat="45.64646" lon="6.13957">
        <ele>1176.540884654</ele>
        <time>2015-11-10T13:37:07Z</time>
      </trkpt>
      <trkpt lat="45.64643" lon="6.13953">
        <ele>1176.540884654</ele>
        <time>2015-11-10T13:37:12Z</time>
      </trkpt>
      <trkpt lat="45.64643" lon="6.13949">
        <ele>1176.540884654</ele>
        <time>2015-11-10T13:37:17Z</time>
      </trkpt>
      <trkpt lat="45.64641" lon="6.13951">
        <ele>1172.742248625</ele>
        <time>2015-11-10T13:37:22Z</time>
      </trkpt>
      <trkpt lat="45.64641" lon="6.13949">
        <ele>1172.742248625</ele>
        <time>2015-11-10T13:37:27Z</time>
      </trkpt>
      <trkpt lat="45.64631" lon="6.13939">
        <ele>1168.953327181</ele>
        <time>2015-11-10T13:37:42Z</time>
      </trkpt>
      <trkpt lat="45.64627" lon="6.13933">
        <ele>1168.953327181</ele>
        <time>2015-11-10T13:37:47Z</time>
      </trkpt>
      <trkpt lat="45.64621" lon="6.13933">
        <ele>1165.467888576</ele>
        <time>2015-11-10T13:37:57Z</time>
      </trkpt>
      <trkpt lat="45.64621" lon="6.13927">
        <ele>1165.467888576</ele>
        <time>2015-11-10T13:38:02Z</time>
      </trkpt>
      <trkpt lat="45.64621" lon="6.13926">
        <ele>1165.467888576</ele>
        <time>2015-11-10T13:38:07Z</time>
      </trkpt>
      <trkpt lat="45.6462" lon="6.13927">
        <ele>1165.467888576</ele>
        <time>2015-11-10T13:38:12Z</time>
      </trkpt>
      <trkpt lat="45.6462" lon="6.13927">
        <ele>1165.467888576</ele>
        <time>2015-11-10T13:38:17Z</time>
      </trkpt>
      <trkpt lat="45.64622" lon="6.13931">
        <ele>1161.548312775</ele>
        <time>2015-11-10T13:38:33Z</time>
      </trkpt>
      <trkpt lat="45.64617" lon="6.13942">
        <ele>1157.088643205</ele>
        <time>2015-11-10T13:38:48Z</time>
      </trkpt>
      <trkpt lat="45.64616" lon="6.13941">
        <ele>1157.088643205</ele>
        <time>2015-11-10T13:38:52Z</time>
      </trkpt>
      <trkpt lat="45.64618" lon="6.13949">
        <ele>1157.088643205</ele>
        <time>2015-11-10T13:39:02Z</time>
      </trkpt>
      <trkpt lat="45.64619" lon="6.13951">
        <ele>1157.088643205</ele>
        <time>2015-11-10T13:39:07Z</time>
      </trkpt>
      <trkpt lat="45.64618" lon="6.13952">
        <ele>1157.088643205</ele>
        <time>2015-11-10T13:39:18Z</time>
      </trkpt>
      <trkpt lat="45.64618" lon="6.13952">
        <ele>1157.088643205</ele>
        <time>2015-11-10T13:39:22Z</time>
      </trkpt>
      <trkpt lat="45.6461" lon="6.13956">
        <ele>1151.847919645</ele>
        <time>2015-11-10T13:39:32Z</time>
      </trkpt>
      <trkpt lat="45.64608" lon="6.13957">
        <ele>1151.847919645</ele>
        <time>2015-11-10T13:39:37Z</time>
      </trkpt>
      <trkpt lat="45.64607" lon="6.13965">
        <ele>1151.847919645</ele>
        <time>2015-11-10T13:39:47Z</time>
      </trkpt>
      <trkpt lat="45.64606" lon="6.13968">
        <ele>1146.469541019</ele>
        <time>2015-11-10T13:39:52Z</time>
      </trkpt>
      <trkpt lat="45.64608" lon="6.13971">
        <ele>1146.469541019</ele>
        <time>2015-11-10T13:40:02Z</time>
      </trkpt>
      <trkpt lat="45.64609" lon="6.13973">
        <ele>1146.469541019</ele>
        <time>2015-11-10T13:40:07Z</time>
      </trkpt>
      <trkpt lat="45.64609" lon="6.13975">
        <ele>1146.469541019</ele>
        <time>2015-11-10T13:40:17Z</time>
      </trkpt>
      <trkpt lat="45.64609" lon="6.13975">
        <ele>1146.469541019</ele>
        <time>2015-11-10T13:40:22Z</time>
      </trkpt>
      <trkpt lat="45.64609" lon="6.13975">
        <ele>1146.469541019</ele>
        <time>2015-11-10T13:40:27Z</time>
      </trkpt>
      <trkpt lat="45.64609" lon="6.13975">
        <ele>1146.469541019</ele>
        <time>2015-11-10T13:40:32Z</time>
      </trkpt>
      <trkpt lat="45.64609" lon="6.13975">
        <ele>1146.469541019</ele>
        <time>2015-11-10T13:40:42Z</time>
      </trkpt>
      <trkpt lat="45.64606" lon="6.13983">
        <ele>1140.252816179</ele>
        <time>2015-11-10T13:40:47Z</time>
      </trkpt>
      <trkpt lat="45.64603" lon="6.13986">
        <ele>1140.252816179</ele>
        <time>2015-11-10T13:40:57Z</time>
      </trkpt>
      <trkpt lat="45.64603" lon="6.13989">
        <ele>1140.252816179</ele>
        <time>2015-11-10T13:41:02Z</time>
      </trkpt>
      <trkpt lat="45.64603" lon="6.13991">
        <ele>1140.252816179</ele>
        <time>2015-11-10T13:41:12Z</time>
      </trkpt>
      <trkpt lat="45.64603" lon="6.13991">
        <ele>1140.252816179</ele>
        <time>2015-11-10T13:41:17Z</time>
      </trkpt>
      <trkpt lat="45.64599" lon="6.13995">
        <ele>1133.991763305</ele>
        <time>2015-11-10T13:41:27Z</time>
      </trkpt>
      <trkpt lat="45.64595" lon="6.13997">
        <ele>1133.991763305</ele>
        <time>2015-11-10T13:41:32Z</time>
      </trkpt>
      <trkpt lat="45.64594" lon="6.14">
        <ele>1133.991763305</ele>
        <time>2015-11-10T13:41:42Z</time>
      </trkpt>
      <trkpt lat="45.64585" lon="6.14006">
        <ele>1127.41317578</ele>
        <time>2015-11-10T13:41:47Z</time>
      </trkpt>
      <trkpt lat="45.64581" lon="6.14004">
        <ele>1127.41317578</ele>
        <time>2015-11-10T13:41:57Z</time>
      </trkpt>
      <trkpt lat="45.6458" lon="6.14005">
        <ele>1127.41317578</ele>
        <time>2015-11-10T13:42:02Z</time>
      </trkpt>
      <trkpt lat="45.6458" lon="6.14005">
        <ele>1127.41317578</ele>
        <time>2015-11-10T13:42:07Z</time>
      </trkpt>
      <trkpt lat="45.64581" lon="6.14017">
        <ele>1120.552769577</ele>
        <time>2015-11-10T13:42:17Z</time>
      </trkpt>
      <trkpt lat="45.64581" lon="6.14026">
        <ele>1120.552769577</ele>
        <time>2015-11-10T13:42:22Z</time>
      </trkpt>
      <trkpt lat="45.64588" lon="6.14047">
        <ele>1112.867703957</ele>
        <time>2015-11-10T13:42:33Z</time>
      </trkpt>
      <trkpt lat="45.64591" lon="6.14056">
        <ele>1112.867703957</ele>
        <time>2015-11-10T13:42:37Z</time>
      </trkpt>
      <trkpt lat="45.64598" lon="6.14071">
        <ele>1105.298142328</ele>
        <time>2015-11-10T13:42:47Z</time>
      </trkpt>
      <trkpt lat="45.64597" lon="6.1408">
        <ele>1105.298142328</ele>
        <time>2015-11-10T13:42:52Z</time>
      </trkpt>
      <trkpt lat="45.64603" lon="6.14097">
        <ele>1097.705765387</ele>
        <time>2015-11-10T13:43:03Z</time>
      </trkpt>
      <trkpt lat="45.64604" lon="6.14105">
        <ele>1097.705765387</ele>
        <time>2015-11-10T13:43:07Z</time>
      </trkpt>
      <trkpt lat="45.64605" lon="6.14117">
        <ele>1089.52980911</ele>
        <time>2015-11-10T13:43:23Z</time>
      </trkpt>
      <trkpt lat="45.64605" lon="6.14119">
        <ele>1089.52980911</ele>
        <time>2015-11-10T13:43:27Z</time>
      </trkpt>
      <trkpt lat="45.64605" lon="6.14121">
        <ele>1089.52980911</ele>
        <time>2015-11-10T13:43:37Z</time>
      </trkpt>
      <trkpt lat="45.64605" lon="6.14121">
        <ele>1089.52980911</ele>
        <time>2015-11-10T13:43:42Z</time>
      </trkpt>
      <trkpt lat="45.64598" lon="6.14139">
        <ele>1082.269543193</ele>
        <time>2015-11-10T13:43:52Z</time>
      </trkpt>
      <trkpt lat="45.64598" lon="6.14146">
        <ele>1082.269543193</ele>
        <time>2015-11-10T13:43:57Z</time>
      </trkpt>
      <trkpt lat="45.64601" lon="6.1416">
        <ele>1075.581832426</ele>
        <time>2015-11-10T13:44:07Z</time>
      </trkpt>
      <trkpt lat="45.64599" lon="6.14161">
        <ele>1075.581832426</ele>
        <time>2015-11-10T13:44:12Z</time>
      </trkpt>
      <trkpt lat="45.64602" lon="6.14165">
        <ele>1075.581832426</ele>
        <time>2015-11-10T13:44:23Z</time>
      </trkpt>
      <trkpt lat="45.64602" lon="6.14165">
        <ele>1075.581832426</ele>
        <time>2015-11-10T13:44:27Z</time>
      </trkpt>
      <trkpt lat="45.64609" lon="6.1417">
        <ele>1068.570320102</ele>
        <time>2015-11-10T13:44:43Z</time>
      </trkpt>
      <trkpt lat="45.64608" lon="6.14175">
        <ele>1068.570320102</ele>
        <time>2015-11-10T13:44:47Z</time>
      </trkpt>
      <trkpt lat="45.6461" lon="6.14178">
        <ele>1068.570320102</ele>
        <time>2015-11-10T13:44:57Z</time>
      </trkpt>
      <trkpt lat="45.6461" lon="6.14178">
        <ele>1068.570320102</ele>
        <time>2015-11-10T13:45:02Z</time>
      </trkpt>
      <trkpt lat="45.6461" lon="6.14179">
        <ele>1068.570320102</ele>
        <time>2015-11-10T13:45:13Z</time>
      </trkpt>
      <trkpt lat="45.64604" lon="6.1419">
        <ele>1061.269686267</ele>
        <time>2015-11-10T13:45:17Z</time>
      </trkpt>
      <trkpt lat="45.646" lon="6.14195">
        <ele>1061.269686267</ele>
        <time>2015-11-10T13:45:27Z</time>
      </trkpt>
      <trkpt lat="45.64594" lon="6.14198">
        <ele>1054.577153847</ele>
        <time>2015-11-10T13:45:32Z</time>
      </trkpt>
      <trkpt lat="45.6458" lon="6.14195">
        <ele>1049.03372103</ele>
        <time>2015-11-10T13:45:42Z</time>
      </trkpt>
      <trkpt lat="45.64575" lon="6.14198">
        <ele>1049.03372103</ele>
        <time>2015-11-10T13:45:47Z</time>
      </trkpt>
      <trkpt lat="45.64571" lon="6.14203">
        <ele>1044.128260442</ele>
        <time>2015-11-10T13:45:52Z</time>
      </trkpt>
      <trkpt lat="45.64567" lon="6.14206">
        <ele>1044.128260442</ele>
        <time>2015-11-10T13:45:57Z</time>
      </trkpt>
      <trkpt lat="45.64561" lon="6.14215">
        <ele>1040.393809345</ele>
        <time>2015-11-10T13:46:07Z</time>
      </trkpt>
      <trkpt lat="45.64561" lon="6.14218">
        <ele>1040.393809345</ele>
        <time>2015-11-10T13:46:12Z</time>
      </trkpt>
      <trkpt lat="45.64555" lon="6.1422">
        <ele>1040.393809345</ele>
        <time>2015-11-10T13:46:17Z</time>
      </trkpt>
      <trkpt lat="45.64536" lon="6.14217">
        <ele>1038.17650163</ele>
        <time>2015-11-10T13:46:28Z</time>
      </trkpt>
      <trkpt lat="45.6453" lon="6.14209">
        <ele>1038.17650163</ele>
        <time>2015-11-10T13:46:32Z</time>
      </trkpt>
      <trkpt lat="45.64517" lon="6.14185">
        <ele>1035.774908282</ele>
        <time>2015-11-10T13:46:42Z</time>
      </trkpt>
      <trkpt lat="45.64513" lon="6.1417">
        <ele>1034.495036618</ele>
        <time>2015-11-10T13:46:48Z</time>
      </trkpt>
      <trkpt lat="45.64506" lon="6.14159">
        <ele>1033.958335005</ele>
        <time>2015-11-10T13:46:57Z</time>
      </trkpt>
      <trkpt lat="45.64501" lon="6.14157">
        <ele>1033.958335005</ele>
        <time>2015-11-10T13:47:02Z</time>
      </trkpt>
      <trkpt lat="45.6449" lon="6.14152">
        <ele>1034.099989762</ele>
        <time>2015-11-10T13:47:12Z</time>
      </trkpt>
      <trkpt lat="45.64481" lon="6.14147">
        <ele>1034.569660728</ele>
        <time>2015-11-10T13:47:17Z</time>
      </trkpt>
      <trkpt lat="45.64463" lon="6.14126">
        <ele>1034.753485467</ele>
        <time>2015-11-10T13:47:27Z</time>
      </trkpt>
      <trkpt lat="45.64458" lon="6.14112">
        <ele>1035.23631793</ele>
        <time>2015-11-10T13:47:32Z</time>
      </trkpt>
      <trkpt lat="45.64455" lon="6.14095">
        <ele>1036.559187673</ele>
        <time>2015-11-10T13:47:37Z</time>
      </trkpt>
      <trkpt lat="45.64445" lon="6.14086">
        <ele>1038.356379645</ele>
        <time>2015-11-10T13:47:47Z</time>
      </trkpt>
      <trkpt lat="45.64441" lon="6.14099">
        <ele>1040.576003396</ele>
        <time>2015-11-10T13:47:52Z</time>
      </trkpt>
      <trkpt lat="45.64441" lon="6.14123">
        <ele>1044.033577094</ele>
        <time>2015-11-10T13:48:02Z</time>
      </trkpt>
      <trkpt lat="45.64439" lon="6.14132">
        <ele>1044.033577094</ele>
        <time>2015-11-10T13:48:07Z</time>
      </trkpt>
      <trkpt lat="45.64439" lon="6.14158">
        <ele>1047.752067703</ele>
        <time>2015-11-10T13:48:17Z</time>
      </trkpt>
      <trkpt lat="45.64441" lon="6.14165">
        <ele>1047.752067703</ele>
        <time>2015-11-10T13:48:22Z</time>
      </trkpt>
      <trkpt lat="45.64444" lon="6.1417">
        <ele>1051.40213864</ele>
        <time>2015-11-10T13:48:33Z</time>
      </trkpt>
      <trkpt lat="45.64448" lon="6.14179">
        <ele>1051.40213864</ele>
        <time>2015-11-10T13:48:37Z</time>
      </trkpt>
      <trkpt lat="45.64457" lon="6.14199">
        <ele>1055.543764977</ele>
        <time>2015-11-10T13:48:48Z</time>
      </trkpt>
      <trkpt lat="45.64457" lon="6.14209">
        <ele>1055.543764977</ele>
        <time>2015-11-10T13:48:53Z</time>
      </trkpt>
      <trkpt lat="45.64446" lon="6.14223">
        <ele>1060.11826994</ele>
        <time>2015-11-10T13:49:02Z</time>
      </trkpt>
      <trkpt lat="45.64434" lon="6.14226">
        <ele>1064.349868205</ele>
        <time>2015-11-10T13:49:07Z</time>
      </trkpt>
      <trkpt lat="45.64421" lon="6.14248">
        <ele>1067.80933834</ele>
        <time>2015-11-10T13:49:17Z</time>
      </trkpt>
      <trkpt lat="45.64422" lon="6.14259">
        <ele>1067.80933834</ele>
        <time>2015-11-10T13:49:23Z</time>
      </trkpt>
      <trkpt lat="45.64412" lon="6.14279">
        <ele>1072.695584852</ele>
        <time>2015-11-10T13:49:32Z</time>
      </trkpt>
      <trkpt lat="45.64402" lon="6.14287">
        <ele>1077.439662349</ele>
        <time>2015-11-10T13:49:37Z</time>
      </trkpt>
      <trkpt lat="45.64411" lon="6.14321">
        <ele>1082.894550268</ele>
        <time>2015-11-10T13:49:52Z</time>
      </trkpt>
      <trkpt lat="45.64413" lon="6.14328">
        <ele>1082.894550268</ele>
        <time>2015-11-10T13:49:57Z</time>
      </trkpt>
      <trkpt lat="45.64407" lon="6.14352">
        <ele>1088.263875263</ele>
        <time>2015-11-10T13:50:07Z</time>
      </trkpt>
      <trkpt lat="45.64397" lon="6.14359">
        <ele>1092.954667627</ele>
        <time>2015-11-10T13:50:12Z</time>
      </trkpt>
      <trkpt lat="45.64374" lon="6.14379">
        <ele>1097.28466226</ele>
        <time>2015-11-10T13:50:22Z</time>
      </trkpt>
      <trkpt lat="45.64367" lon="6.14387">
        <ele>1101.693970777</ele>
        <time>2015-11-10T13:50:27Z</time>
      </trkpt>
      <trkpt lat="45.64344" lon="6.14409">
        <ele>1106.302537741</ele>
        <time>2015-11-10T13:50:38Z</time>
      </trkpt>
      <trkpt lat="45.64337" lon="6.14408">
        <ele>1106.302537741</ele>
        <time>2015-11-10T13:50:42Z</time>
      </trkpt>
      <trkpt lat="45.6432" lon="6.14412">
        <ele>1112.086224801</ele>
        <time>2015-11-10T13:50:52Z</time>
      </trkpt>
      <trkpt lat="45.64314" lon="6.14417">
        <ele>1112.086224801</ele>
        <time>2015-11-10T13:50:57Z</time>
      </trkpt>
      <trkpt lat="45.64319" lon="6.14432">
        <ele>1117.640762766</ele>
        <time>2015-11-10T13:51:07Z</time>
      </trkpt>
      <trkpt lat="45.64321" lon="6.14441">
        <ele>1117.640762766</ele>
        <time>2015-11-10T13:51:12Z</time>
      </trkpt>
      <trkpt lat="45.64329" lon="6.14466">
        <ele>1123.107434562</ele>
        <time>2015-11-10T13:51:22Z</time>
      </trkpt>
      <trkpt lat="45.64335" lon="6.1448">
        <ele>1128.762152904</ele>
        <time>2015-11-10T13:51:27Z</time>
      </trkpt>
      <trkpt lat="45.6434" lon="6.14501">
        <ele>1133.563691661</ele>
        <time>2015-11-10T13:51:37Z</time>
      </trkpt>
      <trkpt lat="45.64342" lon="6.14511">
        <ele>1133.563691661</ele>
        <time>2015-11-10T13:51:43Z</time>
      </trkpt>
      <trkpt lat="45.64349" lon="6.14533">
        <ele>1138.71203475</ele>
        <time>2015-11-10T13:51:52Z</time>
      </trkpt>
      <trkpt lat="45.64352" lon="6.14545">
        <ele>1143.157036038</ele>
        <time>2015-11-10T13:51:57Z</time>
      </trkpt>
      <trkpt lat="45.64356" lon="6.14556">
        <ele>1143.157036038</ele>
        <time>2015-11-10T13:52:08Z</time>
      </trkpt>
      <trkpt lat="45.64355" lon="6.14556">
        <ele>1147.081210021</ele>
        <time>2015-11-10T13:52:12Z</time>
      </trkpt>
      <trkpt lat="45.64358" lon="6.14563">
        <ele>1147.081210021</ele>
        <time>2015-11-10T13:52:22Z</time>
      </trkpt>
      <trkpt lat="45.64358" lon="6.14567">
        <ele>1147.081210021</ele>
        <time>2015-11-10T13:52:27Z</time>
      </trkpt>
      <trkpt lat="45.64369" lon="6.14585">
        <ele>1150.079324154</ele>
        <time>2015-11-10T13:52:42Z</time>
      </trkpt>
      <trkpt lat="45.64372" lon="6.1459">
        <ele>1150.079324154</ele>
        <time>2015-11-10T13:52:47Z</time>
      </trkpt>
      <trkpt lat="45.64382" lon="6.14599">
        <ele>1153.220252293</ele>
        <time>2015-11-10T13:52:57Z</time>
      </trkpt>
      <trkpt lat="45.64384" lon="6.14605">
        <ele>1153.220252293</ele>
        <time>2015-11-10T13:53:02Z</time>
      </trkpt>
      <trkpt lat="45.64389" lon="6.14615">
        <ele>1155.18877714</ele>
        <time>2015-11-10T13:53:12Z</time>
      </trkpt>
      <trkpt lat="45.64394" lon="6.14623">
        <ele>1155.18877714</ele>
        <time>2015-11-10T13:53:17Z</time>
      </trkpt>
      <trkpt lat="45.64402" lon="6.14637">
        <ele>1157.364168037</ele>
        <time>2015-11-10T13:53:27Z</time>
      </trkpt>
      <trkpt lat="45.6441" lon="6.14647">
        <ele>1159.150901155</ele>
        <time>2015-11-10T13:53:32Z</time>
      </trkpt>
      <trkpt lat="45.64414" lon="6.14663">
        <ele>1161.007590022</ele>
        <time>2015-11-10T13:53:42Z</time>
      </trkpt>
      <trkpt lat="45.64414" lon="6.14672">
        <ele>1161.007590022</ele>
        <time>2015-11-10T13:53:47Z</time>
      </trkpt>
      <trkpt lat="45.64417" lon="6.14691">
        <ele>1163.359453663</ele>
        <time>2015-11-10T13:53:57Z</time>
      </trkpt>
      <trkpt lat="45.64417" lon="6.14701">
        <ele>1163.359453663</ele>
        <time>2015-11-10T13:54:02Z</time>
      </trkpt>
      <trkpt lat="45.64414" lon="6.1472">
        <ele>1165.158434587</ele>
        <time>2015-11-10T13:54:12Z</time>
      </trkpt>
      <trkpt lat="45.64414" lon="6.14728">
        <ele>1165.158434587</ele>
        <time>2015-11-10T13:54:17Z</time>
      </trkpt>
      <trkpt lat="45.64406" lon="6.14736">
        <ele>1167.308892574</ele>
        <time>2015-11-10T13:54:27Z</time>
      </trkpt>
      <trkpt lat="45.64399" lon="6.14734">
        <ele>1167.308892574</ele>
        <time>2015-11-10T13:54:32Z</time>
      </trkpt>
      <trkpt lat="45.64385" lon="6.14727">
        <ele>1168.918836308</ele>
        <time>2015-11-10T13:54:42Z</time>
      </trkpt>
      <trkpt lat="45.6438" lon="6.14717">
        <ele>1168.918836308</ele>
        <time>2015-11-10T13:54:47Z</time>
      </trkpt>
      <trkpt lat="45.64371" lon="6.14701">
        <ele>1171.325359208</ele>
        <time>2015-11-10T13:54:57Z</time>
      </trkpt>
      <trkpt lat="45.64365" lon="6.14698">
        <ele>1171.325359208</ele>
        <time>2015-11-10T13:55:02Z</time>
      </trkpt>
      <trkpt lat="45.64354" lon="6.14688">
        <ele>1173.171445729</ele>
        <time>2015-11-10T13:55:12Z</time>
      </trkpt>
      <trkpt lat="45.64349" lon="6.14685">
        <ele>1173.171445729</ele>
        <time>2015-11-10T13:55:17Z</time>
      </trkpt>
      <trkpt lat="45.64339" lon="6.1468">
        <ele>1175.795663476</ele>
        <time>2015-11-10T13:55:27Z</time>
      </trkpt>
      <trkpt lat="45.64335" lon="6.14682">
        <ele>1175.795663476</ele>
        <time>2015-11-10T13:55:32Z</time>
      </trkpt>
      <trkpt lat="45.6432" lon="6.14667">
        <ele>1178.562923514</ele>
        <time>2015-11-10T13:55:47Z</time>
      </trkpt>
      <trkpt lat="45.64299" lon="6.14634">
        <ele>1180.884670078</ele>
        <time>2015-11-10T13:56:02Z</time>
      </trkpt>
      <trkpt lat="45.64285" lon="6.14594">
        <ele>1183.658206301</ele>
        <time>2015-11-10T13:56:17Z</time>
      </trkpt>
      <trkpt lat="45.64274" lon="6.14583">
        <ele>1186.272786038</ele>
        <time>2015-11-10T13:56:22Z</time>
      </trkpt>
      <trkpt lat="45.64254" lon="6.14571">
        <ele>1188.451424114</ele>
        <time>2015-11-10T13:56:32Z</time>
      </trkpt>
      <trkpt lat="45.64244" lon="6.14557">
        <ele>1190.515360154</ele>
        <time>2015-11-10T13:56:37Z</time>
      </trkpt>
      <trkpt lat="45.64232" lon="6.14539">
        <ele>1191.753970195</ele>
        <time>2015-11-10T13:56:47Z</time>
      </trkpt>
      <trkpt lat="45.64222" lon="6.14526">
        <ele>1192.808317962</ele>
        <time>2015-11-10T13:56:52Z</time>
      </trkpt>
      <trkpt lat="45.64207" lon="6.14501">
        <ele>1193.552482761</ele>
        <time>2015-11-10T13:57:02Z</time>
      </trkpt>
      <trkpt lat="45.64202" lon="6.1449">
        <ele>1194.879565471</ele>
        <time>2015-11-10T13:57:07Z</time>
      </trkpt>
      <trkpt lat="45.64191" lon="6.1447">
        <ele>1196.46263596</ele>
        <time>2015-11-10T13:57:17Z</time>
      </trkpt>
      <trkpt lat="45.64186" lon="6.14462">
        <ele>1196.46263596</ele>
        <time>2015-11-10T13:57:22Z</time>
      </trkpt>
      <trkpt lat="45.64171" lon="6.14438">
        <ele>1198.43047564</ele>
        <time>2015-11-10T13:57:32Z</time>
      </trkpt>
      <trkpt lat="45.64169" lon="6.14429">
        <ele>1198.43047564</ele>
        <time>2015-11-10T13:57:37Z</time>
      </trkpt>
      <trkpt lat="45.64159" lon="6.14379">
        <ele>1200.180833105</ele>
        <time>2015-11-10T13:57:52Z</time>
      </trkpt>
      <trkpt lat="45.64158" lon="6.1436">
        <ele>1201.588689077</ele>
        <time>2015-11-10T13:57:57Z</time>
      </trkpt>
      <trkpt lat="45.64165" lon="6.1433">
        <ele>1203.836204492</ele>
        <time>2015-11-10T13:58:07Z</time>
      </trkpt>
      <trkpt lat="45.64174" lon="6.14325">
        <ele>1203.836204492</ele>
        <time>2015-11-10T13:58:12Z</time>
      </trkpt>
      <trkpt lat="45.64189" lon="6.14309">
        <ele>1206.28703427</ele>
        <time>2015-11-10T13:58:22Z</time>
      </trkpt>
      <trkpt lat="45.64201" lon="6.14306">
        <ele>1208.495134609</ele>
        <time>2015-11-10T13:58:27Z</time>
      </trkpt>
      <trkpt lat="45.64211" lon="6.14282">
        <ele>1210.19202655</ele>
        <time>2015-11-10T13:58:37Z</time>
      </trkpt>
      <trkpt lat="45.64217" lon="6.14266">
        <ele>1211.274496925</ele>
        <time>2015-11-10T13:58:42Z</time>
      </trkpt>
      <trkpt lat="45.64221" lon="6.14247">
        <ele>1211.79273676</ele>
        <time>2015-11-10T13:58:52Z</time>
      </trkpt>
      <trkpt lat="45.64218" lon="6.1424">
        <ele>1211.79273676</ele>
        <time>2015-11-10T13:58:57Z</time>
      </trkpt>
      <trkpt lat="45.64215" lon="6.14225">
        <ele>1211.218360432</ele>
        <time>2015-11-10T13:59:07Z</time>
      </trkpt>
      <trkpt lat="45.64213" lon="6.14216">
        <ele>1211.218360432</ele>
        <time>2015-11-10T13:59:12Z</time>
      </trkpt>
      <trkpt lat="45.64213" lon="6.14208">
        <ele>1210.217704582</ele>
        <time>2015-11-10T13:59:17Z</time>
      </trkpt>
      <trkpt lat="45.6421" lon="6.14184">
        <ele>1209.697506649</ele>
        <time>2015-11-10T13:59:27Z</time>
      </trkpt>
      <trkpt lat="45.64209" lon="6.14176">
        <ele>1209.697506649</ele>
        <time>2015-11-10T13:59:32Z</time>
      </trkpt>
      <trkpt lat="45.64212" lon="6.14156">
        <ele>1209.775901455</ele>
        <time>2015-11-10T13:59:47Z</time>
      </trkpt>
      <trkpt lat="45.64208" lon="6.14145">
        <ele>1209.775901455</ele>
        <time>2015-11-10T13:59:52Z</time>
      </trkpt>
      <trkpt lat="45.6421" lon="6.14124">
        <ele>1210.128222425</ele>
        <time>2015-11-10T14:00:02Z</time>
      </trkpt>
      <trkpt lat="45.64213" lon="6.14114">
        <ele>1210.128222425</ele>
        <time>2015-11-10T14:00:07Z</time>
      </trkpt>
      <trkpt lat="45.64223" lon="6.14097">
        <ele>1209.732200492</ele>
        <time>2015-11-10T14:00:17Z</time>
      </trkpt>
      <trkpt lat="45.64227" lon="6.14093">
        <ele>1209.732200492</ele>
        <time>2015-11-10T14:00:22Z</time>
      </trkpt>
      <trkpt lat="45.64226" lon="6.14074">
        <ele>1209.804287143</ele>
        <time>2015-11-10T14:00:32Z</time>
      </trkpt>
      <trkpt lat="45.64229" lon="6.1406">
        <ele>1209.884884877</ele>
        <time>2015-11-10T14:00:37Z</time>
      </trkpt>
      <trkpt lat="45.64224" lon="6.1404">
        <ele>1209.836192625</ele>
        <time>2015-11-10T14:00:47Z</time>
      </trkpt>
      <trkpt lat="45.64223" lon="6.14024">
        <ele>1209.963055255</ele>
        <time>2015-11-10T14:00:52Z</time>
      </trkpt>
      <trkpt lat="45.64224" lon="6.1399">
        <ele>1210.259028942</ele>
        <time>2015-11-10T14:01:02Z</time>
      </trkpt>
      <trkpt lat="45.64221" lon="6.13981">
        <ele>1210.259028942</ele>
        <time>2015-11-10T14:01:07Z</time>
      </trkpt>
      <trkpt lat="45.64219" lon="6.13951">
        <ele>1211.438040347</ele>
        <time>2015-11-10T14:01:17Z</time>
      </trkpt>
      <trkpt lat="45.64215" lon="6.13942">
        <ele>1211.438040347</ele>
        <time>2015-11-10T14:01:22Z</time>
      </trkpt>
      <trkpt lat="45.64209" lon="6.13915">
        <ele>1212.717796967</ele>
        <time>2015-11-10T14:01:32Z</time>
      </trkpt>
      <trkpt lat="45.64209" lon="6.13903">
        <ele>1212.717796967</ele>
        <time>2015-11-10T14:01:37Z</time>
      </trkpt>
      <trkpt lat="45.64208" lon="6.13877">
        <ele>1215.390565294</ele>
        <time>2015-11-10T14:01:47Z</time>
      </trkpt>
      <trkpt lat="45.64209" lon="6.13875">
        <ele>1215.390565294</ele>
        <time>2015-11-10T14:01:52Z</time>
      </trkpt>
      <trkpt lat="45.64209" lon="6.13838">
        <ele>1218.199712344</ele>
        <time>2015-11-10T14:02:07Z</time>
      </trkpt>
      <trkpt lat="45.64212" lon="6.13831">
        <ele>1218.199712344</ele>
        <time>2015-11-10T14:02:12Z</time>
      </trkpt>
      <trkpt lat="45.64215" lon="6.13815">
        <ele>1221.13326398</ele>
        <time>2015-11-10T14:02:22Z</time>
      </trkpt>
      <trkpt lat="45.64212" lon="6.13803">
        <ele>1221.13326398</ele>
        <time>2015-11-10T14:02:27Z</time>
      </trkpt>
      <trkpt lat="45.64207" lon="6.13788">
        <ele>1223.459076482</ele>
        <time>2015-11-10T14:02:37Z</time>
      </trkpt>
      <trkpt lat="45.64206" lon="6.13777">
        <ele>1223.459076482</ele>
        <time>2015-11-10T14:02:42Z</time>
      </trkpt>
      <trkpt lat="45.64208" lon="6.13769">
        <ele>1226.085588793</ele>
        <time>2015-11-10T14:02:47Z</time>
      </trkpt>
      <trkpt lat="45.64209" lon="6.13754">
        <ele>1228.412438015</ele>
        <time>2015-11-10T14:02:57Z</time>
      </trkpt>
      <trkpt lat="45.64206" lon="6.13742">
        <ele>1228.412438015</ele>
        <time>2015-11-10T14:03:02Z</time>
      </trkpt>
      <trkpt lat="45.64199" lon="6.13725">
        <ele>1230.31643679</ele>
        <time>2015-11-10T14:03:12Z</time>
      </trkpt>
      <trkpt lat="45.64197" lon="6.13714">
        <ele>1230.31643679</ele>
        <time>2015-11-10T14:03:17Z</time>
      </trkpt>
      <trkpt lat="45.64188" lon="6.13706">
        <ele>1232.549210198</ele>
        <time>2015-11-10T14:03:28Z</time>
      </trkpt>
      <trkpt lat="45.64184" lon="6.13698">
        <ele>1232.549210198</ele>
        <time>2015-11-10T14:03:32Z</time>
      </trkpt>
      <trkpt lat="45.64183" lon="6.13693">
        <ele>1234.365054315</ele>
        <time>2015-11-10T14:03:37Z</time>
      </trkpt>
      <trkpt lat="45.64183" lon="6.13668">
        <ele>1236.082918089</ele>
        <time>2015-11-10T14:03:47Z</time>
      </trkpt>
      <trkpt lat="45.64183" lon="6.13658">
        <ele>1236.082918089</ele>
        <time>2015-11-10T14:03:52Z</time>
      </trkpt>
      <trkpt lat="45.64177" lon="6.13637">
        <ele>1238.142639394</ele>
        <time>2015-11-10T14:04:02Z</time>
      </trkpt>
      <trkpt lat="45.64174" lon="6.13633">
        <ele>1238.142639394</ele>
        <time>2015-11-10T14:04:07Z</time>
      </trkpt>
      <trkpt lat="45.64168" lon="6.13619">
        <ele>1240.374281348</ele>
        <time>2015-11-10T14:04:17Z</time>
      </trkpt>
      <trkpt lat="45.64163" lon="6.13619">
        <ele>1240.374281348</ele>
        <time>2015-11-10T14:04:22Z</time>
      </trkpt>
      <trkpt lat="45.64157" lon="6.13629">
        <ele>1241.75518523</ele>
        <time>2015-11-10T14:04:32Z</time>
      </trkpt>
      <trkpt lat="45.64163" lon="6.13635">
        <ele>1241.75518523</ele>
        <time>2015-11-10T14:04:37Z</time>
      </trkpt>
      <trkpt lat="45.64165" lon="6.13636">
        <ele>1243.357707896</ele>
        <time>2015-11-10T14:04:48Z</time>
      </trkpt>
      <trkpt lat="45.64165" lon="6.13637">
        <ele>1243.357707896</ele>
        <time>2015-11-10T14:04:52Z</time>
      </trkpt>
      <trkpt lat="45.64162" lon="6.1365">
        <ele>1244.733650432</ele>
        <time>2015-11-10T14:05:02Z</time>
      </trkpt>
      <trkpt lat="45.64162" lon="6.13657">
        <ele>1244.733650432</ele>
        <time>2015-11-10T14:05:07Z</time>
      </trkpt>
      <trkpt lat="45.64154" lon="6.13677">
        <ele>1246.621218594</ele>
        <time>2015-11-10T14:05:22Z</time>
      </trkpt>
      <trkpt lat="45.64156" lon="6.13699">
        <ele>1248.694134563</ele>
        <time>2015-11-10T14:05:33Z</time>
      </trkpt>
      <trkpt lat="45.64154" lon="6.1371">
        <ele>1248.694134563</ele>
        <time>2015-11-10T14:05:37Z</time>
      </trkpt>
      <trkpt lat="45.64156" lon="6.13717">
        <ele>1250.361307508</ele>
        <time>2015-11-10T14:05:42Z</time>
      </trkpt>
      <trkpt lat="45.64157" lon="6.13714">
        <ele>1250.361307508</ele>
        <time>2015-11-10T14:05:52Z</time>
      </trkpt>
      <trkpt lat="45.64161" lon="6.1372">
        <ele>1250.361307508</ele>
        <time>2015-11-10T14:05:57Z</time>
      </trkpt>
      <trkpt lat="45.6417" lon="6.1375">
        <ele>1253.237840231</ele>
        <time>2015-11-10T14:06:08Z</time>
      </trkpt>
      <trkpt lat="45.64167" lon="6.13769">
        <ele>1255.934548646</ele>
        <time>2015-11-10T14:06:12Z</time>
      </trkpt>
      <trkpt lat="45.64155" lon="6.13791">
        <ele>1258.317672195</ele>
        <time>2015-11-10T14:06:22Z</time>
      </trkpt>
      <trkpt lat="45.64155" lon="6.13803">
        <ele>1258.317672195</ele>
        <time>2015-11-10T14:06:27Z</time>
      </trkpt>
      <trkpt lat="45.64154" lon="6.1383">
        <ele>1261.128812913</ele>
        <time>2015-11-10T14:06:37Z</time>
      </trkpt>
      <trkpt lat="45.64146" lon="6.13841">
        <ele>1263.46867015</ele>
        <time>2015-11-10T14:06:42Z</time>
      </trkpt>
      <trkpt lat="45.64145" lon="6.13866">
        <ele>1265.225888079</ele>
        <time>2015-11-10T14:06:53Z</time>
      </trkpt>
      <trkpt lat="45.64148" lon="6.13874">
        <ele>1265.225888079</ele>
        <time>2015-11-10T14:06:57Z</time>
      </trkpt>
      <trkpt lat="45.64141" lon="6.13897">
        <ele>1268.460604835</ele>
        <time>2015-11-10T14:07:07Z</time>
      </trkpt>
      <trkpt lat="45.64138" lon="6.13906">
        <ele>1268.460604835</ele>
        <time>2015-11-10T14:07:12Z</time>
      </trkpt>
      <trkpt lat="45.64126" lon="6.13925">
        <ele>1272.051162077</ele>
        <time>2015-11-10T14:07:22Z</time>
      </trkpt>
      <trkpt lat="45.64123" lon="6.13939">
        <ele>1275.245549212</ele>
        <time>2015-11-10T14:07:27Z</time>
      </trkpt>
      <trkpt lat="45.64118" lon="6.13971">
        <ele>1277.924589923</ele>
        <time>2015-11-10T14:07:37Z</time>
      </trkpt>
      <trkpt lat="45.64118" lon="6.13981">
        <ele>1277.924589923</ele>
        <time>2015-11-10T14:07:42Z</time>
      </trkpt>
      <trkpt lat="45.64114" lon="6.13993">
        <ele>1281.132243566</ele>
        <time>2015-11-10T14:07:47Z</time>
      </trkpt>
      <trkpt lat="45.64107" lon="6.14017">
        <ele>1283.816795205</ele>
        <time>2015-11-10T14:07:57Z</time>
      </trkpt>
      <trkpt lat="45.64104" lon="6.14026">
        <ele>1283.816795205</ele>
        <time>2015-11-10T14:08:02Z</time>
      </trkpt>
      <trkpt lat="45.64096" lon="6.1405">
        <ele>1286.87876079</ele>
        <time>2015-11-10T14:08:12Z</time>
      </trkpt>
      <trkpt lat="45.6409" lon="6.14065">
        <ele>1289.566287994</ele>
        <time>2015-11-10T14:08:17Z</time>
      </trkpt>
      <trkpt lat="45.64085" lon="6.14089">
        <ele>1291.616206773</ele>
        <time>2015-11-10T14:08:28Z</time>
      </trkpt>
      <trkpt lat="45.64083" lon="6.14106">
        <ele>1293.795315253</ele>
        <time>2015-11-10T14:08:32Z</time>
      </trkpt>
      <trkpt lat="45.64072" lon="6.1413">
        <ele>1295.805010735</ele>
        <time>2015-11-10T14:08:42Z</time>
      </trkpt>
      <trkpt lat="45.64066" lon="6.1414">
        <ele>1295.805010735</ele>
        <time>2015-11-10T14:08:47Z</time>
      </trkpt>
      <trkpt lat="45.64044" lon="6.14167">
        <ele>1297.369165876</ele>
        <time>2015-11-10T14:09:02Z</time>
      </trkpt>
      <trkpt lat="45.64031" lon="6.14182">
        <ele>1299.674360359</ele>
        <time>2015-11-10T14:09:07Z</time>
      </trkpt>
      <trkpt lat="45.64019" lon="6.14203">
        <ele>1301.656319282</ele>
        <time>2015-11-10T14:09:17Z</time>
      </trkpt>
      <trkpt lat="45.64009" lon="6.14215">
        <ele>1303.771020591</ele>
        <time>2015-11-10T14:09:22Z</time>
      </trkpt>
      <trkpt lat="45.63995" lon="6.14221">
        <ele>1305.287733723</ele>
        <time>2015-11-10T14:09:32Z</time>
      </trkpt>
      <trkpt lat="45.63989" lon="6.14217">
        <ele>1305.287733723</ele>
        <time>2015-11-10T14:09:37Z</time>
      </trkpt>
      <trkpt lat="45.63983" lon="6.14217">
        <ele>1307.260464243</ele>
        <time>2015-11-10T14:09:42Z</time>
      </trkpt>
      <trkpt lat="45.63977" lon="6.14213">
        <ele>1307.260464243</ele>
        <time>2015-11-10T14:09:47Z</time>
      </trkpt>
      <trkpt lat="45.63972" lon="6.14214">
        <ele>1309.367552946</ele>
        <time>2015-11-10T14:09:52Z</time>
      </trkpt>
      <trkpt lat="45.63957" lon="6.14214">
        <ele>1311.742964525</ele>
        <time>2015-11-10T14:10:02Z</time>
      </trkpt>
      <trkpt lat="45.63951" lon="6.14216">
        <ele>1311.742964525</ele>
        <time>2015-11-10T14:10:07Z</time>
      </trkpt>
      <trkpt lat="45.63936" lon="6.14212">
        <ele>1313.789549663</ele>
        <time>2015-11-10T14:10:17Z</time>
      </trkpt>
      <trkpt lat="45.63931" lon="6.14212">
        <ele>1313.789549663</ele>
        <time>2015-11-10T14:10:22Z</time>
      </trkpt>
      <trkpt lat="45.63925" lon="6.14211">
        <ele>1315.53142559</ele>
        <time>2015-11-10T14:10:27Z</time>
      </trkpt>
      <trkpt lat="45.63923" lon="6.14215">
        <ele>1315.53142559</ele>
        <time>2015-11-10T14:10:32Z</time>
      </trkpt>
      <trkpt lat="45.63918" lon="6.14221">
        <ele>1317.280045612</ele>
        <time>2015-11-10T14:10:37Z</time>
      </trkpt>
      <trkpt lat="45.63906" lon="6.14231">
        <ele>1318.31521271</ele>
        <time>2015-11-10T14:10:47Z</time>
      </trkpt>
      <trkpt lat="45.63901" lon="6.14235">
        <ele>1318.31521271</ele>
        <time>2015-11-10T14:10:52Z</time>
      </trkpt>
      <trkpt lat="45.63886" lon="6.14236">
        <ele>1318.548099401</ele>
        <time>2015-11-10T14:11:02Z</time>
      </trkpt>
      <trkpt lat="45.63875" lon="6.14234">
        <ele>1319.195663265</ele>
        <time>2015-11-10T14:11:07Z</time>
      </trkpt>
      <trkpt lat="45.63864" lon="6.14229">
        <ele>1320.375521822</ele>
        <time>2015-11-10T14:11:17Z</time>
      </trkpt>
      <trkpt lat="45.63861" lon="6.14231">
        <ele>1320.375521822</ele>
        <time>2015-11-10T14:11:22Z</time>
      </trkpt>
      <trkpt lat="45.63856" lon="6.1423">
        <ele>1320.375521822</ele>
        <time>2015-11-10T14:11:27Z</time>
      </trkpt>
      <trkpt lat="45.63852" lon="6.14233">
        <ele>1321.186368265</ele>
        <time>2015-11-10T14:11:32Z</time>
      </trkpt>
      <trkpt lat="45.63847" lon="6.14233">
        <ele>1321.186368265</ele>
        <time>2015-11-10T14:11:37Z</time>
      </trkpt>
      <trkpt lat="45.63833" lon="6.14223">
        <ele>1321.947006924</ele>
        <time>2015-11-10T14:11:47Z</time>
      </trkpt>
      <trkpt lat="45.63828" lon="6.14218">
        <ele>1321.947006924</ele>
        <time>2015-11-10T14:11:52Z</time>
      </trkpt>
      <trkpt lat="45.63822" lon="6.14208">
        <ele>1321.944153039</ele>
        <time>2015-11-10T14:12:02Z</time>
      </trkpt>
      <trkpt lat="45.63818" lon="6.14205">
        <ele>1321.944153039</ele>
        <time>2015-11-10T14:12:07Z</time>
      </trkpt>
      <trkpt lat="45.63809" lon="6.14193">
        <ele>1322.53657589</ele>
        <time>2015-11-10T14:12:17Z</time>
      </trkpt>
      <trkpt lat="45.63806" lon="6.14186">
        <ele>1322.53657589</ele>
        <time>2015-11-10T14:12:23Z</time>
      </trkpt>
      <trkpt lat="45.63789" lon="6.14176">
        <ele>1322.819841239</ele>
        <time>2015-11-10T14:12:37Z</time>
      </trkpt>
      <trkpt lat="45.63784" lon="6.14173">
        <ele>1322.819841239</ele>
        <time>2015-11-10T14:12:42Z</time>
      </trkpt>
      <trkpt lat="45.63772" lon="6.14166">
        <ele>1324.118428943</ele>
        <time>2015-11-10T14:12:53Z</time>
      </trkpt>
      <trkpt lat="45.63768" lon="6.14162">
        <ele>1324.118428943</ele>
        <time>2015-11-10T14:12:57Z</time>
      </trkpt>
      <trkpt lat="45.63758" lon="6.14151">
        <ele>1326.215498391</ele>
        <time>2015-11-10T14:13:07Z</time>
      </trkpt>
      <trkpt lat="45.63753" lon="6.14146">
        <ele>1326.215498391</ele>
        <time>2015-11-10T14:13:13Z</time>
      </trkpt>
      <trkpt lat="45.63741" lon="6.14135">
        <ele>1328.763721408</ele>
        <time>2015-11-10T14:13:22Z</time>
      </trkpt>
      <trkpt lat="45.63739" lon="6.14132">
        <ele>1328.763721408</ele>
        <time>2015-11-10T14:13:27Z</time>
      </trkpt>
      <trkpt lat="45.63732" lon="6.14126">
        <ele>1330.575288716</ele>
        <time>2015-11-10T14:13:37Z</time>
      </trkpt>
      <trkpt lat="45.63726" lon="6.14123">
        <ele>1330.575288716</ele>
        <time>2015-11-10T14:13:42Z</time>
      </trkpt>
      <trkpt lat="45.63713" lon="6.14114">
        <ele>1332.425100893</ele>
        <time>2015-11-10T14:13:53Z</time>
      </trkpt>
      <trkpt lat="45.63709" lon="6.14111">
        <ele>1332.425100893</ele>
        <time>2015-11-10T14:13:57Z</time>
      </trkpt>
      <trkpt lat="45.63697" lon="6.14105">
        <ele>1333.013417014</ele>
        <time>2015-11-10T14:14:07Z</time>
      </trkpt>
      <trkpt lat="45.63691" lon="6.14101">
        <ele>1333.013417014</ele>
        <time>2015-11-10T14:14:12Z</time>
      </trkpt>
      <trkpt lat="45.63679" lon="6.14098">
        <ele>1333.589349802</ele>
        <time>2015-11-10T14:14:22Z</time>
      </trkpt>
      <trkpt lat="45.63671" lon="6.14096">
        <ele>1333.589349802</ele>
        <time>2015-11-10T14:14:27Z</time>
      </trkpt>
      <trkpt lat="45.63653" lon="6.14087">
        <ele>1333.72500822</ele>
        <time>2015-11-10T14:14:42Z</time>
      </trkpt>
      <trkpt lat="45.63651" lon="6.14083">
        <ele>1333.72500822</ele>
        <time>2015-11-10T14:14:47Z</time>
      </trkpt>
      <trkpt lat="45.63651" lon="6.14083">
        <ele>1333.72500822</ele>
        <time>2015-11-10T14:14:52Z</time>
      </trkpt>
      <trkpt lat="45.63652" lon="6.14083">
        <ele>1333.72500822</ele>
        <time>2015-11-10T14:14:57Z</time>
      </trkpt>
      <trkpt lat="45.63652" lon="6.14083">
        <ele>1333.72500822</ele>
        <time>2015-11-10T14:15:07Z</time>
      </trkpt>
      <trkpt lat="45.63647" lon="6.14078">
        <ele>1333.74566203</ele>
        <time>2015-11-10T14:15:13Z</time>
      </trkpt>
      <trkpt lat="45.63635" lon="6.14075">
        <ele>1334.241161575</ele>
        <time>2015-11-10T14:15:22Z</time>
      </trkpt>
      <trkpt lat="45.63627" lon="6.14073">
        <ele>1334.241161575</ele>
        <time>2015-11-10T14:15:27Z</time>
      </trkpt>
      <trkpt lat="45.63619" lon="6.14064">
        <ele>1335.468396553</ele>
        <time>2015-11-10T14:15:47Z</time>
      </trkpt>
      <trkpt lat="45.63608" lon="6.14061">
        <ele>1336.79858585</ele>
        <time>2015-11-10T14:15:53Z</time>
      </trkpt>
      <trkpt lat="45.63599" lon="6.14052">
        <ele>1337.072321859</ele>
        <time>2015-11-10T14:16:03Z</time>
      </trkpt>
      <trkpt lat="45.63593" lon="6.14046">
        <ele>1337.072321859</ele>
        <time>2015-11-10T14:16:07Z</time>
      </trkpt>
      <trkpt lat="45.63581" lon="6.1404">
        <ele>1337.524024674</ele>
        <time>2015-11-10T14:16:17Z</time>
      </trkpt>
      <trkpt lat="45.63571" lon="6.14039">
        <ele>1337.855737943</ele>
        <time>2015-11-10T14:16:22Z</time>
      </trkpt>
      <trkpt lat="45.6356" lon="6.14026">
        <ele>1337.503417246</ele>
        <time>2015-11-10T14:16:33Z</time>
      </trkpt>
      <trkpt lat="45.63553" lon="6.1402">
        <ele>1337.503417246</ele>
        <time>2015-11-10T14:16:37Z</time>
      </trkpt>
      <trkpt lat="45.6354" lon="6.14014">
        <ele>1337.819721806</ele>
        <time>2015-11-10T14:16:48Z</time>
      </trkpt>
      <trkpt lat="45.63536" lon="6.14011">
        <ele>1337.819721806</ele>
        <time>2015-11-10T14:16:53Z</time>
      </trkpt>
      <trkpt lat="45.6352" lon="6.14004">
        <ele>1338.038413663</ele>
        <time>2015-11-10T14:17:03Z</time>
      </trkpt>
      <trkpt lat="45.63516" lon="6.14001">
        <ele>1338.038413663</ele>
        <time>2015-11-10T14:17:07Z</time>
      </trkpt>
      <trkpt lat="45.63504" lon="6.1399">
        <ele>1339.323159079</ele>
        <time>2015-11-10T14:17:22Z</time>
      </trkpt>
      <trkpt lat="45.63504" lon="6.1399">
        <ele>1339.323159079</ele>
        <time>2015-11-10T14:17:27Z</time>
      </trkpt>
      <trkpt lat="45.63498" lon="6.13985">
        <ele>1339.323159079</ele>
        <time>2015-11-10T14:17:32Z</time>
      </trkpt>
      <trkpt lat="45.63483" lon="6.13979">
        <ele>1340.299158531</ele>
        <time>2015-11-10T14:17:42Z</time>
      </trkpt>
      <trkpt lat="45.63475" lon="6.13977">
        <ele>1340.299158531</ele>
        <time>2015-11-10T14:17:48Z</time>
      </trkpt>
      <trkpt lat="45.63446" lon="6.13974">
        <ele>1341.566815053</ele>
        <time>2015-11-10T14:18:03Z</time>
      </trkpt>
      <trkpt lat="45.63439" lon="6.13971">
        <ele>1341.566815053</ele>
        <time>2015-11-10T14:18:07Z</time>
      </trkpt>
      <trkpt lat="45.63434" lon="6.13961">
        <ele>1342.240399143</ele>
        <time>2015-11-10T14:18:12Z</time>
      </trkpt>
      <trkpt lat="45.63426" lon="6.1396">
        <ele>1342.240399143</ele>
        <time>2015-11-10T14:18:17Z</time>
      </trkpt>
      <trkpt lat="45.63402" lon="6.13953">
        <ele>1343.374265495</ele>
        <time>2015-11-10T14:18:32Z</time>
      </trkpt>
      <trkpt lat="45.63393" lon="6.1395">
        <ele>1343.374265495</ele>
        <time>2015-11-10T14:18:37Z</time>
      </trkpt>
      <trkpt lat="45.6337" lon="6.1394">
        <ele>1345.223382245</ele>
        <time>2015-11-10T14:18:48Z</time>
      </trkpt>
      <trkpt lat="45.63358" lon="6.13937">
        <ele>1347.01312217</ele>
        <time>2015-11-10T14:18:52Z</time>
      </trkpt>
      <trkpt lat="45.63334" lon="6.13934">
        <ele>1348.458187871</ele>
        <time>2015-11-10T14:19:02Z</time>
      </trkpt>
      <trkpt lat="45.63323" lon="6.13937">
        <ele>1350.015696918</ele>
        <time>2015-11-10T14:19:07Z</time>
      </trkpt>
      <trkpt lat="45.63302" lon="6.13938">
        <ele>1351.964704015</ele>
        <time>2015-11-10T14:19:18Z</time>
      </trkpt>
      <trkpt lat="45.63294" lon="6.13932">
        <ele>1353.697950716</ele>
        <time>2015-11-10T14:19:22Z</time>
      </trkpt>
      <trkpt lat="45.63276" lon="6.13931">
        <ele>1355.373907546</ele>
        <time>2015-11-10T14:19:33Z</time>
      </trkpt>
      <trkpt lat="45.63269" lon="6.13933">
        <ele>1355.373907546</ele>
        <time>2015-11-10T14:19:37Z</time>
      </trkpt>
      <trkpt lat="45.6326" lon="6.13935">
        <ele>1356.995419997</ele>
        <time>2015-11-10T14:19:47Z</time>
      </trkpt>
      <trkpt lat="45.63248" lon="6.13929">
        <ele>1358.421139319</ele>
        <time>2015-11-10T14:19:52Z</time>
      </trkpt>
      <trkpt lat="45.63218" lon="6.13929">
        <ele>1359.808850349</ele>
        <time>2015-11-10T14:20:02Z</time>
      </trkpt>
      <trkpt lat="45.63206" lon="6.13932">
        <ele>1361.593059778</ele>
        <time>2015-11-10T14:20:07Z</time>
      </trkpt>
      <trkpt lat="45.63182" lon="6.13934">
        <ele>1362.590007604</ele>
        <time>2015-11-10T14:20:18Z</time>
      </trkpt>
      <trkpt lat="45.63169" lon="6.13925">
        <ele>1363.866758234</ele>
        <time>2015-11-10T14:20:23Z</time>
      </trkpt>
      <trkpt lat="45.63153" lon="6.1391">
        <ele>1364.825974268</ele>
        <time>2015-11-10T14:20:32Z</time>
      </trkpt>
      <trkpt lat="45.63148" lon="6.13905">
        <ele>1364.825974268</ele>
        <time>2015-11-10T14:20:39Z</time>
      </trkpt>
      <trkpt lat="45.63133" lon="6.13894">
        <ele>1365.203303142</ele>
        <time>2015-11-10T14:20:42Z</time>
      </trkpt>
      <trkpt lat="45.63123" lon="6.13874">
        <ele>1364.611320539</ele>
        <time>2015-11-10T14:20:47Z</time>
      </trkpt>
      <trkpt lat="45.63117" lon="6.13864">
        <ele>1362.693760637</ele>
        <time>2015-11-10T14:20:52Z</time>
      </trkpt>
      <trkpt lat="45.63106" lon="6.1386">
        <ele>1360.997659029</ele>
        <time>2015-11-10T14:20:57Z</time>
      </trkpt>
      <trkpt lat="45.63076" lon="6.13846">
        <ele>1360.523404011</ele>
        <time>2015-11-10T14:21:08Z</time>
      </trkpt>
      <trkpt lat="45.63065" lon="6.13842">
        <ele>1360.032737217</ele>
        <time>2015-11-10T14:21:13Z</time>
      </trkpt>
      <trkpt lat="45.63053" lon="6.13838">
        <ele>1359.675332323</ele>
        <time>2015-11-10T14:21:22Z</time>
      </trkpt>
      <trkpt lat="45.63048" lon="6.13836">
        <ele>1359.675332323</ele>
        <time>2015-11-10T14:21:27Z</time>
      </trkpt>
      <trkpt lat="45.63044" lon="6.1384">
        <ele>1360.021744154</ele>
        <time>2015-11-10T14:21:37Z</time>
      </trkpt>
      <trkpt lat="45.63044" lon="6.13841">
        <ele>1360.021744154</ele>
        <time>2015-11-10T14:21:42Z</time>
      </trkpt>
      <trkpt lat="45.63045" lon="6.1384">
        <ele>1360.021744154</ele>
        <time>2015-11-10T14:21:54Z</time>
      </trkpt>
      <trkpt lat="45.63044" lon="6.1384">
        <ele>1360.021744154</ele>
        <time>2015-11-10T14:21:57Z</time>
      </trkpt>
      <trkpt lat="45.63036" lon="6.13824">
        <ele>1360.013329795</ele>
        <time>2015-11-10T14:22:08Z</time>
      </trkpt>
      <trkpt lat="45.63029" lon="6.13809">
        <ele>1359.967119076</ele>
        <time>2015-11-10T14:22:12Z</time>
      </trkpt>
      <trkpt lat="45.63018" lon="6.13783">
        <ele>1359.312199258</ele>
        <time>2015-11-10T14:22:22Z</time>
      </trkpt>
      <trkpt lat="45.63014" lon="6.1378">
        <ele>1359.312199258</ele>
        <time>2015-11-10T14:22:27Z</time>
      </trkpt>
      <trkpt lat="45.63001" lon="6.13779">
        <ele>1358.097652513</ele>
        <time>2015-11-10T14:22:42Z</time>
      </trkpt>
      <trkpt lat="45.62986" lon="6.1377">
        <ele>1357.090979794</ele>
        <time>2015-11-10T14:22:52Z</time>
      </trkpt>
      <trkpt lat="45.6298" lon="6.13768">
        <ele>1357.090979794</ele>
        <time>2015-11-10T14:22:57Z</time>
      </trkpt>
      <trkpt lat="45.62981" lon="6.13766">
        <ele>1357.090979794</ele>
        <time>2015-11-10T14:23:02Z</time>
      </trkpt>
      <trkpt lat="45.62982" lon="6.13764">
        <ele>1355.705609577</ele>
        <time>2015-11-10T14:23:07Z</time>
      </trkpt>
      <trkpt lat="45.62982" lon="6.13764">
        <ele>1355.705609577</ele>
        <time>2015-11-10T14:23:12Z</time>
      </trkpt>
      <trkpt lat="45.62982" lon="6.13764">
        <ele>1355.705609577</ele>
        <time>2015-11-10T14:23:17Z</time>
      </trkpt>
      <trkpt lat="45.62982" lon="6.13764">
        <ele>1355.705609577</ele>
        <time>2015-11-10T14:23:22Z</time>
      </trkpt>
      <trkpt lat="45.62965" lon="6.13757">
        <ele>1353.8313375</ele>
        <time>2015-11-10T14:23:37Z</time>
      </trkpt>
      <trkpt lat="45.62958" lon="6.13752">
        <ele>1353.8313375</ele>
        <time>2015-11-10T14:23:42Z</time>
      </trkpt>
      <trkpt lat="45.62943" lon="6.1374">
        <ele>1353.81719148</ele>
        <time>2015-11-10T14:23:54Z</time>
      </trkpt>
      <trkpt lat="45.62937" lon="6.13739">
        <ele>1353.81719148</ele>
        <time>2015-11-10T14:23:57Z</time>
      </trkpt>
      <trkpt lat="45.62918" lon="6.13721">
        <ele>1353.943292345</ele>
        <time>2015-11-10T14:24:07Z</time>
      </trkpt>
      <trkpt lat="45.62906" lon="6.1372">
        <ele>1354.344912798</ele>
        <time>2015-11-10T14:24:12Z</time>
      </trkpt>
      <trkpt lat="45.62885" lon="6.13706">
        <ele>1355.434712436</ele>
        <time>2015-11-10T14:24:23Z</time>
      </trkpt>
      <trkpt lat="45.62874" lon="6.13707">
        <ele>1356.440100487</ele>
        <time>2015-11-10T14:24:27Z</time>
      </trkpt>
      <trkpt lat="45.62865" lon="6.13699">
        <ele>1357.654149262</ele>
        <time>2015-11-10T14:24:32Z</time>
      </trkpt>
      <trkpt lat="45.62856" lon="6.13685">
        <ele>1358.915389588</ele>
        <time>2015-11-10T14:24:38Z</time>
      </trkpt>
      <trkpt lat="45.62848" lon="6.13678">
        <ele>1359.929888882</ele>
        <time>2015-11-10T14:24:42Z</time>
      </trkpt>
      <trkpt lat="45.6282" lon="6.13651">
        <ele>1360.425928454</ele>
        <time>2015-11-10T14:24:57Z</time>
      </trkpt>
      <trkpt lat="45.62809" lon="6.1364">
        <ele>1360.441364877</ele>
        <time>2015-11-10T14:25:02Z</time>
      </trkpt>
      <trkpt lat="45.62784" lon="6.13633">
        <ele>1360.156676883</ele>
        <time>2015-11-10T14:25:13Z</time>
      </trkpt>
      <trkpt lat="45.62779" lon="6.13625">
        <ele>1360.156676883</ele>
        <time>2015-11-10T14:25:17Z</time>
      </trkpt>
      <trkpt lat="45.62755" lon="6.13635">
        <ele>1360.460430284</ele>
        <time>2015-11-10T14:25:27Z</time>
      </trkpt>
      <trkpt lat="45.62744" lon="6.13632">
        <ele>1360.877215384</ele>
        <time>2015-11-10T14:25:32Z</time>
      </trkpt>
      <trkpt lat="45.62728" lon="6.13608">
        <ele>1361.110291025</ele>
        <time>2015-11-10T14:25:42Z</time>
      </trkpt>
      <trkpt lat="45.62715" lon="6.13596">
        <ele>1361.461628489</ele>
        <time>2015-11-10T14:25:47Z</time>
      </trkpt>
      <trkpt lat="45.62699" lon="6.13577">
        <ele>1361.490085817</ele>
        <time>2015-11-10T14:25:57Z</time>
      </trkpt>
      <trkpt lat="45.62691" lon="6.13569">
        <ele>1361.364236747</ele>
        <time>2015-11-10T14:26:02Z</time>
      </trkpt>
      <trkpt lat="45.62673" lon="6.13551">
        <ele>1360.808330845</ele>
        <time>2015-11-10T14:26:13Z</time>
      </trkpt>
      <trkpt lat="45.6267" lon="6.13543">
        <ele>1360.808330845</ele>
        <time>2015-11-10T14:26:17Z</time>
      </trkpt>
      <trkpt lat="45.62657" lon="6.13531">
        <ele>1359.712149842</ele>
        <time>2015-11-10T14:26:28Z</time>
      </trkpt>
      <trkpt lat="45.6265" lon="6.13531">
        <ele>1359.712149842</ele>
        <time>2015-11-10T14:26:32Z</time>
      </trkpt>
      <trkpt lat="45.62632" lon="6.13519">
        <ele>1358.263263708</ele>
        <time>2015-11-10T14:26:43Z</time>
      </trkpt>
      <trkpt lat="45.62621" lon="6.13513">
        <ele>1356.924622734</ele>
        <time>2015-11-10T14:26:48Z</time>
      </trkpt>
      <trkpt lat="45.62615" lon="6.13505">
        <ele>1356.924622734</ele>
        <time>2015-11-10T14:26:52Z</time>
      </trkpt>
      <trkpt lat="45.62598" lon="6.13492">
        <ele>1354.539574583</ele>
        <time>2015-11-10T14:27:02Z</time>
      </trkpt>
      <trkpt lat="45.6259" lon="6.13484">
        <ele>1352.200963043</ele>
        <time>2015-11-10T14:27:07Z</time>
      </trkpt>
      <trkpt lat="45.62575" lon="6.1348">
        <ele>1349.76824597</ele>
        <time>2015-11-10T14:27:17Z</time>
      </trkpt>
      <trkpt lat="45.62566" lon="6.13473">
        <ele>1347.54370301</ele>
        <time>2015-11-10T14:27:22Z</time>
      </trkpt>
      <trkpt lat="45.62547" lon="6.13451">
        <ele>1345.086155341</ele>
        <time>2015-11-10T14:27:33Z</time>
      </trkpt>
      <trkpt lat="45.62539" lon="6.13446">
        <ele>1345.086155341</ele>
        <time>2015-11-10T14:27:37Z</time>
      </trkpt>
      <trkpt lat="45.62525" lon="6.13431">
        <ele>1341.55502564</ele>
        <time>2015-11-10T14:27:47Z</time>
      </trkpt>
      <trkpt lat="45.62518" lon="6.13429">
        <ele>1341.55502564</ele>
        <time>2015-11-10T14:27:52Z</time>
      </trkpt>
      <trkpt lat="45.62503" lon="6.13415">
        <ele>1339.056580162</ele>
        <time>2015-11-10T14:28:03Z</time>
      </trkpt>
      <trkpt lat="45.6249" lon="6.13413">
        <ele>1336.657088111</ele>
        <time>2015-11-10T14:28:07Z</time>
      </trkpt>
      <trkpt lat="45.62476" lon="6.13403">
        <ele>1334.499748651</ele>
        <time>2015-11-10T14:28:17Z</time>
      </trkpt>
      <trkpt lat="45.62443" lon="6.13385">
        <ele>1331.99583606</ele>
        <time>2015-11-10T14:28:33Z</time>
      </trkpt>
      <trkpt lat="45.62435" lon="6.13379">
        <ele>1330.185892244</ele>
        <time>2015-11-10T14:28:37Z</time>
      </trkpt>
      <trkpt lat="45.62426" lon="6.13367">
        <ele>1328.302562933</ele>
        <time>2015-11-10T14:28:47Z</time>
      </trkpt>
      <trkpt lat="45.62426" lon="6.13351">
        <ele>1326.067223042</ele>
        <time>2015-11-10T14:28:52Z</time>
      </trkpt>
      <trkpt lat="45.62418" lon="6.13337">
        <ele>1323.654855409</ele>
        <time>2015-11-10T14:29:08Z</time>
      </trkpt>
      <trkpt lat="45.62417" lon="6.13336">
        <ele>1323.654855409</ele>
        <time>2015-11-10T14:29:12Z</time>
      </trkpt>
      <trkpt lat="45.624" lon="6.13322">
        <ele>1320.651458299</ele>
        <time>2015-11-10T14:29:22Z</time>
      </trkpt>
      <trkpt lat="45.62392" lon="6.13321">
        <ele>1320.651458299</ele>
        <time>2015-11-10T14:29:27Z</time>
      </trkpt>
      <trkpt lat="45.62392" lon="6.13319">
        <ele>1320.651458299</ele>
        <time>2015-11-10T14:29:32Z</time>
      </trkpt>
      <trkpt lat="45.62392" lon="6.13318">
        <ele>1317.251358939</ele>
        <time>2015-11-10T14:29:37Z</time>
      </trkpt>
      <trkpt lat="45.62389" lon="6.13312">
        <ele>1317.251358939</ele>
        <time>2015-11-10T14:29:44Z</time>
      </trkpt>
      <trkpt lat="45.62386" lon="6.13311">
        <ele>1317.251358939</ele>
        <time>2015-11-10T14:29:47Z</time>
      </trkpt>
      <trkpt lat="45.6238" lon="6.13308">
        <ele>1313.2031962</ele>
        <time>2015-11-10T14:29:57Z</time>
      </trkpt>
      <trkpt lat="45.62377" lon="6.13303">
        <ele>1313.2031962</ele>
        <time>2015-11-10T14:30:03Z</time>
      </trkpt>
      <trkpt lat="45.62351" lon="6.13287">
        <ele>1309.572691931</ele>
        <time>2015-11-10T14:30:18Z</time>
      </trkpt>
      <trkpt lat="45.62328" lon="6.13267">
        <ele>1305.472453688</ele>
        <time>2015-11-10T14:30:32Z</time>
      </trkpt>
      <trkpt lat="45.62318" lon="6.13263">
        <ele>1302.098931509</ele>
        <time>2015-11-10T14:30:37Z</time>
      </trkpt>
      <trkpt lat="45.62313" lon="6.13258">
        <ele>1302.098931509</ele>
        <time>2015-11-10T14:30:47Z</time>
      </trkpt>
      <trkpt lat="45.62311" lon="6.13258">
        <ele>1302.098931509</ele>
        <time>2015-11-10T14:30:52Z</time>
      </trkpt>
      <trkpt lat="45.62302" lon="6.13254">
        <ele>1299.117308897</ele>
        <time>2015-11-10T14:31:02Z</time>
      </trkpt>
      <trkpt lat="45.62292" lon="6.13254">
        <ele>1296.071924477</ele>
        <time>2015-11-10T14:31:07Z</time>
      </trkpt>
      <trkpt lat="45.62271" lon="6.13256">
        <ele>1293.837539028</ele>
        <time>2015-11-10T14:31:17Z</time>
      </trkpt>
      <trkpt lat="45.62264" lon="6.13249">
        <ele>1293.837539028</ele>
        <time>2015-11-10T14:31:23Z</time>
      </trkpt>
      <trkpt lat="45.6225" lon="6.13231">
        <ele>1291.492818134</ele>
        <time>2015-11-10T14:31:32Z</time>
      </trkpt>
      <trkpt lat="45.6224" lon="6.13229">
        <ele>1289.337086073</ele>
        <time>2015-11-10T14:31:37Z</time>
      </trkpt>
      <trkpt lat="45.62223" lon="6.13224">
        <ele>1287.64693635</ele>
        <time>2015-11-10T14:31:47Z</time>
      </trkpt>
      <trkpt lat="45.62215" lon="6.13214">
        <ele>1285.524245802</ele>
        <time>2015-11-10T14:31:52Z</time>
      </trkpt>
      <trkpt lat="45.62198" lon="6.13199">
        <ele>1284.011333716</ele>
        <time>2015-11-10T14:32:07Z</time>
      </trkpt>
      <trkpt lat="45.62187" lon="6.13194">
        <ele>1282.630949422</ele>
        <time>2015-11-10T14:32:12Z</time>
      </trkpt>
      <trkpt lat="45.62186" lon="6.13194">
        <ele>1282.630949422</ele>
        <time>2015-11-10T14:32:17Z</time>
      </trkpt>
      <trkpt lat="45.62185" lon="6.13193">
        <ele>1282.630949422</ele>
        <time>2015-11-10T14:32:23Z</time>
      </trkpt>
      <trkpt lat="45.6217" lon="6.13158">
        <ele>1282.093253316</ele>
        <time>2015-11-10T14:32:37Z</time>
      </trkpt>
      <trkpt lat="45.62159" lon="6.13137">
        <ele>1282.477281636</ele>
        <time>2015-11-10T14:32:53Z</time>
      </trkpt>
      <trkpt lat="45.62157" lon="6.13132">
        <ele>1282.477281636</ele>
        <time>2015-11-10T14:32:57Z</time>
      </trkpt>
      <trkpt lat="45.62144" lon="6.13127">
        <ele>1283.853553832</ele>
        <time>2015-11-10T14:33:07Z</time>
      </trkpt>
      <trkpt lat="45.62138" lon="6.13129">
        <ele>1283.853553832</ele>
        <time>2015-11-10T14:33:12Z</time>
      </trkpt>
      <trkpt lat="45.6213" lon="6.13105">
        <ele>1284.699302783</ele>
        <time>2015-11-10T14:33:27Z</time>
      </trkpt>
      <trkpt lat="45.62129" lon="6.13106">
        <ele>1284.699302783</ele>
        <time>2015-11-10T14:33:32Z</time>
      </trkpt>
      <trkpt lat="45.62114" lon="6.13097">
        <ele>1286.054929984</ele>
        <time>2015-11-10T14:33:43Z</time>
      </trkpt>
      <trkpt lat="45.62109" lon="6.1309">
        <ele>1286.054929984</ele>
        <time>2015-11-10T14:33:47Z</time>
      </trkpt>
      <trkpt lat="45.62101" lon="6.13078">
        <ele>1287.58593769</ele>
        <time>2015-11-10T14:33:57Z</time>
      </trkpt>
      <trkpt lat="45.621" lon="6.13078">
        <ele>1287.58593769</ele>
        <time>2015-11-10T14:34:02Z</time>
      </trkpt>
      <trkpt lat="45.62089" lon="6.13068">
        <ele>1289.126007623</ele>
        <time>2015-11-10T14:34:13Z</time>
      </trkpt>
      <trkpt lat="45.62085" lon="6.13064">
        <ele>1289.126007623</ele>
        <time>2015-11-10T14:34:17Z</time>
      </trkpt>
      <trkpt lat="45.62075" lon="6.13055">
        <ele>1290.809252456</ele>
        <time>2015-11-10T14:34:28Z</time>
      </trkpt>
      <trkpt lat="45.62073" lon="6.1305">
        <ele>1290.809252456</ele>
        <time>2015-11-10T14:34:32Z</time>
      </trkpt>
      <trkpt lat="45.62062" lon="6.13037">
        <ele>1292.327241146</ele>
        <time>2015-11-10T14:34:42Z</time>
      </trkpt>
      <trkpt lat="45.62056" lon="6.1303">
        <ele>1292.327241146</ele>
        <time>2015-11-10T14:34:47Z</time>
      </trkpt>
      <trkpt lat="45.62044" lon="6.13022">
        <ele>1293.971176592</ele>
        <time>2015-11-10T14:34:57Z</time>
      </trkpt>
      <trkpt lat="45.62038" lon="6.13021">
        <ele>1293.971176592</ele>
        <time>2015-11-10T14:35:02Z</time>
      </trkpt>
      <trkpt lat="45.62033" lon="6.13021">
        <ele>1295.86649781</ele>
        <time>2015-11-10T14:35:07Z</time>
      </trkpt>
      <trkpt lat="45.62032" lon="6.13023">
        <ele>1295.86649781</ele>
        <time>2015-11-10T14:35:13Z</time>
      </trkpt>
      <trkpt lat="45.62033" lon="6.13018">
        <ele>1295.86649781</ele>
        <time>2015-11-10T14:35:17Z</time>
      </trkpt>
      <trkpt lat="45.62032" lon="6.13001">
        <ele>1297.840615977</ele>
        <time>2015-11-10T14:35:28Z</time>
      </trkpt>
      <trkpt lat="45.6203" lon="6.12999">
        <ele>1297.840615977</ele>
        <time>2015-11-10T14:35:32Z</time>
      </trkpt>
      <trkpt lat="45.62028" lon="6.12993">
        <ele>1297.840615977</ele>
        <time>2015-11-10T14:35:42Z</time>
      </trkpt>
      <trkpt lat="45.62028" lon="6.12992">
        <ele>1297.840615977</ele>
        <time>2015-11-10T14:35:47Z</time>
      </trkpt>
      <trkpt lat="45.62026" lon="6.12989">
        <ele>1300.165868795</ele>
        <time>2015-11-10T14:35:58Z</time>
      </trkpt>
      <trkpt lat="45.62025" lon="6.12986">
        <ele>1300.165868795</ele>
        <time>2015-11-10T14:36:02Z</time>
      </trkpt>
      <trkpt lat="45.62024" lon="6.12968">
        <ele>1302.949649263</ele>
        <time>2015-11-10T14:36:17Z</time>
      </trkpt>
      <trkpt lat="45.62023" lon="6.12967">
        <ele>1302.949649263</ele>
        <time>2015-11-10T14:36:22Z</time>
      </trkpt>
      <trkpt lat="45.62025" lon="6.12967">
        <ele>1302.949649263</ele>
        <time>2015-11-10T14:36:27Z</time>
      </trkpt>
      <trkpt lat="45.62026" lon="6.12964">
        <ele>1302.949649263</ele>
        <time>2015-11-10T14:36:32Z</time>
      </trkpt>
      <trkpt lat="45.62026" lon="6.12963">
        <ele>1302.949649263</ele>
        <time>2015-11-10T14:36:38Z</time>
      </trkpt>
      <trkpt lat="45.62021" lon="6.1296">
        <ele>1306.578577315</ele>
        <time>2015-11-10T14:36:48Z</time>
      </trkpt>
      <trkpt lat="45.62021" lon="6.12961">
        <ele>1306.578577315</ele>
        <time>2015-11-10T14:36:53Z</time>
      </trkpt>
      <trkpt lat="45.62011" lon="6.12945">
        <ele>1308.382366661</ele>
        <time>2015-11-10T14:37:07Z</time>
      </trkpt>
      <trkpt lat="45.62008" lon="6.12939">
        <ele>1308.382366661</ele>
        <time>2015-11-10T14:37:12Z</time>
      </trkpt>
      <trkpt lat="45.62006" lon="6.1294">
        <ele>1308.382366661</ele>
        <time>2015-11-10T14:37:17Z</time>
      </trkpt>
      <trkpt lat="45.62002" lon="6.12943">
        <ele>1311.080230952</ele>
        <time>2015-11-10T14:37:22Z</time>
      </trkpt>
      <trkpt lat="45.61995" lon="6.12937">
        <ele>1311.080230952</ele>
        <time>2015-11-10T14:37:32Z</time>
      </trkpt>
      <trkpt lat="45.61991" lon="6.12936">
        <ele>1312.721913839</ele>
        <time>2015-11-10T14:37:37Z</time>
      </trkpt>
      <trkpt lat="45.61985" lon="6.12932">
        <ele>1312.721913839</ele>
        <time>2015-11-10T14:37:47Z</time>
      </trkpt>
      <trkpt lat="45.61984" lon="6.1293">
        <ele>1312.721913839</ele>
        <time>2015-11-10T14:37:52Z</time>
      </trkpt>
      <trkpt lat="45.61986" lon="6.12922">
        <ele>1314.097635147</ele>
        <time>2015-11-10T14:38:02Z</time>
      </trkpt>
      <trkpt lat="45.61985" lon="6.12918">
        <ele>1314.097635147</ele>
        <time>2015-11-10T14:38:08Z</time>
      </trkpt>
      <trkpt lat="45.61975" lon="6.12905">
        <ele>1316.372900978</ele>
        <time>2015-11-10T14:38:17Z</time>
      </trkpt>
      <trkpt lat="45.61969" lon="6.12901">
        <ele>1316.372900978</ele>
        <time>2015-11-10T14:38:22Z</time>
      </trkpt>
      <trkpt lat="45.61959" lon="6.12902">
        <ele>1319.472450945</ele>
        <time>2015-11-10T14:38:32Z</time>
      </trkpt>
      <trkpt lat="45.61957" lon="6.12903">
        <ele>1319.472450945</ele>
        <time>2015-11-10T14:38:37Z</time>
      </trkpt>
      <trkpt lat="45.61948" lon="6.12906">
        <ele>1322.315733564</ele>
        <time>2015-11-10T14:38:47Z</time>
      </trkpt>
      <trkpt lat="45.61945" lon="6.12899">
        <ele>1322.315733564</ele>
        <time>2015-11-10T14:38:52Z</time>
      </trkpt>
      <trkpt lat="45.61936" lon="6.12884">
        <ele>1324.334904367</ele>
        <time>2015-11-10T14:39:07Z</time>
      </trkpt>
      <trkpt lat="45.61932" lon="6.12882">
        <ele>1324.334904367</ele>
        <time>2015-11-10T14:39:12Z</time>
      </trkpt>
      <trkpt lat="45.61924" lon="6.12875">
        <ele>1326.879875256</ele>
        <time>2015-11-10T14:39:22Z</time>
      </trkpt>
      <trkpt lat="45.61915" lon="6.12863">
        <ele>1329.326765857</ele>
        <time>2015-11-10T14:39:37Z</time>
      </trkpt>
      <trkpt lat="45.61912" lon="6.12858">
        <ele>1329.326765857</ele>
        <time>2015-11-10T14:39:42Z</time>
      </trkpt>
      <trkpt lat="45.61908" lon="6.12854">
        <ele>1332.106874702</ele>
        <time>2015-11-10T14:39:52Z</time>
      </trkpt>
      <trkpt lat="45.61904" lon="6.12856">
        <ele>1332.106874702</ele>
        <time>2015-11-10T14:39:57Z</time>
      </trkpt>
      <trkpt lat="45.61897" lon="6.12856">
        <ele>1335.042736951</ele>
        <time>2015-11-10T14:40:08Z</time>
      </trkpt>
      <trkpt lat="45.61896" lon="6.12856">
        <ele>1335.042736951</ele>
        <time>2015-11-10T14:40:12Z</time>
      </trkpt>
      <trkpt lat="45.6189" lon="6.12841">
        <ele>1337.249232756</ele>
        <time>2015-11-10T14:40:23Z</time>
      </trkpt>
      <trkpt lat="45.61883" lon="6.12834">
        <ele>1337.249232756</ele>
        <time>2015-11-10T14:40:28Z</time>
      </trkpt>
      <trkpt lat="45.61874" lon="6.12832">
        <ele>1339.493834003</ele>
        <time>2015-11-10T14:40:37Z</time>
      </trkpt>
      <trkpt lat="45.61868" lon="6.12825">
        <ele>1339.493834003</ele>
        <time>2015-11-10T14:40:42Z</time>
      </trkpt>
      <trkpt lat="45.61861" lon="6.12819">
        <ele>1340.902605252</ele>
        <time>2015-11-10T14:40:52Z</time>
      </trkpt>
      <trkpt lat="45.6186" lon="6.12815">
        <ele>1340.902605252</ele>
        <time>2015-11-10T14:40:57Z</time>
      </trkpt>
      <trkpt lat="45.61845" lon="6.12809">
        <ele>1344.127121136</ele>
        <time>2015-11-10T14:41:08Z</time>
      </trkpt>
      <trkpt lat="45.61839" lon="6.12808">
        <ele>1344.127121136</ele>
        <time>2015-11-10T14:41:12Z</time>
      </trkpt>
      <trkpt lat="45.61834" lon="6.12806">
        <ele>1347.00781725</ele>
        <time>2015-11-10T14:41:17Z</time>
      </trkpt>
      <trkpt lat="45.6183" lon="6.12806">
        <ele>1347.00781725</ele>
        <time>2015-11-10T14:41:22Z</time>
      </trkpt>
      <trkpt lat="45.61829" lon="6.12805">
        <ele>1347.00781725</ele>
        <time>2015-11-10T14:41:27Z</time>
      </trkpt>
      <trkpt lat="45.61828" lon="6.12805">
        <ele>1347.00781725</ele>
        <time>2015-11-10T14:41:32Z</time>
      </trkpt>
      <trkpt lat="45.61828" lon="6.12805">
        <ele>1347.00781725</ele>
        <time>2015-11-10T14:41:37Z</time>
      </trkpt>
      <trkpt lat="45.61826" lon="6.12796">
        <ele>1350.427250997</ele>
        <time>2015-11-10T14:41:47Z</time>
      </trkpt>
      <trkpt lat="45.61825" lon="6.12792">
        <ele>1350.427250997</ele>
        <time>2015-11-10T14:41:52Z</time>
      </trkpt>
      <trkpt lat="45.61822" lon="6.1279">
        <ele>1350.427250997</ele>
        <time>2015-11-10T14:41:57Z</time>
      </trkpt>
      <trkpt lat="45.61821" lon="6.12791">
        <ele>1350.427250997</ele>
        <time>2015-11-10T14:42:02Z</time>
      </trkpt>
      <trkpt lat="45.61816" lon="6.12789">
        <ele>1354.337264039</ele>
        <time>2015-11-10T14:42:07Z</time>
      </trkpt>
      <trkpt lat="45.61815" lon="6.12787">
        <ele>1354.337264039</ele>
        <time>2015-11-10T14:42:12Z</time>
      </trkpt>
      <trkpt lat="45.61808" lon="6.12787">
        <ele>1354.337264039</ele>
        <time>2015-11-10T14:42:17Z</time>
      </trkpt>
      <trkpt lat="45.61804" lon="6.12785">
        <ele>1357.53926734</ele>
        <time>2015-11-10T14:42:22Z</time>
      </trkpt>
      <trkpt lat="45.61802" lon="6.12784">
        <ele>1357.53926734</ele>
        <time>2015-11-10T14:42:27Z</time>
      </trkpt>
      <trkpt lat="45.61801" lon="6.12785">
        <ele>1357.53926734</ele>
        <time>2015-11-10T14:42:32Z</time>
      </trkpt>
      <trkpt lat="45.61801" lon="6.12785">
        <ele>1357.53926734</ele>
        <time>2015-11-10T14:42:37Z</time>
      </trkpt>
      <trkpt lat="45.61801" lon="6.12785">
        <ele>1357.53926734</ele>
        <time>2015-11-10T14:42:42Z</time>
      </trkpt>
      <trkpt lat="45.61801" lon="6.12785">
        <ele>1357.53926734</ele>
        <time>2015-11-10T14:42:47Z</time>
      </trkpt>
      <trkpt lat="45.61796" lon="6.12784">
        <ele>1357.53926734</ele>
        <time>2015-11-10T14:42:52Z</time>
      </trkpt>
      <trkpt lat="45.6178" lon="6.12779">
        <ele>1361.086672975</ele>
        <time>2015-11-10T14:43:02Z</time>
      </trkpt>
      <trkpt lat="45.61775" lon="6.12776">
        <ele>1361.086672975</ele>
        <time>2015-11-10T14:43:08Z</time>
      </trkpt>
      <trkpt lat="45.61761" lon="6.1276">
        <ele>1364.225508346</ele>
        <time>2015-11-10T14:43:17Z</time>
      </trkpt>
      <trkpt lat="45.6175" lon="6.12749">
        <ele>1366.546855535</ele>
        <time>2015-11-10T14:43:23Z</time>
      </trkpt>
      <trkpt lat="45.61734" lon="6.12739">
        <ele>1368.971424756</ele>
        <time>2015-11-10T14:43:32Z</time>
      </trkpt>
      <trkpt lat="45.61726" lon="6.12732">
        <ele>1368.971424756</ele>
        <time>2015-11-10T14:43:37Z</time>
      </trkpt>
      <trkpt lat="45.61712" lon="6.12715">
        <ele>1371.919957918</ele>
        <time>2015-11-10T14:43:48Z</time>
      </trkpt>
      <trkpt lat="45.61709" lon="6.1271">
        <ele>1371.919957918</ele>
        <time>2015-11-10T14:43:52Z</time>
      </trkpt>
      <trkpt lat="45.61689" lon="6.12695">
        <ele>1375.060546127</ele>
        <time>2015-11-10T14:44:07Z</time>
      </trkpt>
      <trkpt lat="45.61673" lon="6.12679">
        <ele>1377.941287178</ele>
        <time>2015-11-10T14:44:22Z</time>
      </trkpt>
      <trkpt lat="45.61666" lon="6.12671">
        <ele>1380.43269415</ele>
        <time>2015-11-10T14:44:27Z</time>
      </trkpt>
      <trkpt lat="45.61646" lon="6.12666">
        <ele>1382.560254934</ele>
        <time>2015-11-10T14:44:38Z</time>
      </trkpt>
      <trkpt lat="45.61641" lon="6.12663">
        <ele>1382.560254934</ele>
        <time>2015-11-10T14:44:42Z</time>
      </trkpt>
      <trkpt lat="45.61633" lon="6.12645">
        <ele>1384.637077631</ele>
        <time>2015-11-10T14:44:52Z</time>
      </trkpt>
      <trkpt lat="45.61628" lon="6.12638">
        <ele>1384.637077631</ele>
        <time>2015-11-10T14:44:57Z</time>
      </trkpt>
      <trkpt lat="45.61619" lon="6.12625">
        <ele>1385.800758665</ele>
        <time>2015-11-10T14:45:07Z</time>
      </trkpt>
      <trkpt lat="45.61613" lon="6.1262">
        <ele>1385.800758665</ele>
        <time>2015-11-10T14:45:12Z</time>
      </trkpt>
      <trkpt lat="45.61576" lon="6.12609">
        <ele>1386.407916454</ele>
        <time>2015-11-10T14:45:27Z</time>
      </trkpt>
      <trkpt lat="45.61553" lon="6.12594">
        <ele>1387.943624668</ele>
        <time>2015-11-10T14:45:37Z</time>
      </trkpt>
      <trkpt lat="45.61544" lon="6.12585">
        <ele>1389.043329511</ele>
        <time>2015-11-10T14:45:43Z</time>
      </trkpt>
      <trkpt lat="45.61536" lon="6.12578">
        <ele>1389.043329511</ele>
        <time>2015-11-10T14:45:47Z</time>
      </trkpt>
      <trkpt lat="45.61522" lon="6.1257">
        <ele>1390.173436289</ele>
        <time>2015-11-10T14:45:57Z</time>
      </trkpt>
      <trkpt lat="45.61519" lon="6.12565">
        <ele>1390.173436289</ele>
        <time>2015-11-10T14:46:02Z</time>
      </trkpt>
      <trkpt lat="45.61506" lon="6.12556">
        <ele>1391.333814084</ele>
        <time>2015-11-10T14:46:12Z</time>
      </trkpt>
      <trkpt lat="45.615" lon="6.12553">
        <ele>1391.333814084</ele>
        <time>2015-11-10T14:46:17Z</time>
      </trkpt>
      <trkpt lat="45.61495" lon="6.12534">
        <ele>1392.380272947</ele>
        <time>2015-11-10T14:46:27Z</time>
      </trkpt>
      <trkpt lat="45.6149" lon="6.12534">
        <ele>1392.380272947</ele>
        <time>2015-11-10T14:46:32Z</time>
      </trkpt>
      <trkpt lat="45.61481" lon="6.12538">
        <ele>1393.467867751</ele>
        <time>2015-11-10T14:46:42Z</time>
      </trkpt>
      <trkpt lat="45.61477" lon="6.12537">
        <ele>1393.467867751</ele>
        <time>2015-11-10T14:46:47Z</time>
      </trkpt>
      <trkpt lat="45.61464" lon="6.12536">
        <ele>1395.172577331</ele>
        <time>2015-11-10T14:46:57Z</time>
      </trkpt>
      <trkpt lat="45.61459" lon="6.12535">
        <ele>1395.172577331</ele>
        <time>2015-11-10T14:47:02Z</time>
      </trkpt>
      <trkpt lat="45.6144" lon="6.12537">
        <ele>1397.017643304</ele>
        <time>2015-11-10T14:47:12Z</time>
      </trkpt>
      <trkpt lat="45.61436" lon="6.12533">
        <ele>1397.017643304</ele>
        <time>2015-11-10T14:47:17Z</time>
      </trkpt>
      <trkpt lat="45.61423" lon="6.12525">
        <ele>1398.128673576</ele>
        <time>2015-11-10T14:47:28Z</time>
      </trkpt>
      <trkpt lat="45.61418" lon="6.12519">
        <ele>1398.128673576</ele>
        <time>2015-11-10T14:47:32Z</time>
      </trkpt>
      <trkpt lat="45.61401" lon="6.12504">
        <ele>1397.84173668</ele>
        <time>2015-11-10T14:47:42Z</time>
      </trkpt>
      <trkpt lat="45.61397" lon="6.12504">
        <ele>1397.84173668</ele>
        <time>2015-11-10T14:47:47Z</time>
      </trkpt>
      <trkpt lat="45.61401" lon="6.12498">
        <ele>1398.283751615</ele>
        <time>2015-11-10T14:48:02Z</time>
      </trkpt>
      <trkpt lat="45.61401" lon="6.12498">
        <ele>1398.283751615</ele>
        <time>2015-11-10T14:48:07Z</time>
      </trkpt>
      <trkpt lat="45.61401" lon="6.12498">
        <ele>1398.283751615</ele>
        <time>2015-11-10T14:48:13Z</time>
      </trkpt>
      <trkpt lat="45.61401" lon="6.12498">
        <ele>1398.283751615</ele>
        <time>2015-11-10T14:48:17Z</time>
      </trkpt>
      <trkpt lat="45.61401" lon="6.12498">
        <ele>1398.283751615</ele>
        <time>2015-11-10T14:48:22Z</time>
      </trkpt>
      <trkpt lat="45.61395" lon="6.12493">
        <ele>1398.283751615</ele>
        <time>2015-11-10T14:48:32Z</time>
      </trkpt>
      <trkpt lat="45.61389" lon="6.12493">
        <ele>1398.685266931</ele>
        <time>2015-11-10T14:48:38Z</time>
      </trkpt>
      <trkpt lat="45.61374" lon="6.1249">
        <ele>1399.198147336</ele>
        <time>2015-11-10T14:48:48Z</time>
      </trkpt>
      <trkpt lat="45.6137" lon="6.12493">
        <ele>1399.198147336</ele>
        <time>2015-11-10T14:48:52Z</time>
      </trkpt>
      <trkpt lat="45.61361" lon="6.12503">
        <ele>1399.962785882</ele>
        <time>2015-11-10T14:49:02Z</time>
      </trkpt>
      <trkpt lat="45.6136" lon="6.12506">
        <ele>1399.962785882</ele>
        <time>2015-11-10T14:49:07Z</time>
      </trkpt>
      <trkpt lat="45.61346" lon="6.12494">
        <ele>1400.243872181</ele>
        <time>2015-11-10T14:49:22Z</time>
      </trkpt>
      <trkpt lat="45.61339" lon="6.12483">
        <ele>1400.081993391</ele>
        <time>2015-11-10T14:49:27Z</time>
      </trkpt>
      <trkpt lat="45.61332" lon="6.12466">
        <ele>1399.371842314</ele>
        <time>2015-11-10T14:49:32Z</time>
      </trkpt>
      <trkpt lat="45.61325" lon="6.12458">
        <ele>1398.593770723</ele>
        <time>2015-11-10T14:49:37Z</time>
      </trkpt>
      <trkpt lat="45.61298" lon="6.12451">
        <ele>1398.192958999</ele>
        <time>2015-11-10T14:49:48Z</time>
      </trkpt>
      <trkpt lat="45.61289" lon="6.1245">
        <ele>1398.192958999</ele>
        <time>2015-11-10T14:49:52Z</time>
      </trkpt>
      <trkpt lat="45.61277" lon="6.12444">
        <ele>1397.716067926</ele>
        <time>2015-11-10T14:49:57Z</time>
      </trkpt>
      <trkpt lat="45.61247" lon="6.12436">
        <ele>1396.166720911</ele>
        <time>2015-11-10T14:50:08Z</time>
      </trkpt>
      <trkpt lat="45.61236" lon="6.12435">
        <ele>1394.20984118</ele>
        <time>2015-11-10T14:50:12Z</time>
      </trkpt>
      <trkpt lat="45.6121" lon="6.12425">
        <ele>1391.886062844</ele>
        <time>2015-11-10T14:50:23Z</time>
      </trkpt>
      <trkpt lat="45.61199" lon="6.12419">
        <ele>1389.954458212</ele>
        <time>2015-11-10T14:50:27Z</time>
      </trkpt>
      <trkpt lat="45.61175" lon="6.12407">
        <ele>1388.684724487</ele>
        <time>2015-11-10T14:50:37Z</time>
      </trkpt>
      <trkpt lat="45.61165" lon="6.12405">
        <ele>1387.604138247</ele>
        <time>2015-11-10T14:50:42Z</time>
      </trkpt>
      <trkpt lat="45.61154" lon="6.12389">
        <ele>1385.841628394</ele>
        <time>2015-11-10T14:50:57Z</time>
      </trkpt>
      <trkpt lat="45.61122" lon="6.12386">
        <ele>1383.744694081</ele>
        <time>2015-11-10T14:51:13Z</time>
      </trkpt>
      <trkpt lat="45.61111" lon="6.12381">
        <ele>1382.356572168</ele>
        <time>2015-11-10T14:51:18Z</time>
      </trkpt>
      <trkpt lat="45.61097" lon="6.12377">
        <ele>1381.488749666</ele>
        <time>2015-11-10T14:51:27Z</time>
      </trkpt>
      <trkpt lat="45.61093" lon="6.12379">
        <ele>1381.488749666</ele>
        <time>2015-11-10T14:51:32Z</time>
      </trkpt>
      <trkpt lat="45.61094" lon="6.12381">
        <ele>1381.488749666</ele>
        <time>2015-11-10T14:51:42Z</time>
      </trkpt>
      <trkpt lat="45.61095" lon="6.1238">
        <ele>1381.488749666</ele>
        <time>2015-11-10T14:51:47Z</time>
      </trkpt>
      <trkpt lat="45.61076" lon="6.12376">
        <ele>1379.667857885</ele>
        <time>2015-11-10T14:51:57Z</time>
      </trkpt>
      <trkpt lat="45.61065" lon="6.12375">
        <ele>1377.98107586</ele>
        <time>2015-11-10T14:52:02Z</time>
      </trkpt>
      <trkpt lat="45.6104" lon="6.12374">
        <ele>1375.993978616</ele>
        <time>2015-11-10T14:52:14Z</time>
      </trkpt>
      <trkpt lat="45.61028" lon="6.12377">
        <ele>1374.45752947</ele>
        <time>2015-11-10T14:52:17Z</time>
      </trkpt>
      <trkpt lat="45.61006" lon="6.12382">
        <ele>1372.624890401</ele>
        <time>2015-11-10T14:52:27Z</time>
      </trkpt>
      <trkpt lat="45.60993" lon="6.12373">
        <ele>1370.66932039</ele>
        <time>2015-11-10T14:52:33Z</time>
      </trkpt>
      <trkpt lat="45.60974" lon="6.12355">
        <ele>1368.607318941</ele>
        <time>2015-11-10T14:52:42Z</time>
      </trkpt>
      <trkpt lat="45.6096" lon="6.12346">
        <ele>1366.598315829</ele>
        <time>2015-11-10T14:52:48Z</time>
      </trkpt>
      <trkpt lat="45.6093" lon="6.12334">
        <ele>1365.366057506</ele>
        <time>2015-11-10T14:53:02Z</time>
      </trkpt>
      <trkpt lat="45.60922" lon="6.12325">
        <ele>1363.705233167</ele>
        <time>2015-11-10T14:53:07Z</time>
      </trkpt>
      <trkpt lat="45.609" lon="6.1232">
        <ele>1361.076453902</ele>
        <time>2015-11-10T14:53:17Z</time>
      </trkpt>
      <trkpt lat="45.60891" lon="6.12316">
        <ele>1361.076453902</ele>
        <time>2015-11-10T14:53:22Z</time>
      </trkpt>
      <trkpt lat="45.60881" lon="6.12289">
        <ele>1356.982401245</ele>
        <time>2015-11-10T14:53:33Z</time>
      </trkpt>
      <trkpt lat="45.60869" lon="6.12282">
        <ele>1353.416018067</ele>
        <time>2015-11-10T14:53:38Z</time>
      </trkpt>
      <trkpt lat="45.60845" lon="6.12277">
        <ele>1351.501534538</ele>
        <time>2015-11-10T14:53:48Z</time>
      </trkpt>
      <trkpt lat="45.60838" lon="6.12275">
        <ele>1351.501534538</ele>
        <time>2015-11-10T14:53:52Z</time>
      </trkpt>
      <trkpt lat="45.60827" lon="6.12266">
        <ele>1349.681680256</ele>
        <time>2015-11-10T14:54:02Z</time>
      </trkpt>
      <trkpt lat="45.60823" lon="6.12264">
        <ele>1349.681680256</ele>
        <time>2015-11-10T14:54:07Z</time>
      </trkpt>
      <trkpt lat="45.60822" lon="6.12264">
        <ele>1349.681680256</ele>
        <time>2015-11-10T14:54:12Z</time>
      </trkpt>
      <trkpt lat="45.60822" lon="6.12264">
        <ele>1349.681680256</ele>
        <time>2015-11-10T14:54:17Z</time>
      </trkpt>
      <trkpt lat="45.60819" lon="6.12259">
        <ele>1348.24236966</ele>
        <time>2015-11-10T14:54:22Z</time>
      </trkpt>
      <trkpt lat="45.60796" lon="6.12235">
        <ele>1346.726616622</ele>
        <time>2015-11-10T14:54:38Z</time>
      </trkpt>
      <trkpt lat="45.60789" lon="6.12217">
        <ele>1344.99917653</ele>
        <time>2015-11-10T14:54:42Z</time>
      </trkpt>
      <trkpt lat="45.60775" lon="6.12202">
        <ele>1343.079188715</ele>
        <time>2015-11-10T14:54:52Z</time>
      </trkpt>
      <trkpt lat="45.60761" lon="6.12192">
        <ele>1340.984679225</ele>
        <time>2015-11-10T14:54:58Z</time>
      </trkpt>
      <trkpt lat="45.60739" lon="6.12183">
        <ele>1339.309044947</ele>
        <time>2015-11-10T14:55:08Z</time>
      </trkpt>
      <trkpt lat="45.60729" lon="6.12177">
        <ele>1337.303684689</ele>
        <time>2015-11-10T14:55:13Z</time>
      </trkpt>
      <trkpt lat="45.6071" lon="6.12157">
        <ele>1335.284467513</ele>
        <time>2015-11-10T14:55:22Z</time>
      </trkpt>
      <trkpt lat="45.60699" lon="6.1215">
        <ele>1333.976215105</ele>
        <time>2015-11-10T14:55:28Z</time>
      </trkpt>
      <trkpt lat="45.60682" lon="6.12146">
        <ele>1332.895413915</ele>
        <time>2015-11-10T14:55:37Z</time>
      </trkpt>
      <trkpt lat="45.60675" lon="6.1214">
        <ele>1332.895413915</ele>
        <time>2015-11-10T14:55:42Z</time>
      </trkpt>
      <trkpt lat="45.60653" lon="6.12135">
        <ele>1332.169680685</ele>
        <time>2015-11-10T14:55:52Z</time>
      </trkpt>
      <trkpt lat="45.60646" lon="6.12128">
        <ele>1332.169680685</ele>
        <time>2015-11-10T14:55:58Z</time>
      </trkpt>
      <trkpt lat="45.60628" lon="6.12117">
        <ele>1331.916080908</ele>
        <time>2015-11-10T14:56:07Z</time>
      </trkpt>
      <trkpt lat="45.60622" lon="6.12113">
        <ele>1331.916080908</ele>
        <time>2015-11-10T14:56:13Z</time>
      </trkpt>
      <trkpt lat="45.60604" lon="6.12093">
        <ele>1331.521036069</ele>
        <time>2015-11-10T14:56:23Z</time>
      </trkpt>
      <trkpt lat="45.60592" lon="6.12087">
        <ele>1331.28095813</ele>
        <time>2015-11-10T14:56:27Z</time>
      </trkpt>
      <trkpt lat="45.60574" lon="6.12075">
        <ele>1331.902256771</ele>
        <time>2015-11-10T14:56:38Z</time>
      </trkpt>
      <trkpt lat="45.60565" lon="6.12076">
        <ele>1332.73992625</ele>
        <time>2015-11-10T14:56:42Z</time>
      </trkpt>
      <trkpt lat="45.60546" lon="6.12072">
        <ele>1334.204430417</ele>
        <time>2015-11-10T14:56:52Z</time>
      </trkpt>
      <trkpt lat="45.60536" lon="6.12067">
        <ele>1335.377262367</ele>
        <time>2015-11-10T14:56:57Z</time>
      </trkpt>
      <trkpt lat="45.60514" lon="6.12061">
        <ele>1336.561061201</ele>
        <time>2015-11-10T14:57:08Z</time>
      </trkpt>
      <trkpt lat="45.60506" lon="6.12061">
        <ele>1336.561061201</ele>
        <time>2015-11-10T14:57:12Z</time>
      </trkpt>
      <trkpt lat="45.60492" lon="6.12056">
        <ele>1338.468527796</ele>
        <time>2015-11-10T14:57:22Z</time>
      </trkpt>
      <trkpt lat="45.60491" lon="6.12057">
        <ele>1338.468527796</ele>
        <time>2015-11-10T14:57:27Z</time>
      </trkpt>
      <trkpt lat="45.60474" lon="6.12047">
        <ele>1340.31688193</ele>
        <time>2015-11-10T14:57:38Z</time>
      </trkpt>
      <trkpt lat="45.60462" lon="6.1204">
        <ele>1341.957494993</ele>
        <time>2015-11-10T14:57:43Z</time>
      </trkpt>
      <trkpt lat="45.60433" lon="6.12025">
        <ele>1343.829745373</ele>
        <time>2015-11-10T14:57:58Z</time>
      </trkpt>
      <trkpt lat="45.6042" lon="6.12023">
        <ele>1345.619612256</ele>
        <time>2015-11-10T14:58:03Z</time>
      </trkpt>
      <trkpt lat="45.60405" lon="6.1202">
        <ele>1347.612921168</ele>
        <time>2015-11-10T14:58:13Z</time>
      </trkpt>
      <trkpt lat="45.60396" lon="6.12015">
        <ele>1349.785829419</ele>
        <time>2015-11-10T14:58:17Z</time>
      </trkpt>
      <trkpt lat="45.60382" lon="6.12004">
        <ele>1351.683547044</ele>
        <time>2015-11-10T14:58:27Z</time>
      </trkpt>
      <trkpt lat="45.60377" lon="6.12005">
        <ele>1351.683547044</ele>
        <time>2015-11-10T14:58:33Z</time>
      </trkpt>
      <trkpt lat="45.60359" lon="6.11993">
        <ele>1354.61495479</ele>
        <time>2015-11-10T14:58:42Z</time>
      </trkpt>
      <trkpt lat="45.6035" lon="6.11989">
        <ele>1354.61495479</ele>
        <time>2015-11-10T14:58:47Z</time>
      </trkpt>
      <trkpt lat="45.60337" lon="6.11978">
        <ele>1357.772501348</ele>
        <time>2015-11-10T14:58:58Z</time>
      </trkpt>
      <trkpt lat="45.60332" lon="6.11977">
        <ele>1357.772501348</ele>
        <time>2015-11-10T14:59:02Z</time>
      </trkpt>
      <trkpt lat="45.60327" lon="6.11973">
        <ele>1360.407513888</ele>
        <time>2015-11-10T14:59:07Z</time>
      </trkpt>
      <trkpt lat="45.60319" lon="6.11972">
        <ele>1360.407513888</ele>
        <time>2015-11-10T14:59:12Z</time>
      </trkpt>
      <trkpt lat="45.60309" lon="6.11968">
        <ele>1362.98087886</ele>
        <time>2015-11-10T14:59:23Z</time>
      </trkpt>
      <trkpt lat="45.60306" lon="6.11962">
        <ele>1362.98087886</ele>
        <time>2015-11-10T14:59:27Z</time>
      </trkpt>
      <trkpt lat="45.603" lon="6.11961">
        <ele>1365.487687834</ele>
        <time>2015-11-10T14:59:32Z</time>
      </trkpt>
      <trkpt lat="45.6029" lon="6.11948">
        <ele>1367.059145492</ele>
        <time>2015-11-10T14:59:43Z</time>
      </trkpt>
      <trkpt lat="45.60284" lon="6.11939">
        <ele>1367.059145492</ele>
        <time>2015-11-10T14:59:47Z</time>
      </trkpt>
      <trkpt lat="45.60268" lon="6.11934">
        <ele>1369.487143926</ele>
        <time>2015-11-10T14:59:57Z</time>
      </trkpt>
      <trkpt lat="45.60263" lon="6.11928">
        <ele>1369.487143926</ele>
        <time>2015-11-10T15:00:02Z</time>
      </trkpt>
      <trkpt lat="45.60251" lon="6.11911">
        <ele>1372.412232935</ele>
        <time>2015-11-10T15:00:14Z</time>
      </trkpt>
      <trkpt lat="45.60243" lon="6.11908">
        <ele>1372.412232935</ele>
        <time>2015-11-10T15:00:17Z</time>
      </trkpt>
      <trkpt lat="45.60233" lon="6.11895">
        <ele>1376.220784573</ele>
        <time>2015-11-10T15:00:27Z</time>
      </trkpt>
      <trkpt lat="45.60228" lon="6.11889">
        <ele>1376.220784573</ele>
        <time>2015-11-10T15:00:33Z</time>
      </trkpt>
      <trkpt lat="45.60223" lon="6.11873">
        <ele>1380.403908373</ele>
        <time>2015-11-10T15:00:42Z</time>
      </trkpt>
      <trkpt lat="45.60218" lon="6.11868">
        <ele>1380.403908373</ele>
        <time>2015-11-10T15:00:47Z</time>
      </trkpt>
      <trkpt lat="45.60209" lon="6.11862">
        <ele>1384.777546615</ele>
        <time>2015-11-10T15:00:57Z</time>
      </trkpt>
      <trkpt lat="45.60206" lon="6.11858">
        <ele>1384.777546615</ele>
        <time>2015-11-10T15:01:02Z</time>
      </trkpt>
      <trkpt lat="45.60197" lon="6.11856">
        <ele>1389.026809435</ele>
        <time>2015-11-10T15:01:12Z</time>
      </trkpt>
      <trkpt lat="45.60194" lon="6.11848">
        <ele>1389.026809435</ele>
        <time>2015-11-10T15:01:17Z</time>
      </trkpt>
      <trkpt lat="45.60191" lon="6.11837">
        <ele>1392.860593988</ele>
        <time>2015-11-10T15:01:28Z</time>
      </trkpt>
      <trkpt lat="45.60183" lon="6.11838">
        <ele>1392.860593988</ele>
        <time>2015-11-10T15:01:32Z</time>
      </trkpt>
      <trkpt lat="45.60176" lon="6.11832">
        <ele>1397.451778546</ele>
        <time>2015-11-10T15:01:42Z</time>
      </trkpt>
      <trkpt lat="45.60169" lon="6.11829">
        <ele>1397.451778546</ele>
        <time>2015-11-10T15:01:48Z</time>
      </trkpt>
      <trkpt lat="45.60161" lon="6.11809">
        <ele>1401.435397877</ele>
        <time>2015-11-10T15:01:58Z</time>
      </trkpt>
      <trkpt lat="45.60155" lon="6.11801">
        <ele>1401.435397877</ele>
        <time>2015-11-10T15:02:02Z</time>
      </trkpt>
      <trkpt lat="45.60149" lon="6.11793">
        <ele>1405.134021325</ele>
        <time>2015-11-10T15:02:12Z</time>
      </trkpt>
      <trkpt lat="45.60142" lon="6.11789">
        <ele>1405.134021325</ele>
        <time>2015-11-10T15:02:17Z</time>
      </trkpt>
      <trkpt lat="45.60133" lon="6.11777">
        <ele>1408.991776718</ele>
        <time>2015-11-10T15:02:27Z</time>
      </trkpt>
      <trkpt lat="45.60131" lon="6.11769">
        <ele>1408.991776718</ele>
        <time>2015-11-10T15:02:32Z</time>
      </trkpt>
      <trkpt lat="45.60128" lon="6.11767">
        <ele>1408.991776718</ele>
        <time>2015-11-10T15:02:43Z</time>
      </trkpt>
      <trkpt lat="45.60128" lon="6.11766">
        <ele>1413.420068401</ele>
        <time>2015-11-10T15:02:47Z</time>
      </trkpt>
      <trkpt lat="45.60128" lon="6.11767">
        <ele>1413.420068401</ele>
        <time>2015-11-10T15:02:52Z</time>
      </trkpt>
      <trkpt lat="45.60128" lon="6.11767">
        <ele>1413.420068401</ele>
        <time>2015-11-10T15:02:57Z</time>
      </trkpt>
      <trkpt lat="45.60128" lon="6.11767">
        <ele>1413.420068401</ele>
        <time>2015-11-10T15:03:12Z</time>
      </trkpt>
      <trkpt lat="45.60126" lon="6.11768">
        <ele>1413.420068401</ele>
        <time>2015-11-10T15:03:17Z</time>
      </trkpt>
      <trkpt lat="45.60118" lon="6.1176">
        <ele>1417.501828885</ele>
        <time>2015-11-10T15:03:28Z</time>
      </trkpt>
      <trkpt lat="45.60104" lon="6.11749">
        <ele>1422.406240316</ele>
        <time>2015-11-10T15:03:42Z</time>
      </trkpt>
      <trkpt lat="45.60098" lon="6.11747">
        <ele>1422.406240316</ele>
        <time>2015-11-10T15:03:47Z</time>
      </trkpt>
      <trkpt lat="45.60087" lon="6.11744">
        <ele>1427.773536374</ele>
        <time>2015-11-10T15:03:57Z</time>
      </trkpt>
      <trkpt lat="45.60084" lon="6.11743">
        <ele>1427.773536374</ele>
        <time>2015-11-10T15:04:02Z</time>
      </trkpt>
      <trkpt lat="45.60079" lon="6.1174">
        <ele>1427.773536374</ele>
        <time>2015-11-10T15:04:12Z</time>
      </trkpt>
      <trkpt lat="45.60077" lon="6.11736">
        <ele>1431.972441748</ele>
        <time>2015-11-10T15:04:18Z</time>
      </trkpt>
      <trkpt lat="45.60071" lon="6.11733">
        <ele>1431.972441748</ele>
        <time>2015-11-10T15:04:27Z</time>
      </trkpt>
      <trkpt lat="45.60064" lon="6.11732">
        <ele>1436.665602274</ele>
        <time>2015-11-10T15:04:32Z</time>
      </trkpt>
      <trkpt lat="45.60056" lon="6.11732">
        <ele>1436.665602274</ele>
        <time>2015-11-10T15:04:42Z</time>
      </trkpt>
      <trkpt lat="45.60054" lon="6.11732">
        <ele>1441.663174481</ele>
        <time>2015-11-10T15:04:47Z</time>
      </trkpt>
      <trkpt lat="45.60054" lon="6.11731">
        <ele>1441.663174481</ele>
        <time>2015-11-10T15:04:57Z</time>
      </trkpt>
      <trkpt lat="45.60054" lon="6.11731">
        <ele>1441.663174481</ele>
        <time>2015-11-10T15:05:02Z</time>
      </trkpt>
      <trkpt lat="45.60049" lon="6.11731">
        <ele>1441.663174481</ele>
        <time>2015-11-10T15:05:12Z</time>
      </trkpt>
      <trkpt lat="45.60044" lon="6.11731">
        <ele>1445.924107955</ele>
        <time>2015-11-10T15:05:18Z</time>
      </trkpt>
      <trkpt lat="45.60038" lon="6.1173">
        <ele>1445.924107955</ele>
        <time>2015-11-10T15:05:27Z</time>
      </trkpt>
      <trkpt lat="45.60033" lon="6.1173">
        <ele>1449.927371127</ele>
        <time>2015-11-10T15:05:32Z</time>
      </trkpt>
      <trkpt lat="45.60034" lon="6.11732">
        <ele>1449.927371127</ele>
        <time>2015-11-10T15:05:44Z</time>
      </trkpt>
      <trkpt lat="45.60033" lon="6.11732">
        <ele>1449.927371127</ele>
        <time>2015-11-10T15:05:47Z</time>
      </trkpt>
      <trkpt lat="45.6003" lon="6.11733">
        <ele>1449.927371127</ele>
        <time>2015-11-10T15:05:52Z</time>
      </trkpt>
      <trkpt lat="45.60021" lon="6.11733">
        <ele>1454.261944012</ele>
        <time>2015-11-10T15:06:03Z</time>
      </trkpt>
      <trkpt lat="45.60017" lon="6.11731">
        <ele>1454.261944012</ele>
        <time>2015-11-10T15:06:07Z</time>
      </trkpt>
      <trkpt lat="45.60001" lon="6.11727">
        <ele>1458.896523855</ele>
        <time>2015-11-10T15:06:17Z</time>
      </trkpt>
      <trkpt lat="45.59994" lon="6.11722">
        <ele>1458.896523855</ele>
        <time>2015-11-10T15:06:23Z</time>
      </trkpt>
      <trkpt lat="45.5998" lon="6.11721">
        <ele>1463.225172001</ele>
        <time>2015-11-10T15:06:32Z</time>
      </trkpt>
      <trkpt lat="45.59977" lon="6.11722">
        <ele>1463.225172001</ele>
        <time>2015-11-10T15:06:37Z</time>
      </trkpt>
      <trkpt lat="45.5997" lon="6.11724">
        <ele>1467.840554055</ele>
        <time>2015-11-10T15:06:42Z</time>
      </trkpt>
      <trkpt lat="45.59964" lon="6.11722">
        <ele>1467.840554055</ele>
        <time>2015-11-10T15:06:47Z</time>
      </trkpt>
      <trkpt lat="45.59957" lon="6.1172">
        <ele>1472.282554842</ele>
        <time>2015-11-10T15:06:52Z</time>
      </trkpt>
      <trkpt lat="45.59953" lon="6.11719">
        <ele>1472.282554842</ele>
        <time>2015-11-10T15:06:57Z</time>
      </trkpt>
      <trkpt lat="45.59949" lon="6.11715">
        <ele>1475.83745355</ele>
        <time>2015-11-10T15:07:02Z</time>
      </trkpt>
      <trkpt lat="45.59943" lon="6.11709">
        <ele>1475.83745355</ele>
        <time>2015-11-10T15:07:07Z</time>
      </trkpt>
      <trkpt lat="45.59931" lon="6.11707">
        <ele>1479.287879574</ele>
        <time>2015-11-10T15:07:17Z</time>
      </trkpt>
      <trkpt lat="45.59924" lon="6.11704">
        <ele>1479.287879574</ele>
        <time>2015-11-10T15:07:22Z</time>
      </trkpt>
      <trkpt lat="45.5991" lon="6.11696">
        <ele>1482.783127561</ele>
        <time>2015-11-10T15:07:33Z</time>
      </trkpt>
      <trkpt lat="45.599" lon="6.11695">
        <ele>1484.01179961</ele>
        <time>2015-11-10T15:07:38Z</time>
      </trkpt>
      <trkpt lat="45.59888" lon="6.1169">
        <ele>1486.171032986</ele>
        <time>2015-11-10T15:07:47Z</time>
      </trkpt>
      <trkpt lat="45.59882" lon="6.11687">
        <ele>1486.171032986</ele>
        <time>2015-11-10T15:07:52Z</time>
      </trkpt>
      <trkpt lat="45.59863" lon="6.11681">
        <ele>1488.185628205</ele>
        <time>2015-11-10T15:08:07Z</time>
      </trkpt>
      <trkpt lat="45.59858" lon="6.11679">
        <ele>1488.185628205</ele>
        <time>2015-11-10T15:08:12Z</time>
      </trkpt>
      <trkpt lat="45.5985" lon="6.1167">
        <ele>1489.780551269</ele>
        <time>2015-11-10T15:08:22Z</time>
      </trkpt>
      <trkpt lat="45.5985" lon="6.1167">
        <ele>1489.780551269</ele>
        <time>2015-11-10T15:08:27Z</time>
      </trkpt>
      <trkpt lat="45.5985" lon="6.1167">
        <ele>1489.780551269</ele>
        <time>2015-11-10T15:08:32Z</time>
      </trkpt>
      <trkpt lat="45.5985" lon="6.1167">
        <ele>1489.780551269</ele>
        <time>2015-11-10T15:08:37Z</time>
      </trkpt>
      <trkpt lat="45.5985" lon="6.1167">
        <ele>1489.780551269</ele>
        <time>2015-11-10T15:08:42Z</time>
      </trkpt>
      <trkpt lat="45.5985" lon="6.1167">
        <ele>1489.780551269</ele>
        <time>2015-11-10T15:08:47Z</time>
      </trkpt>
      <trkpt lat="45.59849" lon="6.1167">
        <ele>1489.780551269</ele>
        <time>2015-11-10T15:08:52Z</time>
      </trkpt>
      <trkpt lat="45.59844" lon="6.11665">
        <ele>1489.780551269</ele>
        <time>2015-11-10T15:08:57Z</time>
      </trkpt>
      <trkpt lat="45.5984" lon="6.1166">
        <ele>1490.99056473</ele>
        <time>2015-11-10T15:09:02Z</time>
      </trkpt>
      <trkpt lat="45.59835" lon="6.11655">
        <ele>1490.99056473</ele>
        <time>2015-11-10T15:09:07Z</time>
      </trkpt>
      <trkpt lat="45.59831" lon="6.11651">
        <ele>1491.849123546</ele>
        <time>2015-11-10T15:09:12Z</time>
      </trkpt>
      <trkpt lat="45.59826" lon="6.11645">
        <ele>1491.849123546</ele>
        <time>2015-11-10T15:09:17Z</time>
      </trkpt>
      <trkpt lat="45.59825" lon="6.11643">
        <ele>1491.849123546</ele>
        <time>2015-11-10T15:09:22Z</time>
      </trkpt>
      <trkpt lat="45.59826" lon="6.11643">
        <ele>1491.849123546</ele>
        <time>2015-11-10T15:09:27Z</time>
      </trkpt>
      <trkpt lat="45.59821" lon="6.11644">
        <ele>1492.388349153</ele>
        <time>2015-11-10T15:09:32Z</time>
      </trkpt>
      <trkpt lat="45.59813" lon="6.11642">
        <ele>1492.388349153</ele>
        <time>2015-11-10T15:09:37Z</time>
      </trkpt>
      <trkpt lat="45.598" lon="6.11635">
        <ele>1492.78311934</ele>
        <time>2015-11-10T15:09:47Z</time>
      </trkpt>
      <trkpt lat="45.59793" lon="6.11632">
        <ele>1492.78311934</ele>
        <time>2015-11-10T15:09:52Z</time>
      </trkpt>
      <trkpt lat="45.5978" lon="6.11624">
        <ele>1493.195950405</ele>
        <time>2015-11-10T15:10:02Z</time>
      </trkpt>
      <trkpt lat="45.59774" lon="6.11621">
        <ele>1493.195950405</ele>
        <time>2015-11-10T15:10:07Z</time>
      </trkpt>
      <trkpt lat="45.59761" lon="6.11614">
        <ele>1493.633309508</ele>
        <time>2015-11-10T15:10:17Z</time>
      </trkpt>
      <trkpt lat="45.59755" lon="6.1161">
        <ele>1493.633309508</ele>
        <time>2015-11-10T15:10:22Z</time>
      </trkpt>
      <trkpt lat="45.5975" lon="6.11603">
        <ele>1493.957032341</ele>
        <time>2015-11-10T15:10:32Z</time>
      </trkpt>
      <trkpt lat="45.59749" lon="6.11603">
        <ele>1493.957032341</ele>
        <time>2015-11-10T15:10:37Z</time>
      </trkpt>
      <trkpt lat="45.59739" lon="6.11598">
        <ele>1494.183531723</ele>
        <time>2015-11-10T15:10:47Z</time>
      </trkpt>
      <trkpt lat="45.59733" lon="6.11594">
        <ele>1494.183531723</ele>
        <time>2015-11-10T15:10:52Z</time>
      </trkpt>
      <trkpt lat="45.59722" lon="6.11586">
        <ele>1494.904706585</ele>
        <time>2015-11-10T15:11:02Z</time>
      </trkpt>
      <trkpt lat="45.59715" lon="6.11582">
        <ele>1494.904706585</ele>
        <time>2015-11-10T15:11:07Z</time>
      </trkpt>
      <trkpt lat="45.59704" lon="6.11578">
        <ele>1496.235208349</ele>
        <time>2015-11-10T15:11:17Z</time>
      </trkpt>
      <trkpt lat="45.597" lon="6.11576">
        <ele>1496.235208349</ele>
        <time>2015-11-10T15:11:22Z</time>
      </trkpt>
      <trkpt lat="45.59689" lon="6.1157">
        <ele>1497.414826876</ele>
        <time>2015-11-10T15:11:32Z</time>
      </trkpt>
      <trkpt lat="45.59683" lon="6.11566">
        <ele>1497.414826876</ele>
        <time>2015-11-10T15:11:37Z</time>
      </trkpt>
      <trkpt lat="45.59667" lon="6.11556">
        <ele>1498.892432918</ele>
        <time>2015-11-10T15:11:52Z</time>
      </trkpt>
      <trkpt lat="45.59662" lon="6.11553">
        <ele>1498.892432918</ele>
        <time>2015-11-10T15:11:57Z</time>
      </trkpt>
      <trkpt lat="45.59652" lon="6.11546">
        <ele>1500.506556682</ele>
        <time>2015-11-10T15:12:07Z</time>
      </trkpt>
      <trkpt lat="45.59647" lon="6.11543">
        <ele>1500.506556682</ele>
        <time>2015-11-10T15:12:12Z</time>
      </trkpt>
      <trkpt lat="45.59637" lon="6.11536">
        <ele>1502.107113183</ele>
        <time>2015-11-10T15:12:22Z</time>
      </trkpt>
      <trkpt lat="45.59633" lon="6.11532">
        <ele>1502.107113183</ele>
        <time>2015-11-10T15:12:27Z</time>
      </trkpt>
      <trkpt lat="45.59623" lon="6.11526">
        <ele>1503.98731491</ele>
        <time>2015-11-10T15:12:37Z</time>
      </trkpt>
      <trkpt lat="45.59618" lon="6.11523">
        <ele>1503.98731491</ele>
        <time>2015-11-10T15:12:42Z</time>
      </trkpt>
      <trkpt lat="45.59608" lon="6.11517">
        <ele>1505.985614322</ele>
        <time>2015-11-10T15:12:52Z</time>
      </trkpt>
      <trkpt lat="45.59602" lon="6.11514">
        <ele>1505.985614322</ele>
        <time>2015-11-10T15:12:57Z</time>
      </trkpt>
      <trkpt lat="45.59591" lon="6.11507">
        <ele>1508.240117599</ele>
        <time>2015-11-10T15:13:07Z</time>
      </trkpt>
      <trkpt lat="45.59584" lon="6.11503">
        <ele>1508.240117599</ele>
        <time>2015-11-10T15:13:12Z</time>
      </trkpt>
      <trkpt lat="45.59575" lon="6.11496">
        <ele>1510.58974023</ele>
        <time>2015-11-10T15:13:22Z</time>
      </trkpt>
      <trkpt lat="45.5957" lon="6.11492">
        <ele>1510.58974023</ele>
        <time>2015-11-10T15:13:27Z</time>
      </trkpt>
      <trkpt lat="45.59558" lon="6.11488">
        <ele>1513.028972577</ele>
        <time>2015-11-10T15:13:37Z</time>
      </trkpt>
      <trkpt lat="45.59552" lon="6.11485">
        <ele>1513.028972577</ele>
        <time>2015-11-10T15:13:42Z</time>
      </trkpt>
      <trkpt lat="45.59535" lon="6.11473">
        <ele>1516.128804505</ele>
        <time>2015-11-10T15:13:57Z</time>
      </trkpt>
      <trkpt lat="45.59531" lon="6.11467">
        <ele>1516.128804505</ele>
        <time>2015-11-10T15:14:02Z</time>
      </trkpt>
      <trkpt lat="45.59523" lon="6.11459">
        <ele>1518.975223202</ele>
        <time>2015-11-10T15:14:12Z</time>
      </trkpt>
      <trkpt lat="45.59519" lon="6.11455">
        <ele>1518.975223202</ele>
        <time>2015-11-10T15:14:17Z</time>
      </trkpt>
      <trkpt lat="45.59508" lon="6.11446">
        <ele>1521.730760826</ele>
        <time>2015-11-10T15:14:27Z</time>
      </trkpt>
      <trkpt lat="45.59504" lon="6.11441">
        <ele>1521.730760826</ele>
        <time>2015-11-10T15:14:32Z</time>
      </trkpt>
      <trkpt lat="45.59494" lon="6.11431">
        <ele>1524.257962184</ele>
        <time>2015-11-10T15:14:42Z</time>
      </trkpt>
      <trkpt lat="45.5949" lon="6.11429">
        <ele>1524.257962184</ele>
        <time>2015-11-10T15:14:47Z</time>
      </trkpt>
      <trkpt lat="45.59481" lon="6.11417">
        <ele>1527.006480757</ele>
        <time>2015-11-10T15:14:57Z</time>
      </trkpt>
      <trkpt lat="45.59475" lon="6.11414">
        <ele>1527.006480757</ele>
        <time>2015-11-10T15:15:02Z</time>
      </trkpt>
      <trkpt lat="45.59466" lon="6.11404">
        <ele>1529.671693543</ele>
        <time>2015-11-10T15:15:12Z</time>
      </trkpt>
      <trkpt lat="45.5946" lon="6.11403">
        <ele>1529.671693543</ele>
        <time>2015-11-10T15:15:17Z</time>
      </trkpt>
      <trkpt lat="45.59452" lon="6.11394">
        <ele>1532.547970149</ele>
        <time>2015-11-10T15:15:27Z</time>
      </trkpt>
      <trkpt lat="45.59449" lon="6.11392">
        <ele>1532.547970149</ele>
        <time>2015-11-10T15:15:32Z</time>
      </trkpt>
      <trkpt lat="45.59435" lon="6.11391">
        <ele>1535.042738393</ele>
        <time>2015-11-10T15:15:42Z</time>
      </trkpt>
      <trkpt lat="45.59428" lon="6.11396">
        <ele>1535.042738393</ele>
        <time>2015-11-10T15:15:47Z</time>
      </trkpt>
      <trkpt lat="45.59419" lon="6.11417">
        <ele>1537.616750738</ele>
        <time>2015-11-10T15:15:57Z</time>
      </trkpt>
      <trkpt lat="45.59417" lon="6.11425">
        <ele>1537.616750738</ele>
        <time>2015-11-10T15:16:02Z</time>
      </trkpt>
      <trkpt lat="45.59408" lon="6.11437">
        <ele>1539.831973496</ele>
        <time>2015-11-10T15:16:12Z</time>
      </trkpt>
      <trkpt lat="45.59409" lon="6.1144">
        <ele>1539.831973496</ele>
        <time>2015-11-10T15:16:17Z</time>
      </trkpt>
      <trkpt lat="45.59412" lon="6.11476">
        <ele>1540.851173977</ele>
        <time>2015-11-10T15:16:32Z</time>
      </trkpt>
      <trkpt lat="45.5941" lon="6.11489">
        <ele>1541.054813448</ele>
        <time>2015-11-10T15:16:37Z</time>
      </trkpt>
      <trkpt lat="45.59403" lon="6.11521">
        <ele>1540.509408566</ele>
        <time>2015-11-10T15:16:47Z</time>
      </trkpt>
      <trkpt lat="45.59401" lon="6.11536">
        <ele>1539.855060538</ele>
        <time>2015-11-10T15:16:52Z</time>
      </trkpt>
      <trkpt lat="45.59398" lon="6.11561">
        <ele>1539.540951915</ele>
        <time>2015-11-10T15:17:02Z</time>
      </trkpt>
      <trkpt lat="45.59396" lon="6.11569">
        <ele>1539.540951915</ele>
        <time>2015-11-10T15:17:07Z</time>
      </trkpt>
      <trkpt lat="45.59395" lon="6.11581">
        <ele>1539.261649318</ele>
        <time>2015-11-10T15:17:17Z</time>
      </trkpt>
      <trkpt lat="45.59393" lon="6.11585">
        <ele>1539.261649318</ele>
        <time>2015-11-10T15:17:22Z</time>
      </trkpt>
      <trkpt lat="45.59392" lon="6.1159">
        <ele>1539.261649318</ele>
        <time>2015-11-10T15:17:27Z</time>
      </trkpt>
      <trkpt lat="45.59392" lon="6.1159">
        <ele>1539.261649318</ele>
        <time>2015-11-10T15:17:32Z</time>
      </trkpt>
      <trkpt lat="45.59391" lon="6.11591">
        <ele>1539.261649318</ele>
        <time>2015-11-10T15:17:37Z</time>
      </trkpt>
      <trkpt lat="45.59388" lon="6.11598">
        <ele>1539.742713098</ele>
        <time>2015-11-10T15:17:47Z</time>
      </trkpt>
      <trkpt lat="45.59387" lon="6.11601">
        <ele>1539.742713098</ele>
        <time>2015-11-10T15:17:52Z</time>
      </trkpt>
      <trkpt lat="45.59376" lon="6.11605">
        <ele>1540.645358457</ele>
        <time>2015-11-10T15:18:02Z</time>
      </trkpt>
      <trkpt lat="45.59376" lon="6.11607">
        <ele>1540.645358457</ele>
        <time>2015-11-10T15:18:07Z</time>
      </trkpt>
      <trkpt lat="45.59377" lon="6.11608">
        <ele>1540.645358457</ele>
        <time>2015-11-10T15:18:17Z</time>
      </trkpt>
      <trkpt lat="45.59377" lon="6.11609">
        <ele>1540.645358457</ele>
        <time>2015-11-10T15:18:22Z</time>
      </trkpt>
      <trkpt lat="45.59377" lon="6.1161">
        <ele>1540.645358457</ele>
        <time>2015-11-10T15:18:32Z</time>
      </trkpt>
      <trkpt lat="45.59378" lon="6.1161">
        <ele>1540.645358457</ele>
        <time>2015-11-10T15:18:37Z</time>
      </trkpt>
      <trkpt lat="45.59378" lon="6.1161">
        <ele>1540.645358457</ele>
        <time>2015-11-10T15:18:42Z</time>
      </trkpt>
      <trkpt lat="45.59378" lon="6.11609">
        <ele>1540.645358457</ele>
        <time>2015-11-10T15:18:47Z</time>
      </trkpt>
      <trkpt lat="45.59379" lon="6.11609">
        <ele>1540.645358457</ele>
        <time>2015-11-10T15:18:52Z</time>
      </trkpt>
      <trkpt lat="45.5938" lon="6.11612">
        <ele>1541.798474726</ele>
        <time>2015-11-10T15:18:57Z</time>
      </trkpt>
      <trkpt lat="45.5938" lon="6.11612">
        <ele>1541.798474726</ele>
        <time>2015-11-10T15:19:07Z</time>
      </trkpt>
      <trkpt lat="45.5938" lon="6.11612">
        <ele>1541.798474726</ele>
        <time>2015-11-10T15:19:12Z</time>
      </trkpt>
      <trkpt lat="45.5938" lon="6.11615">
        <ele>1541</ele>
        <time>2015-11-10T15:19:39Z</time>
      </trkpt>
      <trkpt lat="45.5938" lon="6.11615">
        <ele>1541</ele>
        <time>2015-11-10T15:19:44Z</time>
      </trkpt>
      <trkpt lat="45.5938" lon="6.11615">
        <ele>1541</ele>
        <time>2015-11-10T15:19:49Z</time>
      </trkpt>
      <trkpt lat="45.5938" lon="6.11615">
        <ele>1541</ele>
        <time>2015-11-10T15:19:54Z</time>
      </trkpt>
      <trkpt lat="45.59379" lon="6.11609">
        <ele>1541</ele>
        <time>2015-11-10T15:19:59Z</time>
      </trkpt>
      <trkpt lat="45.59378" lon="6.1161">
        <ele>1541</ele>
        <time>2015-11-10T15:20:09Z</time>
      </trkpt>
      <trkpt lat="45.59378" lon="6.1161">
        <ele>1541</ele>
        <time>2015-11-10T15:20:14Z</time>
      </trkpt>
      <trkpt lat="45.59378" lon="6.1161">
        <ele>1541</ele>
        <time>2015-11-10T15:20:29Z</time>
      </trkpt>
      <trkpt lat="45.59378" lon="6.1161">
        <ele>1541</ele>
        <time>2015-11-10T15:20:34Z</time>
      </trkpt>
      <trkpt lat="45.59378" lon="6.1161">
        <ele>1541</ele>
        <time>2015-11-10T15:20:44Z</time>
      </trkpt>
      <trkpt lat="45.59378" lon="6.1161">
        <ele>1541</ele>
        <time>2015-11-10T15:20:49Z</time>
      </trkpt>
      <trkpt lat="45.59378" lon="6.1161">
        <ele>1541</ele>
        <time>2015-11-10T15:20:59Z</time>
      </trkpt>
      <trkpt lat="45.59378" lon="6.1161">
        <ele>1541</ele>
        <time>2015-11-10T15:21:04Z</time>
      </trkpt>
      <trkpt lat="45.59378" lon="6.1161">
        <ele>1541</ele>
        <time>2015-11-10T15:21:14Z</time>
      </trkpt>
      <trkpt lat="45.59378" lon="6.1161">
        <ele>1541</ele>
        <time>2015-11-10T15:21:19Z</time>
      </trkpt>
      <trkpt lat="45.59378" lon="6.1161">
        <ele>1541</ele>
        <time>2015-11-10T15:21:29Z</time>
      </trkpt>
      <trkpt lat="45.59378" lon="6.1161">
        <ele>1541</ele>
        <time>2015-11-10T15:21:34Z</time>
      </trkpt>
      <trkpt lat="45.59378" lon="6.1161">
        <ele>1541</ele>
        <time>2015-11-10T15:21:49Z</time>
      </trkpt>
      <trkpt lat="45.59378" lon="6.1161">
        <ele>1541</ele>
        <time>2015-11-10T15:21:54Z</time>
      </trkpt>
      <trkpt lat="45.59378" lon="6.1161">
        <ele>1541</ele>
        <time>2015-11-10T15:22:04Z</time>
      </trkpt>
      <trkpt lat="45.5938" lon="6.11607">
        <ele>1543.296752028</ele>
        <time>2015-11-10T15:22:09Z</time>
      </trkpt>
      <trkpt lat="45.59389" lon="6.11599">
        <ele>1550.046825024</ele>
        <time>2015-11-10T15:22:19Z</time>
      </trkpt>
      <trkpt lat="45.59392" lon="6.11588">
        <ele>1550.046825024</ele>
        <time>2015-11-10T15:22:24Z</time>
      </trkpt>
      <trkpt lat="45.59396" lon="6.1156">
        <ele>1555.134326388</ele>
        <time>2015-11-10T15:22:34Z</time>
      </trkpt>
      <trkpt lat="45.594" lon="6.11545">
        <ele>1560.840629315</ele>
        <time>2015-11-10T15:22:39Z</time>
      </trkpt>
      <trkpt lat="45.59408" lon="6.1151">
        <ele>1567.089698736</ele>
        <time>2015-11-10T15:22:49Z</time>
      </trkpt>
      <trkpt lat="45.59409" lon="6.11497">
        <ele>1573.59107341</ele>
        <time>2015-11-10T15:22:55Z</time>
      </trkpt>
      <trkpt lat="45.59415" lon="6.11477">
        <ele>1579.300807527</ele>
        <time>2015-11-10T15:23:05Z</time>
      </trkpt>
      <trkpt lat="45.59415" lon="6.11471">
        <ele>1579.300807527</ele>
        <time>2015-11-10T15:23:10Z</time>
      </trkpt>
      <trkpt lat="45.59419" lon="6.11456">
        <ele>1584.023148779</ele>
        <time>2015-11-10T15:23:20Z</time>
      </trkpt>
      <trkpt lat="45.5942" lon="6.11451">
        <ele>1584.023148779</ele>
        <time>2015-11-10T15:23:24Z</time>
      </trkpt>
      <trkpt lat="45.59423" lon="6.11442">
        <ele>1587.637696306</ele>
        <time>2015-11-10T15:23:29Z</time>
      </trkpt>
      <trkpt lat="45.59426" lon="6.11426">
        <ele>1590.777389789</ele>
        <time>2015-11-10T15:23:40Z</time>
      </trkpt>
      <trkpt lat="45.59426" lon="6.11419">
        <ele>1590.777389789</ele>
        <time>2015-11-10T15:23:44Z</time>
      </trkpt>
      <trkpt lat="45.59418" lon="6.11397">
        <ele>1583.777338322</ele>
        <time>2015-11-10T15:23:54Z</time>
      </trkpt>
      <trkpt lat="45.59418" lon="6.11397">
        <ele>1583.777338322</ele>
        <time>2015-11-10T15:23:59Z</time>
      </trkpt>
      <trkpt lat="45.59419" lon="6.11397">
        <ele>1583.777338322</ele>
        <time>2015-11-10T15:24:09Z</time>
      </trkpt>
      <trkpt lat="45.59419" lon="6.11397">
        <ele>1583.777338322</ele>
        <time>2015-11-10T15:24:14Z</time>
      </trkpt>
      <trkpt lat="45.59419" lon="6.11397">
        <ele>1583.777338322</ele>
        <time>2015-11-10T15:24:24Z</time>
      </trkpt>
      <trkpt lat="45.59419" lon="6.11397">
        <ele>1583.777338322</ele>
        <time>2015-11-10T15:24:29Z</time>
      </trkpt>
      <trkpt lat="45.59419" lon="6.11397">
        <ele>1583.777338322</ele>
        <time>2015-11-10T15:24:39Z</time>
      </trkpt>
      <trkpt lat="45.59419" lon="6.11397">
        <ele>1583.777338322</ele>
        <time>2015-11-10T15:24:44Z</time>
      </trkpt>
      <trkpt lat="45.59419" lon="6.11397">
        <ele>1583.777338322</ele>
        <time>2015-11-10T15:24:54Z</time>
      </trkpt>
      <trkpt lat="45.59419" lon="6.11397">
        <ele>1583.777338322</ele>
        <time>2015-11-10T15:24:59Z</time>
      </trkpt>
      <trkpt lat="45.59419" lon="6.11398">
        <ele>1583.777338322</ele>
        <time>2015-11-10T15:25:09Z</time>
      </trkpt>
      <trkpt lat="45.59419" lon="6.11398">
        <ele>1583.777338322</ele>
        <time>2015-11-10T15:25:14Z</time>
      </trkpt>
      <trkpt lat="45.59419" lon="6.11398">
        <ele>1583.777338322</ele>
        <time>2015-11-10T15:25:29Z</time>
      </trkpt>
      <trkpt lat="45.59419" lon="6.11398">
        <ele>1583.777338322</ele>
        <time>2015-11-10T15:25:34Z</time>
      </trkpt>
      <trkpt lat="45.59418" lon="6.11395">
        <ele>1583.777338322</ele>
        <time>2015-11-10T15:25:44Z</time>
      </trkpt>
      <trkpt lat="45.59416" lon="6.11388">
        <ele>1585.376894491</ele>
        <time>2015-11-10T15:25:49Z</time>
      </trkpt>
      <trkpt lat="45.59409" lon="6.1138">
        <ele>1585.376894491</ele>
        <time>2015-11-10T15:25:59Z</time>
      </trkpt>
      <trkpt lat="45.5941" lon="6.1138">
        <ele>1585.376894491</ele>
        <time>2015-11-10T15:26:04Z</time>
      </trkpt>
      <trkpt lat="45.5941" lon="6.1138">
        <ele>1585.376894491</ele>
        <time>2015-11-10T15:26:14Z</time>
      </trkpt>
      <trkpt lat="45.5941" lon="6.11379">
        <ele>1586.105482146</ele>
        <time>2015-11-10T15:26:19Z</time>
      </trkpt>
      <trkpt lat="45.59405" lon="6.11372">
        <ele>1586.105482146</ele>
        <time>2015-11-10T15:26:29Z</time>
      </trkpt>
      <trkpt lat="45.594" lon="6.11367">
        <ele>1586.287828067</ele>
        <time>2015-11-10T15:26:34Z</time>
      </trkpt>
      <trkpt lat="45.59395" lon="6.11361">
        <ele>1586.287828067</ele>
        <time>2015-11-10T15:26:39Z</time>
      </trkpt>
      <trkpt lat="45.59388" lon="6.11352">
        <ele>1585.896915248</ele>
        <time>2015-11-10T15:26:44Z</time>
      </trkpt>
      <trkpt lat="45.59379" lon="6.11341">
        <ele>1584.909170721</ele>
        <time>2015-11-10T15:26:49Z</time>
      </trkpt>
      <trkpt lat="45.5936" lon="6.11323">
        <ele>1583.137188119</ele>
        <time>2015-11-10T15:27:00Z</time>
      </trkpt>
      <trkpt lat="45.59356" lon="6.11314">
        <ele>1583.137188119</ele>
        <time>2015-11-10T15:27:05Z</time>
      </trkpt>
      <trkpt lat="45.59333" lon="6.11295">
        <ele>1580.089401839</ele>
        <time>2015-11-10T15:27:15Z</time>
      </trkpt>
      <trkpt lat="45.59323" lon="6.11289">
        <ele>1577.244935262</ele>
        <time>2015-11-10T15:27:20Z</time>
      </trkpt>
      <trkpt lat="45.59308" lon="6.11275">
        <ele>1574.629037296</ele>
        <time>2015-11-10T15:27:29Z</time>
      </trkpt>
      <trkpt lat="45.59308" lon="6.1127">
        <ele>1574.629037296</ele>
        <time>2015-11-10T15:27:34Z</time>
      </trkpt>
      <trkpt lat="45.59333" lon="6.11274">
        <ele>1571.323556419</ele>
        <time>2015-11-10T15:27:48Z</time>
      </trkpt>
      <trkpt lat="45.59335" lon="6.11275">
        <ele>1571.323556419</ele>
        <time>2015-11-10T15:27:49Z</time>
      </trkpt>
      <trkpt lat="45.59337" lon="6.11274">
        <ele>1571.323556419</ele>
        <time>2015-11-10T15:28:04Z</time>
      </trkpt>
      <trkpt lat="45.59336" lon="6.11273">
        <ele>1571.323556419</ele>
        <time>2015-11-10T15:28:09Z</time>
      </trkpt>
      <trkpt lat="45.59329" lon="6.11261">
        <ele>1567.283345851</ele>
        <time>2015-11-10T15:28:30Z</time>
      </trkpt>
      <trkpt lat="45.59323" lon="6.11248">
        <ele>1563.062921173</ele>
        <time>2015-11-10T15:28:45Z</time>
      </trkpt>
      <trkpt lat="45.59323" lon="6.11248">
        <ele>1563.062921173</ele>
        <time>2015-11-10T15:28:50Z</time>
      </trkpt>
      <trkpt lat="45.59323" lon="6.11245">
        <ele>1563.062921173</ele>
        <time>2015-11-10T15:28:59Z</time>
      </trkpt>
      <trkpt lat="45.59323" lon="6.11241">
        <ele>1563.062921173</ele>
        <time>2015-11-10T15:29:05Z</time>
      </trkpt>
      <trkpt lat="45.59322" lon="6.11233">
        <ele>1558.696859114</ele>
        <time>2015-11-10T15:29:15Z</time>
      </trkpt>
      <trkpt lat="45.59323" lon="6.11232">
        <ele>1558.696859114</ele>
        <time>2015-11-10T15:29:20Z</time>
      </trkpt>
      <trkpt lat="45.59321" lon="6.11224">
        <ele>1558.696859114</ele>
        <time>2015-11-10T15:29:30Z</time>
      </trkpt>
      <trkpt lat="45.5932" lon="6.11222">
        <ele>1558.696859114</ele>
        <time>2015-11-10T15:29:35Z</time>
      </trkpt>
      <trkpt lat="45.5932" lon="6.11219">
        <ele>1553.772574474</ele>
        <time>2015-11-10T15:29:44Z</time>
      </trkpt>
      <trkpt lat="45.59322" lon="6.11217">
        <ele>1553.772574474</ele>
        <time>2015-11-10T15:29:49Z</time>
      </trkpt>
      <trkpt lat="45.59326" lon="6.11216">
        <ele>1553.772574474</ele>
        <time>2015-11-10T15:30:04Z</time>
      </trkpt>
      <trkpt lat="45.59326" lon="6.11216">
        <ele>1553.772574474</ele>
        <time>2015-11-10T15:30:09Z</time>
      </trkpt>
      <trkpt lat="45.59326" lon="6.1121">
        <ele>1548.497447476</ele>
        <time>2015-11-10T15:30:15Z</time>
      </trkpt>
      <trkpt lat="45.59325" lon="6.11206">
        <ele>1548.497447476</ele>
        <time>2015-11-10T15:30:20Z</time>
      </trkpt>
      <trkpt lat="45.59327" lon="6.11201">
        <ele>1548.497447476</ele>
        <time>2015-11-10T15:30:30Z</time>
      </trkpt>
      <trkpt lat="45.59333" lon="6.11203">
        <ele>1542.338638249</ele>
        <time>2015-11-10T15:30:35Z</time>
      </trkpt>
      <trkpt lat="45.59351" lon="6.1121">
        <ele>1536.369004896</ele>
        <time>2015-11-10T15:30:45Z</time>
      </trkpt>
      <trkpt lat="45.59358" lon="6.11209">
        <ele>1536.369004896</ele>
        <time>2015-11-10T15:30:50Z</time>
      </trkpt>
      <trkpt lat="45.59369" lon="6.11205">
        <ele>1530.008573604</ele>
        <time>2015-11-10T15:31:00Z</time>
      </trkpt>
      <trkpt lat="45.59374" lon="6.11204">
        <ele>1530.008573604</ele>
        <time>2015-11-10T15:31:05Z</time>
      </trkpt>
      <trkpt lat="45.59388" lon="6.11206">
        <ele>1523.010539945</ele>
        <time>2015-11-10T15:31:15Z</time>
      </trkpt>
      <trkpt lat="45.59393" lon="6.11201">
        <ele>1523.010539945</ele>
        <time>2015-11-10T15:31:20Z</time>
      </trkpt>
      <trkpt lat="45.59399" lon="6.11204">
        <ele>1516.12111434</ele>
        <time>2015-11-10T15:31:34Z</time>
      </trkpt>
      <trkpt lat="45.59396" lon="6.11202">
        <ele>1516.12111434</ele>
        <time>2015-11-10T15:31:40Z</time>
      </trkpt>
      <trkpt lat="45.59403" lon="6.1119">
        <ele>1508.916581114</ele>
        <time>2015-11-10T15:31:50Z</time>
      </trkpt>
      <trkpt lat="45.59409" lon="6.11191">
        <ele>1508.916581114</ele>
        <time>2015-11-10T15:31:55Z</time>
      </trkpt>
      <trkpt lat="45.59418" lon="6.11186">
        <ele>1501.146046817</ele>
        <time>2015-11-10T15:32:05Z</time>
      </trkpt>
      <trkpt lat="45.5942" lon="6.11181">
        <ele>1501.146046817</ele>
        <time>2015-11-10T15:32:10Z</time>
      </trkpt>
      <trkpt lat="45.59431" lon="6.1118">
        <ele>1493.411940549</ele>
        <time>2015-11-10T15:32:20Z</time>
      </trkpt>
      <trkpt lat="45.59437" lon="6.11185">
        <ele>1493.411940549</ele>
        <time>2015-11-10T15:32:25Z</time>
      </trkpt>
      <trkpt lat="45.59451" lon="6.11187">
        <ele>1484.187985377</ele>
        <time>2015-11-10T15:32:35Z</time>
      </trkpt>
      <trkpt lat="45.59456" lon="6.11187">
        <ele>1484.187985377</ele>
        <time>2015-11-10T15:32:40Z</time>
      </trkpt>
      <trkpt lat="45.59468" lon="6.11199">
        <ele>1475.545309219</ele>
        <time>2015-11-10T15:32:50Z</time>
      </trkpt>
      <trkpt lat="45.59468" lon="6.11202">
        <ele>1475.545309219</ele>
        <time>2015-11-10T15:32:54Z</time>
      </trkpt>
      <trkpt lat="45.59469" lon="6.11202">
        <ele>1475.545309219</ele>
        <time>2015-11-10T15:33:04Z</time>
      </trkpt>
      <trkpt lat="45.5947" lon="6.11202">
        <ele>1475.545309219</ele>
        <time>2015-11-10T15:33:09Z</time>
      </trkpt>
      <trkpt lat="45.5947" lon="6.11191">
        <ele>1467.327821251</ele>
        <time>2015-11-10T15:33:21Z</time>
      </trkpt>
      <trkpt lat="45.59467" lon="6.11187">
        <ele>1467.327821251</ele>
        <time>2015-11-10T15:33:24Z</time>
      </trkpt>
      <trkpt lat="45.59462" lon="6.11168">
        <ele>1459.532635886</ele>
        <time>2015-11-10T15:33:35Z</time>
      </trkpt>
      <trkpt lat="45.59458" lon="6.11161">
        <ele>1459.532635886</ele>
        <time>2015-11-10T15:33:40Z</time>
      </trkpt>
      <trkpt lat="45.59446" lon="6.11149">
        <ele>1451.159428787</ele>
        <time>2015-11-10T15:33:50Z</time>
      </trkpt>
      <trkpt lat="45.59442" lon="6.11138">
        <ele>1451.159428787</ele>
        <time>2015-11-10T15:33:55Z</time>
      </trkpt>
      <trkpt lat="45.59435" lon="6.11123">
        <ele>1442.698019554</ele>
        <time>2015-11-10T15:34:05Z</time>
      </trkpt>
      <trkpt lat="45.59426" lon="6.11117">
        <ele>1434.759797596</ele>
        <time>2015-11-10T15:34:10Z</time>
      </trkpt>
      <trkpt lat="45.59417" lon="6.11095">
        <ele>1427.486531367</ele>
        <time>2015-11-10T15:34:25Z</time>
      </trkpt>
      <trkpt lat="45.59421" lon="6.11092">
        <ele>1427.486531367</ele>
        <time>2015-11-10T15:34:30Z</time>
      </trkpt>
      <trkpt lat="45.5943" lon="6.1109">
        <ele>1418.809469045</ele>
        <time>2015-11-10T15:34:40Z</time>
      </trkpt>
      <trkpt lat="45.59433" lon="6.11084">
        <ele>1418.809469045</ele>
        <time>2015-11-10T15:34:45Z</time>
      </trkpt>
      <trkpt lat="45.59446" lon="6.11085">
        <ele>1408.987619843</ele>
        <time>2015-11-10T15:34:55Z</time>
      </trkpt>
      <trkpt lat="45.59454" lon="6.11084">
        <ele>1408.987619843</ele>
        <time>2015-11-10T15:35:00Z</time>
      </trkpt>
      <trkpt lat="45.59466" lon="6.11088">
        <ele>1400.644340701</ele>
        <time>2015-11-10T15:35:10Z</time>
      </trkpt>
      <trkpt lat="45.59471" lon="6.11085">
        <ele>1400.644340701</ele>
        <time>2015-11-10T15:35:15Z</time>
      </trkpt>
      <trkpt lat="45.59474" lon="6.11082">
        <ele>1400.644340701</ele>
        <time>2015-11-10T15:35:25Z</time>
      </trkpt>
      <trkpt lat="45.59478" lon="6.1108">
        <ele>1393.263902943</ele>
        <time>2015-11-10T15:35:30Z</time>
      </trkpt>
      <trkpt lat="45.59488" lon="6.11091">
        <ele>1384.408890711</ele>
        <time>2015-11-10T15:35:40Z</time>
      </trkpt>
      <trkpt lat="45.59494" lon="6.11097">
        <ele>1384.408890711</ele>
        <time>2015-11-10T15:35:45Z</time>
      </trkpt>
      <trkpt lat="45.59507" lon="6.11105">
        <ele>1375.10232533</ele>
        <time>2015-11-10T15:35:55Z</time>
      </trkpt>
      <trkpt lat="45.59509" lon="6.11103">
        <ele>1375.10232533</ele>
        <time>2015-11-10T15:36:00Z</time>
      </trkpt>
      <trkpt lat="45.59516" lon="6.11098">
        <ele>1366.753695935</ele>
        <time>2015-11-10T15:36:10Z</time>
      </trkpt>
      <trkpt lat="45.59519" lon="6.11095">
        <ele>1366.753695935</ele>
        <time>2015-11-10T15:36:14Z</time>
      </trkpt>
      <trkpt lat="45.59521" lon="6.11093">
        <ele>1366.753695935</ele>
        <time>2015-11-10T15:36:25Z</time>
      </trkpt>
      <trkpt lat="45.5953" lon="6.11088">
        <ele>1359.916265168</ele>
        <time>2015-11-10T15:36:29Z</time>
      </trkpt>
      <trkpt lat="45.5954" lon="6.11088">
        <ele>1352.377961455</ele>
        <time>2015-11-10T15:36:45Z</time>
      </trkpt>
      <trkpt lat="45.59542" lon="6.11083">
        <ele>1352.377961455</ele>
        <time>2015-11-10T15:36:49Z</time>
      </trkpt>
      <trkpt lat="45.59541" lon="6.11082">
        <ele>1352.377961455</ele>
        <time>2015-11-10T15:36:54Z</time>
      </trkpt>
      <trkpt lat="45.5954" lon="6.1108">
        <ele>1352.377961455</ele>
        <time>2015-11-10T15:36:59Z</time>
      </trkpt>
      <trkpt lat="45.5954" lon="6.1108">
        <ele>1352.377961455</ele>
        <time>2015-11-10T15:37:04Z</time>
      </trkpt>
      <trkpt lat="45.5954" lon="6.11079">
        <ele>1352.377961455</ele>
        <time>2015-11-10T15:37:10Z</time>
      </trkpt>
      <trkpt lat="45.59537" lon="6.11073">
        <ele>1346.467984596</ele>
        <time>2015-11-10T15:37:20Z</time>
      </trkpt>
      <trkpt lat="45.59533" lon="6.11064">
        <ele>1346.467984596</ele>
        <time>2015-11-10T15:37:25Z</time>
      </trkpt>
      <trkpt lat="45.59525" lon="6.11049">
        <ele>1340.104822647</ele>
        <time>2015-11-10T15:37:34Z</time>
      </trkpt>
      <trkpt lat="45.59519" lon="6.1104">
        <ele>1340.104822647</ele>
        <time>2015-11-10T15:37:40Z</time>
      </trkpt>
      <trkpt lat="45.5951" lon="6.11025">
        <ele>1333.178782428</ele>
        <time>2015-11-10T15:37:50Z</time>
      </trkpt>
      <trkpt lat="45.59512" lon="6.11009">
        <ele>1326.947689067</ele>
        <time>2015-11-10T15:37:55Z</time>
      </trkpt>
      <trkpt lat="45.59507" lon="6.10982">
        <ele>1322.264120988</ele>
        <time>2015-11-10T15:38:05Z</time>
      </trkpt>
      <trkpt lat="45.59505" lon="6.10962">
        <ele>1318.101139511</ele>
        <time>2015-11-10T15:38:09Z</time>
      </trkpt>
      <trkpt lat="45.59497" lon="6.10946">
        <ele>1313.513995206</ele>
        <time>2015-11-10T15:38:20Z</time>
      </trkpt>
      <trkpt lat="45.59493" lon="6.10934">
        <ele>1309.134498369</ele>
        <time>2015-11-10T15:38:25Z</time>
      </trkpt>
      <trkpt lat="45.59487" lon="6.10896">
        <ele>1304.64516122</ele>
        <time>2015-11-10T15:38:40Z</time>
      </trkpt>
      <trkpt lat="45.5949" lon="6.10892">
        <ele>1304.64516122</ele>
        <time>2015-11-10T15:38:44Z</time>
      </trkpt>
      <trkpt lat="45.59491" lon="6.1089">
        <ele>1304.64516122</ele>
        <time>2015-11-10T15:38:49Z</time>
      </trkpt>
      <trkpt lat="45.5949" lon="6.10889">
        <ele>1304.64516122</ele>
        <time>2015-11-10T15:38:54Z</time>
      </trkpt>
      <trkpt lat="45.5949" lon="6.10889">
        <ele>1304.64516122</ele>
        <time>2015-11-10T15:38:59Z</time>
      </trkpt>
      <trkpt lat="45.5949" lon="6.10876">
        <ele>1299.755542628</ele>
        <time>2015-11-10T15:39:04Z</time>
      </trkpt>
      <trkpt lat="45.59492" lon="6.10859">
        <ele>1294.498026901</ele>
        <time>2015-11-10T15:39:15Z</time>
      </trkpt>
      <trkpt lat="45.59502" lon="6.1085">
        <ele>1289.940659192</ele>
        <time>2015-11-10T15:39:20Z</time>
      </trkpt>
      <trkpt lat="45.59506" lon="6.10843">
        <ele>1289.940659192</ele>
        <time>2015-11-10T15:39:29Z</time>
      </trkpt>
      <trkpt lat="45.59498" lon="6.10834">
        <ele>1285.581372078</ele>
        <time>2015-11-10T15:39:34Z</time>
      </trkpt>
      <trkpt lat="45.59516" lon="6.10816">
        <ele>1281.54950819</ele>
        <time>2015-11-10T15:39:45Z</time>
      </trkpt>
      <trkpt lat="45.5952" lon="6.10811">
        <ele>1281.54950819</ele>
        <time>2015-11-10T15:39:49Z</time>
      </trkpt>
      <trkpt lat="45.59511" lon="6.10802">
        <ele>1277.521378329</ele>
        <time>2015-11-10T15:40:00Z</time>
      </trkpt>
      <trkpt lat="45.59514" lon="6.10789">
        <ele>1273.640491366</ele>
        <time>2015-11-10T15:40:05Z</time>
      </trkpt>
      <trkpt lat="45.59522" lon="6.10774">
        <ele>1269.891609033</ele>
        <time>2015-11-10T15:40:15Z</time>
      </trkpt>
      <trkpt lat="45.59519" lon="6.10767">
        <ele>1269.891609033</ele>
        <time>2015-11-10T15:40:20Z</time>
      </trkpt>
      <trkpt lat="45.59517" lon="6.1076">
        <ele>1266.114188688</ele>
        <time>2015-11-10T15:40:25Z</time>
      </trkpt>
      <trkpt lat="45.59526" lon="6.10743">
        <ele>1261.8689342</ele>
        <time>2015-11-10T15:40:35Z</time>
      </trkpt>
      <trkpt lat="45.59526" lon="6.1074">
        <ele>1261.8689342</ele>
        <time>2015-11-10T15:40:40Z</time>
      </trkpt>
      <trkpt lat="45.5952" lon="6.10738">
        <ele>1261.8689342</ele>
        <time>2015-11-10T15:40:49Z</time>
      </trkpt>
      <trkpt lat="45.59515" lon="6.1074">
        <ele>1256.752980137</ele>
        <time>2015-11-10T15:40:55Z</time>
      </trkpt>
      <trkpt lat="45.59503" lon="6.10728">
        <ele>1252.43346895</ele>
        <time>2015-11-10T15:41:05Z</time>
      </trkpt>
      <trkpt lat="45.595" lon="6.1072">
        <ele>1252.43346895</ele>
        <time>2015-11-10T15:41:10Z</time>
      </trkpt>
      <trkpt lat="45.59491" lon="6.10706">
        <ele>1248.409942161</ele>
        <time>2015-11-10T15:41:20Z</time>
      </trkpt>
      <trkpt lat="45.59495" lon="6.1069">
        <ele>1244.800911996</ele>
        <time>2015-11-10T15:41:25Z</time>
      </trkpt>
      <trkpt lat="45.59509" lon="6.10661">
        <ele>1241.714624943</ele>
        <time>2015-11-10T15:41:35Z</time>
      </trkpt>
      <trkpt lat="45.59513" lon="6.10656">
        <ele>1241.714624943</ele>
        <time>2015-11-10T15:41:40Z</time>
      </trkpt>
      <trkpt lat="45.5953" lon="6.10656">
        <ele>1236.499725057</ele>
        <time>2015-11-10T15:41:50Z</time>
      </trkpt>
      <trkpt lat="45.5954" lon="6.10657">
        <ele>1232.06490421</ele>
        <time>2015-11-10T15:41:55Z</time>
      </trkpt>
      <trkpt lat="45.59544" lon="6.10638">
        <ele>1227.914717125</ele>
        <time>2015-11-10T15:42:05Z</time>
      </trkpt>
      <trkpt lat="45.59543" lon="6.10631">
        <ele>1227.914717125</ele>
        <time>2015-11-10T15:42:10Z</time>
      </trkpt>
      <trkpt lat="45.59547" lon="6.10627">
        <ele>1224.312935388</ele>
        <time>2015-11-10T15:42:20Z</time>
      </trkpt>
      <trkpt lat="45.59561" lon="6.10627">
        <ele>1220.635905896</ele>
        <time>2015-11-10T15:42:25Z</time>
      </trkpt>
      <trkpt lat="45.59565" lon="6.10624">
        <ele>1220.635905896</ele>
        <time>2015-11-10T15:42:29Z</time>
      </trkpt>
      <trkpt lat="45.59557" lon="6.10604">
        <ele>1217.317220694</ele>
        <time>2015-11-10T15:42:40Z</time>
      </trkpt>
      <trkpt lat="45.59558" lon="6.106">
        <ele>1217.317220694</ele>
        <time>2015-11-10T15:42:45Z</time>
      </trkpt>
      <trkpt lat="45.59552" lon="6.10592">
        <ele>1214.324311907</ele>
        <time>2015-11-10T15:42:54Z</time>
      </trkpt>
      <trkpt lat="45.59549" lon="6.10578">
        <ele>1211.626240857</ele>
        <time>2015-11-10T15:43:00Z</time>
      </trkpt>
      <trkpt lat="45.59556" lon="6.10569">
        <ele>1208.905238374</ele>
        <time>2015-11-10T15:43:09Z</time>
      </trkpt>
      <trkpt lat="45.59561" lon="6.10572">
        <ele>1208.905238374</ele>
        <time>2015-11-10T15:43:14Z</time>
      </trkpt>
      <trkpt lat="45.59566" lon="6.10577">
        <ele>1206.299740952</ele>
        <time>2015-11-10T15:43:19Z</time>
      </trkpt>
      <trkpt lat="45.5957" lon="6.10582">
        <ele>1206.299740952</ele>
        <time>2015-11-10T15:43:24Z</time>
      </trkpt>
      <trkpt lat="45.59574" lon="6.10587">
        <ele>1203.505172604</ele>
        <time>2015-11-10T15:43:29Z</time>
      </trkpt>
      <trkpt lat="45.59573" lon="6.10587">
        <ele>1203.505172604</ele>
        <time>2015-11-10T15:43:34Z</time>
      </trkpt>
      <trkpt lat="45.59576" lon="6.1059">
        <ele>1203.505172604</ele>
        <time>2015-11-10T15:43:39Z</time>
      </trkpt>
      <trkpt lat="45.59577" lon="6.10596">
        <ele>1203.505172604</ele>
        <time>2015-11-10T15:43:44Z</time>
      </trkpt>
      <trkpt lat="45.59582" lon="6.10598">
        <ele>1200.816698774</ele>
        <time>2015-11-10T15:43:50Z</time>
      </trkpt>
      <trkpt lat="45.59597" lon="6.10621">
        <ele>1198.075048844</ele>
        <time>2015-11-10T15:44:00Z</time>
      </trkpt>
      <trkpt lat="45.59608" lon="6.10622">
        <ele>1196.430550617</ele>
        <time>2015-11-10T15:44:05Z</time>
      </trkpt>
      <trkpt lat="45.5963" lon="6.10613">
        <ele>1195.792717258</ele>
        <time>2015-11-10T15:44:14Z</time>
      </trkpt>
      <trkpt lat="45.59643" lon="6.10622">
        <ele>1194.777325822</ele>
        <time>2015-11-10T15:44:20Z</time>
      </trkpt>
      <trkpt lat="45.59664" lon="6.10639">
        <ele>1193.97752239</ele>
        <time>2015-11-10T15:44:30Z</time>
      </trkpt>
      <trkpt lat="45.59675" lon="6.10644">
        <ele>1194.086778332</ele>
        <time>2015-11-10T15:44:34Z</time>
      </trkpt>
      <trkpt lat="45.59696" lon="6.10648">
        <ele>1194.44742445</ele>
        <time>2015-11-10T15:44:45Z</time>
      </trkpt>
      <trkpt lat="45.59708" lon="6.10647">
        <ele>1194.738013002</ele>
        <time>2015-11-10T15:44:50Z</time>
      </trkpt>
      <trkpt lat="45.59734" lon="6.10656">
        <ele>1194.084226519</ele>
        <time>2015-11-10T15:45:00Z</time>
      </trkpt>
      <trkpt lat="45.59746" lon="6.10649">
        <ele>1193.842449777</ele>
        <time>2015-11-10T15:45:05Z</time>
      </trkpt>
      <trkpt lat="45.5976" lon="6.10652">
        <ele>1193.249288357</ele>
        <time>2015-11-10T15:45:09Z</time>
      </trkpt>
      <trkpt lat="45.59781" lon="6.10679">
        <ele>1190.87752465</ele>
        <time>2015-11-10T15:45:20Z</time>
      </trkpt>
      <trkpt lat="45.59789" lon="6.10691">
        <ele>1188.583568732</ele>
        <time>2015-11-10T15:45:25Z</time>
      </trkpt>
      <trkpt lat="45.59811" lon="6.10698">
        <ele>1187.222033707</ele>
        <time>2015-11-10T15:45:34Z</time>
      </trkpt>
      <trkpt lat="45.59824" lon="6.10706">
        <ele>1185.562976867</ele>
        <time>2015-11-10T15:45:40Z</time>
      </trkpt>
      <trkpt lat="45.59846" lon="6.10719">
        <ele>1184.343198948</ele>
        <time>2015-11-10T15:45:49Z</time>
      </trkpt>
      <trkpt lat="45.59862" lon="6.10727">
        <ele>1183.234705975</ele>
        <time>2015-11-10T15:45:55Z</time>
      </trkpt>
      <trkpt lat="45.5988" lon="6.10734">
        <ele>1182.510563227</ele>
        <time>2015-11-10T15:46:05Z</time>
      </trkpt>
      <trkpt lat="45.59884" lon="6.10734">
        <ele>1182.510563227</ele>
        <time>2015-11-10T15:46:09Z</time>
      </trkpt>
      <trkpt lat="45.59885" lon="6.10738">
        <ele>1182.510563227</ele>
        <time>2015-11-10T15:46:20Z</time>
      </trkpt>
      <trkpt lat="45.59885" lon="6.10738">
        <ele>1182.510563227</ele>
        <time>2015-11-10T15:46:25Z</time>
      </trkpt>
      <trkpt lat="45.59892" lon="6.10746">
        <ele>1181.124939346</ele>
        <time>2015-11-10T15:46:40Z</time>
      </trkpt>
      <trkpt lat="45.599" lon="6.10741">
        <ele>1179.697592774</ele>
        <time>2015-11-10T15:46:44Z</time>
      </trkpt>
      <trkpt lat="45.59916" lon="6.10739">
        <ele>1178.370416937</ele>
        <time>2015-11-10T15:46:55Z</time>
      </trkpt>
      <trkpt lat="45.5993" lon="6.10735">
        <ele>1176.265442521</ele>
        <time>2015-11-10T15:47:00Z</time>
      </trkpt>
      <trkpt lat="45.59956" lon="6.10732">
        <ele>1174.013811583</ele>
        <time>2015-11-10T15:47:10Z</time>
      </trkpt>
      <trkpt lat="45.59968" lon="6.10728">
        <ele>1171.912472543</ele>
        <time>2015-11-10T15:47:14Z</time>
      </trkpt>
      <trkpt lat="45.59992" lon="6.10725">
        <ele>1169.082887157</ele>
        <time>2015-11-10T15:47:25Z</time>
      </trkpt>
      <trkpt lat="45.60001" lon="6.10728">
        <ele>1166.443604527</ele>
        <time>2015-11-10T15:47:30Z</time>
      </trkpt>
      <trkpt lat="45.60009" lon="6.10733">
        <ele>1164.268539754</ele>
        <time>2015-11-10T15:47:34Z</time>
      </trkpt>
      <trkpt lat="45.60015" lon="6.10738">
        <ele>1164.268539754</ele>
        <time>2015-11-10T15:47:39Z</time>
      </trkpt>
      <trkpt lat="45.60025" lon="6.10747">
        <ele>1161.945390259</ele>
        <time>2015-11-10T15:47:45Z</time>
      </trkpt>
      <trkpt lat="45.60052" lon="6.10756">
        <ele>1159.62832849</ele>
        <time>2015-11-10T15:47:55Z</time>
      </trkpt>
      <trkpt lat="45.60056" lon="6.10759">
        <ele>1159.62832849</ele>
        <time>2015-11-10T15:47:59Z</time>
      </trkpt>
      <trkpt lat="45.60055" lon="6.10761">
        <ele>1159.62832849</ele>
        <time>2015-11-10T15:48:15Z</time>
      </trkpt>
      <trkpt lat="45.60055" lon="6.10761">
        <ele>1159.62832849</ele>
        <time>2015-11-10T15:48:20Z</time>
      </trkpt>
      <trkpt lat="45.60056" lon="6.10763">
        <ele>1159.62832849</ele>
        <time>2015-11-10T15:48:30Z</time>
      </trkpt>
      <trkpt lat="45.60056" lon="6.10764">
        <ele>1157.027901981</ele>
        <time>2015-11-10T15:48:34Z</time>
      </trkpt>
      <trkpt lat="45.60054" lon="6.10765">
        <ele>1157.027901981</ele>
        <time>2015-11-10T15:48:44Z</time>
      </trkpt>
      <trkpt lat="45.60054" lon="6.10765">
        <ele>1157.027901981</ele>
        <time>2015-11-10T15:48:49Z</time>
      </trkpt>
      <trkpt lat="45.60058" lon="6.10758">
        <ele>1157.027901981</ele>
        <time>2015-11-10T15:48:59Z</time>
      </trkpt>
      <trkpt lat="45.60061" lon="6.10757">
        <ele>1154.597645926</ele>
        <time>2015-11-10T15:49:04Z</time>
      </trkpt>
      <trkpt lat="45.60073" lon="6.10753">
        <ele>1152.469126156</ele>
        <time>2015-11-10T15:49:15Z</time>
      </trkpt>
      <trkpt lat="45.60078" lon="6.10751">
        <ele>1152.469126156</ele>
        <time>2015-11-10T15:49:19Z</time>
      </trkpt>
      <trkpt lat="45.60092" lon="6.10746">
        <ele>1150.475270427</ele>
        <time>2015-11-10T15:49:30Z</time>
      </trkpt>
      <trkpt lat="45.60099" lon="6.10739">
        <ele>1148.605195428</ele>
        <time>2015-11-10T15:49:34Z</time>
      </trkpt>
      <trkpt lat="45.60101" lon="6.10726">
        <ele>1148.605195428</ele>
        <time>2015-11-10T15:49:39Z</time>
      </trkpt>
      <trkpt lat="45.60104" lon="6.10715">
        <ele>1146.560354944</ele>
        <time>2015-11-10T15:49:44Z</time>
      </trkpt>
      <trkpt lat="45.60096" lon="6.10704">
        <ele>1144.641267252</ele>
        <time>2015-11-10T15:49:50Z</time>
      </trkpt>
      <trkpt lat="45.60063" lon="6.10677">
        <ele>1142.981999272</ele>
        <time>2015-11-10T15:50:05Z</time>
      </trkpt>
      <trkpt lat="45.60062" lon="6.10661">
        <ele>1140.985555846</ele>
        <time>2015-11-10T15:50:10Z</time>
      </trkpt>
      <trkpt lat="45.60083" lon="6.10649">
        <ele>1139.108696212</ele>
        <time>2015-11-10T15:50:20Z</time>
      </trkpt>
      <trkpt lat="45.60093" lon="6.10637">
        <ele>1137.342026419</ele>
        <time>2015-11-10T15:50:25Z</time>
      </trkpt>
      <trkpt lat="45.60118" lon="6.10627">
        <ele>1134.667828735</ele>
        <time>2015-11-10T15:50:34Z</time>
      </trkpt>
      <trkpt lat="45.60133" lon="6.10631">
        <ele>1131.442821231</ele>
        <time>2015-11-10T15:50:40Z</time>
      </trkpt>
      <trkpt lat="45.60162" lon="6.10651">
        <ele>1127.566785941</ele>
        <time>2015-11-10T15:50:50Z</time>
      </trkpt>
      <trkpt lat="45.60176" lon="6.10654">
        <ele>1123.525200632</ele>
        <time>2015-11-10T15:50:55Z</time>
      </trkpt>
      <trkpt lat="45.60185" lon="6.10666">
        <ele>1120.05660617</ele>
        <time>2015-11-10T15:50:59Z</time>
      </trkpt>
      <trkpt lat="45.60196" lon="6.10693">
        <ele>1116.69080606</ele>
        <time>2015-11-10T15:51:04Z</time>
      </trkpt>
      <trkpt lat="45.60211" lon="6.10712">
        <ele>1113.712429315</ele>
        <time>2015-11-10T15:51:09Z</time>
      </trkpt>
      <trkpt lat="45.60223" lon="6.10721">
        <ele>1111.23999492</ele>
        <time>2015-11-10T15:51:14Z</time>
      </trkpt>
      <trkpt lat="45.60231" lon="6.10726">
        <ele>1111.23999492</ele>
        <time>2015-11-10T15:51:19Z</time>
      </trkpt>
      <trkpt lat="45.60244" lon="6.10741">
        <ele>1109.237773839</ele>
        <time>2015-11-10T15:51:24Z</time>
      </trkpt>
      <trkpt lat="45.60251" lon="6.10753">
        <ele>1107.238988283</ele>
        <time>2015-11-10T15:51:29Z</time>
      </trkpt>
      <trkpt lat="45.60267" lon="6.1077">
        <ele>1105.387575467</ele>
        <time>2015-11-10T15:51:34Z</time>
      </trkpt>
      <trkpt lat="45.60285" lon="6.10805">
        <ele>1103.095901439</ele>
        <time>2015-11-10T15:51:45Z</time>
      </trkpt>
      <trkpt lat="45.60295" lon="6.10832">
        <ele>1100.541285497</ele>
        <time>2015-11-10T15:51:50Z</time>
      </trkpt>
      <trkpt lat="45.60307" lon="6.10871">
        <ele>1098.321085884</ele>
        <time>2015-11-10T15:52:00Z</time>
      </trkpt>
      <trkpt lat="45.60312" lon="6.10888">
        <ele>1096.123139161</ele>
        <time>2015-11-10T15:52:04Z</time>
      </trkpt>
      <trkpt lat="45.60315" lon="6.10906">
        <ele>1094.090474922</ele>
        <time>2015-11-10T15:52:09Z</time>
      </trkpt>
      <trkpt lat="45.60344" lon="6.10921">
        <ele>1092.066904137</ele>
        <time>2015-11-10T15:52:19Z</time>
      </trkpt>
      <trkpt lat="45.60353" lon="6.10923">
        <ele>1090.195897292</ele>
        <time>2015-11-10T15:52:24Z</time>
      </trkpt>
      <trkpt lat="45.60385" lon="6.10937">
        <ele>1089.042286875</ele>
        <time>2015-11-10T15:52:34Z</time>
      </trkpt>
      <trkpt lat="45.60399" lon="6.10943">
        <ele>1087.686239608</ele>
        <time>2015-11-10T15:52:40Z</time>
      </trkpt>
      <trkpt lat="45.60417" lon="6.10969">
        <ele>1086.284859465</ele>
        <time>2015-11-10T15:52:50Z</time>
      </trkpt>
      <trkpt lat="45.60428" lon="6.10982">
        <ele>1084.695606113</ele>
        <time>2015-11-10T15:52:54Z</time>
      </trkpt>
      <trkpt lat="45.60451" lon="6.1099">
        <ele>1082.931056493</ele>
        <time>2015-11-10T15:53:05Z</time>
      </trkpt>
      <trkpt lat="45.60463" lon="6.10987">
        <ele>1081.291592319</ele>
        <time>2015-11-10T15:53:10Z</time>
      </trkpt>
      <trkpt lat="45.60488" lon="6.10979">
        <ele>1078.902271421</ele>
        <time>2015-11-10T15:53:20Z</time>
      </trkpt>
      <trkpt lat="45.60496" lon="6.10979">
        <ele>1078.902271421</ele>
        <time>2015-11-10T15:53:25Z</time>
      </trkpt>
      <trkpt lat="45.60524" lon="6.10988">
        <ele>1076.251569463</ele>
        <time>2015-11-10T15:53:35Z</time>
      </trkpt>
      <trkpt lat="45.60533" lon="6.10988">
        <ele>1076.251569463</ele>
        <time>2015-11-10T15:53:39Z</time>
      </trkpt>
      <trkpt lat="45.60555" lon="6.10989">
        <ele>1072.20755963</ele>
        <time>2015-11-10T15:53:49Z</time>
      </trkpt>
      <trkpt lat="45.6056" lon="6.1099">
        <ele>1072.20755963</ele>
        <time>2015-11-10T15:53:55Z</time>
      </trkpt>
      <trkpt lat="45.60584" lon="6.10978">
        <ele>1068.031198225</ele>
        <time>2015-11-10T15:54:05Z</time>
      </trkpt>
      <trkpt lat="45.60597" lon="6.10972">
        <ele>1064.170592119</ele>
        <time>2015-11-10T15:54:09Z</time>
      </trkpt>
      <trkpt lat="45.60624" lon="6.11001">
        <ele>1058.878308512</ele>
        <time>2015-11-10T15:54:19Z</time>
      </trkpt>
      <trkpt lat="45.60636" lon="6.11011">
        <ele>1053.997973791</ele>
        <time>2015-11-10T15:54:25Z</time>
      </trkpt>
      <trkpt lat="45.60655" lon="6.11029">
        <ele>1049.507192727</ele>
        <time>2015-11-10T15:54:35Z</time>
      </trkpt>
      <trkpt lat="45.60665" lon="6.11039">
        <ele>1045.239925986</ele>
        <time>2015-11-10T15:54:40Z</time>
      </trkpt>
      <trkpt lat="45.60679" lon="6.11065">
        <ele>1041.041606627</ele>
        <time>2015-11-10T15:54:50Z</time>
      </trkpt>
      <trkpt lat="45.60683" lon="6.11077">
        <ele>1036.9128318</ele>
        <time>2015-11-10T15:54:55Z</time>
      </trkpt>
      <trkpt lat="45.60709" lon="6.11108">
        <ele>1031.700940438</ele>
        <time>2015-11-10T15:55:09Z</time>
      </trkpt>
      <trkpt lat="45.60719" lon="6.11114">
        <ele>1027.223100614</ele>
        <time>2015-11-10T15:55:14Z</time>
      </trkpt>
      <trkpt lat="45.60724" lon="6.1112">
        <ele>1027.223100614</ele>
        <time>2015-11-10T15:55:19Z</time>
      </trkpt>
      <trkpt lat="45.60729" lon="6.11124">
        <ele>1023.575555704</ele>
        <time>2015-11-10T15:55:24Z</time>
      </trkpt>
      <trkpt lat="45.60734" lon="6.11129">
        <ele>1023.575555704</ele>
        <time>2015-11-10T15:55:29Z</time>
      </trkpt>
      <trkpt lat="45.60738" lon="6.11136">
        <ele>1019.980334444</ele>
        <time>2015-11-10T15:55:34Z</time>
      </trkpt>
      <trkpt lat="45.60746" lon="6.11152">
        <ele>1016.580993807</ele>
        <time>2015-11-10T15:55:40Z</time>
      </trkpt>
      <trkpt lat="45.6076" lon="6.11174">
        <ele>1013.365737127</ele>
        <time>2015-11-10T15:55:49Z</time>
      </trkpt>
      <trkpt lat="45.60767" lon="6.11188">
        <ele>1010.611198533</ele>
        <time>2015-11-10T15:55:55Z</time>
      </trkpt>
      <trkpt lat="45.60776" lon="6.11217">
        <ele>1008.284038631</ele>
        <time>2015-11-10T15:56:05Z</time>
      </trkpt>
      <trkpt lat="45.60784" lon="6.11236">
        <ele>1006.640264518</ele>
        <time>2015-11-10T15:56:09Z</time>
      </trkpt>
      <trkpt lat="45.60801" lon="6.11255">
        <ele>1004.329819287</ele>
        <time>2015-11-10T15:56:20Z</time>
      </trkpt>
      <trkpt lat="45.60805" lon="6.1126">
        <ele>1004.329819287</ele>
        <time>2015-11-10T15:56:25Z</time>
      </trkpt>
      <trkpt lat="45.60821" lon="6.11243">
        <ele>1002.553482354</ele>
        <time>2015-11-10T15:56:40Z</time>
      </trkpt>
      <trkpt lat="45.60819" lon="6.11235">
        <ele>1002.553482354</ele>
        <time>2015-11-10T15:56:44Z</time>
      </trkpt>
      <trkpt lat="45.60819" lon="6.11233">
        <ele>1002.553482354</ele>
        <time>2015-11-10T15:56:49Z</time>
      </trkpt>
      <trkpt lat="45.60821" lon="6.11222">
        <ele>1001.269347447</ele>
        <time>2015-11-10T15:56:54Z</time>
      </trkpt>
      <trkpt lat="45.60826" lon="6.11211">
        <ele>1000.43713489</ele>
        <time>2015-11-10T15:56:59Z</time>
      </trkpt>
      <trkpt lat="45.6083" lon="6.11204">
        <ele>1000.43713489</ele>
        <time>2015-11-10T15:57:04Z</time>
      </trkpt>
      <trkpt lat="45.60832" lon="6.11199">
        <ele>999.729979748</ele>
        <time>2015-11-10T15:57:09Z</time>
      </trkpt>
      <trkpt lat="45.60837" lon="6.11191">
        <ele>999.729979748</ele>
        <time>2015-11-10T15:57:14Z</time>
      </trkpt>
      <trkpt lat="45.60852" lon="6.11172">
        <ele>998.556419246</ele>
        <time>2015-11-10T15:57:29Z</time>
      </trkpt>
      <trkpt lat="45.60873" lon="6.11149">
        <ele>996.802062117</ele>
        <time>2015-11-10T15:57:44Z</time>
      </trkpt>
      <trkpt lat="45.60885" lon="6.11145">
        <ele>995.083101197</ele>
        <time>2015-11-10T15:57:49Z</time>
      </trkpt>
      <trkpt lat="45.60902" lon="6.11128">
        <ele>993.249816127</ele>
        <time>2015-11-10T15:57:59Z</time>
      </trkpt>
      <trkpt lat="45.60908" lon="6.11122">
        <ele>993.249816127</ele>
        <time>2015-11-10T15:58:04Z</time>
      </trkpt>
      <trkpt lat="45.6092" lon="6.11096">
        <ele>990.443264125</ele>
        <time>2015-11-10T15:58:14Z</time>
      </trkpt>
      <trkpt lat="45.60926" lon="6.11085">
        <ele>987.887906327</ele>
        <time>2015-11-10T15:58:19Z</time>
      </trkpt>
      <trkpt lat="45.60935" lon="6.11055">
        <ele>985.420572084</ele>
        <time>2015-11-10T15:58:29Z</time>
      </trkpt>
      <trkpt lat="45.60943" lon="6.11044">
        <ele>983.466298868</ele>
        <time>2015-11-10T15:58:34Z</time>
      </trkpt>
      <trkpt lat="45.60961" lon="6.11025">
        <ele>981.552820002</ele>
        <time>2015-11-10T15:58:44Z</time>
      </trkpt>
      <trkpt lat="45.60971" lon="6.11017">
        <ele>979.818920602</ele>
        <time>2015-11-10T15:58:49Z</time>
      </trkpt>
      <trkpt lat="45.6099" lon="6.10995">
        <ele>977.960386482</ele>
        <time>2015-11-10T15:59:00Z</time>
      </trkpt>
      <trkpt lat="45.61001" lon="6.10982">
        <ele>975.983960908</ele>
        <time>2015-11-10T15:59:04Z</time>
      </trkpt>
      <trkpt lat="45.61017" lon="6.10963">
        <ele>973.752152987</ele>
        <time>2015-11-10T15:59:14Z</time>
      </trkpt>
      <trkpt lat="45.61026" lon="6.10952">
        <ele>972.147112639</ele>
        <time>2015-11-10T15:59:20Z</time>
      </trkpt>
      <trkpt lat="45.61027" lon="6.10927">
        <ele>970.255142615</ele>
        <time>2015-11-10T15:59:34Z</time>
      </trkpt>
      <trkpt lat="45.6102" lon="6.10925">
        <ele>970.255142615</ele>
        <time>2015-11-10T15:59:39Z</time>
      </trkpt>
      <trkpt lat="45.61014" lon="6.10925">
        <ele>968.815746054</ele>
        <time>2015-11-10T15:59:44Z</time>
      </trkpt>
      <trkpt lat="45.61007" lon="6.10922">
        <ele>968.815746054</ele>
        <time>2015-11-10T15:59:49Z</time>
      </trkpt>
      <trkpt lat="45.60999" lon="6.10917">
        <ele>967.504110304</ele>
        <time>2015-11-10T15:59:59Z</time>
      </trkpt>
      <trkpt lat="45.60993" lon="6.10913">
        <ele>967.504110304</ele>
        <time>2015-11-10T16:00:04Z</time>
      </trkpt>
      <trkpt lat="45.60981" lon="6.10909">
        <ele>966.018985799</ele>
        <time>2015-11-10T16:00:14Z</time>
      </trkpt>
      <trkpt lat="45.60974" lon="6.10911">
        <ele>966.018985799</ele>
        <time>2015-11-10T16:00:19Z</time>
      </trkpt>
      <trkpt lat="45.60952" lon="6.1091">
        <ele>964.94647333</ele>
        <time>2015-11-10T16:00:30Z</time>
      </trkpt>
      <trkpt lat="45.60942" lon="6.10903">
        <ele>964.107978037</ele>
        <time>2015-11-10T16:00:34Z</time>
      </trkpt>
      <trkpt lat="45.60925" lon="6.10883">
        <ele>963.04922463</ele>
        <time>2015-11-10T16:00:44Z</time>
      </trkpt>
      <trkpt lat="45.60925" lon="6.10881">
        <ele>963.04922463</ele>
        <time>2015-11-10T16:00:49Z</time>
      </trkpt>
      <trkpt lat="45.60926" lon="6.1088">
        <ele>963.04922463</ele>
        <time>2015-11-10T16:00:54Z</time>
      </trkpt>
      <trkpt lat="45.60926" lon="6.1088">
        <ele>963.04922463</ele>
        <time>2015-11-10T16:00:59Z</time>
      </trkpt>
      <trkpt lat="45.60928" lon="6.10885">
        <ele>963.04922463</ele>
        <time>2015-11-10T16:01:04Z</time>
      </trkpt>
      <trkpt lat="45.6096" lon="6.10905">
        <ele>962.502902896</ele>
        <time>2015-11-10T16:01:19Z</time>
      </trkpt>
      <trkpt lat="45.60988" lon="6.10914">
        <ele>962.281869073</ele>
        <time>2015-11-10T16:01:35Z</time>
      </trkpt>
      <trkpt lat="45.61007" lon="6.10915">
        <ele>961.49136036</ele>
        <time>2015-11-10T16:01:40Z</time>
      </trkpt>
      <trkpt lat="45.6103" lon="6.10929">
        <ele>961.46571998</ele>
        <time>2015-11-10T16:01:49Z</time>
      </trkpt>
      <trkpt lat="45.61044" lon="6.10938">
        <ele>961.709910777</ele>
        <time>2015-11-10T16:01:54Z</time>
      </trkpt>
      <trkpt lat="45.61069" lon="6.10957">
        <ele>962.629302389</ele>
        <time>2015-11-10T16:02:04Z</time>
      </trkpt>
      <trkpt lat="45.61075" lon="6.10952">
        <ele>962.629302389</ele>
        <time>2015-11-10T16:02:09Z</time>
      </trkpt>
      <trkpt lat="45.61063" lon="6.10921">
        <ele>963.588956447</ele>
        <time>2015-11-10T16:02:20Z</time>
      </trkpt>
      <trkpt lat="45.61056" lon="6.10907">
        <ele>964.577065342</ele>
        <time>2015-11-10T16:02:24Z</time>
      </trkpt>
      <trkpt lat="45.61047" lon="6.10874">
        <ele>965.150445073</ele>
        <time>2015-11-10T16:02:34Z</time>
      </trkpt>
      <trkpt lat="45.61044" lon="6.10858">
        <ele>965.764480333</ele>
        <time>2015-11-10T16:02:39Z</time>
      </trkpt>
      <trkpt lat="45.61036" lon="6.1082">
        <ele>965.688290529</ele>
        <time>2015-11-10T16:02:54Z</time>
      </trkpt>
      <trkpt lat="45.61034" lon="6.10812">
        <ele>965.688290529</ele>
        <time>2015-11-10T16:02:59Z</time>
      </trkpt>
      <trkpt lat="45.61029" lon="6.10802">
        <ele>965.399707433</ele>
        <time>2015-11-10T16:03:04Z</time>
      </trkpt>
      <trkpt lat="45.61026" lon="6.10793">
        <ele>965.399707433</ele>
        <time>2015-11-10T16:03:09Z</time>
      </trkpt>
      <trkpt lat="45.61024" lon="6.10783">
        <ele>965.198145023</ele>
        <time>2015-11-10T16:03:14Z</time>
      </trkpt>
      <trkpt lat="45.61022" lon="6.10773">
        <ele>965.198145023</ele>
        <time>2015-11-10T16:03:19Z</time>
      </trkpt>
      <trkpt lat="45.61022" lon="6.10762">
        <ele>964.784532194</ele>
        <time>2015-11-10T16:03:24Z</time>
      </trkpt>
      <trkpt lat="45.61019" lon="6.10752">
        <ele>964.784532194</ele>
        <time>2015-11-10T16:03:29Z</time>
      </trkpt>
    </trkseg>
  </trk>
</gpx>